<?xml version="1.0" encoding="UTF-8" standalone="no" ?>
<gpx xmlns="http://www.topografix.com/GPX/1/1" xmlns:xsi="http://www.w3.org/2001/XMLSchema-instance" xsi:schemaLocation="http://www.topografix.com/GPX/1/1 http://www.topografix.com/GPX/1/1/gpx.xsd" version="1.1" creator="VisuGPX - https://www.visugpx.com">
  <metadata>
    <name>Champagnat Cyclisme sur route</name>
  </metadata>
  <trk>
    <name><![CDATA[Champagnat Cyclisme sur route_1]]></name>
    <trkseg>
      <trkpt lat="46.48272" lon="5.36839">
        <ele>264.4</ele>
        <time>2022-07-25T04:53:52Z</time>
      </trkpt>
      <trkpt lat="46.48264" lon="5.36826">
        <ele>263.2</ele>
        <time>2022-07-25T04:53:53Z</time>
      </trkpt>
      <trkpt lat="46.48254" lon="5.36815">
        <ele>262.8</ele>
        <time>2022-07-25T04:53:54Z</time>
      </trkpt>
      <trkpt lat="46.48244" lon="5.36806">
        <ele>261.8</ele>
        <time>2022-07-25T04:53:55Z</time>
      </trkpt>
      <trkpt lat="46.48222" lon="5.36788">
        <ele>260.2</ele>
        <time>2022-07-25T04:53:57Z</time>
      </trkpt>
      <trkpt lat="46.482" lon="5.36771">
        <ele>259</ele>
        <time>2022-07-25T04:53:59Z</time>
      </trkpt>
      <trkpt lat="46.48179" lon="5.36753">
        <ele>257.8</ele>
        <time>2022-07-25T04:54:01Z</time>
      </trkpt>
      <trkpt lat="46.48169" lon="5.36745">
        <ele>257</ele>
        <time>2022-07-25T04:54:02Z</time>
      </trkpt>
      <trkpt lat="46.48159" lon="5.36737">
        <ele>256.6</ele>
        <time>2022-07-25T04:54:03Z</time>
      </trkpt>
      <trkpt lat="46.4814" lon="5.36723">
        <ele>254.8</ele>
        <time>2022-07-25T04:54:05Z</time>
      </trkpt>
      <trkpt lat="46.48132" lon="5.36717">
        <ele>254.4</ele>
        <time>2022-07-25T04:54:06Z</time>
      </trkpt>
      <trkpt lat="46.48122" lon="5.3671">
        <ele>253.8</ele>
        <time>2022-07-25T04:54:07Z</time>
      </trkpt>
      <trkpt lat="46.48115" lon="5.36704">
        <ele>253.4</ele>
        <time>2022-07-25T04:54:08Z</time>
      </trkpt>
      <trkpt lat="46.48111" lon="5.36698">
        <ele>252.2</ele>
        <time>2022-07-25T04:54:09Z</time>
      </trkpt>
      <trkpt lat="46.48107" lon="5.36688">
        <ele>251.8</ele>
        <time>2022-07-25T04:54:10Z</time>
      </trkpt>
      <trkpt lat="46.48108" lon="5.3668">
        <ele>251.2</ele>
        <time>2022-07-25T04:54:11Z</time>
      </trkpt>
      <trkpt lat="46.48113" lon="5.36667">
        <ele>249.8</ele>
        <time>2022-07-25T04:54:13Z</time>
      </trkpt>
      <trkpt lat="46.48119" lon="5.36659">
        <ele>249.2</ele>
        <time>2022-07-25T04:54:14Z</time>
      </trkpt>
      <trkpt lat="46.48125" lon="5.36652">
        <ele>249</ele>
        <time>2022-07-25T04:54:15Z</time>
      </trkpt>
      <trkpt lat="46.48132" lon="5.36645">
        <ele>248.8</ele>
        <time>2022-07-25T04:54:16Z</time>
      </trkpt>
      <trkpt lat="46.48173" lon="5.36615">
        <ele>246.8</ele>
        <time>2022-07-25T04:54:21Z</time>
      </trkpt>
      <trkpt lat="46.48182" lon="5.36609">
        <ele>246.6</ele>
        <time>2022-07-25T04:54:22Z</time>
      </trkpt>
      <trkpt lat="46.4819" lon="5.36607">
        <ele>246.6</ele>
        <time>2022-07-25T04:54:23Z</time>
      </trkpt>
      <trkpt lat="46.48208" lon="5.36601">
        <ele>246.2</ele>
        <time>2022-07-25T04:54:25Z</time>
      </trkpt>
      <trkpt lat="46.4822" lon="5.36587">
        <ele>246</ele>
        <time>2022-07-25T04:54:27Z</time>
      </trkpt>
      <trkpt lat="46.48225" lon="5.36569">
        <ele>245.8</ele>
        <time>2022-07-25T04:54:29Z</time>
      </trkpt>
      <trkpt lat="46.48229" lon="5.3656">
        <ele>245.6</ele>
        <time>2022-07-25T04:54:30Z</time>
      </trkpt>
      <trkpt lat="46.48234" lon="5.36552">
        <ele>245.6</ele>
        <time>2022-07-25T04:54:31Z</time>
      </trkpt>
      <trkpt lat="46.48253" lon="5.36531">
        <ele>245.2</ele>
        <time>2022-07-25T04:54:34Z</time>
      </trkpt>
      <trkpt lat="46.48291" lon="5.36489">
        <ele>244.4</ele>
        <time>2022-07-25T04:54:40Z</time>
      </trkpt>
      <trkpt lat="46.48305" lon="5.36473">
        <ele>244</ele>
        <time>2022-07-25T04:54:42Z</time>
      </trkpt>
      <trkpt lat="46.48319" lon="5.36458">
        <ele>243.2</ele>
        <time>2022-07-25T04:54:44Z</time>
      </trkpt>
      <trkpt lat="46.48369" lon="5.36403">
        <ele>242</ele>
        <time>2022-07-25T04:54:51Z</time>
      </trkpt>
      <trkpt lat="46.48398" lon="5.36372">
        <ele>240.8</ele>
        <time>2022-07-25T04:54:55Z</time>
      </trkpt>
      <trkpt lat="46.48413" lon="5.36359">
        <ele>240</ele>
        <time>2022-07-25T04:54:57Z</time>
      </trkpt>
      <trkpt lat="46.48421" lon="5.36355">
        <ele>239.8</ele>
        <time>2022-07-25T04:54:58Z</time>
      </trkpt>
      <trkpt lat="46.48454" lon="5.36346">
        <ele>239.4</ele>
        <time>2022-07-25T04:55:02Z</time>
      </trkpt>
      <trkpt lat="46.48509" lon="5.36337">
        <ele>239.4</ele>
        <time>2022-07-25T04:55:09Z</time>
      </trkpt>
      <trkpt lat="46.48524" lon="5.36335">
        <ele>239.4</ele>
        <time>2022-07-25T04:55:11Z</time>
      </trkpt>
      <trkpt lat="46.48579" lon="5.36326">
        <ele>238.8</ele>
        <time>2022-07-25T04:55:18Z</time>
      </trkpt>
      <trkpt lat="46.48587" lon="5.36325">
        <ele>238.8</ele>
        <time>2022-07-25T04:55:19Z</time>
      </trkpt>
      <trkpt lat="46.48595" lon="5.36324">
        <ele>238.6</ele>
        <time>2022-07-25T04:55:20Z</time>
      </trkpt>
      <trkpt lat="46.48611" lon="5.36321">
        <ele>237.8</ele>
        <time>2022-07-25T04:55:22Z</time>
      </trkpt>
      <trkpt lat="46.48618" lon="5.36316">
        <ele>237.6</ele>
        <time>2022-07-25T04:55:23Z</time>
      </trkpt>
      <trkpt lat="46.48625" lon="5.36309">
        <ele>237.4</ele>
        <time>2022-07-25T04:55:24Z</time>
      </trkpt>
      <trkpt lat="46.48634" lon="5.36288">
        <ele>236.8</ele>
        <time>2022-07-25T04:55:26Z</time>
      </trkpt>
      <trkpt lat="46.48638" lon="5.36262">
        <ele>236.2</ele>
        <time>2022-07-25T04:55:28Z</time>
      </trkpt>
      <trkpt lat="46.4864" lon="5.36236">
        <ele>235.4</ele>
        <time>2022-07-25T04:55:30Z</time>
      </trkpt>
      <trkpt lat="46.48642" lon="5.36211">
        <ele>234.6</ele>
        <time>2022-07-25T04:55:32Z</time>
      </trkpt>
      <trkpt lat="46.48646" lon="5.36161">
        <ele>233.6</ele>
        <time>2022-07-25T04:55:36Z</time>
      </trkpt>
      <trkpt lat="46.48648" lon="5.36149">
        <ele>233.6</ele>
        <time>2022-07-25T04:55:37Z</time>
      </trkpt>
      <trkpt lat="46.48659" lon="5.36089">
        <ele>232.6</ele>
        <time>2022-07-25T04:55:42Z</time>
      </trkpt>
      <trkpt lat="46.48661" lon="5.36078">
        <ele>232.6</ele>
        <time>2022-07-25T04:55:43Z</time>
      </trkpt>
      <trkpt lat="46.48671" lon="5.36028">
        <ele>232.8</ele>
        <time>2022-07-25T04:55:48Z</time>
      </trkpt>
      <trkpt lat="46.48677" lon="5.35994">
        <ele>233</ele>
        <time>2022-07-25T04:55:52Z</time>
      </trkpt>
      <trkpt lat="46.48678" lon="5.35986">
        <ele>233.4</ele>
        <time>2022-07-25T04:55:53Z</time>
      </trkpt>
      <trkpt lat="46.48683" lon="5.35959">
        <ele>233.8</ele>
        <time>2022-07-25T04:55:56Z</time>
      </trkpt>
      <trkpt lat="46.48685" lon="5.35941">
        <ele>234</ele>
        <time>2022-07-25T04:55:58Z</time>
      </trkpt>
      <trkpt lat="46.4869" lon="5.35914">
        <ele>234.2</ele>
        <time>2022-07-25T04:56:01Z</time>
      </trkpt>
      <trkpt lat="46.48698" lon="5.35887">
        <ele>234.2</ele>
        <time>2022-07-25T04:56:04Z</time>
      </trkpt>
      <trkpt lat="46.48705" lon="5.35868">
        <ele>234.2</ele>
        <time>2022-07-25T04:56:06Z</time>
      </trkpt>
      <trkpt lat="46.48715" lon="5.35841">
        <ele>233.8</ele>
        <time>2022-07-25T04:56:09Z</time>
      </trkpt>
      <trkpt lat="46.48742" lon="5.35779">
        <ele>232.8</ele>
        <time>2022-07-25T04:56:16Z</time>
      </trkpt>
      <trkpt lat="46.48746" lon="5.3577">
        <ele>232.4</ele>
        <time>2022-07-25T04:56:17Z</time>
      </trkpt>
      <trkpt lat="46.48776" lon="5.35699">
        <ele>231.8</ele>
        <time>2022-07-25T04:56:25Z</time>
      </trkpt>
      <trkpt lat="46.48794" lon="5.35659">
        <ele>231.6</ele>
        <time>2022-07-25T04:56:30Z</time>
      </trkpt>
      <trkpt lat="46.48799" lon="5.35643">
        <ele>231.8</ele>
        <time>2022-07-25T04:56:32Z</time>
      </trkpt>
      <trkpt lat="46.48815" lon="5.35598">
        <ele>231.8</ele>
        <time>2022-07-25T04:56:38Z</time>
      </trkpt>
      <trkpt lat="46.48818" lon="5.35591">
        <ele>231.6</ele>
        <time>2022-07-25T04:56:39Z</time>
      </trkpt>
      <trkpt lat="46.48841" lon="5.35539">
        <ele>231.8</ele>
        <time>2022-07-25T04:56:46Z</time>
      </trkpt>
      <trkpt lat="46.48871" lon="5.35473">
        <ele>232</ele>
        <time>2022-07-25T04:56:54Z</time>
      </trkpt>
      <trkpt lat="46.48896" lon="5.35424">
        <ele>231.8</ele>
        <time>2022-07-25T04:57:00Z</time>
      </trkpt>
      <trkpt lat="46.48912" lon="5.3539">
        <ele>231.4</ele>
        <time>2022-07-25T04:57:04Z</time>
      </trkpt>
      <trkpt lat="46.48927" lon="5.35354">
        <ele>231</ele>
        <time>2022-07-25T04:57:08Z</time>
      </trkpt>
      <trkpt lat="46.48951" lon="5.35296">
        <ele>230.8</ele>
        <time>2022-07-25T04:57:15Z</time>
      </trkpt>
      <trkpt lat="46.48964" lon="5.35266">
        <ele>230.8</ele>
        <time>2022-07-25T04:57:19Z</time>
      </trkpt>
      <trkpt lat="46.48972" lon="5.35245">
        <ele>230.8</ele>
        <time>2022-07-25T04:57:22Z</time>
      </trkpt>
      <trkpt lat="46.4899" lon="5.35203">
        <ele>231.4</ele>
        <time>2022-07-25T04:57:28Z</time>
      </trkpt>
      <trkpt lat="46.48995" lon="5.3519">
        <ele>231.6</ele>
        <time>2022-07-25T04:57:30Z</time>
      </trkpt>
      <trkpt lat="46.49003" lon="5.35175">
        <ele>231.6</ele>
        <time>2022-07-25T04:57:32Z</time>
      </trkpt>
      <trkpt lat="46.49006" lon="5.35168">
        <ele>231.8</ele>
        <time>2022-07-25T04:57:33Z</time>
      </trkpt>
      <trkpt lat="46.4902" lon="5.3514">
        <ele>232.2</ele>
        <time>2022-07-25T04:57:37Z</time>
      </trkpt>
      <trkpt lat="46.49032" lon="5.35114">
        <ele>232.2</ele>
        <time>2022-07-25T04:57:40Z</time>
      </trkpt>
      <trkpt lat="46.49038" lon="5.35088">
        <ele>232.4</ele>
        <time>2022-07-25T04:57:43Z</time>
      </trkpt>
      <trkpt lat="46.4905" lon="5.35032">
        <ele>232.2</ele>
        <time>2022-07-25T04:57:49Z</time>
      </trkpt>
      <trkpt lat="46.49056" lon="5.35003">
        <ele>231.8</ele>
        <time>2022-07-25T04:57:52Z</time>
      </trkpt>
      <trkpt lat="46.49068" lon="5.34939">
        <ele>231</ele>
        <time>2022-07-25T04:57:58Z</time>
      </trkpt>
      <trkpt lat="46.49074" lon="5.34907">
        <ele>230.4</ele>
        <time>2022-07-25T04:58:01Z</time>
      </trkpt>
      <trkpt lat="46.49081" lon="5.3487">
        <ele>229.8</ele>
        <time>2022-07-25T04:58:04Z</time>
      </trkpt>
      <trkpt lat="46.49081" lon="5.34863">
        <ele>229.6</ele>
        <time>2022-07-25T04:58:05Z</time>
      </trkpt>
      <trkpt lat="46.49083" lon="5.34853">
        <ele>229.4</ele>
        <time>2022-07-25T04:58:06Z</time>
      </trkpt>
      <trkpt lat="46.4909" lon="5.34819">
        <ele>229</ele>
        <time>2022-07-25T04:58:09Z</time>
      </trkpt>
      <trkpt lat="46.49095" lon="5.34785">
        <ele>228.2</ele>
        <time>2022-07-25T04:58:12Z</time>
      </trkpt>
      <trkpt lat="46.49106" lon="5.34729">
        <ele>227.4</ele>
        <time>2022-07-25T04:58:17Z</time>
      </trkpt>
      <trkpt lat="46.49111" lon="5.34706">
        <ele>227.2</ele>
        <time>2022-07-25T04:58:19Z</time>
      </trkpt>
      <trkpt lat="46.49121" lon="5.34652">
        <ele>226.2</ele>
        <time>2022-07-25T04:58:24Z</time>
      </trkpt>
      <trkpt lat="46.49123" lon="5.34642">
        <ele>226.4</ele>
        <time>2022-07-25T04:58:25Z</time>
      </trkpt>
      <trkpt lat="46.49126" lon="5.34623">
        <ele>226</ele>
        <time>2022-07-25T04:58:27Z</time>
      </trkpt>
      <trkpt lat="46.49127" lon="5.34615">
        <ele>226.4</ele>
        <time>2022-07-25T04:58:28Z</time>
      </trkpt>
      <trkpt lat="46.49137" lon="5.34561">
        <ele>226.2</ele>
        <time>2022-07-25T04:58:34Z</time>
      </trkpt>
      <trkpt lat="46.49149" lon="5.34508">
        <ele>226.4</ele>
        <time>2022-07-25T04:58:39Z</time>
      </trkpt>
      <trkpt lat="46.4916" lon="5.34453">
        <ele>225.8</ele>
        <time>2022-07-25T04:58:44Z</time>
      </trkpt>
      <trkpt lat="46.49165" lon="5.34432">
        <ele>225.8</ele>
        <time>2022-07-25T04:58:46Z</time>
      </trkpt>
      <trkpt lat="46.49182" lon="5.34356">
        <ele>226</ele>
        <time>2022-07-25T04:58:54Z</time>
      </trkpt>
      <trkpt lat="46.49183" lon="5.34348">
        <ele>226.2</ele>
        <time>2022-07-25T04:58:55Z</time>
      </trkpt>
      <trkpt lat="46.49185" lon="5.34333">
        <ele>226.4</ele>
        <time>2022-07-25T04:58:57Z</time>
      </trkpt>
      <trkpt lat="46.49188" lon="5.34315">
        <ele>226.8</ele>
        <time>2022-07-25T04:58:59Z</time>
      </trkpt>
      <trkpt lat="46.49198" lon="5.34266">
        <ele>227</ele>
        <time>2022-07-25T04:59:04Z</time>
      </trkpt>
      <trkpt lat="46.4921" lon="5.34193">
        <ele>226.4</ele>
        <time>2022-07-25T04:59:11Z</time>
      </trkpt>
      <trkpt lat="46.49224" lon="5.34119">
        <ele>226</ele>
        <time>2022-07-25T04:59:19Z</time>
      </trkpt>
      <trkpt lat="46.49225" lon="5.34111">
        <ele>226.2</ele>
        <time>2022-07-25T04:59:20Z</time>
      </trkpt>
      <trkpt lat="46.4923" lon="5.34081">
        <ele>226.6</ele>
        <time>2022-07-25T04:59:24Z</time>
      </trkpt>
      <trkpt lat="46.49239" lon="5.34036">
        <ele>227.8</ele>
        <time>2022-07-25T04:59:30Z</time>
      </trkpt>
      <trkpt lat="46.49241" lon="5.34028">
        <ele>228</ele>
        <time>2022-07-25T04:59:31Z</time>
      </trkpt>
      <trkpt lat="46.49244" lon="5.3402">
        <ele>228.2</ele>
        <time>2022-07-25T04:59:32Z</time>
      </trkpt>
      <trkpt lat="46.49251" lon="5.33985">
        <ele>228.8</ele>
        <time>2022-07-25T04:59:36Z</time>
      </trkpt>
      <trkpt lat="46.49266" lon="5.33923">
        <ele>229</ele>
        <time>2022-07-25T04:59:43Z</time>
      </trkpt>
      <trkpt lat="46.49268" lon="5.33913">
        <ele>229</ele>
        <time>2022-07-25T04:59:44Z</time>
      </trkpt>
      <trkpt lat="46.49277" lon="5.33854">
        <ele>229</ele>
        <time>2022-07-25T04:59:51Z</time>
      </trkpt>
      <trkpt lat="46.49288" lon="5.33795">
        <ele>228.6</ele>
        <time>2022-07-25T04:59:58Z</time>
      </trkpt>
      <trkpt lat="46.49298" lon="5.33732">
        <ele>228.4</ele>
        <time>2022-07-25T05:00:05Z</time>
      </trkpt>
      <trkpt lat="46.49302" lon="5.33673">
        <ele>227.8</ele>
        <time>2022-07-25T05:00:11Z</time>
      </trkpt>
      <trkpt lat="46.49303" lon="5.33653">
        <ele>227.4</ele>
        <time>2022-07-25T05:00:13Z</time>
      </trkpt>
      <trkpt lat="46.49303" lon="5.33642">
        <ele>227.2</ele>
        <time>2022-07-25T05:00:14Z</time>
      </trkpt>
      <trkpt lat="46.49309" lon="5.33592">
        <ele>226.8</ele>
        <time>2022-07-25T05:00:19Z</time>
      </trkpt>
      <trkpt lat="46.49312" lon="5.33582">
        <ele>226.8</ele>
        <time>2022-07-25T05:00:20Z</time>
      </trkpt>
      <trkpt lat="46.49318" lon="5.33533">
        <ele>226.6</ele>
        <time>2022-07-25T05:00:25Z</time>
      </trkpt>
      <trkpt lat="46.49313" lon="5.33485">
        <ele>226.8</ele>
        <time>2022-07-25T05:00:30Z</time>
      </trkpt>
      <trkpt lat="46.49302" lon="5.33418">
        <ele>226.6</ele>
        <time>2022-07-25T05:00:37Z</time>
      </trkpt>
      <trkpt lat="46.49287" lon="5.33339">
        <ele>226.4</ele>
        <time>2022-07-25T05:00:45Z</time>
      </trkpt>
      <trkpt lat="46.49283" lon="5.33318">
        <ele>226.4</ele>
        <time>2022-07-25T05:00:47Z</time>
      </trkpt>
      <trkpt lat="46.49276" lon="5.33276">
        <ele>225.8</ele>
        <time>2022-07-25T05:00:51Z</time>
      </trkpt>
      <trkpt lat="46.49264" lon="5.33226">
        <ele>225</ele>
        <time>2022-07-25T05:00:56Z</time>
      </trkpt>
      <trkpt lat="46.49261" lon="5.33216">
        <ele>224.8</ele>
        <time>2022-07-25T05:00:57Z</time>
      </trkpt>
      <trkpt lat="46.49254" lon="5.33199">
        <ele>224.4</ele>
        <time>2022-07-25T05:00:59Z</time>
      </trkpt>
      <trkpt lat="46.49248" lon="5.3319">
        <ele>224.4</ele>
        <time>2022-07-25T05:01:00Z</time>
      </trkpt>
      <trkpt lat="46.49237" lon="5.33179">
        <ele>224</ele>
        <time>2022-07-25T05:01:02Z</time>
      </trkpt>
      <trkpt lat="46.49223" lon="5.33169">
        <ele>223.4</ele>
        <time>2022-07-25T05:01:04Z</time>
      </trkpt>
      <trkpt lat="46.49216" lon="5.33164">
        <ele>223.4</ele>
        <time>2022-07-25T05:01:05Z</time>
      </trkpt>
      <trkpt lat="46.49182" lon="5.33135">
        <ele>222.4</ele>
        <time>2022-07-25T05:01:10Z</time>
      </trkpt>
      <trkpt lat="46.49169" lon="5.33121">
        <ele>222</ele>
        <time>2022-07-25T05:01:12Z</time>
      </trkpt>
      <trkpt lat="46.49151" lon="5.33085">
        <ele>221.8</ele>
        <time>2022-07-25T05:01:16Z</time>
      </trkpt>
      <trkpt lat="46.49145" lon="5.33065">
        <ele>221.6</ele>
        <time>2022-07-25T05:01:18Z</time>
      </trkpt>
      <trkpt lat="46.49138" lon="5.33038">
        <ele>221.4</ele>
        <time>2022-07-25T05:01:21Z</time>
      </trkpt>
      <trkpt lat="46.49128" lon="5.32975">
        <ele>221.2</ele>
        <time>2022-07-25T05:01:27Z</time>
      </trkpt>
      <trkpt lat="46.49124" lon="5.3293">
        <ele>220.4</ele>
        <time>2022-07-25T05:01:31Z</time>
      </trkpt>
      <trkpt lat="46.49124" lon="5.32909">
        <ele>220.2</ele>
        <time>2022-07-25T05:01:33Z</time>
      </trkpt>
      <trkpt lat="46.49125" lon="5.32888">
        <ele>219.8</ele>
        <time>2022-07-25T05:01:35Z</time>
      </trkpt>
      <trkpt lat="46.49129" lon="5.32868">
        <ele>219.6</ele>
        <time>2022-07-25T05:01:37Z</time>
      </trkpt>
      <trkpt lat="46.49133" lon="5.32849">
        <ele>219.2</ele>
        <time>2022-07-25T05:01:39Z</time>
      </trkpt>
      <trkpt lat="46.49134" lon="5.32839">
        <ele>219.2</ele>
        <time>2022-07-25T05:01:40Z</time>
      </trkpt>
      <trkpt lat="46.49138" lon="5.32819">
        <ele>219.2</ele>
        <time>2022-07-25T05:01:42Z</time>
      </trkpt>
      <trkpt lat="46.4914" lon="5.32809">
        <ele>219.4</ele>
        <time>2022-07-25T05:01:43Z</time>
      </trkpt>
      <trkpt lat="46.49139" lon="5.32782">
        <ele>219.4</ele>
        <time>2022-07-25T05:01:46Z</time>
      </trkpt>
      <trkpt lat="46.49126" lon="5.32719">
        <ele>220</ele>
        <time>2022-07-25T05:01:53Z</time>
      </trkpt>
      <trkpt lat="46.49118" lon="5.32704">
        <ele>220</ele>
        <time>2022-07-25T05:01:55Z</time>
      </trkpt>
      <trkpt lat="46.49113" lon="5.32698">
        <ele>220</ele>
        <time>2022-07-25T05:01:56Z</time>
      </trkpt>
      <trkpt lat="46.49107" lon="5.32694">
        <ele>220</ele>
        <time>2022-07-25T05:01:57Z</time>
      </trkpt>
      <trkpt lat="46.49092" lon="5.32692">
        <ele>219.8</ele>
        <time>2022-07-25T05:01:59Z</time>
      </trkpt>
      <trkpt lat="46.49045" lon="5.327">
        <ele>218.8</ele>
        <time>2022-07-25T05:02:05Z</time>
      </trkpt>
      <trkpt lat="46.49029" lon="5.32704">
        <ele>218.2</ele>
        <time>2022-07-25T05:02:07Z</time>
      </trkpt>
      <trkpt lat="46.49011" lon="5.32707">
        <ele>217</ele>
        <time>2022-07-25T05:02:09Z</time>
      </trkpt>
      <trkpt lat="46.48993" lon="5.32708">
        <ele>216</ele>
        <time>2022-07-25T05:02:11Z</time>
      </trkpt>
      <trkpt lat="46.48983" lon="5.32708">
        <ele>215.8</ele>
        <time>2022-07-25T05:02:12Z</time>
      </trkpt>
      <trkpt lat="46.48974" lon="5.32707">
        <ele>215.4</ele>
        <time>2022-07-25T05:02:13Z</time>
      </trkpt>
      <trkpt lat="46.48955" lon="5.32699">
        <ele>215</ele>
        <time>2022-07-25T05:02:15Z</time>
      </trkpt>
      <trkpt lat="46.48947" lon="5.32692">
        <ele>214.2</ele>
        <time>2022-07-25T05:02:16Z</time>
      </trkpt>
      <trkpt lat="46.48939" lon="5.32683">
        <ele>214</ele>
        <time>2022-07-25T05:02:17Z</time>
      </trkpt>
      <trkpt lat="46.48931" lon="5.32672">
        <ele>213.6</ele>
        <time>2022-07-25T05:02:18Z</time>
      </trkpt>
      <trkpt lat="46.48924" lon="5.32661">
        <ele>213.2</ele>
        <time>2022-07-25T05:02:19Z</time>
      </trkpt>
      <trkpt lat="46.48917" lon="5.32648">
        <ele>212.6</ele>
        <time>2022-07-25T05:02:20Z</time>
      </trkpt>
      <trkpt lat="46.48913" lon="5.32633">
        <ele>212.4</ele>
        <time>2022-07-25T05:02:21Z</time>
      </trkpt>
      <trkpt lat="46.48911" lon="5.32619">
        <ele>211.6</ele>
        <time>2022-07-25T05:02:22Z</time>
      </trkpt>
      <trkpt lat="46.48915" lon="5.32604">
        <ele>210.6</ele>
        <time>2022-07-25T05:02:23Z</time>
      </trkpt>
      <trkpt lat="46.48922" lon="5.32591">
        <ele>210.2</ele>
        <time>2022-07-25T05:02:24Z</time>
      </trkpt>
      <trkpt lat="46.48931" lon="5.32579">
        <ele>209.2</ele>
        <time>2022-07-25T05:02:25Z</time>
      </trkpt>
      <trkpt lat="46.4894" lon="5.32567">
        <ele>208.8</ele>
        <time>2022-07-25T05:02:26Z</time>
      </trkpt>
      <trkpt lat="46.48953" lon="5.32536">
        <ele>207.4</ele>
        <time>2022-07-25T05:02:28Z</time>
      </trkpt>
      <trkpt lat="46.48957" lon="5.32519">
        <ele>206.8</ele>
        <time>2022-07-25T05:02:29Z</time>
      </trkpt>
      <trkpt lat="46.48954" lon="5.3249">
        <ele>205.8</ele>
        <time>2022-07-25T05:02:31Z</time>
      </trkpt>
      <trkpt lat="46.48942" lon="5.32455">
        <ele>204.4</ele>
        <time>2022-07-25T05:02:34Z</time>
      </trkpt>
      <trkpt lat="46.48938" lon="5.32444">
        <ele>204.2</ele>
        <time>2022-07-25T05:02:35Z</time>
      </trkpt>
      <trkpt lat="46.48922" lon="5.32389">
        <ele>203.8</ele>
        <time>2022-07-25T05:02:40Z</time>
      </trkpt>
      <trkpt lat="46.48908" lon="5.32346">
        <ele>204</ele>
        <time>2022-07-25T05:02:44Z</time>
      </trkpt>
      <trkpt lat="46.48904" lon="5.32337">
        <ele>204.2</ele>
        <time>2022-07-25T05:02:45Z</time>
      </trkpt>
      <trkpt lat="46.48883" lon="5.32302">
        <ele>204.6</ele>
        <time>2022-07-25T05:02:50Z</time>
      </trkpt>
      <trkpt lat="46.48872" lon="5.32286">
        <ele>205.6</ele>
        <time>2022-07-25T05:02:53Z</time>
      </trkpt>
      <trkpt lat="46.48862" lon="5.32272">
        <ele>205.8</ele>
        <time>2022-07-25T05:02:56Z</time>
      </trkpt>
      <trkpt lat="46.48853" lon="5.32259">
        <ele>207</ele>
        <time>2022-07-25T05:02:59Z</time>
      </trkpt>
      <trkpt lat="46.48845" lon="5.32248">
        <ele>208.4</ele>
        <time>2022-07-25T05:03:02Z</time>
      </trkpt>
      <trkpt lat="46.4884" lon="5.32239">
        <ele>209</ele>
        <time>2022-07-25T05:03:04Z</time>
      </trkpt>
      <trkpt lat="46.48835" lon="5.32229">
        <ele>209.4</ele>
        <time>2022-07-25T05:03:06Z</time>
      </trkpt>
      <trkpt lat="46.48832" lon="5.32216">
        <ele>209.6</ele>
        <time>2022-07-25T05:03:08Z</time>
      </trkpt>
      <trkpt lat="46.48831" lon="5.32209">
        <ele>209.8</ele>
        <time>2022-07-25T05:03:09Z</time>
      </trkpt>
      <trkpt lat="46.48824" lon="5.32149">
        <ele>209.8</ele>
        <time>2022-07-25T05:03:16Z</time>
      </trkpt>
      <trkpt lat="46.4883" lon="5.32099">
        <ele>209</ele>
        <time>2022-07-25T05:03:21Z</time>
      </trkpt>
      <trkpt lat="46.48834" lon="5.32079">
        <ele>208</ele>
        <time>2022-07-25T05:03:23Z</time>
      </trkpt>
      <trkpt lat="46.48846" lon="5.32009">
        <ele>207.2</ele>
        <time>2022-07-25T05:03:30Z</time>
      </trkpt>
      <trkpt lat="46.48847" lon="5.31988">
        <ele>207</ele>
        <time>2022-07-25T05:03:32Z</time>
      </trkpt>
      <trkpt lat="46.48847" lon="5.31957">
        <ele>206.8</ele>
        <time>2022-07-25T05:03:35Z</time>
      </trkpt>
      <trkpt lat="46.48842" lon="5.31894">
        <ele>206.4</ele>
        <time>2022-07-25T05:03:41Z</time>
      </trkpt>
      <trkpt lat="46.4884" lon="5.31883">
        <ele>206.4</ele>
        <time>2022-07-25T05:03:42Z</time>
      </trkpt>
      <trkpt lat="46.48833" lon="5.31865">
        <ele>205.8</ele>
        <time>2022-07-25T05:03:44Z</time>
      </trkpt>
      <trkpt lat="46.48821" lon="5.31852">
        <ele>205</ele>
        <time>2022-07-25T05:03:46Z</time>
      </trkpt>
      <trkpt lat="46.48814" lon="5.31849">
        <ele>204.8</ele>
        <time>2022-07-25T05:03:47Z</time>
      </trkpt>
      <trkpt lat="46.48807" lon="5.31846">
        <ele>204.6</ele>
        <time>2022-07-25T05:03:48Z</time>
      </trkpt>
      <trkpt lat="46.48794" lon="5.31838">
        <ele>204.4</ele>
        <time>2022-07-25T05:03:50Z</time>
      </trkpt>
      <trkpt lat="46.48788" lon="5.31831">
        <ele>204.4</ele>
        <time>2022-07-25T05:03:51Z</time>
      </trkpt>
      <trkpt lat="46.48784" lon="5.31823">
        <ele>204.4</ele>
        <time>2022-07-25T05:03:52Z</time>
      </trkpt>
      <trkpt lat="46.48779" lon="5.31805">
        <ele>204.2</ele>
        <time>2022-07-25T05:03:54Z</time>
      </trkpt>
      <trkpt lat="46.48777" lon="5.31748">
        <ele>204.4</ele>
        <time>2022-07-25T05:04:00Z</time>
      </trkpt>
      <trkpt lat="46.48775" lon="5.3173">
        <ele>204.4</ele>
        <time>2022-07-25T05:04:02Z</time>
      </trkpt>
      <trkpt lat="46.48769" lon="5.31714">
        <ele>204.6</ele>
        <time>2022-07-25T05:04:04Z</time>
      </trkpt>
      <trkpt lat="46.48763" lon="5.31701">
        <ele>204.6</ele>
        <time>2022-07-25T05:04:06Z</time>
      </trkpt>
      <trkpt lat="46.48755" lon="5.3169">
        <ele>204.8</ele>
        <time>2022-07-25T05:04:08Z</time>
      </trkpt>
      <trkpt lat="46.48733" lon="5.31662">
        <ele>205.4</ele>
        <time>2022-07-25T05:04:13Z</time>
      </trkpt>
      <trkpt lat="46.48725" lon="5.31651">
        <ele>205.4</ele>
        <time>2022-07-25T05:04:15Z</time>
      </trkpt>
      <trkpt lat="46.48717" lon="5.3164">
        <ele>205.6</ele>
        <time>2022-07-25T05:04:17Z</time>
      </trkpt>
      <trkpt lat="46.48704" lon="5.31625">
        <ele>205.8</ele>
        <time>2022-07-25T05:04:20Z</time>
      </trkpt>
      <trkpt lat="46.48669" lon="5.31581">
        <ele>205.6</ele>
        <time>2022-07-25T05:04:27Z</time>
      </trkpt>
      <trkpt lat="46.48659" lon="5.31569">
        <ele>205.6</ele>
        <time>2022-07-25T05:04:29Z</time>
      </trkpt>
      <trkpt lat="46.48639" lon="5.31543">
        <ele>205.6</ele>
        <time>2022-07-25T05:04:33Z</time>
      </trkpt>
      <trkpt lat="46.48615" lon="5.31511">
        <ele>205.8</ele>
        <time>2022-07-25T05:04:38Z</time>
      </trkpt>
      <trkpt lat="46.48612" lon="5.31504">
        <ele>205.6</ele>
        <time>2022-07-25T05:04:39Z</time>
      </trkpt>
      <trkpt lat="46.48608" lon="5.31489">
        <ele>205.6</ele>
        <time>2022-07-25T05:04:41Z</time>
      </trkpt>
      <trkpt lat="46.48607" lon="5.31466">
        <ele>205.4</ele>
        <time>2022-07-25T05:04:43Z</time>
      </trkpt>
      <trkpt lat="46.48607" lon="5.31446">
        <ele>205.2</ele>
        <time>2022-07-25T05:04:45Z</time>
      </trkpt>
      <trkpt lat="46.48605" lon="5.31428">
        <ele>205</ele>
        <time>2022-07-25T05:04:47Z</time>
      </trkpt>
      <trkpt lat="46.48601" lon="5.31413">
        <ele>205</ele>
        <time>2022-07-25T05:04:49Z</time>
      </trkpt>
      <trkpt lat="46.48595" lon="5.31401">
        <ele>205.2</ele>
        <time>2022-07-25T05:04:51Z</time>
      </trkpt>
      <trkpt lat="46.48577" lon="5.3138">
        <ele>206.2</ele>
        <time>2022-07-25T05:04:56Z</time>
      </trkpt>
      <trkpt lat="46.4857" lon="5.31372">
        <ele>206.4</ele>
        <time>2022-07-25T05:04:58Z</time>
      </trkpt>
      <trkpt lat="46.48564" lon="5.31363">
        <ele>207</ele>
        <time>2022-07-25T05:05:00Z</time>
      </trkpt>
      <trkpt lat="46.4856" lon="5.31353">
        <ele>207.8</ele>
        <time>2022-07-25T05:05:02Z</time>
      </trkpt>
      <trkpt lat="46.48556" lon="5.31333">
        <ele>208.8</ele>
        <time>2022-07-25T05:05:06Z</time>
      </trkpt>
      <trkpt lat="46.48556" lon="5.31328">
        <ele>209</ele>
        <time>2022-07-25T05:05:07Z</time>
      </trkpt>
      <trkpt lat="46.48556" lon="5.31307">
        <ele>210</ele>
        <time>2022-07-25T05:05:11Z</time>
      </trkpt>
      <trkpt lat="46.48555" lon="5.31301">
        <ele>210.2</ele>
        <time>2022-07-25T05:05:12Z</time>
      </trkpt>
      <trkpt lat="46.48551" lon="5.31259">
        <ele>211.2</ele>
        <time>2022-07-25T05:05:18Z</time>
      </trkpt>
      <trkpt lat="46.48553" lon="5.31245">
        <ele>211.4</ele>
        <time>2022-07-25T05:05:20Z</time>
      </trkpt>
      <trkpt lat="46.48556" lon="5.31232">
        <ele>211.6</ele>
        <time>2022-07-25T05:05:22Z</time>
      </trkpt>
      <trkpt lat="46.48563" lon="5.31215">
        <ele>211.8</ele>
        <time>2022-07-25T05:05:25Z</time>
      </trkpt>
      <trkpt lat="46.48573" lon="5.31193">
        <ele>212.6</ele>
        <time>2022-07-25T05:05:29Z</time>
      </trkpt>
      <trkpt lat="46.48591" lon="5.31155">
        <ele>213.6</ele>
        <time>2022-07-25T05:05:36Z</time>
      </trkpt>
      <trkpt lat="46.48615" lon="5.31106">
        <ele>214.6</ele>
        <time>2022-07-25T05:05:45Z</time>
      </trkpt>
      <trkpt lat="46.48617" lon="5.311">
        <ele>214.8</ele>
        <time>2022-07-25T05:05:46Z</time>
      </trkpt>
      <trkpt lat="46.48632" lon="5.31068">
        <ele>215.8</ele>
        <time>2022-07-25T05:05:52Z</time>
      </trkpt>
      <trkpt lat="46.48642" lon="5.31047">
        <ele>216.2</ele>
        <time>2022-07-25T05:05:56Z</time>
      </trkpt>
      <trkpt lat="46.48644" lon="5.31041">
        <ele>216.4</ele>
        <time>2022-07-25T05:05:57Z</time>
      </trkpt>
      <trkpt lat="46.48657" lon="5.31015">
        <ele>216.8</ele>
        <time>2022-07-25T05:06:02Z</time>
      </trkpt>
      <trkpt lat="46.48676" lon="5.30977">
        <ele>217.6</ele>
        <time>2022-07-25T05:06:09Z</time>
      </trkpt>
      <trkpt lat="46.48689" lon="5.3095">
        <ele>217.8</ele>
        <time>2022-07-25T05:06:13Z</time>
      </trkpt>
      <trkpt lat="46.48696" lon="5.30936">
        <ele>218</ele>
        <time>2022-07-25T05:06:15Z</time>
      </trkpt>
      <trkpt lat="46.48704" lon="5.30923">
        <ele>218</ele>
        <time>2022-07-25T05:06:17Z</time>
      </trkpt>
      <trkpt lat="46.4872" lon="5.30901">
        <ele>217.2</ele>
        <time>2022-07-25T05:06:20Z</time>
      </trkpt>
      <trkpt lat="46.48722" lon="5.30892">
        <ele>216.8</ele>
        <time>2022-07-25T05:06:21Z</time>
      </trkpt>
      <trkpt lat="46.48721" lon="5.30881">
        <ele>216.6</ele>
        <time>2022-07-25T05:06:22Z</time>
      </trkpt>
      <trkpt lat="46.48716" lon="5.3086">
        <ele>215.6</ele>
        <time>2022-07-25T05:06:24Z</time>
      </trkpt>
      <trkpt lat="46.48712" lon="5.30852">
        <ele>215.2</ele>
        <time>2022-07-25T05:06:25Z</time>
      </trkpt>
      <trkpt lat="46.48707" lon="5.30845">
        <ele>215.2</ele>
        <time>2022-07-25T05:06:26Z</time>
      </trkpt>
      <trkpt lat="46.48694" lon="5.30834">
        <ele>215</ele>
        <time>2022-07-25T05:06:28Z</time>
      </trkpt>
      <trkpt lat="46.48672" lon="5.30822">
        <ele>214.6</ele>
        <time>2022-07-25T05:06:31Z</time>
      </trkpt>
      <trkpt lat="46.48649" lon="5.30809">
        <ele>213.6</ele>
        <time>2022-07-25T05:06:34Z</time>
      </trkpt>
      <trkpt lat="46.48634" lon="5.308">
        <ele>213.4</ele>
        <time>2022-07-25T05:06:36Z</time>
      </trkpt>
      <trkpt lat="46.48598" lon="5.30773">
        <ele>212.6</ele>
        <time>2022-07-25T05:06:41Z</time>
      </trkpt>
      <trkpt lat="46.4857" lon="5.30749">
        <ele>213</ele>
        <time>2022-07-25T05:06:46Z</time>
      </trkpt>
      <trkpt lat="46.48566" lon="5.30744">
        <ele>213.2</ele>
        <time>2022-07-25T05:06:47Z</time>
      </trkpt>
      <trkpt lat="46.48558" lon="5.30732">
        <ele>213.4</ele>
        <time>2022-07-25T05:06:49Z</time>
      </trkpt>
      <trkpt lat="46.48554" lon="5.30724">
        <ele>213.6</ele>
        <time>2022-07-25T05:06:50Z</time>
      </trkpt>
      <trkpt lat="46.48552" lon="5.30717">
        <ele>213.8</ele>
        <time>2022-07-25T05:06:51Z</time>
      </trkpt>
      <trkpt lat="46.48544" lon="5.30687">
        <ele>214.4</ele>
        <time>2022-07-25T05:06:55Z</time>
      </trkpt>
      <trkpt lat="46.48543" lon="5.3068">
        <ele>214.4</ele>
        <time>2022-07-25T05:06:56Z</time>
      </trkpt>
      <trkpt lat="46.48543" lon="5.30668">
        <ele>214.6</ele>
        <time>2022-07-25T05:06:58Z</time>
      </trkpt>
      <trkpt lat="46.48545" lon="5.30636">
        <ele>215.4</ele>
        <time>2022-07-25T05:07:03Z</time>
      </trkpt>
      <trkpt lat="46.48546" lon="5.30617">
        <ele>216.6</ele>
        <time>2022-07-25T05:07:06Z</time>
      </trkpt>
      <trkpt lat="46.48548" lon="5.30599">
        <ele>217.2</ele>
        <time>2022-07-25T05:07:09Z</time>
      </trkpt>
      <trkpt lat="46.48549" lon="5.30587">
        <ele>217.6</ele>
        <time>2022-07-25T05:07:11Z</time>
      </trkpt>
      <trkpt lat="46.48549" lon="5.30581">
        <ele>217.8</ele>
        <time>2022-07-25T05:07:12Z</time>
      </trkpt>
      <trkpt lat="46.48552" lon="5.30549">
        <ele>218.6</ele>
        <time>2022-07-25T05:07:17Z</time>
      </trkpt>
      <trkpt lat="46.48554" lon="5.30528">
        <ele>219.2</ele>
        <time>2022-07-25T05:07:20Z</time>
      </trkpt>
      <trkpt lat="46.48558" lon="5.3051">
        <ele>219.4</ele>
        <time>2022-07-25T05:07:23Z</time>
      </trkpt>
      <trkpt lat="46.48557" lon="5.30495">
        <ele>219.6</ele>
        <time>2022-07-25T05:07:26Z</time>
      </trkpt>
      <trkpt lat="46.48555" lon="5.3049">
        <ele>219.8</ele>
        <time>2022-07-25T05:07:27Z</time>
      </trkpt>
      <trkpt lat="46.48548" lon="5.30489">
        <ele>219.8</ele>
        <time>2022-07-25T05:07:29Z</time>
      </trkpt>
      <trkpt lat="46.48529" lon="5.30501">
        <ele>220.2</ele>
        <time>2022-07-25T05:07:33Z</time>
      </trkpt>
      <trkpt lat="46.48484" lon="5.30538">
        <ele>220.6</ele>
        <time>2022-07-25T05:07:42Z</time>
      </trkpt>
      <trkpt lat="46.48442" lon="5.3058">
        <ele>220.4</ele>
        <time>2022-07-25T05:07:50Z</time>
      </trkpt>
      <trkpt lat="46.48407" lon="5.30612">
        <ele>220</ele>
        <time>2022-07-25T05:07:56Z</time>
      </trkpt>
      <trkpt lat="46.48401" lon="5.30618">
        <ele>220</ele>
        <time>2022-07-25T05:07:57Z</time>
      </trkpt>
      <trkpt lat="46.48351" lon="5.30667">
        <ele>219.8</ele>
        <time>2022-07-25T05:08:05Z</time>
      </trkpt>
      <trkpt lat="46.48331" lon="5.30684">
        <ele>219.4</ele>
        <time>2022-07-25T05:08:08Z</time>
      </trkpt>
      <trkpt lat="46.48316" lon="5.30691">
        <ele>219</ele>
        <time>2022-07-25T05:08:10Z</time>
      </trkpt>
      <trkpt lat="46.48308" lon="5.30693">
        <ele>219</ele>
        <time>2022-07-25T05:08:11Z</time>
      </trkpt>
      <trkpt lat="46.48292" lon="5.30695">
        <ele>218.6</ele>
        <time>2022-07-25T05:08:13Z</time>
      </trkpt>
      <trkpt lat="46.48283" lon="5.30694">
        <ele>218.4</ele>
        <time>2022-07-25T05:08:14Z</time>
      </trkpt>
      <trkpt lat="46.48246" lon="5.30685">
        <ele>218.4</ele>
        <time>2022-07-25T05:08:19Z</time>
      </trkpt>
      <trkpt lat="46.48226" lon="5.30681">
        <ele>218.6</ele>
        <time>2022-07-25T05:08:22Z</time>
      </trkpt>
      <trkpt lat="46.48213" lon="5.30681">
        <ele>218.6</ele>
        <time>2022-07-25T05:08:24Z</time>
      </trkpt>
      <trkpt lat="46.48189" lon="5.30689">
        <ele>219.8</ele>
        <time>2022-07-25T05:08:28Z</time>
      </trkpt>
      <trkpt lat="46.48183" lon="5.30692">
        <ele>219.8</ele>
        <time>2022-07-25T05:08:29Z</time>
      </trkpt>
      <trkpt lat="46.48156" lon="5.30708">
        <ele>221</ele>
        <time>2022-07-25T05:08:34Z</time>
      </trkpt>
      <trkpt lat="46.4814" lon="5.30717">
        <ele>221.4</ele>
        <time>2022-07-25T05:08:37Z</time>
      </trkpt>
      <trkpt lat="46.48103" lon="5.30739">
        <ele>222</ele>
        <time>2022-07-25T05:08:44Z</time>
      </trkpt>
      <trkpt lat="46.48092" lon="5.30744">
        <ele>222.2</ele>
        <time>2022-07-25T05:08:46Z</time>
      </trkpt>
      <trkpt lat="46.48047" lon="5.30769">
        <ele>222.6</ele>
        <time>2022-07-25T05:08:54Z</time>
      </trkpt>
      <trkpt lat="46.48001" lon="5.30795">
        <ele>222.2</ele>
        <time>2022-07-25T05:09:01Z</time>
      </trkpt>
      <trkpt lat="46.47957" lon="5.30815">
        <ele>221</ele>
        <time>2022-07-25T05:09:07Z</time>
      </trkpt>
      <trkpt lat="46.4795" lon="5.30816">
        <ele>220.8</ele>
        <time>2022-07-25T05:09:08Z</time>
      </trkpt>
      <trkpt lat="46.47923" lon="5.30815">
        <ele>220.6</ele>
        <time>2022-07-25T05:09:12Z</time>
      </trkpt>
      <trkpt lat="46.47918" lon="5.30813">
        <ele>220.6</ele>
        <time>2022-07-25T05:09:13Z</time>
      </trkpt>
      <trkpt lat="46.47882" lon="5.30803">
        <ele>221.8</ele>
        <time>2022-07-25T05:09:20Z</time>
      </trkpt>
      <trkpt lat="46.47878" lon="5.30801">
        <ele>222</ele>
        <time>2022-07-25T05:09:21Z</time>
      </trkpt>
      <trkpt lat="46.47859" lon="5.30797">
        <ele>223</ele>
        <time>2022-07-25T05:09:24Z</time>
      </trkpt>
      <trkpt lat="46.47851" lon="5.30794">
        <ele>223.8</ele>
        <time>2022-07-25T05:09:27Z</time>
      </trkpt>
      <trkpt lat="46.47846" lon="5.30791">
        <ele>224.4</ele>
        <time>2022-07-25T05:09:28Z</time>
      </trkpt>
      <trkpt lat="46.47842" lon="5.30787">
        <ele>224.4</ele>
        <time>2022-07-25T05:09:29Z</time>
      </trkpt>
      <trkpt lat="46.47834" lon="5.30777">
        <ele>225</ele>
        <time>2022-07-25T05:09:31Z</time>
      </trkpt>
      <trkpt lat="46.47829" lon="5.30774">
        <ele>225.2</ele>
        <time>2022-07-25T05:09:32Z</time>
      </trkpt>
      <trkpt lat="46.47823" lon="5.30771">
        <ele>225.2</ele>
        <time>2022-07-25T05:09:33Z</time>
      </trkpt>
      <trkpt lat="46.4781" lon="5.30769">
        <ele>225.4</ele>
        <time>2022-07-25T05:09:35Z</time>
      </trkpt>
      <trkpt lat="46.47803" lon="5.30769">
        <ele>225.2</ele>
        <time>2022-07-25T05:09:36Z</time>
      </trkpt>
      <trkpt lat="46.47772" lon="5.30772">
        <ele>224.2</ele>
        <time>2022-07-25T05:09:40Z</time>
      </trkpt>
      <trkpt lat="46.47758" lon="5.30774">
        <ele>224</ele>
        <time>2022-07-25T05:09:42Z</time>
      </trkpt>
      <trkpt lat="46.47707" lon="5.30782">
        <ele>223.6</ele>
        <time>2022-07-25T05:09:50Z</time>
      </trkpt>
      <trkpt lat="46.47654" lon="5.30791">
        <ele>224.2</ele>
        <time>2022-07-25T05:09:59Z</time>
      </trkpt>
      <trkpt lat="46.476" lon="5.30799">
        <ele>224.6</ele>
        <time>2022-07-25T05:10:08Z</time>
      </trkpt>
      <trkpt lat="46.47575" lon="5.30802">
        <ele>224.6</ele>
        <time>2022-07-25T05:10:12Z</time>
      </trkpt>
      <trkpt lat="46.47517" lon="5.30815">
        <ele>224.2</ele>
        <time>2022-07-25T05:10:21Z</time>
      </trkpt>
      <trkpt lat="46.4751" lon="5.30818">
        <ele>224.2</ele>
        <time>2022-07-25T05:10:22Z</time>
      </trkpt>
      <trkpt lat="46.47462" lon="5.30843">
        <ele>223.6</ele>
        <time>2022-07-25T05:10:29Z</time>
      </trkpt>
      <trkpt lat="46.47428" lon="5.30861">
        <ele>223.2</ele>
        <time>2022-07-25T05:10:34Z</time>
      </trkpt>
      <trkpt lat="46.47382" lon="5.30884">
        <ele>223</ele>
        <time>2022-07-25T05:10:41Z</time>
      </trkpt>
      <trkpt lat="46.47344" lon="5.30894">
        <ele>223.2</ele>
        <time>2022-07-25T05:10:46Z</time>
      </trkpt>
      <trkpt lat="46.47344" lon="5.30894">
        <ele>223.2</ele>
        <time>2022-07-25T05:10:47Z</time>
      </trkpt>
      <trkpt lat="46.47338" lon="5.30891">
        <ele>223.2</ele>
        <time>2022-07-25T05:10:48Z</time>
      </trkpt>
      <trkpt lat="46.47329" lon="5.30879">
        <ele>223.4</ele>
        <time>2022-07-25T05:10:50Z</time>
      </trkpt>
      <trkpt lat="46.47325" lon="5.30851">
        <ele>223.4</ele>
        <time>2022-07-25T05:10:52Z</time>
      </trkpt>
      <trkpt lat="46.47324" lon="5.30841">
        <ele>223.4</ele>
        <time>2022-07-25T05:10:53Z</time>
      </trkpt>
      <trkpt lat="46.47319" lon="5.30777">
        <ele>222.6</ele>
        <time>2022-07-25T05:11:00Z</time>
      </trkpt>
      <trkpt lat="46.47314" lon="5.30686">
        <ele>222.4</ele>
        <time>2022-07-25T05:11:08Z</time>
      </trkpt>
      <trkpt lat="46.4731" lon="5.3065">
        <ele>223.4</ele>
        <time>2022-07-25T05:11:12Z</time>
      </trkpt>
      <trkpt lat="46.47307" lon="5.30642">
        <ele>223.4</ele>
        <time>2022-07-25T05:11:13Z</time>
      </trkpt>
      <trkpt lat="46.47304" lon="5.30635">
        <ele>223.4</ele>
        <time>2022-07-25T05:11:14Z</time>
      </trkpt>
      <trkpt lat="46.4729" lon="5.30617">
        <ele>223.6</ele>
        <time>2022-07-25T05:11:17Z</time>
      </trkpt>
      <trkpt lat="46.47262" lon="5.30582">
        <ele>223.6</ele>
        <time>2022-07-25T05:11:23Z</time>
      </trkpt>
      <trkpt lat="46.47252" lon="5.30572">
        <ele>223.6</ele>
        <time>2022-07-25T05:11:25Z</time>
      </trkpt>
      <trkpt lat="46.47234" lon="5.3056">
        <ele>223.4</ele>
        <time>2022-07-25T05:11:28Z</time>
      </trkpt>
      <trkpt lat="46.47222" lon="5.30555">
        <ele>223.4</ele>
        <time>2022-07-25T05:11:30Z</time>
      </trkpt>
      <trkpt lat="46.47209" lon="5.30554">
        <ele>223.2</ele>
        <time>2022-07-25T05:11:32Z</time>
      </trkpt>
      <trkpt lat="46.47209" lon="5.30554">
        <ele>223.2</ele>
        <time>2022-07-25T05:11:33Z</time>
      </trkpt>
      <trkpt lat="46.47165" lon="5.30557">
        <ele>223.4</ele>
        <time>2022-07-25T05:11:39Z</time>
      </trkpt>
      <trkpt lat="46.47131" lon="5.30545">
        <ele>224</ele>
        <time>2022-07-25T05:11:45Z</time>
      </trkpt>
      <trkpt lat="46.47114" lon="5.30536">
        <ele>224.2</ele>
        <time>2022-07-25T05:11:48Z</time>
      </trkpt>
      <trkpt lat="46.47092" lon="5.30522">
        <ele>224.4</ele>
        <time>2022-07-25T05:11:52Z</time>
      </trkpt>
      <trkpt lat="46.47045" lon="5.3048">
        <ele>224.8</ele>
        <time>2022-07-25T05:12:01Z</time>
      </trkpt>
      <trkpt lat="46.46995" lon="5.30438">
        <ele>223.8</ele>
        <time>2022-07-25T05:12:10Z</time>
      </trkpt>
      <trkpt lat="46.46951" lon="5.30402">
        <ele>223.4</ele>
        <time>2022-07-25T05:12:18Z</time>
      </trkpt>
      <trkpt lat="46.46913" lon="5.30387">
        <ele>223.2</ele>
        <time>2022-07-25T05:12:24Z</time>
      </trkpt>
      <trkpt lat="46.46901" lon="5.30383">
        <ele>223.2</ele>
        <time>2022-07-25T05:12:26Z</time>
      </trkpt>
      <trkpt lat="46.46863" lon="5.30359">
        <ele>223</ele>
        <time>2022-07-25T05:12:33Z</time>
      </trkpt>
      <trkpt lat="46.46826" lon="5.30316">
        <ele>223.2</ele>
        <time>2022-07-25T05:12:41Z</time>
      </trkpt>
      <trkpt lat="46.46782" lon="5.30262">
        <ele>223.2</ele>
        <time>2022-07-25T05:12:51Z</time>
      </trkpt>
      <trkpt lat="46.46777" lon="5.30257">
        <ele>223.2</ele>
        <time>2022-07-25T05:12:52Z</time>
      </trkpt>
      <trkpt lat="46.46742" lon="5.30213">
        <ele>223.4</ele>
        <time>2022-07-25T05:13:00Z</time>
      </trkpt>
      <trkpt lat="46.46738" lon="5.30206">
        <ele>223.4</ele>
        <time>2022-07-25T05:13:01Z</time>
      </trkpt>
      <trkpt lat="46.46735" lon="5.30198">
        <ele>223.4</ele>
        <time>2022-07-25T05:13:02Z</time>
      </trkpt>
      <trkpt lat="46.46725" lon="5.30163">
        <ele>223.2</ele>
        <time>2022-07-25T05:13:07Z</time>
      </trkpt>
      <trkpt lat="46.46705" lon="5.30089">
        <ele>222.6</ele>
        <time>2022-07-25T05:13:14Z</time>
      </trkpt>
      <trkpt lat="46.46689" lon="5.30074">
        <ele>222.4</ele>
        <time>2022-07-25T05:13:17Z</time>
      </trkpt>
      <trkpt lat="46.46671" lon="5.30067">
        <ele>222.2</ele>
        <time>2022-07-25T05:13:20Z</time>
      </trkpt>
      <trkpt lat="46.46654" lon="5.30061">
        <ele>222</ele>
        <time>2022-07-25T05:13:23Z</time>
      </trkpt>
      <trkpt lat="46.46638" lon="5.30059">
        <ele>222</ele>
        <time>2022-07-25T05:13:26Z</time>
      </trkpt>
      <trkpt lat="46.46621" lon="5.30061">
        <ele>222.4</ele>
        <time>2022-07-25T05:13:29Z</time>
      </trkpt>
      <trkpt lat="46.46601" lon="5.30065">
        <ele>222.6</ele>
        <time>2022-07-25T05:13:33Z</time>
      </trkpt>
      <trkpt lat="46.46598" lon="5.30065">
        <ele>222.6</ele>
        <time>2022-07-25T05:13:34Z</time>
      </trkpt>
      <trkpt lat="46.46595" lon="5.30065">
        <ele>222.6</ele>
        <time>2022-07-25T05:13:37Z</time>
      </trkpt>
      <trkpt lat="46.46595" lon="5.30064">
        <ele>222.4</ele>
        <time>2022-07-25T05:13:42Z</time>
      </trkpt>
      <trkpt lat="46.4659" lon="5.30064">
        <ele>222.2</ele>
        <time>2022-07-25T05:13:52Z</time>
      </trkpt>
      <trkpt lat="46.46572" lon="5.30059">
        <ele>222.2</ele>
        <time>2022-07-25T05:13:56Z</time>
      </trkpt>
      <trkpt lat="46.4654" lon="5.30056">
        <ele>222</ele>
        <time>2022-07-25T05:14:01Z</time>
      </trkpt>
      <trkpt lat="46.46494" lon="5.30056">
        <ele>221.2</ele>
        <time>2022-07-25T05:14:07Z</time>
      </trkpt>
      <trkpt lat="46.46486" lon="5.30055">
        <ele>221</ele>
        <time>2022-07-25T05:14:08Z</time>
      </trkpt>
      <trkpt lat="46.46478" lon="5.30055">
        <ele>220.8</ele>
        <time>2022-07-25T05:14:09Z</time>
      </trkpt>
      <trkpt lat="46.46456" lon="5.3005">
        <ele>220.2</ele>
        <time>2022-07-25T05:14:12Z</time>
      </trkpt>
      <trkpt lat="46.46441" lon="5.30048">
        <ele>219.8</ele>
        <time>2022-07-25T05:14:14Z</time>
      </trkpt>
      <trkpt lat="46.46416" lon="5.30051">
        <ele>219.4</ele>
        <time>2022-07-25T05:14:17Z</time>
      </trkpt>
      <trkpt lat="46.46399" lon="5.30054">
        <ele>218.8</ele>
        <time>2022-07-25T05:14:19Z</time>
      </trkpt>
      <trkpt lat="46.46382" lon="5.30058">
        <ele>218.4</ele>
        <time>2022-07-25T05:14:21Z</time>
      </trkpt>
      <trkpt lat="46.46353" lon="5.30062">
        <ele>217.4</ele>
        <time>2022-07-25T05:14:24Z</time>
      </trkpt>
      <trkpt lat="46.46343" lon="5.30062">
        <ele>217</ele>
        <time>2022-07-25T05:14:25Z</time>
      </trkpt>
      <trkpt lat="46.46323" lon="5.30062">
        <ele>216.2</ele>
        <time>2022-07-25T05:14:27Z</time>
      </trkpt>
      <trkpt lat="46.46292" lon="5.30058">
        <ele>215.2</ele>
        <time>2022-07-25T05:14:30Z</time>
      </trkpt>
      <trkpt lat="46.46281" lon="5.30057">
        <ele>213.8</ele>
        <time>2022-07-25T05:14:31Z</time>
      </trkpt>
      <trkpt lat="46.4626" lon="5.30055">
        <ele>212.6</ele>
        <time>2022-07-25T05:14:33Z</time>
      </trkpt>
      <trkpt lat="46.46249" lon="5.30054">
        <ele>211.4</ele>
        <time>2022-07-25T05:14:35Z</time>
      </trkpt>
      <trkpt lat="46.46216" lon="5.3005">
        <ele>210.6</ele>
        <time>2022-07-25T05:14:37Z</time>
      </trkpt>
      <trkpt lat="46.46205" lon="5.30046">
        <ele>210</ele>
        <time>2022-07-25T05:14:38Z</time>
      </trkpt>
      <trkpt lat="46.46195" lon="5.30041">
        <ele>209.8</ele>
        <time>2022-07-25T05:14:39Z</time>
      </trkpt>
      <trkpt lat="46.46186" lon="5.30033">
        <ele>208.6</ele>
        <time>2022-07-25T05:14:40Z</time>
      </trkpt>
      <trkpt lat="46.46178" lon="5.30024">
        <ele>208.2</ele>
        <time>2022-07-25T05:14:41Z</time>
      </trkpt>
      <trkpt lat="46.46171" lon="5.30015">
        <ele>207.2</ele>
        <time>2022-07-25T05:14:42Z</time>
      </trkpt>
      <trkpt lat="46.46158" lon="5.29998">
        <ele>206.2</ele>
        <time>2022-07-25T05:14:44Z</time>
      </trkpt>
      <trkpt lat="46.46147" lon="5.29982">
        <ele>205.6</ele>
        <time>2022-07-25T05:14:46Z</time>
      </trkpt>
      <trkpt lat="46.46144" lon="5.29977">
        <ele>205</ele>
        <time>2022-07-25T05:14:47Z</time>
      </trkpt>
      <trkpt lat="46.46141" lon="5.29974">
        <ele>204.6</ele>
        <time>2022-07-25T05:14:48Z</time>
      </trkpt>
      <trkpt lat="46.46137" lon="5.29973">
        <ele>204.2</ele>
        <time>2022-07-25T05:14:49Z</time>
      </trkpt>
      <trkpt lat="46.46135" lon="5.29976">
        <ele>204</ele>
        <time>2022-07-25T05:14:50Z</time>
      </trkpt>
      <trkpt lat="46.46132" lon="5.2998">
        <ele>203.8</ele>
        <time>2022-07-25T05:14:51Z</time>
      </trkpt>
      <trkpt lat="46.4613" lon="5.29985">
        <ele>203.4</ele>
        <time>2022-07-25T05:14:52Z</time>
      </trkpt>
      <trkpt lat="46.46125" lon="5.29997">
        <ele>202.8</ele>
        <time>2022-07-25T05:14:54Z</time>
      </trkpt>
      <trkpt lat="46.46125" lon="5.29997">
        <ele>202.8</ele>
        <time>2022-07-25T05:14:55Z</time>
      </trkpt>
      <trkpt lat="46.46118" lon="5.30021">
        <ele>202.6</ele>
        <time>2022-07-25T05:14:57Z</time>
      </trkpt>
      <trkpt lat="46.46097" lon="5.30088">
        <ele>202.2</ele>
        <time>2022-07-25T05:15:05Z</time>
      </trkpt>
      <trkpt lat="46.46078" lon="5.30148">
        <ele>203</ele>
        <time>2022-07-25T05:15:13Z</time>
      </trkpt>
      <trkpt lat="46.46072" lon="5.30167">
        <ele>203.8</ele>
        <time>2022-07-25T05:15:16Z</time>
      </trkpt>
      <trkpt lat="46.46066" lon="5.30191">
        <ele>204.4</ele>
        <time>2022-07-25T05:15:20Z</time>
      </trkpt>
      <trkpt lat="46.46062" lon="5.30202">
        <ele>205</ele>
        <time>2022-07-25T05:15:22Z</time>
      </trkpt>
      <trkpt lat="46.46051" lon="5.30238">
        <ele>206</ele>
        <time>2022-07-25T05:15:28Z</time>
      </trkpt>
      <trkpt lat="46.46047" lon="5.3025">
        <ele>206.4</ele>
        <time>2022-07-25T05:15:30Z</time>
      </trkpt>
      <trkpt lat="46.46036" lon="5.30286">
        <ele>207.4</ele>
        <time>2022-07-25T05:15:36Z</time>
      </trkpt>
      <trkpt lat="46.46024" lon="5.30319">
        <ele>208.2</ele>
        <time>2022-07-25T05:15:42Z</time>
      </trkpt>
      <trkpt lat="46.4602" lon="5.3033">
        <ele>208.6</ele>
        <time>2022-07-25T05:15:44Z</time>
      </trkpt>
      <trkpt lat="46.46014" lon="5.30346">
        <ele>209.6</ele>
        <time>2022-07-25T05:15:47Z</time>
      </trkpt>
      <trkpt lat="46.46006" lon="5.30367">
        <ele>210.4</ele>
        <time>2022-07-25T05:15:51Z</time>
      </trkpt>
      <trkpt lat="46.46" lon="5.30373">
        <ele>210.8</ele>
        <time>2022-07-25T05:15:53Z</time>
      </trkpt>
      <trkpt lat="46.45997" lon="5.30374">
        <ele>211</ele>
        <time>2022-07-25T05:15:54Z</time>
      </trkpt>
      <trkpt lat="46.45984" lon="5.30368">
        <ele>211.8</ele>
        <time>2022-07-25T05:15:58Z</time>
      </trkpt>
      <trkpt lat="46.45966" lon="5.30358">
        <ele>213.2</ele>
        <time>2022-07-25T05:16:03Z</time>
      </trkpt>
      <trkpt lat="46.45955" lon="5.30352">
        <ele>214</ele>
        <time>2022-07-25T05:16:06Z</time>
      </trkpt>
      <trkpt lat="46.45947" lon="5.30348">
        <ele>214.2</ele>
        <time>2022-07-25T05:16:08Z</time>
      </trkpt>
      <trkpt lat="46.45923" lon="5.30334">
        <ele>214.8</ele>
        <time>2022-07-25T05:16:14Z</time>
      </trkpt>
      <trkpt lat="46.4589" lon="5.30317">
        <ele>214.8</ele>
        <time>2022-07-25T05:16:20Z</time>
      </trkpt>
      <trkpt lat="46.45857" lon="5.303">
        <ele>214.2</ele>
        <time>2022-07-25T05:16:25Z</time>
      </trkpt>
      <trkpt lat="46.4584" lon="5.303">
        <ele>213.4</ele>
        <time>2022-07-25T05:16:27Z</time>
      </trkpt>
      <trkpt lat="46.45831" lon="5.30302">
        <ele>213</ele>
        <time>2022-07-25T05:16:28Z</time>
      </trkpt>
      <trkpt lat="46.45823" lon="5.30306">
        <ele>212.8</ele>
        <time>2022-07-25T05:16:29Z</time>
      </trkpt>
      <trkpt lat="46.45808" lon="5.30318">
        <ele>211.8</ele>
        <time>2022-07-25T05:16:31Z</time>
      </trkpt>
      <trkpt lat="46.45793" lon="5.30333">
        <ele>211</ele>
        <time>2022-07-25T05:16:33Z</time>
      </trkpt>
      <trkpt lat="46.45779" lon="5.30347">
        <ele>210.8</ele>
        <time>2022-07-25T05:16:35Z</time>
      </trkpt>
      <trkpt lat="46.45764" lon="5.30362">
        <ele>209.6</ele>
        <time>2022-07-25T05:16:37Z</time>
      </trkpt>
      <trkpt lat="46.45741" lon="5.30387">
        <ele>208.4</ele>
        <time>2022-07-25T05:16:40Z</time>
      </trkpt>
      <trkpt lat="46.45717" lon="5.30411">
        <ele>207.2</ele>
        <time>2022-07-25T05:16:43Z</time>
      </trkpt>
      <trkpt lat="46.45699" lon="5.30426">
        <ele>206.2</ele>
        <time>2022-07-25T05:16:45Z</time>
      </trkpt>
      <trkpt lat="46.45688" lon="5.30431">
        <ele>205.4</ele>
        <time>2022-07-25T05:16:46Z</time>
      </trkpt>
      <trkpt lat="46.45678" lon="5.30435">
        <ele>204.8</ele>
        <time>2022-07-25T05:16:47Z</time>
      </trkpt>
      <trkpt lat="46.45657" lon="5.30435">
        <ele>203.8</ele>
        <time>2022-07-25T05:16:49Z</time>
      </trkpt>
      <trkpt lat="46.45647" lon="5.30433">
        <ele>203</ele>
        <time>2022-07-25T05:16:50Z</time>
      </trkpt>
      <trkpt lat="46.45619" lon="5.30421">
        <ele>202.2</ele>
        <time>2022-07-25T05:16:53Z</time>
      </trkpt>
      <trkpt lat="46.45611" lon="5.30415">
        <ele>201.8</ele>
        <time>2022-07-25T05:16:54Z</time>
      </trkpt>
      <trkpt lat="46.4559" lon="5.30394">
        <ele>200.6</ele>
        <time>2022-07-25T05:16:57Z</time>
      </trkpt>
      <trkpt lat="46.45551" lon="5.30355">
        <ele>200.4</ele>
        <time>2022-07-25T05:17:03Z</time>
      </trkpt>
      <trkpt lat="46.45544" lon="5.3035">
        <ele>200.4</ele>
        <time>2022-07-25T05:17:04Z</time>
      </trkpt>
      <trkpt lat="46.4553" lon="5.30345">
        <ele>200.4</ele>
        <time>2022-07-25T05:17:06Z</time>
      </trkpt>
      <trkpt lat="46.45523" lon="5.30345">
        <ele>200.4</ele>
        <time>2022-07-25T05:17:07Z</time>
      </trkpt>
      <trkpt lat="46.45516" lon="5.30345">
        <ele>200.4</ele>
        <time>2022-07-25T05:17:08Z</time>
      </trkpt>
      <trkpt lat="46.45489" lon="5.30349">
        <ele>200.2</ele>
        <time>2022-07-25T05:17:12Z</time>
      </trkpt>
      <trkpt lat="46.45468" lon="5.30347">
        <ele>200.2</ele>
        <time>2022-07-25T05:17:15Z</time>
      </trkpt>
      <trkpt lat="46.45455" lon="5.30344">
        <ele>200.2</ele>
        <time>2022-07-25T05:17:17Z</time>
      </trkpt>
      <trkpt lat="46.45393" lon="5.30325">
        <ele>200.6</ele>
        <time>2022-07-25T05:17:27Z</time>
      </trkpt>
      <trkpt lat="46.4537" lon="5.30322">
        <ele>201</ele>
        <time>2022-07-25T05:17:31Z</time>
      </trkpt>
      <trkpt lat="46.45358" lon="5.30324">
        <ele>201</ele>
        <time>2022-07-25T05:17:33Z</time>
      </trkpt>
      <trkpt lat="46.45341" lon="5.30332">
        <ele>201.2</ele>
        <time>2022-07-25T05:17:36Z</time>
      </trkpt>
      <trkpt lat="46.45331" lon="5.30338">
        <ele>201.4</ele>
        <time>2022-07-25T05:17:38Z</time>
      </trkpt>
      <trkpt lat="46.45321" lon="5.30345">
        <ele>201.8</ele>
        <time>2022-07-25T05:17:40Z</time>
      </trkpt>
      <trkpt lat="46.45314" lon="5.30348">
        <ele>201.8</ele>
        <time>2022-07-25T05:17:41Z</time>
      </trkpt>
      <trkpt lat="46.45304" lon="5.3035">
        <ele>202</ele>
        <time>2022-07-25T05:17:43Z</time>
      </trkpt>
      <trkpt lat="46.45292" lon="5.3035">
        <ele>202.4</ele>
        <time>2022-07-25T05:17:45Z</time>
      </trkpt>
      <trkpt lat="46.4527" lon="5.30345">
        <ele>202.6</ele>
        <time>2022-07-25T05:17:49Z</time>
      </trkpt>
      <trkpt lat="46.45237" lon="5.30336">
        <ele>202.8</ele>
        <time>2022-07-25T05:17:55Z</time>
      </trkpt>
      <trkpt lat="46.45231" lon="5.30335">
        <ele>202.8</ele>
        <time>2022-07-25T05:17:56Z</time>
      </trkpt>
      <trkpt lat="46.45209" lon="5.30331">
        <ele>202.8</ele>
        <time>2022-07-25T05:18:00Z</time>
      </trkpt>
      <trkpt lat="46.45197" lon="5.30333">
        <ele>203</ele>
        <time>2022-07-25T05:18:02Z</time>
      </trkpt>
      <trkpt lat="46.45192" lon="5.30336">
        <ele>203</ele>
        <time>2022-07-25T05:18:03Z</time>
      </trkpt>
      <trkpt lat="46.45188" lon="5.30338">
        <ele>203.2</ele>
        <time>2022-07-25T05:18:04Z</time>
      </trkpt>
      <trkpt lat="46.4518" lon="5.30348">
        <ele>203.6</ele>
        <time>2022-07-25T05:18:06Z</time>
      </trkpt>
      <trkpt lat="46.45177" lon="5.30352">
        <ele>203.6</ele>
        <time>2022-07-25T05:18:07Z</time>
      </trkpt>
      <trkpt lat="46.45173" lon="5.30358">
        <ele>204</ele>
        <time>2022-07-25T05:18:08Z</time>
      </trkpt>
      <trkpt lat="46.45166" lon="5.30375">
        <ele>204.4</ele>
        <time>2022-07-25T05:18:11Z</time>
      </trkpt>
      <trkpt lat="46.45163" lon="5.30388">
        <ele>204.6</ele>
        <time>2022-07-25T05:18:13Z</time>
      </trkpt>
      <trkpt lat="46.45153" lon="5.30418">
        <ele>205.2</ele>
        <time>2022-07-25T05:18:18Z</time>
      </trkpt>
      <trkpt lat="46.45148" lon="5.30436">
        <ele>205.6</ele>
        <time>2022-07-25T05:18:21Z</time>
      </trkpt>
      <trkpt lat="46.4514" lon="5.30459">
        <ele>206.4</ele>
        <time>2022-07-25T05:18:25Z</time>
      </trkpt>
      <trkpt lat="46.45132" lon="5.30476">
        <ele>206.8</ele>
        <time>2022-07-25T05:18:28Z</time>
      </trkpt>
      <trkpt lat="46.45123" lon="5.3049">
        <ele>207.4</ele>
        <time>2022-07-25T05:18:31Z</time>
      </trkpt>
      <trkpt lat="46.45115" lon="5.30496">
        <ele>207.8</ele>
        <time>2022-07-25T05:18:33Z</time>
      </trkpt>
      <trkpt lat="46.45107" lon="5.305">
        <ele>208.4</ele>
        <time>2022-07-25T05:18:35Z</time>
      </trkpt>
      <trkpt lat="46.45102" lon="5.30501">
        <ele>208.6</ele>
        <time>2022-07-25T05:18:36Z</time>
      </trkpt>
      <trkpt lat="46.45089" lon="5.30502">
        <ele>209</ele>
        <time>2022-07-25T05:18:39Z</time>
      </trkpt>
      <trkpt lat="46.45068" lon="5.30498">
        <ele>209.6</ele>
        <time>2022-07-25T05:18:44Z</time>
      </trkpt>
      <trkpt lat="46.45053" lon="5.30494">
        <ele>211</ele>
        <time>2022-07-25T05:18:48Z</time>
      </trkpt>
      <trkpt lat="46.45049" lon="5.30494">
        <ele>211.4</ele>
        <time>2022-07-25T05:18:49Z</time>
      </trkpt>
      <trkpt lat="46.4503" lon="5.30489">
        <ele>212.2</ele>
        <time>2022-07-25T05:18:54Z</time>
      </trkpt>
      <trkpt lat="46.45023" lon="5.30487">
        <ele>212.8</ele>
        <time>2022-07-25T05:18:56Z</time>
      </trkpt>
      <trkpt lat="46.45011" lon="5.30486">
        <ele>213.6</ele>
        <time>2022-07-25T05:18:59Z</time>
      </trkpt>
      <trkpt lat="46.44998" lon="5.30487">
        <ele>214.2</ele>
        <time>2022-07-25T05:19:02Z</time>
      </trkpt>
      <trkpt lat="46.4498" lon="5.30493">
        <ele>214.8</ele>
        <time>2022-07-25T05:19:06Z</time>
      </trkpt>
      <trkpt lat="46.44967" lon="5.30497">
        <ele>215</ele>
        <time>2022-07-25T05:19:09Z</time>
      </trkpt>
      <trkpt lat="46.44931" lon="5.30509">
        <ele>215.8</ele>
        <time>2022-07-25T05:19:17Z</time>
      </trkpt>
      <trkpt lat="46.44912" lon="5.30514">
        <ele>216</ele>
        <time>2022-07-25T05:19:21Z</time>
      </trkpt>
      <trkpt lat="46.44877" lon="5.30516">
        <ele>216.6</ele>
        <time>2022-07-25T05:19:29Z</time>
      </trkpt>
      <trkpt lat="46.44872" lon="5.30516">
        <ele>216.8</ele>
        <time>2022-07-25T05:19:30Z</time>
      </trkpt>
      <trkpt lat="46.44833" lon="5.30515">
        <ele>218.2</ele>
        <time>2022-07-25T05:19:39Z</time>
      </trkpt>
      <trkpt lat="46.44824" lon="5.30515">
        <ele>218.6</ele>
        <time>2022-07-25T05:19:41Z</time>
      </trkpt>
      <trkpt lat="46.44816" lon="5.30516">
        <ele>219.2</ele>
        <time>2022-07-25T05:19:43Z</time>
      </trkpt>
      <trkpt lat="46.44793" lon="5.30515">
        <ele>220</ele>
        <time>2022-07-25T05:19:49Z</time>
      </trkpt>
      <trkpt lat="46.44779" lon="5.30515">
        <ele>220.4</ele>
        <time>2022-07-25T05:19:52Z</time>
      </trkpt>
      <trkpt lat="46.44738" lon="5.30515">
        <ele>221</ele>
        <time>2022-07-25T05:19:59Z</time>
      </trkpt>
      <trkpt lat="46.44705" lon="5.30516">
        <ele>221.2</ele>
        <time>2022-07-25T05:20:05Z</time>
      </trkpt>
      <trkpt lat="46.44683" lon="5.30517">
        <ele>221.4</ele>
        <time>2022-07-25T05:20:09Z</time>
      </trkpt>
      <trkpt lat="46.44655" lon="5.30518">
        <ele>221.8</ele>
        <time>2022-07-25T05:20:14Z</time>
      </trkpt>
      <trkpt lat="46.44596" lon="5.30518">
        <ele>222</ele>
        <time>2022-07-25T05:20:25Z</time>
      </trkpt>
      <trkpt lat="46.44581" lon="5.30519">
        <ele>222.4</ele>
        <time>2022-07-25T05:20:28Z</time>
      </trkpt>
      <trkpt lat="46.44566" lon="5.30524">
        <ele>222.6</ele>
        <time>2022-07-25T05:20:31Z</time>
      </trkpt>
      <trkpt lat="46.44558" lon="5.30527">
        <ele>222.8</ele>
        <time>2022-07-25T05:20:33Z</time>
      </trkpt>
      <trkpt lat="46.44551" lon="5.3053">
        <ele>223</ele>
        <time>2022-07-25T05:20:35Z</time>
      </trkpt>
      <trkpt lat="46.44544" lon="5.30536">
        <ele>223.4</ele>
        <time>2022-07-25T05:20:37Z</time>
      </trkpt>
      <trkpt lat="46.44521" lon="5.30549">
        <ele>224.4</ele>
        <time>2022-07-25T05:20:42Z</time>
      </trkpt>
      <trkpt lat="46.44515" lon="5.30553">
        <ele>224.4</ele>
        <time>2022-07-25T05:20:43Z</time>
      </trkpt>
      <trkpt lat="46.44482" lon="5.30566">
        <ele>225.4</ele>
        <time>2022-07-25T05:20:49Z</time>
      </trkpt>
      <trkpt lat="46.44477" lon="5.30567">
        <ele>225.6</ele>
        <time>2022-07-25T05:20:50Z</time>
      </trkpt>
      <trkpt lat="46.44472" lon="5.30568">
        <ele>225.6</ele>
        <time>2022-07-25T05:20:51Z</time>
      </trkpt>
      <trkpt lat="46.44455" lon="5.30568">
        <ele>225.8</ele>
        <time>2022-07-25T05:20:54Z</time>
      </trkpt>
      <trkpt lat="46.44439" lon="5.30566">
        <ele>226</ele>
        <time>2022-07-25T05:20:57Z</time>
      </trkpt>
      <trkpt lat="46.44428" lon="5.30569">
        <ele>226.2</ele>
        <time>2022-07-25T05:20:59Z</time>
      </trkpt>
      <trkpt lat="46.44423" lon="5.30571">
        <ele>226.2</ele>
        <time>2022-07-25T05:21:00Z</time>
      </trkpt>
      <trkpt lat="46.44389" lon="5.30595">
        <ele>226.6</ele>
        <time>2022-07-25T05:21:07Z</time>
      </trkpt>
      <trkpt lat="46.44378" lon="5.30599">
        <ele>226.8</ele>
        <time>2022-07-25T05:21:09Z</time>
      </trkpt>
      <trkpt lat="46.4436" lon="5.30601">
        <ele>227</ele>
        <time>2022-07-25T05:21:12Z</time>
      </trkpt>
      <trkpt lat="46.44354" lon="5.306">
        <ele>227</ele>
        <time>2022-07-25T05:21:13Z</time>
      </trkpt>
      <trkpt lat="46.44343" lon="5.30598">
        <ele>227</ele>
        <time>2022-07-25T05:21:15Z</time>
      </trkpt>
      <trkpt lat="46.44331" lon="5.30598">
        <ele>227</ele>
        <time>2022-07-25T05:21:17Z</time>
      </trkpt>
      <trkpt lat="46.44325" lon="5.306">
        <ele>227.2</ele>
        <time>2022-07-25T05:21:18Z</time>
      </trkpt>
      <trkpt lat="46.4432" lon="5.30604">
        <ele>227.2</ele>
        <time>2022-07-25T05:21:19Z</time>
      </trkpt>
      <trkpt lat="46.44305" lon="5.30618">
        <ele>227.2</ele>
        <time>2022-07-25T05:21:22Z</time>
      </trkpt>
      <trkpt lat="46.44271" lon="5.3065">
        <ele>227.4</ele>
        <time>2022-07-25T05:21:29Z</time>
      </trkpt>
      <trkpt lat="46.4426" lon="5.30656">
        <ele>227.6</ele>
        <time>2022-07-25T05:21:31Z</time>
      </trkpt>
      <trkpt lat="46.4422" lon="5.30668">
        <ele>227.6</ele>
        <time>2022-07-25T05:21:38Z</time>
      </trkpt>
      <trkpt lat="46.44208" lon="5.3067">
        <ele>227.6</ele>
        <time>2022-07-25T05:21:40Z</time>
      </trkpt>
      <trkpt lat="46.44172" lon="5.30672">
        <ele>227.8</ele>
        <time>2022-07-25T05:21:47Z</time>
      </trkpt>
      <trkpt lat="46.44161" lon="5.30671">
        <ele>227.8</ele>
        <time>2022-07-25T05:21:48Z</time>
      </trkpt>
      <trkpt lat="46.44139" lon="5.30664">
        <ele>227.8</ele>
        <time>2022-07-25T05:21:52Z</time>
      </trkpt>
      <trkpt lat="46.44098" lon="5.30637">
        <ele>228.2</ele>
        <time>2022-07-25T05:22:00Z</time>
      </trkpt>
      <trkpt lat="46.44077" lon="5.30622">
        <ele>228.2</ele>
        <time>2022-07-25T05:22:04Z</time>
      </trkpt>
      <trkpt lat="46.44065" lon="5.3062">
        <ele>228.2</ele>
        <time>2022-07-25T05:22:06Z</time>
      </trkpt>
      <trkpt lat="46.44054" lon="5.30623">
        <ele>228.2</ele>
        <time>2022-07-25T05:22:08Z</time>
      </trkpt>
      <trkpt lat="46.44043" lon="5.3063">
        <ele>228.2</ele>
        <time>2022-07-25T05:22:10Z</time>
      </trkpt>
      <trkpt lat="46.44008" lon="5.30661">
        <ele>228</ele>
        <time>2022-07-25T05:22:17Z</time>
      </trkpt>
      <trkpt lat="46.43998" lon="5.30671">
        <ele>228</ele>
        <time>2022-07-25T05:22:19Z</time>
      </trkpt>
      <trkpt lat="46.43989" lon="5.30671">
        <ele>228</ele>
        <time>2022-07-25T05:22:21Z</time>
      </trkpt>
      <trkpt lat="46.43984" lon="5.30659">
        <ele>228</ele>
        <time>2022-07-25T05:22:23Z</time>
      </trkpt>
      <trkpt lat="46.43984" lon="5.30652">
        <ele>228</ele>
        <time>2022-07-25T05:22:24Z</time>
      </trkpt>
      <trkpt lat="46.4399" lon="5.30617">
        <ele>227.8</ele>
        <time>2022-07-25T05:22:28Z</time>
      </trkpt>
      <trkpt lat="46.43992" lon="5.30598">
        <ele>227.8</ele>
        <time>2022-07-25T05:22:30Z</time>
      </trkpt>
      <trkpt lat="46.43992" lon="5.30561">
        <ele>228</ele>
        <time>2022-07-25T05:22:34Z</time>
      </trkpt>
      <trkpt lat="46.43988" lon="5.30497">
        <ele>228.4</ele>
        <time>2022-07-25T05:22:41Z</time>
      </trkpt>
      <trkpt lat="46.4398" lon="5.30412">
        <ele>228.6</ele>
        <time>2022-07-25T05:22:50Z</time>
      </trkpt>
      <trkpt lat="46.43972" lon="5.30334">
        <ele>228</ele>
        <time>2022-07-25T05:22:58Z</time>
      </trkpt>
      <trkpt lat="46.43969" lon="5.30314">
        <ele>228</ele>
        <time>2022-07-25T05:23:00Z</time>
      </trkpt>
      <trkpt lat="46.43956" lon="5.30258">
        <ele>227.4</ele>
        <time>2022-07-25T05:23:06Z</time>
      </trkpt>
      <trkpt lat="46.43939" lon="5.30193">
        <ele>227</ele>
        <time>2022-07-25T05:23:13Z</time>
      </trkpt>
      <trkpt lat="46.43921" lon="5.30127">
        <ele>227</ele>
        <time>2022-07-25T05:23:21Z</time>
      </trkpt>
      <trkpt lat="46.43895" lon="5.30055">
        <ele>227</ele>
        <time>2022-07-25T05:23:30Z</time>
      </trkpt>
      <trkpt lat="46.43874" lon="5.30022">
        <ele>227</ele>
        <time>2022-07-25T05:23:35Z</time>
      </trkpt>
      <trkpt lat="46.43835" lon="5.29993">
        <ele>227</ele>
        <time>2022-07-25T05:23:42Z</time>
      </trkpt>
      <trkpt lat="46.43789" lon="5.29962">
        <ele>226.8</ele>
        <time>2022-07-25T05:23:50Z</time>
      </trkpt>
      <trkpt lat="46.43743" lon="5.29931">
        <ele>226.8</ele>
        <time>2022-07-25T05:23:58Z</time>
      </trkpt>
      <trkpt lat="46.43738" lon="5.29929">
        <ele>226.8</ele>
        <time>2022-07-25T05:23:59Z</time>
      </trkpt>
      <trkpt lat="46.43732" lon="5.29928">
        <ele>226.8</ele>
        <time>2022-07-25T05:24:00Z</time>
      </trkpt>
      <trkpt lat="46.43706" lon="5.29928">
        <ele>226.8</ele>
        <time>2022-07-25T05:24:04Z</time>
      </trkpt>
      <trkpt lat="46.43665" lon="5.29927">
        <ele>226.6</ele>
        <time>2022-07-25T05:24:10Z</time>
      </trkpt>
      <trkpt lat="46.43647" lon="5.29924">
        <ele>226.4</ele>
        <time>2022-07-25T05:24:13Z</time>
      </trkpt>
      <trkpt lat="46.43598" lon="5.29922">
        <ele>226.4</ele>
        <time>2022-07-25T05:24:21Z</time>
      </trkpt>
      <trkpt lat="46.43564" lon="5.29927">
        <ele>226.4</ele>
        <time>2022-07-25T05:24:26Z</time>
      </trkpt>
      <trkpt lat="46.43556" lon="5.29932">
        <ele>226.4</ele>
        <time>2022-07-25T05:24:27Z</time>
      </trkpt>
      <trkpt lat="46.43549" lon="5.29937">
        <ele>226.4</ele>
        <time>2022-07-25T05:24:28Z</time>
      </trkpt>
      <trkpt lat="46.43524" lon="5.2996">
        <ele>225.6</ele>
        <time>2022-07-25T05:24:31Z</time>
      </trkpt>
      <trkpt lat="46.43497" lon="5.29985">
        <ele>223.8</ele>
        <time>2022-07-25T05:24:34Z</time>
      </trkpt>
      <trkpt lat="46.43475" lon="5.30001">
        <ele>222.6</ele>
        <time>2022-07-25T05:24:36Z</time>
      </trkpt>
      <trkpt lat="46.43453" lon="5.30014">
        <ele>221</ele>
        <time>2022-07-25T05:24:38Z</time>
      </trkpt>
      <trkpt lat="46.43441" lon="5.30017">
        <ele>220.6</ele>
        <time>2022-07-25T05:24:39Z</time>
      </trkpt>
      <trkpt lat="46.43428" lon="5.30017">
        <ele>219.4</ele>
        <time>2022-07-25T05:24:40Z</time>
      </trkpt>
      <trkpt lat="46.43406" lon="5.30015">
        <ele>217.8</ele>
        <time>2022-07-25T05:24:42Z</time>
      </trkpt>
      <trkpt lat="46.43394" lon="5.30016">
        <ele>216.6</ele>
        <time>2022-07-25T05:24:43Z</time>
      </trkpt>
      <trkpt lat="46.43372" lon="5.3002">
        <ele>215.4</ele>
        <time>2022-07-25T05:24:45Z</time>
      </trkpt>
      <trkpt lat="46.43362" lon="5.30025">
        <ele>215.2</ele>
        <time>2022-07-25T05:24:46Z</time>
      </trkpt>
      <trkpt lat="46.4335" lon="5.3003">
        <ele>214.2</ele>
        <time>2022-07-25T05:24:47Z</time>
      </trkpt>
      <trkpt lat="46.43331" lon="5.30036">
        <ele>213.4</ele>
        <time>2022-07-25T05:24:49Z</time>
      </trkpt>
      <trkpt lat="46.43316" lon="5.30038">
        <ele>212.6</ele>
        <time>2022-07-25T05:24:50Z</time>
      </trkpt>
      <trkpt lat="46.4328" lon="5.30039">
        <ele>211.4</ele>
        <time>2022-07-25T05:24:53Z</time>
      </trkpt>
      <trkpt lat="46.43258" lon="5.30043">
        <ele>210</ele>
        <time>2022-07-25T05:24:55Z</time>
      </trkpt>
      <trkpt lat="46.43245" lon="5.30043">
        <ele>209</ele>
        <time>2022-07-25T05:24:56Z</time>
      </trkpt>
      <trkpt lat="46.43223" lon="5.30033">
        <ele>208.2</ele>
        <time>2022-07-25T05:24:59Z</time>
      </trkpt>
      <trkpt lat="46.43211" lon="5.30026">
        <ele>208.2</ele>
        <time>2022-07-25T05:25:01Z</time>
      </trkpt>
      <trkpt lat="46.432" lon="5.30022">
        <ele>208.4</ele>
        <time>2022-07-25T05:25:03Z</time>
      </trkpt>
      <trkpt lat="46.43187" lon="5.3002">
        <ele>210.6</ele>
        <time>2022-07-25T05:25:06Z</time>
      </trkpt>
      <trkpt lat="46.43179" lon="5.30018">
        <ele>211.8</ele>
        <time>2022-07-25T05:25:08Z</time>
      </trkpt>
      <trkpt lat="46.43168" lon="5.30016">
        <ele>213.4</ele>
        <time>2022-07-25T05:25:11Z</time>
      </trkpt>
      <trkpt lat="46.43157" lon="5.30015">
        <ele>214.6</ele>
        <time>2022-07-25T05:25:14Z</time>
      </trkpt>
      <trkpt lat="46.43154" lon="5.30014">
        <ele>215</ele>
        <time>2022-07-25T05:25:15Z</time>
      </trkpt>
      <trkpt lat="46.43148" lon="5.30011">
        <ele>215.8</ele>
        <time>2022-07-25T05:25:17Z</time>
      </trkpt>
      <trkpt lat="46.43138" lon="5.30008">
        <ele>217</ele>
        <time>2022-07-25T05:25:20Z</time>
      </trkpt>
      <trkpt lat="46.43132" lon="5.30006">
        <ele>217.4</ele>
        <time>2022-07-25T05:25:22Z</time>
      </trkpt>
      <trkpt lat="46.43126" lon="5.30005">
        <ele>218.4</ele>
        <time>2022-07-25T05:25:24Z</time>
      </trkpt>
      <trkpt lat="46.43113" lon="5.30001">
        <ele>219.2</ele>
        <time>2022-07-25T05:25:28Z</time>
      </trkpt>
      <trkpt lat="46.4311" lon="5.3">
        <ele>219.4</ele>
        <time>2022-07-25T05:25:29Z</time>
      </trkpt>
      <trkpt lat="46.431" lon="5.29996">
        <ele>220.4</ele>
        <time>2022-07-25T05:25:32Z</time>
      </trkpt>
      <trkpt lat="46.43083" lon="5.29992">
        <ele>221.2</ele>
        <time>2022-07-25T05:25:37Z</time>
      </trkpt>
      <trkpt lat="46.4308" lon="5.29992">
        <ele>221.4</ele>
        <time>2022-07-25T05:25:38Z</time>
      </trkpt>
      <trkpt lat="46.43061" lon="5.29991">
        <ele>222.2</ele>
        <time>2022-07-25T05:25:43Z</time>
      </trkpt>
      <trkpt lat="46.43038" lon="5.29997">
        <ele>222.4</ele>
        <time>2022-07-25T05:25:48Z</time>
      </trkpt>
      <trkpt lat="46.43004" lon="5.30008">
        <ele>223</ele>
        <time>2022-07-25T05:25:56Z</time>
      </trkpt>
      <trkpt lat="46.4298" lon="5.30011">
        <ele>223.4</ele>
        <time>2022-07-25T05:26:01Z</time>
      </trkpt>
      <trkpt lat="46.42956" lon="5.30012">
        <ele>224</ele>
        <time>2022-07-25T05:26:06Z</time>
      </trkpt>
      <trkpt lat="46.4292" lon="5.3001">
        <ele>224.6</ele>
        <time>2022-07-25T05:26:13Z</time>
      </trkpt>
      <trkpt lat="46.4291" lon="5.30009">
        <ele>224.8</ele>
        <time>2022-07-25T05:26:15Z</time>
      </trkpt>
      <trkpt lat="46.42863" lon="5.30002">
        <ele>225.4</ele>
        <time>2022-07-25T05:26:24Z</time>
      </trkpt>
      <trkpt lat="46.42847" lon="5.3">
        <ele>225.6</ele>
        <time>2022-07-25T05:26:27Z</time>
      </trkpt>
      <trkpt lat="46.42836" lon="5.3">
        <ele>225.6</ele>
        <time>2022-07-25T05:26:29Z</time>
      </trkpt>
      <trkpt lat="46.42827" lon="5.30001">
        <ele>225.8</ele>
        <time>2022-07-25T05:26:31Z</time>
      </trkpt>
      <trkpt lat="46.42812" lon="5.30008">
        <ele>226</ele>
        <time>2022-07-25T05:26:34Z</time>
      </trkpt>
      <trkpt lat="46.42803" lon="5.30017">
        <ele>226.2</ele>
        <time>2022-07-25T05:26:36Z</time>
      </trkpt>
      <trkpt lat="46.42799" lon="5.30021">
        <ele>226.2</ele>
        <time>2022-07-25T05:26:37Z</time>
      </trkpt>
      <trkpt lat="46.42791" lon="5.30031">
        <ele>226.4</ele>
        <time>2022-07-25T05:26:39Z</time>
      </trkpt>
      <trkpt lat="46.42786" lon="5.30036">
        <ele>226.6</ele>
        <time>2022-07-25T05:26:40Z</time>
      </trkpt>
      <trkpt lat="46.42781" lon="5.3004">
        <ele>226.6</ele>
        <time>2022-07-25T05:26:41Z</time>
      </trkpt>
      <trkpt lat="46.42767" lon="5.30051">
        <ele>226.8</ele>
        <time>2022-07-25T05:26:44Z</time>
      </trkpt>
      <trkpt lat="46.42751" lon="5.3006">
        <ele>227</ele>
        <time>2022-07-25T05:26:47Z</time>
      </trkpt>
      <trkpt lat="46.42714" lon="5.30078">
        <ele>227.2</ele>
        <time>2022-07-25T05:26:54Z</time>
      </trkpt>
      <trkpt lat="46.42675" lon="5.30095">
        <ele>227.6</ele>
        <time>2022-07-25T05:27:01Z</time>
      </trkpt>
      <trkpt lat="46.42664" lon="5.301">
        <ele>227.8</ele>
        <time>2022-07-25T05:27:03Z</time>
      </trkpt>
      <trkpt lat="46.42627" lon="5.30114">
        <ele>228</ele>
        <time>2022-07-25T05:27:10Z</time>
      </trkpt>
      <trkpt lat="46.42587" lon="5.30131">
        <ele>228</ele>
        <time>2022-07-25T05:27:17Z</time>
      </trkpt>
      <trkpt lat="46.42551" lon="5.30147">
        <ele>228.2</ele>
        <time>2022-07-25T05:27:23Z</time>
      </trkpt>
      <trkpt lat="46.42546" lon="5.30148">
        <ele>228</ele>
        <time>2022-07-25T05:27:24Z</time>
      </trkpt>
      <trkpt lat="46.42524" lon="5.30158">
        <ele>228</ele>
        <time>2022-07-25T05:27:28Z</time>
      </trkpt>
      <trkpt lat="46.42514" lon="5.30162">
        <ele>228</ele>
        <time>2022-07-25T05:27:30Z</time>
      </trkpt>
      <trkpt lat="46.42504" lon="5.30158">
        <ele>227.8</ele>
        <time>2022-07-25T05:27:32Z</time>
      </trkpt>
      <trkpt lat="46.42487" lon="5.30131">
        <ele>227.2</ele>
        <time>2022-07-25T05:27:36Z</time>
      </trkpt>
      <trkpt lat="46.42466" lon="5.301">
        <ele>226.4</ele>
        <time>2022-07-25T05:27:40Z</time>
      </trkpt>
      <trkpt lat="46.42454" lon="5.30084">
        <ele>226</ele>
        <time>2022-07-25T05:27:42Z</time>
      </trkpt>
      <trkpt lat="46.42429" lon="5.30052">
        <ele>225.4</ele>
        <time>2022-07-25T05:27:46Z</time>
      </trkpt>
      <trkpt lat="46.42415" lon="5.30037">
        <ele>224.8</ele>
        <time>2022-07-25T05:27:48Z</time>
      </trkpt>
      <trkpt lat="46.42399" lon="5.30022">
        <ele>224.2</ele>
        <time>2022-07-25T05:27:50Z</time>
      </trkpt>
      <trkpt lat="46.42374" lon="5.30001">
        <ele>222.8</ele>
        <time>2022-07-25T05:27:53Z</time>
      </trkpt>
      <trkpt lat="46.42365" lon="5.29994">
        <ele>222.4</ele>
        <time>2022-07-25T05:27:54Z</time>
      </trkpt>
      <trkpt lat="46.42355" lon="5.29987">
        <ele>221.6</ele>
        <time>2022-07-25T05:27:55Z</time>
      </trkpt>
      <trkpt lat="46.42336" lon="5.29972">
        <ele>220.4</ele>
        <time>2022-07-25T05:27:57Z</time>
      </trkpt>
      <trkpt lat="46.42315" lon="5.29956">
        <ele>219.4</ele>
        <time>2022-07-25T05:27:59Z</time>
      </trkpt>
      <trkpt lat="46.42304" lon="5.29948">
        <ele>218.6</ele>
        <time>2022-07-25T05:28:00Z</time>
      </trkpt>
      <trkpt lat="46.42296" lon="5.29942">
        <ele>218.2</ele>
        <time>2022-07-25T05:28:01Z</time>
      </trkpt>
      <trkpt lat="46.42284" lon="5.29933">
        <ele>217.2</ele>
        <time>2022-07-25T05:28:02Z</time>
      </trkpt>
      <trkpt lat="46.42266" lon="5.29918">
        <ele>216</ele>
        <time>2022-07-25T05:28:04Z</time>
      </trkpt>
      <trkpt lat="46.42245" lon="5.29902">
        <ele>215.6</ele>
        <time>2022-07-25T05:28:06Z</time>
      </trkpt>
      <trkpt lat="46.42234" lon="5.29894">
        <ele>214.6</ele>
        <time>2022-07-25T05:28:07Z</time>
      </trkpt>
      <trkpt lat="46.42213" lon="5.29876">
        <ele>213.4</ele>
        <time>2022-07-25T05:28:09Z</time>
      </trkpt>
      <trkpt lat="46.42191" lon="5.29858">
        <ele>212</ele>
        <time>2022-07-25T05:28:11Z</time>
      </trkpt>
      <trkpt lat="46.4217" lon="5.29839">
        <ele>210.8</ele>
        <time>2022-07-25T05:28:13Z</time>
      </trkpt>
      <trkpt lat="46.4216" lon="5.29829">
        <ele>209.4</ele>
        <time>2022-07-25T05:28:14Z</time>
      </trkpt>
      <trkpt lat="46.42142" lon="5.29809">
        <ele>207.8</ele>
        <time>2022-07-25T05:28:16Z</time>
      </trkpt>
      <trkpt lat="46.42132" lon="5.29797">
        <ele>207.2</ele>
        <time>2022-07-25T05:28:17Z</time>
      </trkpt>
      <trkpt lat="46.42126" lon="5.29789">
        <ele>206.4</ele>
        <time>2022-07-25T05:28:18Z</time>
      </trkpt>
      <trkpt lat="46.42107" lon="5.29762">
        <ele>206</ele>
        <time>2022-07-25T05:28:21Z</time>
      </trkpt>
      <trkpt lat="46.42083" lon="5.29725">
        <ele>206.2</ele>
        <time>2022-07-25T05:28:26Z</time>
      </trkpt>
      <trkpt lat="46.42068" lon="5.29703">
        <ele>208</ele>
        <time>2022-07-25T05:28:30Z</time>
      </trkpt>
      <trkpt lat="46.42061" lon="5.29693">
        <ele>208.8</ele>
        <time>2022-07-25T05:28:32Z</time>
      </trkpt>
      <trkpt lat="46.42058" lon="5.29688">
        <ele>209</ele>
        <time>2022-07-25T05:28:33Z</time>
      </trkpt>
      <trkpt lat="46.4205" lon="5.29676">
        <ele>210</ele>
        <time>2022-07-25T05:28:36Z</time>
      </trkpt>
      <trkpt lat="46.42045" lon="5.29668">
        <ele>210.6</ele>
        <time>2022-07-25T05:28:38Z</time>
      </trkpt>
      <trkpt lat="46.42039" lon="5.29661">
        <ele>211.2</ele>
        <time>2022-07-25T05:28:40Z</time>
      </trkpt>
      <trkpt lat="46.4203" lon="5.29646">
        <ele>212.4</ele>
        <time>2022-07-25T05:28:44Z</time>
      </trkpt>
      <trkpt lat="46.42025" lon="5.29639">
        <ele>213</ele>
        <time>2022-07-25T05:28:46Z</time>
      </trkpt>
      <trkpt lat="46.4202" lon="5.29633">
        <ele>213.6</ele>
        <time>2022-07-25T05:28:48Z</time>
      </trkpt>
      <trkpt lat="46.42009" lon="5.29616">
        <ele>214.6</ele>
        <time>2022-07-25T05:28:53Z</time>
      </trkpt>
      <trkpt lat="46.41998" lon="5.29599">
        <ele>215.6</ele>
        <time>2022-07-25T05:28:58Z</time>
      </trkpt>
      <trkpt lat="46.41989" lon="5.29587">
        <ele>216.6</ele>
        <time>2022-07-25T05:29:02Z</time>
      </trkpt>
      <trkpt lat="46.41987" lon="5.29583">
        <ele>216.8</ele>
        <time>2022-07-25T05:29:03Z</time>
      </trkpt>
      <trkpt lat="46.41979" lon="5.29571">
        <ele>217.8</ele>
        <time>2022-07-25T05:29:07Z</time>
      </trkpt>
      <trkpt lat="46.41966" lon="5.2955">
        <ele>218.8</ele>
        <time>2022-07-25T05:29:13Z</time>
      </trkpt>
      <trkpt lat="46.41964" lon="5.29546">
        <ele>219</ele>
        <time>2022-07-25T05:29:14Z</time>
      </trkpt>
      <trkpt lat="46.41953" lon="5.29523">
        <ele>220.2</ele>
        <time>2022-07-25T05:29:20Z</time>
      </trkpt>
      <trkpt lat="46.41946" lon="5.29502">
        <ele>221.4</ele>
        <time>2022-07-25T05:29:25Z</time>
      </trkpt>
      <trkpt lat="46.4194" lon="5.29482">
        <ele>222.4</ele>
        <time>2022-07-25T05:29:30Z</time>
      </trkpt>
      <trkpt lat="46.41935" lon="5.29469">
        <ele>223</ele>
        <time>2022-07-25T05:29:33Z</time>
      </trkpt>
      <trkpt lat="46.41932" lon="5.29461">
        <ele>223.4</ele>
        <time>2022-07-25T05:29:35Z</time>
      </trkpt>
      <trkpt lat="46.41929" lon="5.29458">
        <ele>223.6</ele>
        <time>2022-07-25T05:29:36Z</time>
      </trkpt>
      <trkpt lat="46.41925" lon="5.29457">
        <ele>223.8</ele>
        <time>2022-07-25T05:29:37Z</time>
      </trkpt>
      <trkpt lat="46.41909" lon="5.29459">
        <ele>224.4</ele>
        <time>2022-07-25T05:29:41Z</time>
      </trkpt>
      <trkpt lat="46.41901" lon="5.29461">
        <ele>224.8</ele>
        <time>2022-07-25T05:29:43Z</time>
      </trkpt>
      <trkpt lat="46.41878" lon="5.29464">
        <ele>225.4</ele>
        <time>2022-07-25T05:29:48Z</time>
      </trkpt>
      <trkpt lat="46.41853" lon="5.29469">
        <ele>225.2</ele>
        <time>2022-07-25T05:29:53Z</time>
      </trkpt>
      <trkpt lat="46.41814" lon="5.29484">
        <ele>225</ele>
        <time>2022-07-25T05:29:59Z</time>
      </trkpt>
      <trkpt lat="46.41787" lon="5.29495">
        <ele>223.8</ele>
        <time>2022-07-25T05:30:03Z</time>
      </trkpt>
      <trkpt lat="46.41779" lon="5.29497">
        <ele>223.6</ele>
        <time>2022-07-25T05:30:04Z</time>
      </trkpt>
      <trkpt lat="46.41748" lon="5.29499">
        <ele>223</ele>
        <time>2022-07-25T05:30:08Z</time>
      </trkpt>
      <trkpt lat="46.41732" lon="5.29498">
        <ele>222.6</ele>
        <time>2022-07-25T05:30:10Z</time>
      </trkpt>
      <trkpt lat="46.41696" lon="5.29494">
        <ele>222</ele>
        <time>2022-07-25T05:30:15Z</time>
      </trkpt>
      <trkpt lat="46.4169" lon="5.29496">
        <ele>222</ele>
        <time>2022-07-25T05:30:16Z</time>
      </trkpt>
      <trkpt lat="46.41684" lon="5.29499">
        <ele>221.8</ele>
        <time>2022-07-25T05:30:17Z</time>
      </trkpt>
      <trkpt lat="46.41668" lon="5.29513">
        <ele>221.8</ele>
        <time>2022-07-25T05:30:20Z</time>
      </trkpt>
      <trkpt lat="46.41664" lon="5.29518">
        <ele>221.8</ele>
        <time>2022-07-25T05:30:21Z</time>
      </trkpt>
      <trkpt lat="46.41656" lon="5.2953">
        <ele>222</ele>
        <time>2022-07-25T05:30:23Z</time>
      </trkpt>
      <trkpt lat="46.41653" lon="5.29537">
        <ele>222</ele>
        <time>2022-07-25T05:30:24Z</time>
      </trkpt>
      <trkpt lat="46.41643" lon="5.29568">
        <ele>222.2</ele>
        <time>2022-07-25T05:30:28Z</time>
      </trkpt>
      <trkpt lat="46.41636" lon="5.29582">
        <ele>222.2</ele>
        <time>2022-07-25T05:30:30Z</time>
      </trkpt>
      <trkpt lat="46.41621" lon="5.29598">
        <ele>222.2</ele>
        <time>2022-07-25T05:30:33Z</time>
      </trkpt>
      <trkpt lat="46.41615" lon="5.29602">
        <ele>222.2</ele>
        <time>2022-07-25T05:30:34Z</time>
      </trkpt>
      <trkpt lat="46.41573" lon="5.29622">
        <ele>222</ele>
        <time>2022-07-25T05:30:41Z</time>
      </trkpt>
      <trkpt lat="46.41525" lon="5.29633">
        <ele>221.8</ele>
        <time>2022-07-25T05:30:49Z</time>
      </trkpt>
      <trkpt lat="46.41519" lon="5.29634">
        <ele>221.6</ele>
        <time>2022-07-25T05:30:50Z</time>
      </trkpt>
      <trkpt lat="46.41479" lon="5.29637">
        <ele>222</ele>
        <time>2022-07-25T05:30:57Z</time>
      </trkpt>
      <trkpt lat="46.41434" lon="5.29644">
        <ele>222.6</ele>
        <time>2022-07-25T05:31:05Z</time>
      </trkpt>
      <trkpt lat="46.41429" lon="5.29645">
        <ele>222.8</ele>
        <time>2022-07-25T05:31:06Z</time>
      </trkpt>
      <trkpt lat="46.41387" lon="5.29656">
        <ele>223.4</ele>
        <time>2022-07-25T05:31:14Z</time>
      </trkpt>
      <trkpt lat="46.41344" lon="5.29668">
        <ele>224</ele>
        <time>2022-07-25T05:31:22Z</time>
      </trkpt>
      <trkpt lat="46.41328" lon="5.29675">
        <ele>224</ele>
        <time>2022-07-25T05:31:25Z</time>
      </trkpt>
      <trkpt lat="46.41313" lon="5.29684">
        <ele>224.2</ele>
        <time>2022-07-25T05:31:28Z</time>
      </trkpt>
      <trkpt lat="46.41304" lon="5.29695">
        <ele>224.2</ele>
        <time>2022-07-25T05:31:30Z</time>
      </trkpt>
      <trkpt lat="46.41281" lon="5.29738">
        <ele>224.2</ele>
        <time>2022-07-25T05:31:36Z</time>
      </trkpt>
      <trkpt lat="46.41274" lon="5.29762">
        <ele>224.2</ele>
        <time>2022-07-25T05:31:39Z</time>
      </trkpt>
      <trkpt lat="46.41271" lon="5.2978">
        <ele>224</ele>
        <time>2022-07-25T05:31:41Z</time>
      </trkpt>
      <trkpt lat="46.41271" lon="5.29789">
        <ele>224</ele>
        <time>2022-07-25T05:31:42Z</time>
      </trkpt>
      <trkpt lat="46.41273" lon="5.29825">
        <ele>223.8</ele>
        <time>2022-07-25T05:31:46Z</time>
      </trkpt>
      <trkpt lat="46.41275" lon="5.29871">
        <ele>223.4</ele>
        <time>2022-07-25T05:31:51Z</time>
      </trkpt>
      <trkpt lat="46.41274" lon="5.29879">
        <ele>223.4</ele>
        <time>2022-07-25T05:31:52Z</time>
      </trkpt>
      <trkpt lat="46.41272" lon="5.29888">
        <ele>223.4</ele>
        <time>2022-07-25T05:31:53Z</time>
      </trkpt>
      <trkpt lat="46.41267" lon="5.29903">
        <ele>223.4</ele>
        <time>2022-07-25T05:31:55Z</time>
      </trkpt>
      <trkpt lat="46.41263" lon="5.2991">
        <ele>223.4</ele>
        <time>2022-07-25T05:31:56Z</time>
      </trkpt>
      <trkpt lat="46.41254" lon="5.29922">
        <ele>223.4</ele>
        <time>2022-07-25T05:31:58Z</time>
      </trkpt>
      <trkpt lat="46.41244" lon="5.2993">
        <ele>223.6</ele>
        <time>2022-07-25T05:32:00Z</time>
      </trkpt>
      <trkpt lat="46.41218" lon="5.29949">
        <ele>224.4</ele>
        <time>2022-07-25T05:32:06Z</time>
      </trkpt>
      <trkpt lat="46.41208" lon="5.29954">
        <ele>225</ele>
        <time>2022-07-25T05:32:08Z</time>
      </trkpt>
      <trkpt lat="46.41187" lon="5.29968">
        <ele>225.8</ele>
        <time>2022-07-25T05:32:12Z</time>
      </trkpt>
      <trkpt lat="46.41176" lon="5.29973">
        <ele>226</ele>
        <time>2022-07-25T05:32:14Z</time>
      </trkpt>
      <trkpt lat="46.41146" lon="5.29978">
        <ele>227</ele>
        <time>2022-07-25T05:32:19Z</time>
      </trkpt>
      <trkpt lat="46.4114" lon="5.29979">
        <ele>227.2</ele>
        <time>2022-07-25T05:32:20Z</time>
      </trkpt>
      <trkpt lat="46.41103" lon="5.29984">
        <ele>227.2</ele>
        <time>2022-07-25T05:32:26Z</time>
      </trkpt>
      <trkpt lat="46.41059" lon="5.2999">
        <ele>226.6</ele>
        <time>2022-07-25T05:32:33Z</time>
      </trkpt>
      <trkpt lat="46.41023" lon="5.29995">
        <ele>226.4</ele>
        <time>2022-07-25T05:32:39Z</time>
      </trkpt>
      <trkpt lat="46.41017" lon="5.29996">
        <ele>226.4</ele>
        <time>2022-07-25T05:32:40Z</time>
      </trkpt>
      <trkpt lat="46.40987" lon="5.29999">
        <ele>226.4</ele>
        <time>2022-07-25T05:32:45Z</time>
      </trkpt>
      <trkpt lat="46.4097" lon="5.29999">
        <ele>226.6</ele>
        <time>2022-07-25T05:32:48Z</time>
      </trkpt>
      <trkpt lat="46.40945" lon="5.29994">
        <ele>226.4</ele>
        <time>2022-07-25T05:32:53Z</time>
      </trkpt>
      <trkpt lat="46.40925" lon="5.29994">
        <ele>226.4</ele>
        <time>2022-07-25T05:32:56Z</time>
      </trkpt>
      <trkpt lat="46.40919" lon="5.29993">
        <ele>226.4</ele>
        <time>2022-07-25T05:32:57Z</time>
      </trkpt>
      <trkpt lat="46.40889" lon="5.29994">
        <ele>226.6</ele>
        <time>2022-07-25T05:33:02Z</time>
      </trkpt>
      <trkpt lat="46.40853" lon="5.29993">
        <ele>226.8</ele>
        <time>2022-07-25T05:33:08Z</time>
      </trkpt>
      <trkpt lat="46.40847" lon="5.29993">
        <ele>227</ele>
        <time>2022-07-25T05:33:09Z</time>
      </trkpt>
      <trkpt lat="46.40841" lon="5.29992">
        <ele>227</ele>
        <time>2022-07-25T05:33:10Z</time>
      </trkpt>
      <trkpt lat="46.40829" lon="5.29987">
        <ele>227.2</ele>
        <time>2022-07-25T05:33:12Z</time>
      </trkpt>
      <trkpt lat="46.40818" lon="5.29982">
        <ele>227.4</ele>
        <time>2022-07-25T05:33:14Z</time>
      </trkpt>
      <trkpt lat="46.40788" lon="5.2997">
        <ele>227.2</ele>
        <time>2022-07-25T05:33:19Z</time>
      </trkpt>
      <trkpt lat="46.40782" lon="5.29967">
        <ele>227.2</ele>
        <time>2022-07-25T05:33:20Z</time>
      </trkpt>
      <trkpt lat="46.40729" lon="5.29942">
        <ele>227.2</ele>
        <time>2022-07-25T05:33:29Z</time>
      </trkpt>
      <trkpt lat="46.40695" lon="5.29921">
        <ele>227.4</ele>
        <time>2022-07-25T05:33:35Z</time>
      </trkpt>
      <trkpt lat="46.40649" lon="5.29885">
        <ele>227.4</ele>
        <time>2022-07-25T05:33:44Z</time>
      </trkpt>
      <trkpt lat="46.40624" lon="5.29855">
        <ele>227.4</ele>
        <time>2022-07-25T05:33:50Z</time>
      </trkpt>
      <trkpt lat="46.40615" lon="5.29845">
        <ele>227.4</ele>
        <time>2022-07-25T05:33:52Z</time>
      </trkpt>
      <trkpt lat="46.40599" lon="5.29833">
        <ele>227.6</ele>
        <time>2022-07-25T05:33:55Z</time>
      </trkpt>
      <trkpt lat="46.40593" lon="5.2983">
        <ele>227.8</ele>
        <time>2022-07-25T05:33:56Z</time>
      </trkpt>
      <trkpt lat="46.40587" lon="5.29828">
        <ele>228</ele>
        <time>2022-07-25T05:33:57Z</time>
      </trkpt>
      <trkpt lat="46.40561" lon="5.29825">
        <ele>228.2</ele>
        <time>2022-07-25T05:34:01Z</time>
      </trkpt>
      <trkpt lat="46.4053" lon="5.29822">
        <ele>228.6</ele>
        <time>2022-07-25T05:34:06Z</time>
      </trkpt>
      <trkpt lat="46.40506" lon="5.29821">
        <ele>228.8</ele>
        <time>2022-07-25T05:34:10Z</time>
      </trkpt>
      <trkpt lat="46.40452" lon="5.29815">
        <ele>228.8</ele>
        <time>2022-07-25T05:34:19Z</time>
      </trkpt>
      <trkpt lat="46.4044" lon="5.29814">
        <ele>228.8</ele>
        <time>2022-07-25T05:34:21Z</time>
      </trkpt>
      <trkpt lat="46.40395" lon="5.29807">
        <ele>228.8</ele>
        <time>2022-07-25T05:34:28Z</time>
      </trkpt>
      <trkpt lat="46.40339" lon="5.29799">
        <ele>228.8</ele>
        <time>2022-07-25T05:34:37Z</time>
      </trkpt>
      <trkpt lat="46.40317" lon="5.29796">
        <ele>228.8</ele>
        <time>2022-07-25T05:34:41Z</time>
      </trkpt>
      <trkpt lat="46.40263" lon="5.29789">
        <ele>228.6</ele>
        <time>2022-07-25T05:34:50Z</time>
      </trkpt>
      <trkpt lat="46.40212" lon="5.29781">
        <ele>228</ele>
        <time>2022-07-25T05:34:59Z</time>
      </trkpt>
      <trkpt lat="46.40204" lon="5.2978">
        <ele>228</ele>
        <time>2022-07-25T05:35:01Z</time>
      </trkpt>
      <trkpt lat="46.40197" lon="5.29778">
        <ele>227.8</ele>
        <time>2022-07-25T05:35:03Z</time>
      </trkpt>
      <trkpt lat="46.4017" lon="5.29778">
        <ele>227.6</ele>
        <time>2022-07-25T05:35:08Z</time>
      </trkpt>
      <trkpt lat="46.4016" lon="5.29778">
        <ele>227.6</ele>
        <time>2022-07-25T05:35:10Z</time>
      </trkpt>
      <trkpt lat="46.40136" lon="5.2978">
        <ele>227.6</ele>
        <time>2022-07-25T05:35:14Z</time>
      </trkpt>
      <trkpt lat="46.40087" lon="5.29786">
        <ele>227.8</ele>
        <time>2022-07-25T05:35:22Z</time>
      </trkpt>
      <trkpt lat="46.40028" lon="5.29794">
        <ele>227.6</ele>
        <time>2022-07-25T05:35:31Z</time>
      </trkpt>
      <trkpt lat="46.39968" lon="5.298">
        <ele>226.8</ele>
        <time>2022-07-25T05:35:40Z</time>
      </trkpt>
      <trkpt lat="46.39916" lon="5.29807">
        <ele>226.4</ele>
        <time>2022-07-25T05:35:47Z</time>
      </trkpt>
      <trkpt lat="46.39891" lon="5.29812">
        <ele>225.8</ele>
        <time>2022-07-25T05:35:50Z</time>
      </trkpt>
      <trkpt lat="46.39865" lon="5.29814">
        <ele>224.8</ele>
        <time>2022-07-25T05:35:53Z</time>
      </trkpt>
      <trkpt lat="46.39856" lon="5.29813">
        <ele>224.6</ele>
        <time>2022-07-25T05:35:54Z</time>
      </trkpt>
      <trkpt lat="46.39827" lon="5.29813">
        <ele>223.6</ele>
        <time>2022-07-25T05:35:57Z</time>
      </trkpt>
      <trkpt lat="46.39817" lon="5.29814">
        <ele>223.2</ele>
        <time>2022-07-25T05:35:58Z</time>
      </trkpt>
      <trkpt lat="46.39796" lon="5.29818">
        <ele>221.8</ele>
        <time>2022-07-25T05:36:00Z</time>
      </trkpt>
      <trkpt lat="46.39773" lon="5.29822">
        <ele>220.4</ele>
        <time>2022-07-25T05:36:02Z</time>
      </trkpt>
      <trkpt lat="46.3975" lon="5.29826">
        <ele>219.2</ele>
        <time>2022-07-25T05:36:04Z</time>
      </trkpt>
      <trkpt lat="46.39725" lon="5.29828">
        <ele>218</ele>
        <time>2022-07-25T05:36:06Z</time>
      </trkpt>
      <trkpt lat="46.397" lon="5.29829">
        <ele>216.8</ele>
        <time>2022-07-25T05:36:08Z</time>
      </trkpt>
      <trkpt lat="46.39687" lon="5.29828">
        <ele>215.2</ele>
        <time>2022-07-25T05:36:09Z</time>
      </trkpt>
      <trkpt lat="46.39661" lon="5.29817">
        <ele>213</ele>
        <time>2022-07-25T05:36:11Z</time>
      </trkpt>
      <trkpt lat="46.39639" lon="5.29794">
        <ele>211.2</ele>
        <time>2022-07-25T05:36:13Z</time>
      </trkpt>
      <trkpt lat="46.3963" lon="5.29781">
        <ele>210</ele>
        <time>2022-07-25T05:36:14Z</time>
      </trkpt>
      <trkpt lat="46.39611" lon="5.29754">
        <ele>208.6</ele>
        <time>2022-07-25T05:36:16Z</time>
      </trkpt>
      <trkpt lat="46.39602" lon="5.29741">
        <ele>207.6</ele>
        <time>2022-07-25T05:36:17Z</time>
      </trkpt>
      <trkpt lat="46.39593" lon="5.2973">
        <ele>206</ele>
        <time>2022-07-25T05:36:18Z</time>
      </trkpt>
      <trkpt lat="46.39583" lon="5.29722">
        <ele>205.8</ele>
        <time>2022-07-25T05:36:19Z</time>
      </trkpt>
      <trkpt lat="46.39561" lon="5.29712">
        <ele>204.2</ele>
        <time>2022-07-25T05:36:21Z</time>
      </trkpt>
      <trkpt lat="46.39523" lon="5.29711">
        <ele>203</ele>
        <time>2022-07-25T05:36:25Z</time>
      </trkpt>
      <trkpt lat="46.39475" lon="5.29708">
        <ele>203.4</ele>
        <time>2022-07-25T05:36:31Z</time>
      </trkpt>
      <trkpt lat="46.39461" lon="5.29706">
        <ele>204.2</ele>
        <time>2022-07-25T05:36:33Z</time>
      </trkpt>
      <trkpt lat="46.39449" lon="5.29705">
        <ele>205</ele>
        <time>2022-07-25T05:36:35Z</time>
      </trkpt>
      <trkpt lat="46.39443" lon="5.29705">
        <ele>205</ele>
        <time>2022-07-25T05:36:36Z</time>
      </trkpt>
      <trkpt lat="46.39438" lon="5.29706">
        <ele>205.2</ele>
        <time>2022-07-25T05:36:37Z</time>
      </trkpt>
      <trkpt lat="46.39427" lon="5.29708">
        <ele>205.8</ele>
        <time>2022-07-25T05:36:39Z</time>
      </trkpt>
      <trkpt lat="46.3942" lon="5.29711">
        <ele>206.8</ele>
        <time>2022-07-25T05:36:41Z</time>
      </trkpt>
      <trkpt lat="46.39416" lon="5.29714">
        <ele>207.2</ele>
        <time>2022-07-25T05:36:42Z</time>
      </trkpt>
      <trkpt lat="46.39403" lon="5.29725">
        <ele>208</ele>
        <time>2022-07-25T05:36:46Z</time>
      </trkpt>
      <trkpt lat="46.39389" lon="5.29741">
        <ele>209.4</ele>
        <time>2022-07-25T05:36:51Z</time>
      </trkpt>
      <trkpt lat="46.39387" lon="5.29745">
        <ele>209.6</ele>
        <time>2022-07-25T05:36:52Z</time>
      </trkpt>
      <trkpt lat="46.39378" lon="5.29753">
        <ele>210.6</ele>
        <time>2022-07-25T05:36:55Z</time>
      </trkpt>
      <trkpt lat="46.39376" lon="5.29755">
        <ele>210.8</ele>
        <time>2022-07-25T05:36:56Z</time>
      </trkpt>
      <trkpt lat="46.39373" lon="5.29758">
        <ele>211</ele>
        <time>2022-07-25T05:36:57Z</time>
      </trkpt>
      <trkpt lat="46.39366" lon="5.29769">
        <ele>211.8</ele>
        <time>2022-07-25T05:37:00Z</time>
      </trkpt>
      <trkpt lat="46.39359" lon="5.29782">
        <ele>212.8</ele>
        <time>2022-07-25T05:37:03Z</time>
      </trkpt>
      <trkpt lat="46.39355" lon="5.29792">
        <ele>213.2</ele>
        <time>2022-07-25T05:37:05Z</time>
      </trkpt>
      <trkpt lat="46.39349" lon="5.29815">
        <ele>213.8</ele>
        <time>2022-07-25T05:37:09Z</time>
      </trkpt>
      <trkpt lat="46.39345" lon="5.29831">
        <ele>214.4</ele>
        <time>2022-07-25T05:37:12Z</time>
      </trkpt>
      <trkpt lat="46.39333" lon="5.29861">
        <ele>215.2</ele>
        <time>2022-07-25T05:37:18Z</time>
      </trkpt>
      <trkpt lat="46.39325" lon="5.29874">
        <ele>215.4</ele>
        <time>2022-07-25T05:37:21Z</time>
      </trkpt>
      <trkpt lat="46.39308" lon="5.29895">
        <ele>216.2</ele>
        <time>2022-07-25T05:37:27Z</time>
      </trkpt>
      <trkpt lat="46.39301" lon="5.29901">
        <ele>216.6</ele>
        <time>2022-07-25T05:37:29Z</time>
      </trkpt>
      <trkpt lat="46.39285" lon="5.29907">
        <ele>217.4</ele>
        <time>2022-07-25T05:37:33Z</time>
      </trkpt>
      <trkpt lat="46.39274" lon="5.2991">
        <ele>217.6</ele>
        <time>2022-07-25T05:37:35Z</time>
      </trkpt>
      <trkpt lat="46.39259" lon="5.29914">
        <ele>217.8</ele>
        <time>2022-07-25T05:37:38Z</time>
      </trkpt>
      <trkpt lat="46.39215" lon="5.29925">
        <ele>217.6</ele>
        <time>2022-07-25T05:37:45Z</time>
      </trkpt>
      <trkpt lat="46.39163" lon="5.29932">
        <ele>216.6</ele>
        <time>2022-07-25T05:37:52Z</time>
      </trkpt>
      <trkpt lat="46.39146" lon="5.29926">
        <ele>216.6</ele>
        <time>2022-07-25T05:37:54Z</time>
      </trkpt>
      <trkpt lat="46.39133" lon="5.29917">
        <ele>216</ele>
        <time>2022-07-25T05:37:56Z</time>
      </trkpt>
      <trkpt lat="46.39118" lon="5.29904">
        <ele>215.4</ele>
        <time>2022-07-25T05:37:58Z</time>
      </trkpt>
      <trkpt lat="46.39094" lon="5.29886">
        <ele>214.4</ele>
        <time>2022-07-25T05:38:01Z</time>
      </trkpt>
      <trkpt lat="46.39083" lon="5.2988">
        <ele>214</ele>
        <time>2022-07-25T05:38:02Z</time>
      </trkpt>
      <trkpt lat="46.39065" lon="5.29873">
        <ele>213.2</ele>
        <time>2022-07-25T05:38:04Z</time>
      </trkpt>
      <trkpt lat="46.39055" lon="5.2987">
        <ele>212.8</ele>
        <time>2022-07-25T05:38:05Z</time>
      </trkpt>
      <trkpt lat="46.39033" lon="5.29863">
        <ele>212</ele>
        <time>2022-07-25T05:38:07Z</time>
      </trkpt>
      <trkpt lat="46.39008" lon="5.29858">
        <ele>210.6</ele>
        <time>2022-07-25T05:38:09Z</time>
      </trkpt>
      <trkpt lat="46.38999" lon="5.29858">
        <ele>209.8</ele>
        <time>2022-07-25T05:38:10Z</time>
      </trkpt>
      <trkpt lat="46.38984" lon="5.29857">
        <ele>209.2</ele>
        <time>2022-07-25T05:38:11Z</time>
      </trkpt>
      <trkpt lat="46.38972" lon="5.29856">
        <ele>208</ele>
        <time>2022-07-25T05:38:12Z</time>
      </trkpt>
      <trkpt lat="46.38951" lon="5.29855">
        <ele>206.2</ele>
        <time>2022-07-25T05:38:14Z</time>
      </trkpt>
      <trkpt lat="46.38929" lon="5.29854">
        <ele>205</ele>
        <time>2022-07-25T05:38:16Z</time>
      </trkpt>
      <trkpt lat="46.38916" lon="5.29853">
        <ele>204</ele>
        <time>2022-07-25T05:38:17Z</time>
      </trkpt>
      <trkpt lat="46.38908" lon="5.29853">
        <ele>203.6</ele>
        <time>2022-07-25T05:38:18Z</time>
      </trkpt>
      <trkpt lat="46.38898" lon="5.29853">
        <ele>202.8</ele>
        <time>2022-07-25T05:38:19Z</time>
      </trkpt>
      <trkpt lat="46.38851" lon="5.2985">
        <ele>201.8</ele>
        <time>2022-07-25T05:38:24Z</time>
      </trkpt>
      <trkpt lat="46.38795" lon="5.29849">
        <ele>201</ele>
        <time>2022-07-25T05:38:31Z</time>
      </trkpt>
      <trkpt lat="46.3876" lon="5.29849">
        <ele>201</ele>
        <time>2022-07-25T05:38:36Z</time>
      </trkpt>
      <trkpt lat="46.38754" lon="5.29846">
        <ele>201</ele>
        <time>2022-07-25T05:38:37Z</time>
      </trkpt>
      <trkpt lat="46.3875" lon="5.29842">
        <ele>201</ele>
        <time>2022-07-25T05:38:38Z</time>
      </trkpt>
      <trkpt lat="46.38748" lon="5.29828">
        <ele>200.8</ele>
        <time>2022-07-25T05:38:40Z</time>
      </trkpt>
      <trkpt lat="46.38756" lon="5.29797">
        <ele>200.8</ele>
        <time>2022-07-25T05:38:44Z</time>
      </trkpt>
      <trkpt lat="46.38761" lon="5.29779">
        <ele>200.8</ele>
        <time>2022-07-25T05:38:46Z</time>
      </trkpt>
      <trkpt lat="46.38762" lon="5.2977">
        <ele>200.6</ele>
        <time>2022-07-25T05:38:47Z</time>
      </trkpt>
      <trkpt lat="46.38763" lon="5.2976">
        <ele>200.6</ele>
        <time>2022-07-25T05:38:48Z</time>
      </trkpt>
      <trkpt lat="46.38762" lon="5.29751">
        <ele>200.6</ele>
        <time>2022-07-25T05:38:49Z</time>
      </trkpt>
      <trkpt lat="46.38761" lon="5.29742">
        <ele>200.6</ele>
        <time>2022-07-25T05:38:50Z</time>
      </trkpt>
      <trkpt lat="46.38755" lon="5.29725">
        <ele>200.4</ele>
        <time>2022-07-25T05:38:52Z</time>
      </trkpt>
      <trkpt lat="46.38752" lon="5.29717">
        <ele>200.6</ele>
        <time>2022-07-25T05:38:53Z</time>
      </trkpt>
      <trkpt lat="46.38748" lon="5.29711">
        <ele>200.6</ele>
        <time>2022-07-25T05:38:54Z</time>
      </trkpt>
      <trkpt lat="46.38738" lon="5.29699">
        <ele>200.6</ele>
        <time>2022-07-25T05:38:56Z</time>
      </trkpt>
      <trkpt lat="46.38733" lon="5.29694">
        <ele>200.6</ele>
        <time>2022-07-25T05:38:57Z</time>
      </trkpt>
      <trkpt lat="46.38716" lon="5.29682">
        <ele>201</ele>
        <time>2022-07-25T05:39:01Z</time>
      </trkpt>
      <trkpt lat="46.38708" lon="5.29677">
        <ele>201.2</ele>
        <time>2022-07-25T05:39:03Z</time>
      </trkpt>
      <trkpt lat="46.38694" lon="5.29664">
        <ele>202.4</ele>
        <time>2022-07-25T05:39:07Z</time>
      </trkpt>
      <trkpt lat="46.38691" lon="5.2966">
        <ele>202.6</ele>
        <time>2022-07-25T05:39:08Z</time>
      </trkpt>
      <trkpt lat="46.38687" lon="5.29652">
        <ele>203.6</ele>
        <time>2022-07-25T05:39:10Z</time>
      </trkpt>
      <trkpt lat="46.38684" lon="5.29644">
        <ele>204.4</ele>
        <time>2022-07-25T05:39:12Z</time>
      </trkpt>
      <trkpt lat="46.38681" lon="5.29634">
        <ele>204.8</ele>
        <time>2022-07-25T05:39:14Z</time>
      </trkpt>
      <trkpt lat="46.3868" lon="5.29617">
        <ele>205.4</ele>
        <time>2022-07-25T05:39:17Z</time>
      </trkpt>
      <trkpt lat="46.3868" lon="5.29605">
        <ele>205.8</ele>
        <time>2022-07-25T05:39:19Z</time>
      </trkpt>
      <trkpt lat="46.38678" lon="5.29581">
        <ele>207</ele>
        <time>2022-07-25T05:39:24Z</time>
      </trkpt>
      <trkpt lat="46.38677" lon="5.29572">
        <ele>207.4</ele>
        <time>2022-07-25T05:39:26Z</time>
      </trkpt>
      <trkpt lat="46.38676" lon="5.29552">
        <ele>208.4</ele>
        <time>2022-07-25T05:39:30Z</time>
      </trkpt>
      <trkpt lat="46.38675" lon="5.29527">
        <ele>209.4</ele>
        <time>2022-07-25T05:39:35Z</time>
      </trkpt>
      <trkpt lat="46.38675" lon="5.29522">
        <ele>209.6</ele>
        <time>2022-07-25T05:39:36Z</time>
      </trkpt>
      <trkpt lat="46.38678" lon="5.29492">
        <ele>210.6</ele>
        <time>2022-07-25T05:39:43Z</time>
      </trkpt>
      <trkpt lat="46.38679" lon="5.29479">
        <ele>211.2</ele>
        <time>2022-07-25T05:39:46Z</time>
      </trkpt>
      <trkpt lat="46.3868" lon="5.29475">
        <ele>211.6</ele>
        <time>2022-07-25T05:39:47Z</time>
      </trkpt>
      <trkpt lat="46.38682" lon="5.29458">
        <ele>212.6</ele>
        <time>2022-07-25T05:39:51Z</time>
      </trkpt>
      <trkpt lat="46.38682" lon="5.29453">
        <ele>212.6</ele>
        <time>2022-07-25T05:39:52Z</time>
      </trkpt>
      <trkpt lat="46.38684" lon="5.29431">
        <ele>213.6</ele>
        <time>2022-07-25T05:39:57Z</time>
      </trkpt>
      <trkpt lat="46.38684" lon="5.29427">
        <ele>213.8</ele>
        <time>2022-07-25T05:39:58Z</time>
      </trkpt>
      <trkpt lat="46.38685" lon="5.29405">
        <ele>214.6</ele>
        <time>2022-07-25T05:40:03Z</time>
      </trkpt>
      <trkpt lat="46.38685" lon="5.29391">
        <ele>215.2</ele>
        <time>2022-07-25T05:40:06Z</time>
      </trkpt>
      <trkpt lat="46.38685" lon="5.29382">
        <ele>215.8</ele>
        <time>2022-07-25T05:40:08Z</time>
      </trkpt>
      <trkpt lat="46.38684" lon="5.29345">
        <ele>216.8</ele>
        <time>2022-07-25T05:40:16Z</time>
      </trkpt>
      <trkpt lat="46.38686" lon="5.2931">
        <ele>217.8</ele>
        <time>2022-07-25T05:40:23Z</time>
      </trkpt>
      <trkpt lat="46.38688" lon="5.29304">
        <ele>218</ele>
        <time>2022-07-25T05:40:24Z</time>
      </trkpt>
      <trkpt lat="46.38699" lon="5.29273">
        <ele>218.4</ele>
        <time>2022-07-25T05:40:30Z</time>
      </trkpt>
      <trkpt lat="46.38702" lon="5.29247">
        <ele>219.2</ele>
        <time>2022-07-25T05:40:35Z</time>
      </trkpt>
      <trkpt lat="46.38703" lon="5.29242">
        <ele>219.2</ele>
        <time>2022-07-25T05:40:36Z</time>
      </trkpt>
      <trkpt lat="46.38704" lon="5.29213">
        <ele>220.2</ele>
        <time>2022-07-25T05:40:41Z</time>
      </trkpt>
      <trkpt lat="46.38704" lon="5.29206">
        <ele>220.4</ele>
        <time>2022-07-25T05:40:42Z</time>
      </trkpt>
      <trkpt lat="46.38703" lon="5.29181">
        <ele>221</ele>
        <time>2022-07-25T05:40:46Z</time>
      </trkpt>
      <trkpt lat="46.387" lon="5.29162">
        <ele>221.2</ele>
        <time>2022-07-25T05:40:49Z</time>
      </trkpt>
      <trkpt lat="46.387" lon="5.29155">
        <ele>221.4</ele>
        <time>2022-07-25T05:40:50Z</time>
      </trkpt>
      <trkpt lat="46.38692" lon="5.29113">
        <ele>221.6</ele>
        <time>2022-07-25T05:40:56Z</time>
      </trkpt>
      <trkpt lat="46.38686" lon="5.29067">
        <ele>221.8</ele>
        <time>2022-07-25T05:41:03Z</time>
      </trkpt>
      <trkpt lat="46.38682" lon="5.29031">
        <ele>222.4</ele>
        <time>2022-07-25T05:41:08Z</time>
      </trkpt>
      <trkpt lat="46.38678" lon="5.29016">
        <ele>222.6</ele>
        <time>2022-07-25T05:41:10Z</time>
      </trkpt>
      <trkpt lat="46.38666" lon="5.28964">
        <ele>222.6</ele>
        <time>2022-07-25T05:41:17Z</time>
      </trkpt>
      <trkpt lat="46.38652" lon="5.28906">
        <ele>222.8</ele>
        <time>2022-07-25T05:41:25Z</time>
      </trkpt>
      <trkpt lat="46.38648" lon="5.28894">
        <ele>222.8</ele>
        <time>2022-07-25T05:41:27Z</time>
      </trkpt>
      <trkpt lat="46.38642" lon="5.28879">
        <ele>223</ele>
        <time>2022-07-25T05:41:30Z</time>
      </trkpt>
      <trkpt lat="46.38639" lon="5.28873">
        <ele>223.2</ele>
        <time>2022-07-25T05:41:31Z</time>
      </trkpt>
      <trkpt lat="46.38636" lon="5.28869">
        <ele>223.2</ele>
        <time>2022-07-25T05:41:32Z</time>
      </trkpt>
      <trkpt lat="46.38622" lon="5.28852">
        <ele>223.4</ele>
        <time>2022-07-25T05:41:36Z</time>
      </trkpt>
      <trkpt lat="46.38619" lon="5.28847">
        <ele>223.6</ele>
        <time>2022-07-25T05:41:37Z</time>
      </trkpt>
      <trkpt lat="46.3861" lon="5.2883">
        <ele>223.8</ele>
        <time>2022-07-25T05:41:40Z</time>
      </trkpt>
      <trkpt lat="46.38603" lon="5.28809">
        <ele>223.8</ele>
        <time>2022-07-25T05:41:43Z</time>
      </trkpt>
      <trkpt lat="46.38602" lon="5.28802">
        <ele>223.8</ele>
        <time>2022-07-25T05:41:44Z</time>
      </trkpt>
      <trkpt lat="46.38598" lon="5.2878">
        <ele>224</ele>
        <time>2022-07-25T05:41:47Z</time>
      </trkpt>
      <trkpt lat="46.38596" lon="5.28756">
        <ele>224.4</ele>
        <time>2022-07-25T05:41:50Z</time>
      </trkpt>
      <trkpt lat="46.38597" lon="5.28718">
        <ele>225.4</ele>
        <time>2022-07-25T05:41:55Z</time>
      </trkpt>
      <trkpt lat="46.38597" lon="5.28714">
        <ele>225.6</ele>
        <time>2022-07-25T05:41:56Z</time>
      </trkpt>
      <trkpt lat="46.38595" lon="5.28683">
        <ele>226.6</ele>
        <time>2022-07-25T05:42:01Z</time>
      </trkpt>
      <trkpt lat="46.38589" lon="5.28644">
        <ele>227.4</ele>
        <time>2022-07-25T05:42:06Z</time>
      </trkpt>
      <trkpt lat="46.38584" lon="5.2863">
        <ele>227.8</ele>
        <time>2022-07-25T05:42:08Z</time>
      </trkpt>
      <trkpt lat="46.38578" lon="5.28618">
        <ele>228</ele>
        <time>2022-07-25T05:42:10Z</time>
      </trkpt>
      <trkpt lat="46.38568" lon="5.28608">
        <ele>228.2</ele>
        <time>2022-07-25T05:42:12Z</time>
      </trkpt>
      <trkpt lat="46.38557" lon="5.28602">
        <ele>228.4</ele>
        <time>2022-07-25T05:42:14Z</time>
      </trkpt>
      <trkpt lat="46.38553" lon="5.286">
        <ele>228.6</ele>
        <time>2022-07-25T05:42:15Z</time>
      </trkpt>
      <trkpt lat="46.38544" lon="5.28598">
        <ele>228.8</ele>
        <time>2022-07-25T05:42:17Z</time>
      </trkpt>
      <trkpt lat="46.38536" lon="5.28596">
        <ele>228.8</ele>
        <time>2022-07-25T05:42:19Z</time>
      </trkpt>
      <trkpt lat="46.38531" lon="5.28595">
        <ele>228.8</ele>
        <time>2022-07-25T05:42:20Z</time>
      </trkpt>
      <trkpt lat="46.38504" lon="5.28588">
        <ele>228.8</ele>
        <time>2022-07-25T05:42:25Z</time>
      </trkpt>
      <trkpt lat="46.38492" lon="5.28583">
        <ele>229</ele>
        <time>2022-07-25T05:42:27Z</time>
      </trkpt>
      <trkpt lat="46.38469" lon="5.28575">
        <ele>229</ele>
        <time>2022-07-25T05:42:31Z</time>
      </trkpt>
      <trkpt lat="46.38433" lon="5.28565">
        <ele>228.8</ele>
        <time>2022-07-25T05:42:37Z</time>
      </trkpt>
      <trkpt lat="46.38426" lon="5.28562">
        <ele>228.8</ele>
        <time>2022-07-25T05:42:38Z</time>
      </trkpt>
      <trkpt lat="46.38409" lon="5.28557">
        <ele>228.8</ele>
        <time>2022-07-25T05:42:41Z</time>
      </trkpt>
      <trkpt lat="46.38387" lon="5.28552">
        <ele>228.6</ele>
        <time>2022-07-25T05:42:44Z</time>
      </trkpt>
      <trkpt lat="46.38345" lon="5.28536">
        <ele>228.4</ele>
        <time>2022-07-25T05:42:50Z</time>
      </trkpt>
      <trkpt lat="46.38314" lon="5.28495">
        <ele>228.4</ele>
        <time>2022-07-25T05:42:56Z</time>
      </trkpt>
      <trkpt lat="46.38266" lon="5.2844">
        <ele>228.2</ele>
        <time>2022-07-25T05:43:05Z</time>
      </trkpt>
      <trkpt lat="46.38261" lon="5.28434">
        <ele>228.2</ele>
        <time>2022-07-25T05:43:06Z</time>
      </trkpt>
      <trkpt lat="46.38237" lon="5.28406">
        <ele>227.6</ele>
        <time>2022-07-25T05:43:10Z</time>
      </trkpt>
      <trkpt lat="46.38232" lon="5.28399">
        <ele>227.6</ele>
        <time>2022-07-25T05:43:11Z</time>
      </trkpt>
      <trkpt lat="46.3822" lon="5.28382">
        <ele>226.8</ele>
        <time>2022-07-25T05:43:13Z</time>
      </trkpt>
      <trkpt lat="46.38203" lon="5.28354">
        <ele>225.8</ele>
        <time>2022-07-25T05:43:16Z</time>
      </trkpt>
      <trkpt lat="46.38199" lon="5.28347">
        <ele>225.6</ele>
        <time>2022-07-25T05:43:17Z</time>
      </trkpt>
      <trkpt lat="46.38185" lon="5.2833">
        <ele>224.8</ele>
        <time>2022-07-25T05:43:19Z</time>
      </trkpt>
      <trkpt lat="46.38178" lon="5.28324">
        <ele>224.4</ele>
        <time>2022-07-25T05:43:20Z</time>
      </trkpt>
      <trkpt lat="46.3817" lon="5.28318">
        <ele>224.4</ele>
        <time>2022-07-25T05:43:21Z</time>
      </trkpt>
      <trkpt lat="46.38145" lon="5.28304">
        <ele>223.2</ele>
        <time>2022-07-25T05:43:24Z</time>
      </trkpt>
      <trkpt lat="46.38119" lon="5.28287">
        <ele>222.2</ele>
        <time>2022-07-25T05:43:27Z</time>
      </trkpt>
      <trkpt lat="46.3811" lon="5.28281">
        <ele>222</ele>
        <time>2022-07-25T05:43:28Z</time>
      </trkpt>
      <trkpt lat="46.38085" lon="5.28257">
        <ele>220.6</ele>
        <time>2022-07-25T05:43:31Z</time>
      </trkpt>
      <trkpt lat="46.38068" lon="5.2824">
        <ele>220</ele>
        <time>2022-07-25T05:43:33Z</time>
      </trkpt>
      <trkpt lat="46.3806" lon="5.28232">
        <ele>219.4</ele>
        <time>2022-07-25T05:43:34Z</time>
      </trkpt>
      <trkpt lat="46.38044" lon="5.28216">
        <ele>218.4</ele>
        <time>2022-07-25T05:43:36Z</time>
      </trkpt>
      <trkpt lat="46.38038" lon="5.28208">
        <ele>218.2</ele>
        <time>2022-07-25T05:43:37Z</time>
      </trkpt>
      <trkpt lat="46.38032" lon="5.282">
        <ele>218</ele>
        <time>2022-07-25T05:43:38Z</time>
      </trkpt>
      <trkpt lat="46.38027" lon="5.28194">
        <ele>217.6</ele>
        <time>2022-07-25T05:43:39Z</time>
      </trkpt>
      <trkpt lat="46.38021" lon="5.28189">
        <ele>216.8</ele>
        <time>2022-07-25T05:43:40Z</time>
      </trkpt>
      <trkpt lat="46.38016" lon="5.28187">
        <ele>216.2</ele>
        <time>2022-07-25T05:43:41Z</time>
      </trkpt>
      <trkpt lat="46.38004" lon="5.28186">
        <ele>215.2</ele>
        <time>2022-07-25T05:43:43Z</time>
      </trkpt>
      <trkpt lat="46.37999" lon="5.28187">
        <ele>215</ele>
        <time>2022-07-25T05:43:44Z</time>
      </trkpt>
      <trkpt lat="46.37993" lon="5.28191">
        <ele>214.6</ele>
        <time>2022-07-25T05:43:45Z</time>
      </trkpt>
      <trkpt lat="46.37984" lon="5.28199">
        <ele>214.2</ele>
        <time>2022-07-25T05:43:47Z</time>
      </trkpt>
      <trkpt lat="46.37979" lon="5.28201">
        <ele>214.2</ele>
        <time>2022-07-25T05:43:48Z</time>
      </trkpt>
      <trkpt lat="46.37974" lon="5.28201">
        <ele>214.2</ele>
        <time>2022-07-25T05:43:49Z</time>
      </trkpt>
      <trkpt lat="46.37965" lon="5.28196">
        <ele>214.2</ele>
        <time>2022-07-25T05:43:51Z</time>
      </trkpt>
      <trkpt lat="46.37927" lon="5.28171">
        <ele>215</ele>
        <time>2022-07-25T05:43:58Z</time>
      </trkpt>
      <trkpt lat="46.37915" lon="5.28162">
        <ele>215.2</ele>
        <time>2022-07-25T05:44:00Z</time>
      </trkpt>
      <trkpt lat="46.37891" lon="5.28142">
        <ele>215.4</ele>
        <time>2022-07-25T05:44:04Z</time>
      </trkpt>
      <trkpt lat="46.37852" lon="5.28116">
        <ele>215</ele>
        <time>2022-07-25T05:44:10Z</time>
      </trkpt>
      <trkpt lat="46.37839" lon="5.28108">
        <ele>215</ele>
        <time>2022-07-25T05:44:12Z</time>
      </trkpt>
      <trkpt lat="46.37826" lon="5.281">
        <ele>215</ele>
        <time>2022-07-25T05:44:14Z</time>
      </trkpt>
      <trkpt lat="46.3782" lon="5.28097">
        <ele>215</ele>
        <time>2022-07-25T05:44:15Z</time>
      </trkpt>
      <trkpt lat="46.37803" lon="5.28085">
        <ele>215.2</ele>
        <time>2022-07-25T05:44:18Z</time>
      </trkpt>
      <trkpt lat="46.37794" lon="5.28076">
        <ele>215.4</ele>
        <time>2022-07-25T05:44:20Z</time>
      </trkpt>
      <trkpt lat="46.37776" lon="5.28044">
        <ele>216</ele>
        <time>2022-07-25T05:44:25Z</time>
      </trkpt>
      <trkpt lat="46.37771" lon="5.28031">
        <ele>216.4</ele>
        <time>2022-07-25T05:44:27Z</time>
      </trkpt>
      <trkpt lat="46.37758" lon="5.28009">
        <ele>217</ele>
        <time>2022-07-25T05:44:31Z</time>
      </trkpt>
      <trkpt lat="46.37756" lon="5.28005">
        <ele>217.4</ele>
        <time>2022-07-25T05:44:32Z</time>
      </trkpt>
      <trkpt lat="46.37752" lon="5.27999">
        <ele>217.6</ele>
        <time>2022-07-25T05:44:33Z</time>
      </trkpt>
      <trkpt lat="46.37734" lon="5.27972">
        <ele>218.6</ele>
        <time>2022-07-25T05:44:38Z</time>
      </trkpt>
      <trkpt lat="46.3773" lon="5.27963">
        <ele>218.6</ele>
        <time>2022-07-25T05:44:39Z</time>
      </trkpt>
      <trkpt lat="46.37723" lon="5.27949">
        <ele>218.6</ele>
        <time>2022-07-25T05:44:41Z</time>
      </trkpt>
      <trkpt lat="46.37713" lon="5.27934">
        <ele>218.6</ele>
        <time>2022-07-25T05:44:43Z</time>
      </trkpt>
      <trkpt lat="46.37707" lon="5.27926">
        <ele>218.6</ele>
        <time>2022-07-25T05:44:44Z</time>
      </trkpt>
      <trkpt lat="46.37693" lon="5.27915">
        <ele>218.2</ele>
        <time>2022-07-25T05:44:46Z</time>
      </trkpt>
      <trkpt lat="46.37687" lon="5.2791">
        <ele>218</ele>
        <time>2022-07-25T05:44:47Z</time>
      </trkpt>
      <trkpt lat="46.3768" lon="5.27906">
        <ele>217.6</ele>
        <time>2022-07-25T05:44:48Z</time>
      </trkpt>
      <trkpt lat="46.37674" lon="5.27903">
        <ele>217.6</ele>
        <time>2022-07-25T05:44:49Z</time>
      </trkpt>
      <trkpt lat="46.37668" lon="5.27898">
        <ele>217.2</ele>
        <time>2022-07-25T05:44:50Z</time>
      </trkpt>
      <trkpt lat="46.37663" lon="5.27893">
        <ele>217.2</ele>
        <time>2022-07-25T05:44:51Z</time>
      </trkpt>
      <trkpt lat="46.37638" lon="5.2787">
        <ele>217.2</ele>
        <time>2022-07-25T05:44:56Z</time>
      </trkpt>
      <trkpt lat="46.37621" lon="5.27851">
        <ele>218</ele>
        <time>2022-07-25T05:45:00Z</time>
      </trkpt>
      <trkpt lat="46.37613" lon="5.27839">
        <ele>218.6</ele>
        <time>2022-07-25T05:45:02Z</time>
      </trkpt>
      <trkpt lat="46.3761" lon="5.27832">
        <ele>218.6</ele>
        <time>2022-07-25T05:45:03Z</time>
      </trkpt>
      <trkpt lat="46.37598" lon="5.27801">
        <ele>218.8</ele>
        <time>2022-07-25T05:45:07Z</time>
      </trkpt>
      <trkpt lat="46.37595" lon="5.27793">
        <ele>218.8</ele>
        <time>2022-07-25T05:45:08Z</time>
      </trkpt>
      <trkpt lat="46.37592" lon="5.27784">
        <ele>218.8</ele>
        <time>2022-07-25T05:45:09Z</time>
      </trkpt>
      <trkpt lat="46.37583" lon="5.27754">
        <ele>218.8</ele>
        <time>2022-07-25T05:45:12Z</time>
      </trkpt>
      <trkpt lat="46.37568" lon="5.27718">
        <ele>218.2</ele>
        <time>2022-07-25T05:45:16Z</time>
      </trkpt>
      <trkpt lat="46.37561" lon="5.27711">
        <ele>218</ele>
        <time>2022-07-25T05:45:17Z</time>
      </trkpt>
      <trkpt lat="46.37555" lon="5.27707">
        <ele>217.6</ele>
        <time>2022-07-25T05:45:18Z</time>
      </trkpt>
      <trkpt lat="46.37547" lon="5.27704">
        <ele>217.6</ele>
        <time>2022-07-25T05:45:19Z</time>
      </trkpt>
      <trkpt lat="46.3754" lon="5.27703">
        <ele>217</ele>
        <time>2022-07-25T05:45:20Z</time>
      </trkpt>
      <trkpt lat="46.37525" lon="5.27702">
        <ele>216.4</ele>
        <time>2022-07-25T05:45:22Z</time>
      </trkpt>
      <trkpt lat="46.37511" lon="5.27701">
        <ele>216.2</ele>
        <time>2022-07-25T05:45:24Z</time>
      </trkpt>
      <trkpt lat="46.37497" lon="5.27699">
        <ele>216.2</ele>
        <time>2022-07-25T05:45:26Z</time>
      </trkpt>
      <trkpt lat="46.37458" lon="5.27684">
        <ele>216.2</ele>
        <time>2022-07-25T05:45:32Z</time>
      </trkpt>
      <trkpt lat="46.37447" lon="5.27678">
        <ele>216.4</ele>
        <time>2022-07-25T05:45:34Z</time>
      </trkpt>
      <trkpt lat="46.37431" lon="5.27665">
        <ele>216.4</ele>
        <time>2022-07-25T05:45:37Z</time>
      </trkpt>
      <trkpt lat="46.37414" lon="5.27656">
        <ele>216.8</ele>
        <time>2022-07-25T05:45:40Z</time>
      </trkpt>
      <trkpt lat="46.37402" lon="5.27652">
        <ele>217</ele>
        <time>2022-07-25T05:45:42Z</time>
      </trkpt>
      <trkpt lat="46.37379" lon="5.27647">
        <ele>217.6</ele>
        <time>2022-07-25T05:45:46Z</time>
      </trkpt>
      <trkpt lat="46.37369" lon="5.27644">
        <ele>217.8</ele>
        <time>2022-07-25T05:45:48Z</time>
      </trkpt>
      <trkpt lat="46.37364" lon="5.27641">
        <ele>217.8</ele>
        <time>2022-07-25T05:45:49Z</time>
      </trkpt>
      <trkpt lat="46.37357" lon="5.2763">
        <ele>217.8</ele>
        <time>2022-07-25T05:45:51Z</time>
      </trkpt>
      <trkpt lat="46.37353" lon="5.27612">
        <ele>217.8</ele>
        <time>2022-07-25T05:45:53Z</time>
      </trkpt>
      <trkpt lat="46.37354" lon="5.27601">
        <ele>217.8</ele>
        <time>2022-07-25T05:45:54Z</time>
      </trkpt>
      <trkpt lat="46.37364" lon="5.2755">
        <ele>216.8</ele>
        <time>2022-07-25T05:45:58Z</time>
      </trkpt>
      <trkpt lat="46.37367" lon="5.27535">
        <ele>216.4</ele>
        <time>2022-07-25T05:45:59Z</time>
      </trkpt>
      <trkpt lat="46.37376" lon="5.27502">
        <ele>215.4</ele>
        <time>2022-07-25T05:46:02Z</time>
      </trkpt>
      <trkpt lat="46.37389" lon="5.2746">
        <ele>214.2</ele>
        <time>2022-07-25T05:46:06Z</time>
      </trkpt>
      <trkpt lat="46.37394" lon="5.2745">
        <ele>214.2</ele>
        <time>2022-07-25T05:46:07Z</time>
      </trkpt>
      <trkpt lat="46.37411" lon="5.27426">
        <ele>213.8</ele>
        <time>2022-07-25T05:46:10Z</time>
      </trkpt>
      <trkpt lat="46.37432" lon="5.27412">
        <ele>213.6</ele>
        <time>2022-07-25T05:46:13Z</time>
      </trkpt>
      <trkpt lat="46.37439" lon="5.27405">
        <ele>213.6</ele>
        <time>2022-07-25T05:46:14Z</time>
      </trkpt>
      <trkpt lat="46.37457" lon="5.27378">
        <ele>213.6</ele>
        <time>2022-07-25T05:46:18Z</time>
      </trkpt>
      <trkpt lat="46.37469" lon="5.27339">
        <ele>213.6</ele>
        <time>2022-07-25T05:46:22Z</time>
      </trkpt>
      <trkpt lat="46.37471" lon="5.27324">
        <ele>213.6</ele>
        <time>2022-07-25T05:46:23Z</time>
      </trkpt>
      <trkpt lat="46.37472" lon="5.27301">
        <ele>213.4</ele>
        <time>2022-07-25T05:46:25Z</time>
      </trkpt>
      <trkpt lat="46.3747" lon="5.27271">
        <ele>213</ele>
        <time>2022-07-25T05:46:27Z</time>
      </trkpt>
      <trkpt lat="46.37472" lon="5.27242">
        <ele>212</ele>
        <time>2022-07-25T05:46:29Z</time>
      </trkpt>
      <trkpt lat="46.37474" lon="5.27228">
        <ele>211.6</ele>
        <time>2022-07-25T05:46:30Z</time>
      </trkpt>
      <trkpt lat="46.37479" lon="5.27202">
        <ele>210.4</ele>
        <time>2022-07-25T05:46:32Z</time>
      </trkpt>
      <trkpt lat="46.37479" lon="5.27189">
        <ele>210.2</ele>
        <time>2022-07-25T05:46:33Z</time>
      </trkpt>
      <trkpt lat="46.37477" lon="5.27175">
        <ele>209.6</ele>
        <time>2022-07-25T05:46:34Z</time>
      </trkpt>
      <trkpt lat="46.37475" lon="5.27159">
        <ele>209.2</ele>
        <time>2022-07-25T05:46:35Z</time>
      </trkpt>
      <trkpt lat="46.3747" lon="5.27137">
        <ele>208.2</ele>
        <time>2022-07-25T05:46:37Z</time>
      </trkpt>
      <trkpt lat="46.3746" lon="5.27088">
        <ele>207</ele>
        <time>2022-07-25T05:46:41Z</time>
      </trkpt>
      <trkpt lat="46.37454" lon="5.27068">
        <ele>207</ele>
        <time>2022-07-25T05:46:43Z</time>
      </trkpt>
      <trkpt lat="46.37442" lon="5.27049">
        <ele>206.8</ele>
        <time>2022-07-25T05:46:45Z</time>
      </trkpt>
      <trkpt lat="46.37428" lon="5.27044">
        <ele>206.6</ele>
        <time>2022-07-25T05:46:47Z</time>
      </trkpt>
      <trkpt lat="46.37418" lon="5.27047">
        <ele>206.6</ele>
        <time>2022-07-25T05:46:48Z</time>
      </trkpt>
      <trkpt lat="46.3741" lon="5.27052">
        <ele>206.4</ele>
        <time>2022-07-25T05:46:49Z</time>
      </trkpt>
      <trkpt lat="46.37396" lon="5.27066">
        <ele>205.8</ele>
        <time>2022-07-25T05:46:51Z</time>
      </trkpt>
      <trkpt lat="46.37363" lon="5.271">
        <ele>204.8</ele>
        <time>2022-07-25T05:46:55Z</time>
      </trkpt>
      <trkpt lat="46.37357" lon="5.27105">
        <ele>204.4</ele>
        <time>2022-07-25T05:46:56Z</time>
      </trkpt>
      <trkpt lat="46.37337" lon="5.27117">
        <ele>203.6</ele>
        <time>2022-07-25T05:46:58Z</time>
      </trkpt>
      <trkpt lat="46.37302" lon="5.2714">
        <ele>202.2</ele>
        <time>2022-07-25T05:47:02Z</time>
      </trkpt>
      <trkpt lat="46.37293" lon="5.27146">
        <ele>201.8</ele>
        <time>2022-07-25T05:47:03Z</time>
      </trkpt>
      <trkpt lat="46.37278" lon="5.27156">
        <ele>201</ele>
        <time>2022-07-25T05:47:05Z</time>
      </trkpt>
      <trkpt lat="46.37246" lon="5.27177">
        <ele>200</ele>
        <time>2022-07-25T05:47:09Z</time>
      </trkpt>
      <trkpt lat="46.37222" lon="5.27193">
        <ele>199.4</ele>
        <time>2022-07-25T05:47:12Z</time>
      </trkpt>
      <trkpt lat="46.372" lon="5.27206">
        <ele>199.2</ele>
        <time>2022-07-25T05:47:15Z</time>
      </trkpt>
      <trkpt lat="46.37184" lon="5.2721">
        <ele>199.2</ele>
        <time>2022-07-25T05:47:17Z</time>
      </trkpt>
      <trkpt lat="46.37168" lon="5.27206">
        <ele>199.2</ele>
        <time>2022-07-25T05:47:19Z</time>
      </trkpt>
      <trkpt lat="46.37161" lon="5.27201">
        <ele>199.2</ele>
        <time>2022-07-25T05:47:20Z</time>
      </trkpt>
      <trkpt lat="46.37147" lon="5.27192">
        <ele>199</ele>
        <time>2022-07-25T05:47:22Z</time>
      </trkpt>
      <trkpt lat="46.37133" lon="5.27188">
        <ele>199</ele>
        <time>2022-07-25T05:47:24Z</time>
      </trkpt>
      <trkpt lat="46.37117" lon="5.2719">
        <ele>199</ele>
        <time>2022-07-25T05:47:26Z</time>
      </trkpt>
      <trkpt lat="46.37103" lon="5.27195">
        <ele>198.8</ele>
        <time>2022-07-25T05:47:28Z</time>
      </trkpt>
      <trkpt lat="46.37046" lon="5.27209">
        <ele>198.4</ele>
        <time>2022-07-25T05:47:36Z</time>
      </trkpt>
      <trkpt lat="46.37038" lon="5.27211">
        <ele>198.4</ele>
        <time>2022-07-25T05:47:37Z</time>
      </trkpt>
      <trkpt lat="46.37002" lon="5.27216">
        <ele>198.4</ele>
        <time>2022-07-25T05:47:42Z</time>
      </trkpt>
      <trkpt lat="46.36988" lon="5.27212">
        <ele>198.4</ele>
        <time>2022-07-25T05:47:44Z</time>
      </trkpt>
      <trkpt lat="46.36978" lon="5.27199">
        <ele>198.4</ele>
        <time>2022-07-25T05:47:46Z</time>
      </trkpt>
      <trkpt lat="46.36974" lon="5.27191">
        <ele>198.2</ele>
        <time>2022-07-25T05:47:47Z</time>
      </trkpt>
      <trkpt lat="46.36953" lon="5.27139">
        <ele>198.2</ele>
        <time>2022-07-25T05:47:53Z</time>
      </trkpt>
      <trkpt lat="46.36935" lon="5.27107">
        <ele>198.2</ele>
        <time>2022-07-25T05:47:57Z</time>
      </trkpt>
      <trkpt lat="46.36929" lon="5.27101">
        <ele>198.2</ele>
        <time>2022-07-25T05:47:58Z</time>
      </trkpt>
      <trkpt lat="46.36922" lon="5.27096">
        <ele>198.2</ele>
        <time>2022-07-25T05:47:59Z</time>
      </trkpt>
      <trkpt lat="46.36908" lon="5.2709">
        <ele>198.2</ele>
        <time>2022-07-25T05:48:01Z</time>
      </trkpt>
      <trkpt lat="46.36901" lon="5.27089">
        <ele>198</ele>
        <time>2022-07-25T05:48:02Z</time>
      </trkpt>
      <trkpt lat="46.3688" lon="5.27087">
        <ele>197.8</ele>
        <time>2022-07-25T05:48:05Z</time>
      </trkpt>
      <trkpt lat="46.36873" lon="5.27085">
        <ele>197.8</ele>
        <time>2022-07-25T05:48:06Z</time>
      </trkpt>
      <trkpt lat="46.36867" lon="5.27083">
        <ele>197.6</ele>
        <time>2022-07-25T05:48:07Z</time>
      </trkpt>
      <trkpt lat="46.36854" lon="5.27076">
        <ele>197.6</ele>
        <time>2022-07-25T05:48:09Z</time>
      </trkpt>
      <trkpt lat="46.36836" lon="5.27063">
        <ele>197.4</ele>
        <time>2022-07-25T05:48:12Z</time>
      </trkpt>
      <trkpt lat="46.36783" lon="5.27026">
        <ele>197.2</ele>
        <time>2022-07-25T05:48:21Z</time>
      </trkpt>
      <trkpt lat="46.36737" lon="5.26991">
        <ele>197.4</ele>
        <time>2022-07-25T05:48:29Z</time>
      </trkpt>
      <trkpt lat="46.36732" lon="5.26985">
        <ele>197.6</ele>
        <time>2022-07-25T05:48:30Z</time>
      </trkpt>
      <trkpt lat="46.36728" lon="5.26978">
        <ele>197.2</ele>
        <time>2022-07-25T05:48:31Z</time>
      </trkpt>
      <trkpt lat="46.36722" lon="5.26963">
        <ele>197.2</ele>
        <time>2022-07-25T05:48:33Z</time>
      </trkpt>
      <trkpt lat="46.3672" lon="5.26954">
        <ele>197.2</ele>
        <time>2022-07-25T05:48:34Z</time>
      </trkpt>
      <trkpt lat="46.36718" lon="5.26934">
        <ele>197.4</ele>
        <time>2022-07-25T05:48:36Z</time>
      </trkpt>
      <trkpt lat="46.36718" lon="5.26913">
        <ele>197.2</ele>
        <time>2022-07-25T05:48:38Z</time>
      </trkpt>
      <trkpt lat="46.3672" lon="5.26892">
        <ele>197.4</ele>
        <time>2022-07-25T05:48:40Z</time>
      </trkpt>
      <trkpt lat="46.36724" lon="5.26872">
        <ele>197.4</ele>
        <time>2022-07-25T05:48:42Z</time>
      </trkpt>
      <trkpt lat="46.36737" lon="5.26801">
        <ele>197.2</ele>
        <time>2022-07-25T05:48:49Z</time>
      </trkpt>
      <trkpt lat="46.36737" lon="5.26779">
        <ele>197.2</ele>
        <time>2022-07-25T05:48:51Z</time>
      </trkpt>
      <trkpt lat="46.36734" lon="5.26759">
        <ele>197.2</ele>
        <time>2022-07-25T05:48:53Z</time>
      </trkpt>
      <trkpt lat="46.36727" lon="5.2674">
        <ele>197.2</ele>
        <time>2022-07-25T05:48:55Z</time>
      </trkpt>
      <trkpt lat="46.36723" lon="5.26733">
        <ele>197.2</ele>
        <time>2022-07-25T05:48:56Z</time>
      </trkpt>
      <trkpt lat="46.367" lon="5.26705">
        <ele>197.2</ele>
        <time>2022-07-25T05:49:00Z</time>
      </trkpt>
      <trkpt lat="46.36688" lon="5.26695">
        <ele>197.2</ele>
        <time>2022-07-25T05:49:02Z</time>
      </trkpt>
      <trkpt lat="46.36674" lon="5.26691">
        <ele>197.2</ele>
        <time>2022-07-25T05:49:04Z</time>
      </trkpt>
      <trkpt lat="46.36667" lon="5.26691">
        <ele>197.2</ele>
        <time>2022-07-25T05:49:05Z</time>
      </trkpt>
      <trkpt lat="46.3666" lon="5.26692">
        <ele>197.2</ele>
        <time>2022-07-25T05:49:06Z</time>
      </trkpt>
      <trkpt lat="46.36605" lon="5.26699">
        <ele>197.6</ele>
        <time>2022-07-25T05:49:14Z</time>
      </trkpt>
      <trkpt lat="46.3655" lon="5.26695">
        <ele>197.6</ele>
        <time>2022-07-25T05:49:22Z</time>
      </trkpt>
      <trkpt lat="46.36537" lon="5.26693">
        <ele>197.4</ele>
        <time>2022-07-25T05:49:24Z</time>
      </trkpt>
      <trkpt lat="46.3649" lon="5.26676">
        <ele>197.4</ele>
        <time>2022-07-25T05:49:31Z</time>
      </trkpt>
      <trkpt lat="46.3644" lon="5.26655">
        <ele>197.8</ele>
        <time>2022-07-25T05:49:39Z</time>
      </trkpt>
      <trkpt lat="46.36392" lon="5.26627">
        <ele>198.4</ele>
        <time>2022-07-25T05:49:47Z</time>
      </trkpt>
      <trkpt lat="46.36355" lon="5.26603">
        <ele>198.6</ele>
        <time>2022-07-25T05:49:54Z</time>
      </trkpt>
      <trkpt lat="46.36348" lon="5.266">
        <ele>198.8</ele>
        <time>2022-07-25T05:49:55Z</time>
      </trkpt>
      <trkpt lat="46.3633" lon="5.26599">
        <ele>198.8</ele>
        <time>2022-07-25T05:49:58Z</time>
      </trkpt>
      <trkpt lat="46.363" lon="5.26604">
        <ele>199</ele>
        <time>2022-07-25T05:50:03Z</time>
      </trkpt>
      <trkpt lat="46.36293" lon="5.26607">
        <ele>199</ele>
        <time>2022-07-25T05:50:04Z</time>
      </trkpt>
      <trkpt lat="46.36238" lon="5.26622">
        <ele>199.6</ele>
        <time>2022-07-25T05:50:13Z</time>
      </trkpt>
      <trkpt lat="46.36234" lon="5.26623">
        <ele>199.6</ele>
        <time>2022-07-25T05:50:14Z</time>
      </trkpt>
      <trkpt lat="46.36193" lon="5.26622">
        <ele>199.8</ele>
        <time>2022-07-25T05:50:21Z</time>
      </trkpt>
      <trkpt lat="46.36186" lon="5.26621">
        <ele>200</ele>
        <time>2022-07-25T05:50:22Z</time>
      </trkpt>
      <trkpt lat="46.36149" lon="5.26608">
        <ele>201</ele>
        <time>2022-07-25T05:50:29Z</time>
      </trkpt>
      <trkpt lat="46.36146" lon="5.26607">
        <ele>201</ele>
        <time>2022-07-25T05:50:30Z</time>
      </trkpt>
      <trkpt lat="46.36141" lon="5.26604">
        <ele>201.2</ele>
        <time>2022-07-25T05:50:31Z</time>
      </trkpt>
      <trkpt lat="46.3613" lon="5.26595">
        <ele>201.6</ele>
        <time>2022-07-25T05:50:34Z</time>
      </trkpt>
      <trkpt lat="46.36123" lon="5.26585">
        <ele>202.2</ele>
        <time>2022-07-25T05:50:36Z</time>
      </trkpt>
      <trkpt lat="46.36118" lon="5.26575">
        <ele>202.8</ele>
        <time>2022-07-25T05:50:38Z</time>
      </trkpt>
      <trkpt lat="46.36115" lon="5.26569">
        <ele>202.8</ele>
        <time>2022-07-25T05:50:39Z</time>
      </trkpt>
      <trkpt lat="46.36108" lon="5.26553">
        <ele>203.2</ele>
        <time>2022-07-25T05:50:42Z</time>
      </trkpt>
      <trkpt lat="46.361" lon="5.26533">
        <ele>204.4</ele>
        <time>2022-07-25T05:50:46Z</time>
      </trkpt>
      <trkpt lat="46.36098" lon="5.26528">
        <ele>204.8</ele>
        <time>2022-07-25T05:50:47Z</time>
      </trkpt>
      <trkpt lat="46.36096" lon="5.26523">
        <ele>204.8</ele>
        <time>2022-07-25T05:50:48Z</time>
      </trkpt>
      <trkpt lat="46.36092" lon="5.26515">
        <ele>205.4</ele>
        <time>2022-07-25T05:50:50Z</time>
      </trkpt>
      <trkpt lat="46.36085" lon="5.26503">
        <ele>205.8</ele>
        <time>2022-07-25T05:50:53Z</time>
      </trkpt>
      <trkpt lat="46.36077" lon="5.26494">
        <ele>206.8</ele>
        <time>2022-07-25T05:50:56Z</time>
      </trkpt>
      <trkpt lat="46.36069" lon="5.26485">
        <ele>207.8</ele>
        <time>2022-07-25T05:50:59Z</time>
      </trkpt>
      <trkpt lat="46.36065" lon="5.26479">
        <ele>208.2</ele>
        <time>2022-07-25T05:51:01Z</time>
      </trkpt>
      <trkpt lat="46.3606" lon="5.26474">
        <ele>208.8</ele>
        <time>2022-07-25T05:51:03Z</time>
      </trkpt>
      <trkpt lat="46.36046" lon="5.26459">
        <ele>210</ele>
        <time>2022-07-25T05:51:08Z</time>
      </trkpt>
      <trkpt lat="46.36041" lon="5.26453">
        <ele>210.6</ele>
        <time>2022-07-25T05:51:10Z</time>
      </trkpt>
      <trkpt lat="46.36035" lon="5.26447">
        <ele>211.2</ele>
        <time>2022-07-25T05:51:12Z</time>
      </trkpt>
      <trkpt lat="46.36016" lon="5.26424">
        <ele>212.4</ele>
        <time>2022-07-25T05:51:19Z</time>
      </trkpt>
      <trkpt lat="46.36005" lon="5.2641">
        <ele>213</ele>
        <time>2022-07-25T05:51:23Z</time>
      </trkpt>
      <trkpt lat="46.35995" lon="5.26396">
        <ele>213.6</ele>
        <time>2022-07-25T05:51:27Z</time>
      </trkpt>
      <trkpt lat="46.35976" lon="5.26379">
        <ele>214.6</ele>
        <time>2022-07-25T05:51:33Z</time>
      </trkpt>
      <trkpt lat="46.3595" lon="5.26366">
        <ele>215.6</ele>
        <time>2022-07-25T05:51:40Z</time>
      </trkpt>
      <trkpt lat="46.35943" lon="5.26363">
        <ele>216</ele>
        <time>2022-07-25T05:51:42Z</time>
      </trkpt>
      <trkpt lat="46.35922" lon="5.26358">
        <ele>216.6</ele>
        <time>2022-07-25T05:51:47Z</time>
      </trkpt>
      <trkpt lat="46.359" lon="5.26354">
        <ele>217.2</ele>
        <time>2022-07-25T05:51:52Z</time>
      </trkpt>
      <trkpt lat="46.35874" lon="5.26357">
        <ele>217.8</ele>
        <time>2022-07-25T05:51:58Z</time>
      </trkpt>
      <trkpt lat="46.35856" lon="5.2636">
        <ele>218.2</ele>
        <time>2022-07-25T05:52:02Z</time>
      </trkpt>
      <trkpt lat="46.35822" lon="5.2636">
        <ele>218.6</ele>
        <time>2022-07-25T05:52:10Z</time>
      </trkpt>
      <trkpt lat="46.35803" lon="5.26356">
        <ele>219.8</ele>
        <time>2022-07-25T05:52:15Z</time>
      </trkpt>
      <trkpt lat="46.35789" lon="5.26352">
        <ele>220.8</ele>
        <time>2022-07-25T05:52:19Z</time>
      </trkpt>
      <trkpt lat="46.35785" lon="5.26351">
        <ele>221</ele>
        <time>2022-07-25T05:52:20Z</time>
      </trkpt>
      <trkpt lat="46.35771" lon="5.26349">
        <ele>222.2</ele>
        <time>2022-07-25T05:52:24Z</time>
      </trkpt>
      <trkpt lat="46.35761" lon="5.26347">
        <ele>223.4</ele>
        <time>2022-07-25T05:52:27Z</time>
      </trkpt>
      <trkpt lat="46.35758" lon="5.26346">
        <ele>223.4</ele>
        <time>2022-07-25T05:52:28Z</time>
      </trkpt>
      <trkpt lat="46.35747" lon="5.26343">
        <ele>224.2</ele>
        <time>2022-07-25T05:52:31Z</time>
      </trkpt>
      <trkpt lat="46.35744" lon="5.26342">
        <ele>224.6</ele>
        <time>2022-07-25T05:52:32Z</time>
      </trkpt>
      <trkpt lat="46.35736" lon="5.2634">
        <ele>225.2</ele>
        <time>2022-07-25T05:52:34Z</time>
      </trkpt>
      <trkpt lat="46.3572" lon="5.26334">
        <ele>225.8</ele>
        <time>2022-07-25T05:52:38Z</time>
      </trkpt>
      <trkpt lat="46.35706" lon="5.26327">
        <ele>226.2</ele>
        <time>2022-07-25T05:52:41Z</time>
      </trkpt>
      <trkpt lat="46.35672" lon="5.26316">
        <ele>226.4</ele>
        <time>2022-07-25T05:52:47Z</time>
      </trkpt>
      <trkpt lat="46.3563" lon="5.2631">
        <ele>226</ele>
        <time>2022-07-25T05:52:53Z</time>
      </trkpt>
      <trkpt lat="46.35574" lon="5.26301">
        <ele>225</ele>
        <time>2022-07-25T05:53:01Z</time>
      </trkpt>
      <trkpt lat="46.35554" lon="5.26299">
        <ele>224.8</ele>
        <time>2022-07-25T05:53:04Z</time>
      </trkpt>
      <trkpt lat="46.35547" lon="5.26298">
        <ele>224.6</ele>
        <time>2022-07-25T05:53:05Z</time>
      </trkpt>
      <trkpt lat="46.35503" lon="5.26302">
        <ele>224.4</ele>
        <time>2022-07-25T05:53:12Z</time>
      </trkpt>
      <trkpt lat="46.35461" lon="5.26301">
        <ele>224.8</ele>
        <time>2022-07-25T05:53:19Z</time>
      </trkpt>
      <trkpt lat="46.35413" lon="5.26297">
        <ele>225.6</ele>
        <time>2022-07-25T05:53:27Z</time>
      </trkpt>
      <trkpt lat="46.35401" lon="5.26296">
        <ele>225.8</ele>
        <time>2022-07-25T05:53:29Z</time>
      </trkpt>
      <trkpt lat="46.35378" lon="5.26291">
        <ele>226.2</ele>
        <time>2022-07-25T05:53:33Z</time>
      </trkpt>
      <trkpt lat="46.35367" lon="5.26287">
        <ele>226.4</ele>
        <time>2022-07-25T05:53:35Z</time>
      </trkpt>
      <trkpt lat="46.35362" lon="5.26284">
        <ele>226.4</ele>
        <time>2022-07-25T05:53:36Z</time>
      </trkpt>
      <trkpt lat="46.35347" lon="5.2627">
        <ele>226.6</ele>
        <time>2022-07-25T05:53:39Z</time>
      </trkpt>
      <trkpt lat="46.35339" lon="5.26259">
        <ele>226.8</ele>
        <time>2022-07-25T05:53:41Z</time>
      </trkpt>
      <trkpt lat="46.35328" lon="5.2624">
        <ele>227</ele>
        <time>2022-07-25T05:53:44Z</time>
      </trkpt>
      <trkpt lat="46.35315" lon="5.26214">
        <ele>227.4</ele>
        <time>2022-07-25T05:53:48Z</time>
      </trkpt>
      <trkpt lat="46.35306" lon="5.26205">
        <ele>227.6</ele>
        <time>2022-07-25T05:53:50Z</time>
      </trkpt>
      <trkpt lat="46.35297" lon="5.26198">
        <ele>227.8</ele>
        <time>2022-07-25T05:53:52Z</time>
      </trkpt>
      <trkpt lat="46.35287" lon="5.26193">
        <ele>228.2</ele>
        <time>2022-07-25T05:53:54Z</time>
      </trkpt>
      <trkpt lat="46.35281" lon="5.26191">
        <ele>228.4</ele>
        <time>2022-07-25T05:53:55Z</time>
      </trkpt>
      <trkpt lat="46.35276" lon="5.26189">
        <ele>228.6</ele>
        <time>2022-07-25T05:53:56Z</time>
      </trkpt>
      <trkpt lat="46.35264" lon="5.26187">
        <ele>228.8</ele>
        <time>2022-07-25T05:53:58Z</time>
      </trkpt>
      <trkpt lat="46.3524" lon="5.26184">
        <ele>229.2</ele>
        <time>2022-07-25T05:54:02Z</time>
      </trkpt>
      <trkpt lat="46.35197" lon="5.26172">
        <ele>229.2</ele>
        <time>2022-07-25T05:54:09Z</time>
      </trkpt>
      <trkpt lat="46.35142" lon="5.26157">
        <ele>228.8</ele>
        <time>2022-07-25T05:54:18Z</time>
      </trkpt>
      <trkpt lat="46.35136" lon="5.26156">
        <ele>228.8</ele>
        <time>2022-07-25T05:54:19Z</time>
      </trkpt>
      <trkpt lat="46.35087" lon="5.26143">
        <ele>228.6</ele>
        <time>2022-07-25T05:54:27Z</time>
      </trkpt>
      <trkpt lat="46.35032" lon="5.26119">
        <ele>228.4</ele>
        <time>2022-07-25T05:54:36Z</time>
      </trkpt>
      <trkpt lat="46.35004" lon="5.26107">
        <ele>228.2</ele>
        <time>2022-07-25T05:54:40Z</time>
      </trkpt>
      <trkpt lat="46.34996" lon="5.26106">
        <ele>228</ele>
        <time>2022-07-25T05:54:41Z</time>
      </trkpt>
      <trkpt lat="46.34981" lon="5.26106">
        <ele>227.6</ele>
        <time>2022-07-25T05:54:43Z</time>
      </trkpt>
      <trkpt lat="46.34951" lon="5.26109">
        <ele>226.8</ele>
        <time>2022-07-25T05:54:47Z</time>
      </trkpt>
      <trkpt lat="46.34943" lon="5.26109">
        <ele>226.6</ele>
        <time>2022-07-25T05:54:48Z</time>
      </trkpt>
      <trkpt lat="46.34891" lon="5.26105">
        <ele>226.2</ele>
        <time>2022-07-25T05:54:55Z</time>
      </trkpt>
      <trkpt lat="46.34835" lon="5.26086">
        <ele>225.6</ele>
        <time>2022-07-25T05:55:03Z</time>
      </trkpt>
      <trkpt lat="46.3482" lon="5.26083">
        <ele>225.2</ele>
        <time>2022-07-25T05:55:05Z</time>
      </trkpt>
      <trkpt lat="46.34791" lon="5.2608">
        <ele>224.8</ele>
        <time>2022-07-25T05:55:09Z</time>
      </trkpt>
      <trkpt lat="46.34776" lon="5.26079">
        <ele>224.4</ele>
        <time>2022-07-25T05:55:11Z</time>
      </trkpt>
      <trkpt lat="46.34767" lon="5.26079">
        <ele>224.2</ele>
        <time>2022-07-25T05:55:12Z</time>
      </trkpt>
      <trkpt lat="46.3472" lon="5.26077">
        <ele>223.2</ele>
        <time>2022-07-25T05:55:17Z</time>
      </trkpt>
      <trkpt lat="46.34701" lon="5.26076">
        <ele>221.2</ele>
        <time>2022-07-25T05:55:19Z</time>
      </trkpt>
      <trkpt lat="46.34686" lon="5.26074">
        <ele>219.2</ele>
        <time>2022-07-25T05:55:21Z</time>
      </trkpt>
      <trkpt lat="46.34681" lon="5.26073">
        <ele>218.4</ele>
        <time>2022-07-25T05:55:22Z</time>
      </trkpt>
      <trkpt lat="46.34676" lon="5.26074">
        <ele>217.6</ele>
        <time>2022-07-25T05:55:23Z</time>
      </trkpt>
      <trkpt lat="46.34673" lon="5.26077">
        <ele>217</ele>
        <time>2022-07-25T05:55:24Z</time>
      </trkpt>
      <trkpt lat="46.34671" lon="5.26082">
        <ele>216.4</ele>
        <time>2022-07-25T05:55:25Z</time>
      </trkpt>
      <trkpt lat="46.3467" lon="5.26089">
        <ele>215.6</ele>
        <time>2022-07-25T05:55:26Z</time>
      </trkpt>
      <trkpt lat="46.34671" lon="5.26097">
        <ele>215.2</ele>
        <time>2022-07-25T05:55:27Z</time>
      </trkpt>
      <trkpt lat="46.34674" lon="5.26114">
        <ele>214.2</ele>
        <time>2022-07-25T05:55:29Z</time>
      </trkpt>
      <trkpt lat="46.3468" lon="5.26139">
        <ele>213</ele>
        <time>2022-07-25T05:55:32Z</time>
      </trkpt>
      <trkpt lat="46.34682" lon="5.26148">
        <ele>212.8</ele>
        <time>2022-07-25T05:55:33Z</time>
      </trkpt>
      <trkpt lat="46.34691" lon="5.26204">
        <ele>212.2</ele>
        <time>2022-07-25T05:55:39Z</time>
      </trkpt>
      <trkpt lat="46.34691" lon="5.26214">
        <ele>212</ele>
        <time>2022-07-25T05:55:40Z</time>
      </trkpt>
      <trkpt lat="46.34688" lon="5.26223">
        <ele>211.8</ele>
        <time>2022-07-25T05:55:41Z</time>
      </trkpt>
      <trkpt lat="46.34679" lon="5.26255">
        <ele>211.4</ele>
        <time>2022-07-25T05:55:44Z</time>
      </trkpt>
      <trkpt lat="46.34668" lon="5.26306">
        <ele>210.6</ele>
        <time>2022-07-25T05:55:48Z</time>
      </trkpt>
      <trkpt lat="46.34665" lon="5.26319">
        <ele>209.8</ele>
        <time>2022-07-25T05:55:49Z</time>
      </trkpt>
      <trkpt lat="46.34661" lon="5.26331">
        <ele>209.4</ele>
        <time>2022-07-25T05:55:50Z</time>
      </trkpt>
      <trkpt lat="46.34648" lon="5.26368">
        <ele>207.8</ele>
        <time>2022-07-25T05:55:53Z</time>
      </trkpt>
      <trkpt lat="46.34637" lon="5.2639">
        <ele>206.8</ele>
        <time>2022-07-25T05:55:55Z</time>
      </trkpt>
      <trkpt lat="46.3463" lon="5.26399">
        <ele>206.4</ele>
        <time>2022-07-25T05:55:56Z</time>
      </trkpt>
      <trkpt lat="46.34623" lon="5.26405">
        <ele>206.2</ele>
        <time>2022-07-25T05:55:57Z</time>
      </trkpt>
      <trkpt lat="46.34599" lon="5.26407">
        <ele>205.6</ele>
        <time>2022-07-25T05:56:00Z</time>
      </trkpt>
      <trkpt lat="46.34576" lon="5.26393">
        <ele>205.4</ele>
        <time>2022-07-25T05:56:03Z</time>
      </trkpt>
      <trkpt lat="46.34562" lon="5.26386">
        <ele>205.4</ele>
        <time>2022-07-25T05:56:05Z</time>
      </trkpt>
      <trkpt lat="46.34517" lon="5.26369">
        <ele>206</ele>
        <time>2022-07-25T05:56:12Z</time>
      </trkpt>
      <trkpt lat="46.3449" lon="5.2636">
        <ele>206.2</ele>
        <time>2022-07-25T05:56:17Z</time>
      </trkpt>
      <trkpt lat="46.34482" lon="5.26357">
        <ele>206.4</ele>
        <time>2022-07-25T05:56:19Z</time>
      </trkpt>
      <trkpt lat="46.34478" lon="5.26354">
        <ele>206.4</ele>
        <time>2022-07-25T05:56:20Z</time>
      </trkpt>
      <trkpt lat="46.34475" lon="5.26351">
        <ele>206.6</ele>
        <time>2022-07-25T05:56:21Z</time>
      </trkpt>
      <trkpt lat="46.34469" lon="5.2634">
        <ele>207.8</ele>
        <time>2022-07-25T05:56:24Z</time>
      </trkpt>
      <trkpt lat="46.34468" lon="5.26338">
        <ele>208</ele>
        <time>2022-07-25T05:56:25Z</time>
      </trkpt>
      <trkpt lat="46.34464" lon="5.2633">
        <ele>209</ele>
        <time>2022-07-25T05:56:28Z</time>
      </trkpt>
      <trkpt lat="46.34458" lon="5.26321">
        <ele>209.8</ele>
        <time>2022-07-25T05:56:31Z</time>
      </trkpt>
      <trkpt lat="46.34457" lon="5.26318">
        <ele>210.2</ele>
        <time>2022-07-25T05:56:32Z</time>
      </trkpt>
      <trkpt lat="46.34453" lon="5.26308">
        <ele>211</ele>
        <time>2022-07-25T05:56:35Z</time>
      </trkpt>
      <trkpt lat="46.34451" lon="5.26304">
        <ele>211.4</ele>
        <time>2022-07-25T05:56:36Z</time>
      </trkpt>
      <trkpt lat="46.34447" lon="5.26294">
        <ele>212.8</ele>
        <time>2022-07-25T05:56:39Z</time>
      </trkpt>
      <trkpt lat="46.34442" lon="5.26281">
        <ele>214</ele>
        <time>2022-07-25T05:56:43Z</time>
      </trkpt>
      <trkpt lat="46.34439" lon="5.2627">
        <ele>215</ele>
        <time>2022-07-25T05:56:46Z</time>
      </trkpt>
      <trkpt lat="46.34434" lon="5.26261">
        <ele>215.8</ele>
        <time>2022-07-25T05:56:49Z</time>
      </trkpt>
      <trkpt lat="46.34431" lon="5.26254">
        <ele>216.2</ele>
        <time>2022-07-25T05:56:51Z</time>
      </trkpt>
      <trkpt lat="46.34422" lon="5.26238">
        <ele>217.6</ele>
        <time>2022-07-25T05:56:56Z</time>
      </trkpt>
      <trkpt lat="46.34415" lon="5.26226">
        <ele>218.8</ele>
        <time>2022-07-25T05:57:00Z</time>
      </trkpt>
      <trkpt lat="46.34412" lon="5.26219">
        <ele>219</ele>
        <time>2022-07-25T05:57:02Z</time>
      </trkpt>
      <trkpt lat="46.34404" lon="5.26208">
        <ele>219.8</ele>
        <time>2022-07-25T05:57:06Z</time>
      </trkpt>
      <trkpt lat="46.34398" lon="5.26198">
        <ele>220.2</ele>
        <time>2022-07-25T05:57:09Z</time>
      </trkpt>
      <trkpt lat="46.34393" lon="5.26188">
        <ele>220.8</ele>
        <time>2022-07-25T05:57:12Z</time>
      </trkpt>
      <trkpt lat="46.34387" lon="5.26175">
        <ele>221.8</ele>
        <time>2022-07-25T05:57:16Z</time>
      </trkpt>
      <trkpt lat="46.34387" lon="5.26171">
        <ele>222</ele>
        <time>2022-07-25T05:57:17Z</time>
      </trkpt>
      <trkpt lat="46.34393" lon="5.26154">
        <ele>222.8</ele>
        <time>2022-07-25T05:57:21Z</time>
      </trkpt>
      <trkpt lat="46.34394" lon="5.26149">
        <ele>223</ele>
        <time>2022-07-25T05:57:22Z</time>
      </trkpt>
      <trkpt lat="46.34394" lon="5.2613">
        <ele>223.6</ele>
        <time>2022-07-25T05:57:26Z</time>
      </trkpt>
      <trkpt lat="46.34383" lon="5.26114">
        <ele>223.8</ele>
        <time>2022-07-25T05:57:30Z</time>
      </trkpt>
      <trkpt lat="46.34368" lon="5.26101">
        <ele>224</ele>
        <time>2022-07-25T05:57:34Z</time>
      </trkpt>
      <trkpt lat="46.34355" lon="5.26092">
        <ele>224.2</ele>
        <time>2022-07-25T05:57:37Z</time>
      </trkpt>
      <trkpt lat="46.34326" lon="5.26068">
        <ele>224</ele>
        <time>2022-07-25T05:57:43Z</time>
      </trkpt>
      <trkpt lat="46.34302" lon="5.26034">
        <ele>223.2</ele>
        <time>2022-07-25T05:57:49Z</time>
      </trkpt>
      <trkpt lat="46.34294" lon="5.26014">
        <ele>223</ele>
        <time>2022-07-25T05:57:52Z</time>
      </trkpt>
      <trkpt lat="46.34286" lon="5.25997">
        <ele>222.8</ele>
        <time>2022-07-25T05:57:55Z</time>
      </trkpt>
      <trkpt lat="46.34273" lon="5.25976">
        <ele>223.2</ele>
        <time>2022-07-25T05:58:00Z</time>
      </trkpt>
      <trkpt lat="46.34266" lon="5.25953">
        <ele>223.4</ele>
        <time>2022-07-25T05:58:05Z</time>
      </trkpt>
      <trkpt lat="46.34263" lon="5.25936">
        <ele>223.6</ele>
        <time>2022-07-25T05:58:09Z</time>
      </trkpt>
      <trkpt lat="46.34264" lon="5.25932">
        <ele>223.6</ele>
        <time>2022-07-25T05:58:10Z</time>
      </trkpt>
      <trkpt lat="46.34265" lon="5.25926">
        <ele>223.4</ele>
        <time>2022-07-25T05:58:12Z</time>
      </trkpt>
      <trkpt lat="46.34262" lon="5.25923">
        <ele>223.2</ele>
        <time>2022-07-25T05:58:14Z</time>
      </trkpt>
      <trkpt lat="46.34261" lon="5.2592">
        <ele>223</ele>
        <time>2022-07-25T05:58:15Z</time>
      </trkpt>
      <trkpt lat="46.3426" lon="5.25914">
        <ele>222.8</ele>
        <time>2022-07-25T05:58:17Z</time>
      </trkpt>
      <trkpt lat="46.3426" lon="5.25911">
        <ele>222.6</ele>
        <time>2022-07-25T05:58:18Z</time>
      </trkpt>
      <trkpt lat="46.34262" lon="5.25908">
        <ele>222.4</ele>
        <time>2022-07-25T05:58:20Z</time>
      </trkpt>
      <trkpt lat="46.34264" lon="5.25907">
        <ele>222.2</ele>
        <time>2022-07-25T05:58:21Z</time>
      </trkpt>
      <trkpt lat="46.34266" lon="5.2591">
        <ele>222.2</ele>
        <time>2022-07-25T05:58:23Z</time>
      </trkpt>
      <trkpt lat="46.34261" lon="5.2591">
        <ele>222</ele>
        <time>2022-07-25T05:58:26Z</time>
      </trkpt>
      <trkpt lat="46.34254" lon="5.25903">
        <ele>222</ele>
        <time>2022-07-25T05:58:29Z</time>
      </trkpt>
      <trkpt lat="46.34248" lon="5.25904">
        <ele>222</ele>
        <time>2022-07-25T05:58:31Z</time>
      </trkpt>
      <trkpt lat="46.34245" lon="5.25904">
        <ele>222</ele>
        <time>2022-07-25T05:58:32Z</time>
      </trkpt>
      <trkpt lat="46.3424" lon="5.25909">
        <ele>222</ele>
        <time>2022-07-25T05:58:34Z</time>
      </trkpt>
      <trkpt lat="46.34225" lon="5.2593">
        <ele>222</ele>
        <time>2022-07-25T05:58:39Z</time>
      </trkpt>
      <trkpt lat="46.34203" lon="5.25972">
        <ele>224</ele>
        <time>2022-07-25T05:58:47Z</time>
      </trkpt>
      <trkpt lat="46.34191" lon="5.25998">
        <ele>225.2</ele>
        <time>2022-07-25T05:58:52Z</time>
      </trkpt>
      <trkpt lat="46.34182" lon="5.26017">
        <ele>225.8</ele>
        <time>2022-07-25T05:58:56Z</time>
      </trkpt>
      <trkpt lat="46.34179" lon="5.26021">
        <ele>226.4</ele>
        <time>2022-07-25T05:58:57Z</time>
      </trkpt>
      <trkpt lat="46.34168" lon="5.26046">
        <ele>227</ele>
        <time>2022-07-25T05:59:02Z</time>
      </trkpt>
      <trkpt lat="46.34166" lon="5.26051">
        <ele>227.2</ele>
        <time>2022-07-25T05:59:03Z</time>
      </trkpt>
      <trkpt lat="46.34164" lon="5.26056">
        <ele>227.4</ele>
        <time>2022-07-25T05:59:04Z</time>
      </trkpt>
      <trkpt lat="46.34155" lon="5.26087">
        <ele>227.8</ele>
        <time>2022-07-25T05:59:10Z</time>
      </trkpt>
      <trkpt lat="46.3415" lon="5.261">
        <ele>227.8</ele>
        <time>2022-07-25T05:59:14Z</time>
      </trkpt>
      <trkpt lat="46.34139" lon="5.26097">
        <ele>227.8</ele>
        <time>2022-07-25T05:59:17Z</time>
      </trkpt>
      <trkpt lat="46.34124" lon="5.26092">
        <ele>227.8</ele>
        <time>2022-07-25T05:59:20Z</time>
      </trkpt>
      <trkpt lat="46.34114" lon="5.26087">
        <ele>228</ele>
        <time>2022-07-25T05:59:22Z</time>
      </trkpt>
      <trkpt lat="46.34073" lon="5.26074">
        <ele>228</ele>
        <time>2022-07-25T05:59:29Z</time>
      </trkpt>
      <trkpt lat="46.34056" lon="5.26069">
        <ele>228</ele>
        <time>2022-07-25T05:59:32Z</time>
      </trkpt>
      <trkpt lat="46.34048" lon="5.26061">
        <ele>228</ele>
        <time>2022-07-25T05:59:34Z</time>
      </trkpt>
      <trkpt lat="46.3405" lon="5.26047">
        <ele>227.8</ele>
        <time>2022-07-25T05:59:36Z</time>
      </trkpt>
      <trkpt lat="46.34057" lon="5.26021">
        <ele>227.4</ele>
        <time>2022-07-25T05:59:39Z</time>
      </trkpt>
      <trkpt lat="46.3406" lon="5.26001">
        <ele>227.4</ele>
        <time>2022-07-25T05:59:41Z</time>
      </trkpt>
      <trkpt lat="46.34065" lon="5.25942">
        <ele>227.6</ele>
        <time>2022-07-25T05:59:47Z</time>
      </trkpt>
      <trkpt lat="46.34069" lon="5.25897">
        <ele>227.6</ele>
        <time>2022-07-25T05:59:52Z</time>
      </trkpt>
      <trkpt lat="46.34067" lon="5.25888">
        <ele>227.4</ele>
        <time>2022-07-25T05:59:53Z</time>
      </trkpt>
      <trkpt lat="46.34064" lon="5.2588">
        <ele>227.6</ele>
        <time>2022-07-25T05:59:54Z</time>
      </trkpt>
      <trkpt lat="46.34054" lon="5.25867">
        <ele>227.6</ele>
        <time>2022-07-25T05:59:56Z</time>
      </trkpt>
      <trkpt lat="46.34019" lon="5.25837">
        <ele>227.2</ele>
        <time>2022-07-25T06:00:02Z</time>
      </trkpt>
      <trkpt lat="46.34014" lon="5.2583">
        <ele>227.2</ele>
        <time>2022-07-25T06:00:03Z</time>
      </trkpt>
      <trkpt lat="46.33974" lon="5.25777">
        <ele>226.8</ele>
        <time>2022-07-25T06:00:11Z</time>
      </trkpt>
      <trkpt lat="46.33952" lon="5.25748">
        <ele>226.8</ele>
        <time>2022-07-25T06:00:16Z</time>
      </trkpt>
      <trkpt lat="46.33948" lon="5.25741">
        <ele>226.8</ele>
        <time>2022-07-25T06:00:17Z</time>
      </trkpt>
      <trkpt lat="46.33946" lon="5.25734">
        <ele>226.8</ele>
        <time>2022-07-25T06:00:18Z</time>
      </trkpt>
      <trkpt lat="46.33943" lon="5.25718">
        <ele>227</ele>
        <time>2022-07-25T06:00:20Z</time>
      </trkpt>
      <trkpt lat="46.33943" lon="5.2571">
        <ele>227</ele>
        <time>2022-07-25T06:00:21Z</time>
      </trkpt>
      <trkpt lat="46.33947" lon="5.25672">
        <ele>227.6</ele>
        <time>2022-07-25T06:00:26Z</time>
      </trkpt>
      <trkpt lat="46.33947" lon="5.25665">
        <ele>227.6</ele>
        <time>2022-07-25T06:00:27Z</time>
      </trkpt>
      <trkpt lat="46.33947" lon="5.25659">
        <ele>227.8</ele>
        <time>2022-07-25T06:00:28Z</time>
      </trkpt>
      <trkpt lat="46.33944" lon="5.25648">
        <ele>228</ele>
        <time>2022-07-25T06:00:30Z</time>
      </trkpt>
      <trkpt lat="46.33938" lon="5.2564">
        <ele>228.4</ele>
        <time>2022-07-25T06:00:32Z</time>
      </trkpt>
      <trkpt lat="46.33931" lon="5.25632">
        <ele>228.6</ele>
        <time>2022-07-25T06:00:34Z</time>
      </trkpt>
      <trkpt lat="46.33917" lon="5.25626">
        <ele>229</ele>
        <time>2022-07-25T06:00:37Z</time>
      </trkpt>
      <trkpt lat="46.33912" lon="5.25625">
        <ele>229</ele>
        <time>2022-07-25T06:00:38Z</time>
      </trkpt>
      <trkpt lat="46.33872" lon="5.25619">
        <ele>228.8</ele>
        <time>2022-07-25T06:00:44Z</time>
      </trkpt>
      <trkpt lat="46.33857" lon="5.25615">
        <ele>228</ele>
        <time>2022-07-25T06:00:46Z</time>
      </trkpt>
      <trkpt lat="46.33839" lon="5.25611">
        <ele>227.2</ele>
        <time>2022-07-25T06:00:48Z</time>
      </trkpt>
      <trkpt lat="46.33811" lon="5.25608">
        <ele>226</ele>
        <time>2022-07-25T06:00:51Z</time>
      </trkpt>
      <trkpt lat="46.33792" lon="5.25611">
        <ele>225</ele>
        <time>2022-07-25T06:00:53Z</time>
      </trkpt>
      <trkpt lat="46.33782" lon="5.25614">
        <ele>224.6</ele>
        <time>2022-07-25T06:00:54Z</time>
      </trkpt>
      <trkpt lat="46.33753" lon="5.25628">
        <ele>223.2</ele>
        <time>2022-07-25T06:00:57Z</time>
      </trkpt>
      <trkpt lat="46.33743" lon="5.25634">
        <ele>222.2</ele>
        <time>2022-07-25T06:00:58Z</time>
      </trkpt>
      <trkpt lat="46.33734" lon="5.25641">
        <ele>222</ele>
        <time>2022-07-25T06:00:59Z</time>
      </trkpt>
      <trkpt lat="46.33716" lon="5.25657">
        <ele>220.8</ele>
        <time>2022-07-25T06:01:01Z</time>
      </trkpt>
      <trkpt lat="46.33698" lon="5.25676">
        <ele>219.8</ele>
        <time>2022-07-25T06:01:03Z</time>
      </trkpt>
      <trkpt lat="46.33692" lon="5.25683">
        <ele>219</ele>
        <time>2022-07-25T06:01:04Z</time>
      </trkpt>
      <trkpt lat="46.33665" lon="5.25721">
        <ele>217.8</ele>
        <time>2022-07-25T06:01:08Z</time>
      </trkpt>
      <trkpt lat="46.33632" lon="5.25758">
        <ele>217.8</ele>
        <time>2022-07-25T06:01:13Z</time>
      </trkpt>
      <trkpt lat="46.33617" lon="5.25769">
        <ele>217.8</ele>
        <time>2022-07-25T06:01:15Z</time>
      </trkpt>
      <trkpt lat="46.33605" lon="5.25774">
        <ele>218</ele>
        <time>2022-07-25T06:01:17Z</time>
      </trkpt>
      <trkpt lat="46.33585" lon="5.25778">
        <ele>219</ele>
        <time>2022-07-25T06:01:20Z</time>
      </trkpt>
      <trkpt lat="46.33567" lon="5.25781">
        <ele>219.4</ele>
        <time>2022-07-25T06:01:23Z</time>
      </trkpt>
      <trkpt lat="46.33557" lon="5.25782">
        <ele>220.4</ele>
        <time>2022-07-25T06:01:25Z</time>
      </trkpt>
      <trkpt lat="46.33539" lon="5.25786">
        <ele>221.6</ele>
        <time>2022-07-25T06:01:28Z</time>
      </trkpt>
      <trkpt lat="46.33527" lon="5.2579">
        <ele>221.8</ele>
        <time>2022-07-25T06:01:30Z</time>
      </trkpt>
      <trkpt lat="46.33514" lon="5.25796">
        <ele>222</ele>
        <time>2022-07-25T06:01:32Z</time>
      </trkpt>
      <trkpt lat="46.33501" lon="5.25806">
        <ele>222.2</ele>
        <time>2022-07-25T06:01:34Z</time>
      </trkpt>
      <trkpt lat="46.3349" lon="5.25819">
        <ele>222.2</ele>
        <time>2022-07-25T06:01:36Z</time>
      </trkpt>
      <trkpt lat="46.33474" lon="5.25842">
        <ele>222</ele>
        <time>2022-07-25T06:01:39Z</time>
      </trkpt>
      <trkpt lat="46.33433" lon="5.25902">
        <ele>221.2</ele>
        <time>2022-07-25T06:01:47Z</time>
      </trkpt>
      <trkpt lat="46.33417" lon="5.25915">
        <ele>221.2</ele>
        <time>2022-07-25T06:01:50Z</time>
      </trkpt>
      <trkpt lat="46.33404" lon="5.2592">
        <ele>221.4</ele>
        <time>2022-07-25T06:01:52Z</time>
      </trkpt>
      <trkpt lat="46.33346" lon="5.25939">
        <ele>221.4</ele>
        <time>2022-07-25T06:02:00Z</time>
      </trkpt>
      <trkpt lat="46.33323" lon="5.25957">
        <ele>220.8</ele>
        <time>2022-07-25T06:02:03Z</time>
      </trkpt>
      <trkpt lat="46.33317" lon="5.25965">
        <ele>220.8</ele>
        <time>2022-07-25T06:02:04Z</time>
      </trkpt>
      <trkpt lat="46.3331" lon="5.25978">
        <ele>220</ele>
        <time>2022-07-25T06:02:05Z</time>
      </trkpt>
      <trkpt lat="46.33302" lon="5.26">
        <ele>219</ele>
        <time>2022-07-25T06:02:07Z</time>
      </trkpt>
      <trkpt lat="46.33288" lon="5.2602">
        <ele>217.6</ele>
        <time>2022-07-25T06:02:09Z</time>
      </trkpt>
      <trkpt lat="46.33269" lon="5.26026">
        <ele>216.8</ele>
        <time>2022-07-25T06:02:11Z</time>
      </trkpt>
      <trkpt lat="46.3326" lon="5.26024">
        <ele>216.4</ele>
        <time>2022-07-25T06:02:12Z</time>
      </trkpt>
      <trkpt lat="46.33242" lon="5.2602">
        <ele>215.8</ele>
        <time>2022-07-25T06:02:14Z</time>
      </trkpt>
      <trkpt lat="46.33226" lon="5.26022">
        <ele>215.6</ele>
        <time>2022-07-25T06:02:16Z</time>
      </trkpt>
      <trkpt lat="46.3322" lon="5.26026">
        <ele>215.6</ele>
        <time>2022-07-25T06:02:17Z</time>
      </trkpt>
      <trkpt lat="46.33213" lon="5.2603">
        <ele>215.6</ele>
        <time>2022-07-25T06:02:18Z</time>
      </trkpt>
      <trkpt lat="46.33198" lon="5.26044">
        <ele>215.6</ele>
        <time>2022-07-25T06:02:21Z</time>
      </trkpt>
      <trkpt lat="46.33192" lon="5.26055">
        <ele>216</ele>
        <time>2022-07-25T06:02:23Z</time>
      </trkpt>
      <trkpt lat="46.33186" lon="5.26069">
        <ele>216.8</ele>
        <time>2022-07-25T06:02:25Z</time>
      </trkpt>
      <trkpt lat="46.33181" lon="5.26081">
        <ele>217.6</ele>
        <time>2022-07-25T06:02:27Z</time>
      </trkpt>
      <trkpt lat="46.33177" lon="5.26089">
        <ele>218</ele>
        <time>2022-07-25T06:02:28Z</time>
      </trkpt>
      <trkpt lat="46.3317" lon="5.261">
        <ele>218.4</ele>
        <time>2022-07-25T06:02:30Z</time>
      </trkpt>
      <trkpt lat="46.33164" lon="5.26112">
        <ele>218.8</ele>
        <time>2022-07-25T06:02:32Z</time>
      </trkpt>
      <trkpt lat="46.33158" lon="5.26135">
        <ele>219.4</ele>
        <time>2022-07-25T06:02:35Z</time>
      </trkpt>
      <trkpt lat="46.33152" lon="5.26154">
        <ele>220</ele>
        <time>2022-07-25T06:02:37Z</time>
      </trkpt>
      <trkpt lat="46.33145" lon="5.2618">
        <ele>220</ele>
        <time>2022-07-25T06:02:40Z</time>
      </trkpt>
      <trkpt lat="46.33128" lon="5.26235">
        <ele>219.6</ele>
        <time>2022-07-25T06:02:46Z</time>
      </trkpt>
      <trkpt lat="46.33118" lon="5.2625">
        <ele>219.4</ele>
        <time>2022-07-25T06:02:48Z</time>
      </trkpt>
      <trkpt lat="46.33112" lon="5.26255">
        <ele>219.2</ele>
        <time>2022-07-25T06:02:49Z</time>
      </trkpt>
      <trkpt lat="46.33106" lon="5.26258">
        <ele>219.2</ele>
        <time>2022-07-25T06:02:50Z</time>
      </trkpt>
      <trkpt lat="46.3309" lon="5.26262">
        <ele>219</ele>
        <time>2022-07-25T06:02:52Z</time>
      </trkpt>
      <trkpt lat="46.33082" lon="5.26261">
        <ele>218.8</ele>
        <time>2022-07-25T06:02:53Z</time>
      </trkpt>
      <trkpt lat="46.33074" lon="5.26259">
        <ele>218.8</ele>
        <time>2022-07-25T06:02:54Z</time>
      </trkpt>
      <trkpt lat="46.33061" lon="5.26251">
        <ele>218.6</ele>
        <time>2022-07-25T06:02:56Z</time>
      </trkpt>
      <trkpt lat="46.33035" lon="5.26225">
        <ele>218.6</ele>
        <time>2022-07-25T06:03:01Z</time>
      </trkpt>
      <trkpt lat="46.33009" lon="5.26195">
        <ele>220</ele>
        <time>2022-07-25T06:03:07Z</time>
      </trkpt>
      <trkpt lat="46.33005" lon="5.26191">
        <ele>220.6</ele>
        <time>2022-07-25T06:03:08Z</time>
      </trkpt>
      <trkpt lat="46.32996" lon="5.26183">
        <ele>221.2</ele>
        <time>2022-07-25T06:03:10Z</time>
      </trkpt>
      <trkpt lat="46.32973" lon="5.26167">
        <ele>222.2</ele>
        <time>2022-07-25T06:03:15Z</time>
      </trkpt>
      <trkpt lat="46.32948" lon="5.26156">
        <ele>223.4</ele>
        <time>2022-07-25T06:03:20Z</time>
      </trkpt>
      <trkpt lat="46.32934" lon="5.26151">
        <ele>224</ele>
        <time>2022-07-25T06:03:23Z</time>
      </trkpt>
      <trkpt lat="46.32925" lon="5.26148">
        <ele>224.4</ele>
        <time>2022-07-25T06:03:25Z</time>
      </trkpt>
      <trkpt lat="46.32907" lon="5.26141">
        <ele>225</ele>
        <time>2022-07-25T06:03:29Z</time>
      </trkpt>
      <trkpt lat="46.32891" lon="5.26134">
        <ele>225.4</ele>
        <time>2022-07-25T06:03:32Z</time>
      </trkpt>
      <trkpt lat="46.32866" lon="5.26117">
        <ele>225.8</ele>
        <time>2022-07-25T06:03:37Z</time>
      </trkpt>
      <trkpt lat="46.32826" lon="5.26096">
        <ele>226.2</ele>
        <time>2022-07-25T06:03:44Z</time>
      </trkpt>
      <trkpt lat="46.32792" lon="5.26089">
        <ele>226.2</ele>
        <time>2022-07-25T06:03:49Z</time>
      </trkpt>
      <trkpt lat="46.32746" lon="5.26081">
        <ele>226</ele>
        <time>2022-07-25T06:03:56Z</time>
      </trkpt>
      <trkpt lat="46.32709" lon="5.26059">
        <ele>226</ele>
        <time>2022-07-25T06:04:02Z</time>
      </trkpt>
      <trkpt lat="46.3267" lon="5.26027">
        <ele>225.8</ele>
        <time>2022-07-25T06:04:08Z</time>
      </trkpt>
      <trkpt lat="46.32631" lon="5.26005">
        <ele>224.4</ele>
        <time>2022-07-25T06:04:13Z</time>
      </trkpt>
      <trkpt lat="46.32596" lon="5.2599">
        <ele>223.4</ele>
        <time>2022-07-25T06:04:17Z</time>
      </trkpt>
      <trkpt lat="46.32586" lon="5.25988">
        <ele>223</ele>
        <time>2022-07-25T06:04:18Z</time>
      </trkpt>
      <trkpt lat="46.32567" lon="5.25984">
        <ele>222</ele>
        <time>2022-07-25T06:04:20Z</time>
      </trkpt>
      <trkpt lat="46.32539" lon="5.2598">
        <ele>220.6</ele>
        <time>2022-07-25T06:04:23Z</time>
      </trkpt>
      <trkpt lat="46.32511" lon="5.25975">
        <ele>219.6</ele>
        <time>2022-07-25T06:04:26Z</time>
      </trkpt>
      <trkpt lat="46.32481" lon="5.25971">
        <ele>218.4</ele>
        <time>2022-07-25T06:04:29Z</time>
      </trkpt>
      <trkpt lat="46.32462" lon="5.25969">
        <ele>217.2</ele>
        <time>2022-07-25T06:04:31Z</time>
      </trkpt>
      <trkpt lat="46.32451" lon="5.25968">
        <ele>217</ele>
        <time>2022-07-25T06:04:32Z</time>
      </trkpt>
      <trkpt lat="46.32428" lon="5.25967">
        <ele>216</ele>
        <time>2022-07-25T06:04:34Z</time>
      </trkpt>
      <trkpt lat="46.32417" lon="5.25966">
        <ele>215.8</ele>
        <time>2022-07-25T06:04:35Z</time>
      </trkpt>
      <trkpt lat="46.32405" lon="5.25966">
        <ele>214.8</ele>
        <time>2022-07-25T06:04:36Z</time>
      </trkpt>
      <trkpt lat="46.32382" lon="5.25964">
        <ele>213.2</ele>
        <time>2022-07-25T06:04:38Z</time>
      </trkpt>
      <trkpt lat="46.3236" lon="5.2596">
        <ele>212.4</ele>
        <time>2022-07-25T06:04:40Z</time>
      </trkpt>
      <trkpt lat="46.32348" lon="5.25956">
        <ele>211.8</ele>
        <time>2022-07-25T06:04:41Z</time>
      </trkpt>
      <trkpt lat="46.32326" lon="5.25941">
        <ele>210.6</ele>
        <time>2022-07-25T06:04:43Z</time>
      </trkpt>
      <trkpt lat="46.32307" lon="5.25923">
        <ele>209.4</ele>
        <time>2022-07-25T06:04:45Z</time>
      </trkpt>
      <trkpt lat="46.32288" lon="5.25912">
        <ele>208.6</ele>
        <time>2022-07-25T06:04:47Z</time>
      </trkpt>
      <trkpt lat="46.32279" lon="5.25908">
        <ele>208.2</ele>
        <time>2022-07-25T06:04:48Z</time>
      </trkpt>
      <trkpt lat="46.32243" lon="5.25897">
        <ele>207.8</ele>
        <time>2022-07-25T06:04:52Z</time>
      </trkpt>
      <trkpt lat="46.32193" lon="5.2589">
        <ele>208.4</ele>
        <time>2022-07-25T06:04:58Z</time>
      </trkpt>
      <trkpt lat="46.32163" lon="5.25891">
        <ele>208.6</ele>
        <time>2022-07-25T06:05:02Z</time>
      </trkpt>
      <trkpt lat="46.32156" lon="5.25893">
        <ele>208.8</ele>
        <time>2022-07-25T06:05:03Z</time>
      </trkpt>
      <trkpt lat="46.32135" lon="5.25901">
        <ele>208.8</ele>
        <time>2022-07-25T06:05:06Z</time>
      </trkpt>
      <trkpt lat="46.32121" lon="5.25903">
        <ele>209</ele>
        <time>2022-07-25T06:05:08Z</time>
      </trkpt>
      <trkpt lat="46.32107" lon="5.25901">
        <ele>209.2</ele>
        <time>2022-07-25T06:05:10Z</time>
      </trkpt>
      <trkpt lat="46.32093" lon="5.25896">
        <ele>209.2</ele>
        <time>2022-07-25T06:05:12Z</time>
      </trkpt>
      <trkpt lat="46.32055" lon="5.25871">
        <ele>209.8</ele>
        <time>2022-07-25T06:05:18Z</time>
      </trkpt>
      <trkpt lat="46.3205" lon="5.25865">
        <ele>209.8</ele>
        <time>2022-07-25T06:05:19Z</time>
      </trkpt>
      <trkpt lat="46.32038" lon="5.25844">
        <ele>210</ele>
        <time>2022-07-25T06:05:22Z</time>
      </trkpt>
      <trkpt lat="46.3203" lon="5.25831">
        <ele>210.2</ele>
        <time>2022-07-25T06:05:24Z</time>
      </trkpt>
      <trkpt lat="46.32021" lon="5.25812">
        <ele>210.4</ele>
        <time>2022-07-25T06:05:27Z</time>
      </trkpt>
      <trkpt lat="46.32019" lon="5.25804">
        <ele>210.6</ele>
        <time>2022-07-25T06:05:28Z</time>
      </trkpt>
      <trkpt lat="46.32011" lon="5.25779">
        <ele>210.6</ele>
        <time>2022-07-25T06:05:31Z</time>
      </trkpt>
      <trkpt lat="46.32008" lon="5.25771">
        <ele>210.6</ele>
        <time>2022-07-25T06:05:32Z</time>
      </trkpt>
      <trkpt lat="46.32003" lon="5.25764">
        <ele>210.6</ele>
        <time>2022-07-25T06:05:33Z</time>
      </trkpt>
      <trkpt lat="46.31988" lon="5.25755">
        <ele>210.6</ele>
        <time>2022-07-25T06:05:35Z</time>
      </trkpt>
      <trkpt lat="46.31972" lon="5.25748">
        <ele>210.2</ele>
        <time>2022-07-25T06:05:37Z</time>
      </trkpt>
      <trkpt lat="46.31956" lon="5.25735">
        <ele>209.2</ele>
        <time>2022-07-25T06:05:39Z</time>
      </trkpt>
      <trkpt lat="46.3195" lon="5.25726">
        <ele>209</ele>
        <time>2022-07-25T06:05:40Z</time>
      </trkpt>
      <trkpt lat="46.31944" lon="5.25715">
        <ele>208.6</ele>
        <time>2022-07-25T06:05:41Z</time>
      </trkpt>
      <trkpt lat="46.3194" lon="5.25704">
        <ele>208.4</ele>
        <time>2022-07-25T06:05:42Z</time>
      </trkpt>
      <trkpt lat="46.31935" lon="5.25693">
        <ele>208</ele>
        <time>2022-07-25T06:05:43Z</time>
      </trkpt>
      <trkpt lat="46.31917" lon="5.25638">
        <ele>206.8</ele>
        <time>2022-07-25T06:05:48Z</time>
      </trkpt>
      <trkpt lat="46.31905" lon="5.25585">
        <ele>206.6</ele>
        <time>2022-07-25T06:05:53Z</time>
      </trkpt>
      <trkpt lat="46.31897" lon="5.25554">
        <ele>206.6</ele>
        <time>2022-07-25T06:05:56Z</time>
      </trkpt>
      <trkpt lat="46.31888" lon="5.25538">
        <ele>206.6</ele>
        <time>2022-07-25T06:05:58Z</time>
      </trkpt>
      <trkpt lat="46.31875" lon="5.25528">
        <ele>206.6</ele>
        <time>2022-07-25T06:06:00Z</time>
      </trkpt>
      <trkpt lat="46.31867" lon="5.25527">
        <ele>206.6</ele>
        <time>2022-07-25T06:06:01Z</time>
      </trkpt>
      <trkpt lat="46.3186" lon="5.25529">
        <ele>206.8</ele>
        <time>2022-07-25T06:06:02Z</time>
      </trkpt>
      <trkpt lat="46.31847" lon="5.25538">
        <ele>206.8</ele>
        <time>2022-07-25T06:06:04Z</time>
      </trkpt>
      <trkpt lat="46.31818" lon="5.25564">
        <ele>206.8</ele>
        <time>2022-07-25T06:06:09Z</time>
      </trkpt>
      <trkpt lat="46.31813" lon="5.25571">
        <ele>206.8</ele>
        <time>2022-07-25T06:06:10Z</time>
      </trkpt>
      <trkpt lat="46.3178" lon="5.25619">
        <ele>207.4</ele>
        <time>2022-07-25T06:06:17Z</time>
      </trkpt>
      <trkpt lat="46.31769" lon="5.25628">
        <ele>207.6</ele>
        <time>2022-07-25T06:06:19Z</time>
      </trkpt>
      <trkpt lat="46.31757" lon="5.25634">
        <ele>207.8</ele>
        <time>2022-07-25T06:06:21Z</time>
      </trkpt>
      <trkpt lat="46.31751" lon="5.25637">
        <ele>208.2</ele>
        <time>2022-07-25T06:06:22Z</time>
      </trkpt>
      <trkpt lat="46.31708" lon="5.25662">
        <ele>208.8</ele>
        <time>2022-07-25T06:06:30Z</time>
      </trkpt>
      <trkpt lat="46.31678" lon="5.25675">
        <ele>210</ele>
        <time>2022-07-25T06:06:36Z</time>
      </trkpt>
      <trkpt lat="46.31673" lon="5.25676">
        <ele>210.4</ele>
        <time>2022-07-25T06:06:37Z</time>
      </trkpt>
      <trkpt lat="46.31667" lon="5.25677">
        <ele>210.6</ele>
        <time>2022-07-25T06:06:38Z</time>
      </trkpt>
      <trkpt lat="46.31662" lon="5.25677">
        <ele>211</ele>
        <time>2022-07-25T06:06:39Z</time>
      </trkpt>
      <trkpt lat="46.31639" lon="5.25672">
        <ele>212.2</ele>
        <time>2022-07-25T06:06:44Z</time>
      </trkpt>
      <trkpt lat="46.31613" lon="5.25665">
        <ele>213.2</ele>
        <time>2022-07-25T06:06:50Z</time>
      </trkpt>
      <trkpt lat="46.31596" lon="5.25662">
        <ele>214</ele>
        <time>2022-07-25T06:06:54Z</time>
      </trkpt>
      <trkpt lat="46.31592" lon="5.25661">
        <ele>214.2</ele>
        <time>2022-07-25T06:06:55Z</time>
      </trkpt>
      <trkpt lat="46.31576" lon="5.25662">
        <ele>215.4</ele>
        <time>2022-07-25T06:06:59Z</time>
      </trkpt>
      <trkpt lat="46.31564" lon="5.25664">
        <ele>216</ele>
        <time>2022-07-25T06:07:02Z</time>
      </trkpt>
      <trkpt lat="46.31557" lon="5.25665">
        <ele>216.4</ele>
        <time>2022-07-25T06:07:04Z</time>
      </trkpt>
      <trkpt lat="46.31547" lon="5.25669">
        <ele>217.4</ele>
        <time>2022-07-25T06:07:07Z</time>
      </trkpt>
      <trkpt lat="46.31542" lon="5.2567">
        <ele>218</ele>
        <time>2022-07-25T06:07:09Z</time>
      </trkpt>
      <trkpt lat="46.31538" lon="5.25669">
        <ele>218.4</ele>
        <time>2022-07-25T06:07:11Z</time>
      </trkpt>
      <trkpt lat="46.31531" lon="5.2567">
        <ele>219.6</ele>
        <time>2022-07-25T06:07:14Z</time>
      </trkpt>
      <trkpt lat="46.31525" lon="5.2567">
        <ele>220</ele>
        <time>2022-07-25T06:07:16Z</time>
      </trkpt>
      <trkpt lat="46.31513" lon="5.25668">
        <ele>220.8</ele>
        <time>2022-07-25T06:07:20Z</time>
      </trkpt>
      <trkpt lat="46.31511" lon="5.25667">
        <ele>221</ele>
        <time>2022-07-25T06:07:21Z</time>
      </trkpt>
      <trkpt lat="46.31492" lon="5.25665">
        <ele>222.2</ele>
        <time>2022-07-25T06:07:27Z</time>
      </trkpt>
      <trkpt lat="46.31484" lon="5.25665">
        <ele>222.6</ele>
        <time>2022-07-25T06:07:29Z</time>
      </trkpt>
      <trkpt lat="46.31464" lon="5.25667">
        <ele>223.2</ele>
        <time>2022-07-25T06:07:34Z</time>
      </trkpt>
      <trkpt lat="46.31461" lon="5.25668">
        <ele>223.4</ele>
        <time>2022-07-25T06:07:35Z</time>
      </trkpt>
      <trkpt lat="46.31433" lon="5.25676">
        <ele>224.2</ele>
        <time>2022-07-25T06:07:41Z</time>
      </trkpt>
      <trkpt lat="46.31429" lon="5.25677">
        <ele>224.4</ele>
        <time>2022-07-25T06:07:42Z</time>
      </trkpt>
      <trkpt lat="46.31402" lon="5.25687">
        <ele>225.2</ele>
        <time>2022-07-25T06:07:48Z</time>
      </trkpt>
      <trkpt lat="46.31398" lon="5.25688">
        <ele>225.4</ele>
        <time>2022-07-25T06:07:49Z</time>
      </trkpt>
      <trkpt lat="46.31375" lon="5.25695">
        <ele>225.4</ele>
        <time>2022-07-25T06:07:53Z</time>
      </trkpt>
      <trkpt lat="46.31368" lon="5.25695">
        <ele>225.4</ele>
        <time>2022-07-25T06:07:54Z</time>
      </trkpt>
      <trkpt lat="46.31332" lon="5.25691">
        <ele>225</ele>
        <time>2022-07-25T06:08:00Z</time>
      </trkpt>
      <trkpt lat="46.31286" lon="5.25687">
        <ele>225.6</ele>
        <time>2022-07-25T06:08:08Z</time>
      </trkpt>
      <trkpt lat="46.31243" lon="5.25679">
        <ele>225.8</ele>
        <time>2022-07-25T06:08:15Z</time>
      </trkpt>
      <trkpt lat="46.31238" lon="5.25675">
        <ele>225.8</ele>
        <time>2022-07-25T06:08:16Z</time>
      </trkpt>
      <trkpt lat="46.31232" lon="5.25669">
        <ele>225.8</ele>
        <time>2022-07-25T06:08:17Z</time>
      </trkpt>
      <trkpt lat="46.31224" lon="5.25654">
        <ele>225.6</ele>
        <time>2022-07-25T06:08:19Z</time>
      </trkpt>
      <trkpt lat="46.31212" lon="5.25622">
        <ele>225.6</ele>
        <time>2022-07-25T06:08:23Z</time>
      </trkpt>
      <trkpt lat="46.31205" lon="5.25607">
        <ele>225.6</ele>
        <time>2022-07-25T06:08:25Z</time>
      </trkpt>
      <trkpt lat="46.31177" lon="5.2556">
        <ele>226.2</ele>
        <time>2022-07-25T06:08:32Z</time>
      </trkpt>
      <trkpt lat="46.31173" lon="5.25554">
        <ele>226.4</ele>
        <time>2022-07-25T06:08:33Z</time>
      </trkpt>
      <trkpt lat="46.3117" lon="5.25547">
        <ele>226.4</ele>
        <time>2022-07-25T06:08:34Z</time>
      </trkpt>
      <trkpt lat="46.31151" lon="5.25517">
        <ele>226.6</ele>
        <time>2022-07-25T06:08:39Z</time>
      </trkpt>
      <trkpt lat="46.31146" lon="5.25503">
        <ele>227.2</ele>
        <time>2022-07-25T06:08:41Z</time>
      </trkpt>
      <trkpt lat="46.31143" lon="5.25496">
        <ele>227.4</ele>
        <time>2022-07-25T06:08:42Z</time>
      </trkpt>
      <trkpt lat="46.31128" lon="5.25451">
        <ele>228.2</ele>
        <time>2022-07-25T06:08:48Z</time>
      </trkpt>
      <trkpt lat="46.31112" lon="5.25387">
        <ele>228.2</ele>
        <time>2022-07-25T06:08:55Z</time>
      </trkpt>
      <trkpt lat="46.31092" lon="5.2534">
        <ele>228</ele>
        <time>2022-07-25T06:09:01Z</time>
      </trkpt>
      <trkpt lat="46.31059" lon="5.25285">
        <ele>228</ele>
        <time>2022-07-25T06:09:09Z</time>
      </trkpt>
      <trkpt lat="46.31034" lon="5.2524">
        <ele>228.2</ele>
        <time>2022-07-25T06:09:16Z</time>
      </trkpt>
      <trkpt lat="46.31031" lon="5.25235">
        <ele>228.2</ele>
        <time>2022-07-25T06:09:17Z</time>
      </trkpt>
      <trkpt lat="46.31029" lon="5.2523">
        <ele>228.4</ele>
        <time>2022-07-25T06:09:18Z</time>
      </trkpt>
      <trkpt lat="46.31023" lon="5.25228">
        <ele>228.4</ele>
        <time>2022-07-25T06:09:20Z</time>
      </trkpt>
      <trkpt lat="46.31018" lon="5.25242">
        <ele>228.2</ele>
        <time>2022-07-25T06:09:23Z</time>
      </trkpt>
      <trkpt lat="46.3101" lon="5.25268">
        <ele>228.2</ele>
        <time>2022-07-25T06:09:27Z</time>
      </trkpt>
      <trkpt lat="46.30996" lon="5.25315">
        <ele>228.4</ele>
        <time>2022-07-25T06:09:33Z</time>
      </trkpt>
      <trkpt lat="46.30992" lon="5.25331">
        <ele>228.4</ele>
        <time>2022-07-25T06:09:35Z</time>
      </trkpt>
      <trkpt lat="46.30976" lon="5.25389">
        <ele>229.2</ele>
        <time>2022-07-25T06:09:42Z</time>
      </trkpt>
      <trkpt lat="46.30971" lon="5.25406">
        <ele>229.4</ele>
        <time>2022-07-25T06:09:44Z</time>
      </trkpt>
      <trkpt lat="46.30959" lon="5.2544">
        <ele>230</ele>
        <time>2022-07-25T06:09:48Z</time>
      </trkpt>
      <trkpt lat="46.30932" lon="5.255">
        <ele>230.4</ele>
        <time>2022-07-25T06:09:56Z</time>
      </trkpt>
      <trkpt lat="46.30912" lon="5.25529">
        <ele>230.2</ele>
        <time>2022-07-25T06:10:00Z</time>
      </trkpt>
      <trkpt lat="46.30906" lon="5.25536">
        <ele>230.2</ele>
        <time>2022-07-25T06:10:01Z</time>
      </trkpt>
      <trkpt lat="46.30893" lon="5.25547">
        <ele>230</ele>
        <time>2022-07-25T06:10:03Z</time>
      </trkpt>
      <trkpt lat="46.30873" lon="5.25559">
        <ele>229.8</ele>
        <time>2022-07-25T06:10:06Z</time>
      </trkpt>
      <trkpt lat="46.30834" lon="5.25582">
        <ele>229.4</ele>
        <time>2022-07-25T06:10:12Z</time>
      </trkpt>
      <trkpt lat="46.30824" lon="5.25594">
        <ele>229.4</ele>
        <time>2022-07-25T06:10:14Z</time>
      </trkpt>
      <trkpt lat="46.30817" lon="5.25608">
        <ele>229.6</ele>
        <time>2022-07-25T06:10:16Z</time>
      </trkpt>
      <trkpt lat="46.30811" lon="5.25623">
        <ele>229.8</ele>
        <time>2022-07-25T06:10:18Z</time>
      </trkpt>
      <trkpt lat="46.30803" lon="5.25647">
        <ele>230.6</ele>
        <time>2022-07-25T06:10:21Z</time>
      </trkpt>
      <trkpt lat="46.30792" lon="5.25697">
        <ele>231.6</ele>
        <time>2022-07-25T06:10:27Z</time>
      </trkpt>
      <trkpt lat="46.30779" lon="5.25738">
        <ele>232.4</ele>
        <time>2022-07-25T06:10:32Z</time>
      </trkpt>
      <trkpt lat="46.30776" lon="5.25745">
        <ele>232.4</ele>
        <time>2022-07-25T06:10:33Z</time>
      </trkpt>
      <trkpt lat="46.30749" lon="5.25799">
        <ele>232.4</ele>
        <time>2022-07-25T06:10:40Z</time>
      </trkpt>
      <trkpt lat="46.30722" lon="5.25861">
        <ele>232.8</ele>
        <time>2022-07-25T06:10:48Z</time>
      </trkpt>
      <trkpt lat="46.30717" lon="5.25878">
        <ele>232.8</ele>
        <time>2022-07-25T06:10:50Z</time>
      </trkpt>
      <trkpt lat="46.30697" lon="5.25953">
        <ele>233</ele>
        <time>2022-07-25T06:10:59Z</time>
      </trkpt>
      <trkpt lat="46.30688" lon="5.25993">
        <ele>232.6</ele>
        <time>2022-07-25T06:11:03Z</time>
      </trkpt>
      <trkpt lat="46.3068" lon="5.26051">
        <ele>231.6</ele>
        <time>2022-07-25T06:11:08Z</time>
      </trkpt>
      <trkpt lat="46.30663" lon="5.26126">
        <ele>230.6</ele>
        <time>2022-07-25T06:11:15Z</time>
      </trkpt>
      <trkpt lat="46.30653" lon="5.26164">
        <ele>230.6</ele>
        <time>2022-07-25T06:11:19Z</time>
      </trkpt>
      <trkpt lat="46.30644" lon="5.26201">
        <ele>231</ele>
        <time>2022-07-25T06:11:23Z</time>
      </trkpt>
      <trkpt lat="46.30627" lon="5.26272">
        <ele>231.6</ele>
        <time>2022-07-25T06:11:31Z</time>
      </trkpt>
      <trkpt lat="46.30608" lon="5.26332">
        <ele>232</ele>
        <time>2022-07-25T06:11:38Z</time>
      </trkpt>
      <trkpt lat="46.30606" lon="5.2634">
        <ele>232</ele>
        <time>2022-07-25T06:11:39Z</time>
      </trkpt>
      <trkpt lat="46.30596" lon="5.26407">
        <ele>232</ele>
        <time>2022-07-25T06:11:46Z</time>
      </trkpt>
      <trkpt lat="46.30598" lon="5.26472">
        <ele>232</ele>
        <time>2022-07-25T06:11:52Z</time>
      </trkpt>
      <trkpt lat="46.306" lon="5.26542">
        <ele>230.6</ele>
        <time>2022-07-25T06:11:57Z</time>
      </trkpt>
      <trkpt lat="46.30599" lon="5.26557">
        <ele>230.2</ele>
        <time>2022-07-25T06:11:58Z</time>
      </trkpt>
      <trkpt lat="46.30601" lon="5.26587">
        <ele>228.2</ele>
        <time>2022-07-25T06:12:00Z</time>
      </trkpt>
      <trkpt lat="46.30604" lon="5.26601">
        <ele>227.6</ele>
        <time>2022-07-25T06:12:01Z</time>
      </trkpt>
      <trkpt lat="46.30607" lon="5.26615">
        <ele>226.6</ele>
        <time>2022-07-25T06:12:02Z</time>
      </trkpt>
      <trkpt lat="46.30614" lon="5.26657">
        <ele>225.4</ele>
        <time>2022-07-25T06:12:05Z</time>
      </trkpt>
      <trkpt lat="46.30624" lon="5.26706">
        <ele>224.6</ele>
        <time>2022-07-25T06:12:09Z</time>
      </trkpt>
      <trkpt lat="46.30636" lon="5.26757">
        <ele>225.4</ele>
        <time>2022-07-25T06:12:14Z</time>
      </trkpt>
      <trkpt lat="46.30644" lon="5.26793">
        <ele>226.6</ele>
        <time>2022-07-25T06:12:18Z</time>
      </trkpt>
      <trkpt lat="46.30646" lon="5.26811">
        <ele>227</ele>
        <time>2022-07-25T06:12:20Z</time>
      </trkpt>
      <trkpt lat="46.30648" lon="5.26837">
        <ele>228</ele>
        <time>2022-07-25T06:12:23Z</time>
      </trkpt>
      <trkpt lat="46.30645" lon="5.26855">
        <ele>228.4</ele>
        <time>2022-07-25T06:12:25Z</time>
      </trkpt>
      <trkpt lat="46.30634" lon="5.26888">
        <ele>229.2</ele>
        <time>2022-07-25T06:12:29Z</time>
      </trkpt>
      <trkpt lat="46.30626" lon="5.26912">
        <ele>229.8</ele>
        <time>2022-07-25T06:12:32Z</time>
      </trkpt>
      <trkpt lat="46.30622" lon="5.26927">
        <ele>230.2</ele>
        <time>2022-07-25T06:12:34Z</time>
      </trkpt>
      <trkpt lat="46.30613" lon="5.26966">
        <ele>231</ele>
        <time>2022-07-25T06:12:39Z</time>
      </trkpt>
      <trkpt lat="46.30606" lon="5.26989">
        <ele>231.2</ele>
        <time>2022-07-25T06:12:42Z</time>
      </trkpt>
      <trkpt lat="46.30592" lon="5.27029">
        <ele>231.4</ele>
        <time>2022-07-25T06:12:47Z</time>
      </trkpt>
      <trkpt lat="46.30575" lon="5.27083">
        <ele>231.2</ele>
        <time>2022-07-25T06:12:53Z</time>
      </trkpt>
      <trkpt lat="46.30563" lon="5.27149">
        <ele>230.6</ele>
        <time>2022-07-25T06:12:59Z</time>
      </trkpt>
      <trkpt lat="46.3056" lon="5.27171">
        <ele>230.2</ele>
        <time>2022-07-25T06:13:01Z</time>
      </trkpt>
      <trkpt lat="46.30551" lon="5.27221">
        <ele>229.6</ele>
        <time>2022-07-25T06:13:07Z</time>
      </trkpt>
      <trkpt lat="46.30543" lon="5.2726">
        <ele>229.8</ele>
        <time>2022-07-25T06:13:12Z</time>
      </trkpt>
      <trkpt lat="46.3053" lon="5.27306">
        <ele>231.2</ele>
        <time>2022-07-25T06:13:19Z</time>
      </trkpt>
      <trkpt lat="46.30526" lon="5.27323">
        <ele>232.6</ele>
        <time>2022-07-25T06:13:22Z</time>
      </trkpt>
      <trkpt lat="46.30522" lon="5.27341">
        <ele>233.4</ele>
        <time>2022-07-25T06:13:25Z</time>
      </trkpt>
      <trkpt lat="46.3052" lon="5.27347">
        <ele>233.6</ele>
        <time>2022-07-25T06:13:26Z</time>
      </trkpt>
      <trkpt lat="46.30512" lon="5.27374">
        <ele>234.8</ele>
        <time>2022-07-25T06:13:31Z</time>
      </trkpt>
      <trkpt lat="46.30509" lon="5.27385">
        <ele>235.2</ele>
        <time>2022-07-25T06:13:33Z</time>
      </trkpt>
      <trkpt lat="46.30507" lon="5.27393">
        <ele>235.4</ele>
        <time>2022-07-25T06:13:34Z</time>
      </trkpt>
      <trkpt lat="46.30504" lon="5.27405">
        <ele>235.8</ele>
        <time>2022-07-25T06:13:36Z</time>
      </trkpt>
      <trkpt lat="46.305" lon="5.27425">
        <ele>236.6</ele>
        <time>2022-07-25T06:13:39Z</time>
      </trkpt>
      <trkpt lat="46.30498" lon="5.27441">
        <ele>236.8</ele>
        <time>2022-07-25T06:13:41Z</time>
      </trkpt>
      <trkpt lat="46.30492" lon="5.2749">
        <ele>237.2</ele>
        <time>2022-07-25T06:13:47Z</time>
      </trkpt>
      <trkpt lat="46.30484" lon="5.27552">
        <ele>237.2</ele>
        <time>2022-07-25T06:13:54Z</time>
      </trkpt>
      <trkpt lat="46.30479" lon="5.27588">
        <ele>237.2</ele>
        <time>2022-07-25T06:13:58Z</time>
      </trkpt>
      <trkpt lat="46.3047" lon="5.27613">
        <ele>237</ele>
        <time>2022-07-25T06:14:01Z</time>
      </trkpt>
      <trkpt lat="46.30448" lon="5.27652">
        <ele>237</ele>
        <time>2022-07-25T06:14:06Z</time>
      </trkpt>
      <trkpt lat="46.30418" lon="5.27695">
        <ele>236.6</ele>
        <time>2022-07-25T06:14:12Z</time>
      </trkpt>
      <trkpt lat="46.30414" lon="5.27703">
        <ele>236.4</ele>
        <time>2022-07-25T06:14:13Z</time>
      </trkpt>
      <trkpt lat="46.3041" lon="5.27712">
        <ele>236.4</ele>
        <time>2022-07-25T06:14:14Z</time>
      </trkpt>
      <trkpt lat="46.30403" lon="5.27741">
        <ele>236.4</ele>
        <time>2022-07-25T06:14:17Z</time>
      </trkpt>
      <trkpt lat="46.3038" lon="5.27812">
        <ele>236.2</ele>
        <time>2022-07-25T06:14:25Z</time>
      </trkpt>
      <trkpt lat="46.30355" lon="5.27889">
        <ele>236.4</ele>
        <time>2022-07-25T06:14:34Z</time>
      </trkpt>
      <trkpt lat="46.30352" lon="5.27898">
        <ele>236.4</ele>
        <time>2022-07-25T06:14:35Z</time>
      </trkpt>
      <trkpt lat="46.30331" lon="5.27971">
        <ele>236.4</ele>
        <time>2022-07-25T06:14:43Z</time>
      </trkpt>
      <trkpt lat="46.3032" lon="5.28031">
        <ele>236.2</ele>
        <time>2022-07-25T06:14:49Z</time>
      </trkpt>
      <trkpt lat="46.30314" lon="5.28066">
        <ele>235.8</ele>
        <time>2022-07-25T06:14:52Z</time>
      </trkpt>
      <trkpt lat="46.30305" lon="5.28122">
        <ele>234.8</ele>
        <time>2022-07-25T06:14:57Z</time>
      </trkpt>
      <trkpt lat="46.30296" lon="5.28177">
        <ele>233.6</ele>
        <time>2022-07-25T06:15:02Z</time>
      </trkpt>
      <trkpt lat="46.30296" lon="5.28188">
        <ele>233.6</ele>
        <time>2022-07-25T06:15:03Z</time>
      </trkpt>
      <trkpt lat="46.30296" lon="5.282">
        <ele>233.4</ele>
        <time>2022-07-25T06:15:04Z</time>
      </trkpt>
      <trkpt lat="46.30298" lon="5.28211">
        <ele>233.2</ele>
        <time>2022-07-25T06:15:05Z</time>
      </trkpt>
      <trkpt lat="46.30303" lon="5.28246">
        <ele>232.6</ele>
        <time>2022-07-25T06:15:08Z</time>
      </trkpt>
      <trkpt lat="46.30303" lon="5.28259">
        <ele>232.2</ele>
        <time>2022-07-25T06:15:09Z</time>
      </trkpt>
      <trkpt lat="46.30298" lon="5.28299">
        <ele>231.2</ele>
        <time>2022-07-25T06:15:12Z</time>
      </trkpt>
      <trkpt lat="46.30295" lon="5.28314">
        <ele>231</ele>
        <time>2022-07-25T06:15:13Z</time>
      </trkpt>
      <trkpt lat="46.30284" lon="5.28362">
        <ele>229.6</ele>
        <time>2022-07-25T06:15:16Z</time>
      </trkpt>
      <trkpt lat="46.30277" lon="5.2839">
        <ele>228.4</ele>
        <time>2022-07-25T06:15:18Z</time>
      </trkpt>
      <trkpt lat="46.30269" lon="5.28423">
        <ele>227.2</ele>
        <time>2022-07-25T06:15:20Z</time>
      </trkpt>
      <trkpt lat="46.30265" lon="5.2844">
        <ele>226</ele>
        <time>2022-07-25T06:15:21Z</time>
      </trkpt>
      <trkpt lat="46.30255" lon="5.28476">
        <ele>224.4</ele>
        <time>2022-07-25T06:15:23Z</time>
      </trkpt>
      <trkpt lat="46.30248" lon="5.28506">
        <ele>222.6</ele>
        <time>2022-07-25T06:15:25Z</time>
      </trkpt>
      <trkpt lat="46.30244" lon="5.28522">
        <ele>221.6</ele>
        <time>2022-07-25T06:15:26Z</time>
      </trkpt>
      <trkpt lat="46.30235" lon="5.28555">
        <ele>220.4</ele>
        <time>2022-07-25T06:15:28Z</time>
      </trkpt>
      <trkpt lat="46.30226" lon="5.28587">
        <ele>219</ele>
        <time>2022-07-25T06:15:30Z</time>
      </trkpt>
      <trkpt lat="46.30214" lon="5.28635">
        <ele>217.4</ele>
        <time>2022-07-25T06:15:33Z</time>
      </trkpt>
      <trkpt lat="46.30211" lon="5.2865">
        <ele>217.2</ele>
        <time>2022-07-25T06:15:34Z</time>
      </trkpt>
      <trkpt lat="46.30207" lon="5.28664">
        <ele>216.4</ele>
        <time>2022-07-25T06:15:35Z</time>
      </trkpt>
      <trkpt lat="46.30198" lon="5.28689">
        <ele>215.8</ele>
        <time>2022-07-25T06:15:37Z</time>
      </trkpt>
      <trkpt lat="46.30193" lon="5.287">
        <ele>215.6</ele>
        <time>2022-07-25T06:15:38Z</time>
      </trkpt>
      <trkpt lat="46.30188" lon="5.28711">
        <ele>215.4</ele>
        <time>2022-07-25T06:15:39Z</time>
      </trkpt>
      <trkpt lat="46.30182" lon="5.28722">
        <ele>215.2</ele>
        <time>2022-07-25T06:15:40Z</time>
      </trkpt>
      <trkpt lat="46.30161" lon="5.28766">
        <ele>214.8</ele>
        <time>2022-07-25T06:15:44Z</time>
      </trkpt>
      <trkpt lat="46.30141" lon="5.28808">
        <ele>214.2</ele>
        <time>2022-07-25T06:15:48Z</time>
      </trkpt>
      <trkpt lat="46.30138" lon="5.28819">
        <ele>214.2</ele>
        <time>2022-07-25T06:15:49Z</time>
      </trkpt>
      <trkpt lat="46.30128" lon="5.28883">
        <ele>214</ele>
        <time>2022-07-25T06:15:55Z</time>
      </trkpt>
      <trkpt lat="46.30125" lon="5.28891">
        <ele>214</ele>
        <time>2022-07-25T06:15:56Z</time>
      </trkpt>
      <trkpt lat="46.30117" lon="5.28903">
        <ele>214.4</ele>
        <time>2022-07-25T06:15:58Z</time>
      </trkpt>
      <trkpt lat="46.30107" lon="5.28916">
        <ele>215.6</ele>
        <time>2022-07-25T06:16:01Z</time>
      </trkpt>
      <trkpt lat="46.30098" lon="5.28925">
        <ele>216.4</ele>
        <time>2022-07-25T06:16:03Z</time>
      </trkpt>
      <trkpt lat="46.30085" lon="5.28935">
        <ele>216.8</ele>
        <time>2022-07-25T06:16:06Z</time>
      </trkpt>
      <trkpt lat="46.30071" lon="5.28942">
        <ele>217.4</ele>
        <time>2022-07-25T06:16:09Z</time>
      </trkpt>
      <trkpt lat="46.30062" lon="5.28945">
        <ele>217.8</ele>
        <time>2022-07-25T06:16:11Z</time>
      </trkpt>
      <trkpt lat="46.3004" lon="5.28952">
        <ele>219.2</ele>
        <time>2022-07-25T06:16:16Z</time>
      </trkpt>
      <trkpt lat="46.30036" lon="5.28952">
        <ele>219.4</ele>
        <time>2022-07-25T06:16:17Z</time>
      </trkpt>
      <trkpt lat="46.3002" lon="5.28957">
        <ele>220.2</ele>
        <time>2022-07-25T06:16:21Z</time>
      </trkpt>
      <trkpt lat="46.30004" lon="5.28962">
        <ele>221.2</ele>
        <time>2022-07-25T06:16:25Z</time>
      </trkpt>
      <trkpt lat="46.30001" lon="5.28965">
        <ele>221.6</ele>
        <time>2022-07-25T06:16:26Z</time>
      </trkpt>
      <trkpt lat="46.29998" lon="5.28969">
        <ele>221.6</ele>
        <time>2022-07-25T06:16:27Z</time>
      </trkpt>
      <trkpt lat="46.29996" lon="5.28979">
        <ele>222</ele>
        <time>2022-07-25T06:16:29Z</time>
      </trkpt>
      <trkpt lat="46.29996" lon="5.28984">
        <ele>222.2</ele>
        <time>2022-07-25T06:16:30Z</time>
      </trkpt>
      <trkpt lat="46.29995" lon="5.29003">
        <ele>223</ele>
        <time>2022-07-25T06:16:33Z</time>
      </trkpt>
      <trkpt lat="46.29991" lon="5.2901">
        <ele>223</ele>
        <time>2022-07-25T06:16:34Z</time>
      </trkpt>
      <trkpt lat="46.29988" lon="5.29013">
        <ele>223.2</ele>
        <time>2022-07-25T06:16:35Z</time>
      </trkpt>
      <trkpt lat="46.29978" lon="5.29018">
        <ele>223.2</ele>
        <time>2022-07-25T06:16:37Z</time>
      </trkpt>
      <trkpt lat="46.29973" lon="5.2902">
        <ele>223.6</ele>
        <time>2022-07-25T06:16:38Z</time>
      </trkpt>
      <trkpt lat="46.29943" lon="5.29034">
        <ele>224.4</ele>
        <time>2022-07-25T06:16:44Z</time>
      </trkpt>
      <trkpt lat="46.29939" lon="5.29037">
        <ele>224.4</ele>
        <time>2022-07-25T06:16:45Z</time>
      </trkpt>
      <trkpt lat="46.29911" lon="5.29054">
        <ele>225.4</ele>
        <time>2022-07-25T06:16:51Z</time>
      </trkpt>
      <trkpt lat="46.29892" lon="5.29067">
        <ele>226</ele>
        <time>2022-07-25T06:16:55Z</time>
      </trkpt>
      <trkpt lat="46.29874" lon="5.29081">
        <ele>226.6</ele>
        <time>2022-07-25T06:16:59Z</time>
      </trkpt>
      <trkpt lat="46.29861" lon="5.29093">
        <ele>226.8</ele>
        <time>2022-07-25T06:17:02Z</time>
      </trkpt>
      <trkpt lat="46.2983" lon="5.29131">
        <ele>227.6</ele>
        <time>2022-07-25T06:17:10Z</time>
      </trkpt>
      <trkpt lat="46.29827" lon="5.29135">
        <ele>227.6</ele>
        <time>2022-07-25T06:17:11Z</time>
      </trkpt>
      <trkpt lat="46.29795" lon="5.29167">
        <ele>228.2</ele>
        <time>2022-07-25T06:17:18Z</time>
      </trkpt>
      <trkpt lat="46.29783" lon="5.29181">
        <ele>228.6</ele>
        <time>2022-07-25T06:17:21Z</time>
      </trkpt>
      <trkpt lat="46.29778" lon="5.29188">
        <ele>228.6</ele>
        <time>2022-07-25T06:17:22Z</time>
      </trkpt>
      <trkpt lat="46.29772" lon="5.29201">
        <ele>228.8</ele>
        <time>2022-07-25T06:17:24Z</time>
      </trkpt>
      <trkpt lat="46.29759" lon="5.29249">
        <ele>229.6</ele>
        <time>2022-07-25T06:17:31Z</time>
      </trkpt>
      <trkpt lat="46.29747" lon="5.29295">
        <ele>230.8</ele>
        <time>2022-07-25T06:17:38Z</time>
      </trkpt>
      <trkpt lat="46.2974" lon="5.29322">
        <ele>231.6</ele>
        <time>2022-07-25T06:17:42Z</time>
      </trkpt>
      <trkpt lat="46.29739" lon="5.29327">
        <ele>232</ele>
        <time>2022-07-25T06:17:43Z</time>
      </trkpt>
      <trkpt lat="46.2973" lon="5.29362">
        <ele>233</ele>
        <time>2022-07-25T06:17:48Z</time>
      </trkpt>
      <trkpt lat="46.29724" lon="5.29381">
        <ele>233.6</ele>
        <time>2022-07-25T06:17:51Z</time>
      </trkpt>
      <trkpt lat="46.29722" lon="5.29388">
        <ele>234.2</ele>
        <time>2022-07-25T06:17:52Z</time>
      </trkpt>
      <trkpt lat="46.29705" lon="5.29421">
        <ele>234.8</ele>
        <time>2022-07-25T06:17:57Z</time>
      </trkpt>
      <trkpt lat="46.29685" lon="5.29452">
        <ele>235.2</ele>
        <time>2022-07-25T06:18:02Z</time>
      </trkpt>
      <trkpt lat="46.29682" lon="5.29457">
        <ele>235.2</ele>
        <time>2022-07-25T06:18:03Z</time>
      </trkpt>
      <trkpt lat="46.29652" lon="5.29497">
        <ele>235.6</ele>
        <time>2022-07-25T06:18:10Z</time>
      </trkpt>
      <trkpt lat="46.29639" lon="5.2952">
        <ele>235.8</ele>
        <time>2022-07-25T06:18:13Z</time>
      </trkpt>
      <trkpt lat="46.29627" lon="5.29543">
        <ele>235.8</ele>
        <time>2022-07-25T06:18:16Z</time>
      </trkpt>
      <trkpt lat="46.29613" lon="5.29578">
        <ele>236.4</ele>
        <time>2022-07-25T06:18:20Z</time>
      </trkpt>
      <trkpt lat="46.29605" lon="5.29605">
        <ele>237</ele>
        <time>2022-07-25T06:18:23Z</time>
      </trkpt>
      <trkpt lat="46.29593" lon="5.29653">
        <ele>237.4</ele>
        <time>2022-07-25T06:18:28Z</time>
      </trkpt>
      <trkpt lat="46.29585" lon="5.2969">
        <ele>237.6</ele>
        <time>2022-07-25T06:18:32Z</time>
      </trkpt>
      <trkpt lat="46.29569" lon="5.2976">
        <ele>238</ele>
        <time>2022-07-25T06:18:40Z</time>
      </trkpt>
      <trkpt lat="46.29554" lon="5.29831">
        <ele>238.4</ele>
        <time>2022-07-25T06:18:48Z</time>
      </trkpt>
      <trkpt lat="46.29537" lon="5.29901">
        <ele>238.4</ele>
        <time>2022-07-25T06:18:56Z</time>
      </trkpt>
      <trkpt lat="46.29535" lon="5.2991">
        <ele>238.4</ele>
        <time>2022-07-25T06:18:57Z</time>
      </trkpt>
      <trkpt lat="46.29521" lon="5.29961">
        <ele>238.6</ele>
        <time>2022-07-25T06:19:04Z</time>
      </trkpt>
      <trkpt lat="46.29514" lon="5.29973">
        <ele>238.8</ele>
        <time>2022-07-25T06:19:06Z</time>
      </trkpt>
      <trkpt lat="46.29511" lon="5.29975">
        <ele>238.8</ele>
        <time>2022-07-25T06:19:07Z</time>
      </trkpt>
      <trkpt lat="46.29506" lon="5.29975">
        <ele>238.8</ele>
        <time>2022-07-25T06:19:08Z</time>
      </trkpt>
      <trkpt lat="46.29489" lon="5.2997">
        <ele>239</ele>
        <time>2022-07-25T06:19:11Z</time>
      </trkpt>
      <trkpt lat="46.29484" lon="5.29968">
        <ele>239</ele>
        <time>2022-07-25T06:19:12Z</time>
      </trkpt>
      <trkpt lat="46.29461" lon="5.29956">
        <ele>239.4</ele>
        <time>2022-07-25T06:19:16Z</time>
      </trkpt>
      <trkpt lat="46.29449" lon="5.29951">
        <ele>239.4</ele>
        <time>2022-07-25T06:19:18Z</time>
      </trkpt>
      <trkpt lat="46.29444" lon="5.29952">
        <ele>239.6</ele>
        <time>2022-07-25T06:19:19Z</time>
      </trkpt>
      <trkpt lat="46.2944" lon="5.29955">
        <ele>239.6</ele>
        <time>2022-07-25T06:19:20Z</time>
      </trkpt>
      <trkpt lat="46.2943" lon="5.29965">
        <ele>239.6</ele>
        <time>2022-07-25T06:19:22Z</time>
      </trkpt>
      <trkpt lat="46.29425" lon="5.29971">
        <ele>239.6</ele>
        <time>2022-07-25T06:19:23Z</time>
      </trkpt>
      <trkpt lat="46.2938" lon="5.30017">
        <ele>239.4</ele>
        <time>2022-07-25T06:19:31Z</time>
      </trkpt>
      <trkpt lat="46.29342" lon="5.30058">
        <ele>239.6</ele>
        <time>2022-07-25T06:19:39Z</time>
      </trkpt>
      <trkpt lat="46.29317" lon="5.30085">
        <ele>240</ele>
        <time>2022-07-25T06:19:44Z</time>
      </trkpt>
      <trkpt lat="46.29308" lon="5.30094">
        <ele>240.2</ele>
        <time>2022-07-25T06:19:46Z</time>
      </trkpt>
      <trkpt lat="46.29294" lon="5.30108">
        <ele>240.4</ele>
        <time>2022-07-25T06:19:49Z</time>
      </trkpt>
      <trkpt lat="46.29275" lon="5.30128">
        <ele>240.8</ele>
        <time>2022-07-25T06:19:53Z</time>
      </trkpt>
      <trkpt lat="46.29272" lon="5.30131">
        <ele>240.8</ele>
        <time>2022-07-25T06:19:54Z</time>
      </trkpt>
      <trkpt lat="46.29252" lon="5.30151">
        <ele>241</ele>
        <time>2022-07-25T06:19:58Z</time>
      </trkpt>
      <trkpt lat="46.29206" lon="5.30201">
        <ele>241.4</ele>
        <time>2022-07-25T06:20:07Z</time>
      </trkpt>
      <trkpt lat="46.29201" lon="5.30207">
        <ele>241.4</ele>
        <time>2022-07-25T06:20:08Z</time>
      </trkpt>
      <trkpt lat="46.29192" lon="5.30217">
        <ele>241.6</ele>
        <time>2022-07-25T06:20:10Z</time>
      </trkpt>
      <trkpt lat="46.29155" lon="5.30257">
        <ele>241.8</ele>
        <time>2022-07-25T06:20:17Z</time>
      </trkpt>
      <trkpt lat="46.29114" lon="5.303">
        <ele>241.8</ele>
        <time>2022-07-25T06:20:25Z</time>
      </trkpt>
      <trkpt lat="46.29072" lon="5.30344">
        <ele>241.8</ele>
        <time>2022-07-25T06:20:33Z</time>
      </trkpt>
      <trkpt lat="46.29061" lon="5.30353">
        <ele>241.8</ele>
        <time>2022-07-25T06:20:35Z</time>
      </trkpt>
      <trkpt lat="46.29045" lon="5.30367">
        <ele>241.8</ele>
        <time>2022-07-25T06:20:38Z</time>
      </trkpt>
      <trkpt lat="46.29035" lon="5.30371">
        <ele>241.6</ele>
        <time>2022-07-25T06:20:40Z</time>
      </trkpt>
      <trkpt lat="46.28986" lon="5.30384">
        <ele>241.6</ele>
        <time>2022-07-25T06:20:48Z</time>
      </trkpt>
      <trkpt lat="46.2898" lon="5.30386">
        <ele>242</ele>
        <time>2022-07-25T06:20:49Z</time>
      </trkpt>
      <trkpt lat="46.28957" lon="5.30391">
        <ele>242.4</ele>
        <time>2022-07-25T06:20:53Z</time>
      </trkpt>
      <trkpt lat="46.28935" lon="5.30395">
        <ele>243</ele>
        <time>2022-07-25T06:20:57Z</time>
      </trkpt>
      <trkpt lat="46.28925" lon="5.30398">
        <ele>243.6</ele>
        <time>2022-07-25T06:20:59Z</time>
      </trkpt>
      <trkpt lat="46.28888" lon="5.30409">
        <ele>244.2</ele>
        <time>2022-07-25T06:21:06Z</time>
      </trkpt>
      <trkpt lat="46.28857" lon="5.30417">
        <ele>244.8</ele>
        <time>2022-07-25T06:21:12Z</time>
      </trkpt>
      <trkpt lat="46.28846" lon="5.3042">
        <ele>245</ele>
        <time>2022-07-25T06:21:14Z</time>
      </trkpt>
      <trkpt lat="46.28797" lon="5.3043">
        <ele>245.2</ele>
        <time>2022-07-25T06:21:22Z</time>
      </trkpt>
      <trkpt lat="46.28741" lon="5.3044">
        <ele>245</ele>
        <time>2022-07-25T06:21:31Z</time>
      </trkpt>
      <trkpt lat="46.28703" lon="5.30444">
        <ele>244.4</ele>
        <time>2022-07-25T06:21:38Z</time>
      </trkpt>
      <trkpt lat="46.28694" lon="5.30445">
        <ele>244.2</ele>
        <time>2022-07-25T06:21:42Z</time>
      </trkpt>
      <trkpt lat="46.2869" lon="5.30445">
        <ele>243.8</ele>
        <time>2022-07-25T06:21:47Z</time>
      </trkpt>
      <trkpt lat="46.28688" lon="5.30451">
        <ele>243.8</ele>
        <time>2022-07-25T06:21:49Z</time>
      </trkpt>
      <trkpt lat="46.28686" lon="5.30476">
        <ele>243.8</ele>
        <time>2022-07-25T06:21:53Z</time>
      </trkpt>
      <trkpt lat="46.28682" lon="5.30527">
        <ele>244.2</ele>
        <time>2022-07-25T06:21:59Z</time>
      </trkpt>
      <trkpt lat="46.28678" lon="5.30599">
        <ele>245</ele>
        <time>2022-07-25T06:22:07Z</time>
      </trkpt>
      <trkpt lat="46.28674" lon="5.30661">
        <ele>245.8</ele>
        <time>2022-07-25T06:22:14Z</time>
      </trkpt>
      <trkpt lat="46.28673" lon="5.30678">
        <ele>246</ele>
        <time>2022-07-25T06:22:16Z</time>
      </trkpt>
      <trkpt lat="46.2867" lon="5.30728">
        <ele>246.4</ele>
        <time>2022-07-25T06:22:22Z</time>
      </trkpt>
      <trkpt lat="46.28666" lon="5.30794">
        <ele>246.8</ele>
        <time>2022-07-25T06:22:30Z</time>
      </trkpt>
      <trkpt lat="46.28665" lon="5.30812">
        <ele>247</ele>
        <time>2022-07-25T06:22:32Z</time>
      </trkpt>
      <trkpt lat="46.28659" lon="5.30891">
        <ele>247.6</ele>
        <time>2022-07-25T06:22:42Z</time>
      </trkpt>
      <trkpt lat="46.28658" lon="5.30907">
        <ele>247.8</ele>
        <time>2022-07-25T06:22:44Z</time>
      </trkpt>
      <trkpt lat="46.28655" lon="5.30966">
        <ele>248.6</ele>
        <time>2022-07-25T06:22:51Z</time>
      </trkpt>
      <trkpt lat="46.28655" lon="5.30983">
        <ele>248.8</ele>
        <time>2022-07-25T06:22:53Z</time>
      </trkpt>
      <trkpt lat="46.28655" lon="5.30991">
        <ele>248.8</ele>
        <time>2022-07-25T06:22:54Z</time>
      </trkpt>
      <trkpt lat="46.28655" lon="5.31">
        <ele>248.8</ele>
        <time>2022-07-25T06:22:55Z</time>
      </trkpt>
      <trkpt lat="46.28655" lon="5.31016">
        <ele>249</ele>
        <time>2022-07-25T06:22:57Z</time>
      </trkpt>
      <trkpt lat="46.28653" lon="5.31084">
        <ele>249</ele>
        <time>2022-07-25T06:23:04Z</time>
      </trkpt>
      <trkpt lat="46.28651" lon="5.31163">
        <ele>248.8</ele>
        <time>2022-07-25T06:23:12Z</time>
      </trkpt>
      <trkpt lat="46.2865" lon="5.31173">
        <ele>248.8</ele>
        <time>2022-07-25T06:23:13Z</time>
      </trkpt>
      <trkpt lat="46.2865" lon="5.31228">
        <ele>248.6</ele>
        <time>2022-07-25T06:23:18Z</time>
      </trkpt>
      <trkpt lat="46.28649" lon="5.31291">
        <ele>248</ele>
        <time>2022-07-25T06:23:24Z</time>
      </trkpt>
      <trkpt lat="46.28645" lon="5.31346">
        <ele>248.2</ele>
        <time>2022-07-25T06:23:30Z</time>
      </trkpt>
      <trkpt lat="46.28644" lon="5.31354">
        <ele>248.2</ele>
        <time>2022-07-25T06:23:31Z</time>
      </trkpt>
      <trkpt lat="46.28636" lon="5.31388">
        <ele>248.8</ele>
        <time>2022-07-25T06:23:35Z</time>
      </trkpt>
      <trkpt lat="46.28629" lon="5.31411">
        <ele>249.4</ele>
        <time>2022-07-25T06:23:38Z</time>
      </trkpt>
      <trkpt lat="46.28621" lon="5.31427">
        <ele>249.6</ele>
        <time>2022-07-25T06:23:40Z</time>
      </trkpt>
      <trkpt lat="46.28617" lon="5.31434">
        <ele>249.8</ele>
        <time>2022-07-25T06:23:41Z</time>
      </trkpt>
      <trkpt lat="46.28593" lon="5.31469">
        <ele>250.2</ele>
        <time>2022-07-25T06:23:46Z</time>
      </trkpt>
      <trkpt lat="46.28558" lon="5.31521">
        <ele>250.6</ele>
        <time>2022-07-25T06:23:54Z</time>
      </trkpt>
      <trkpt lat="46.28553" lon="5.3153">
        <ele>250.6</ele>
        <time>2022-07-25T06:23:55Z</time>
      </trkpt>
      <trkpt lat="46.2852" lon="5.31599">
        <ele>250.8</ele>
        <time>2022-07-25T06:24:04Z</time>
      </trkpt>
      <trkpt lat="46.28489" lon="5.31663">
        <ele>250.8</ele>
        <time>2022-07-25T06:24:12Z</time>
      </trkpt>
      <trkpt lat="46.28458" lon="5.31727">
        <ele>251.2</ele>
        <time>2022-07-25T06:24:20Z</time>
      </trkpt>
      <trkpt lat="46.28447" lon="5.31752">
        <ele>251.2</ele>
        <time>2022-07-25T06:24:23Z</time>
      </trkpt>
      <trkpt lat="46.28419" lon="5.31821">
        <ele>251.4</ele>
        <time>2022-07-25T06:24:31Z</time>
      </trkpt>
      <trkpt lat="46.28412" lon="5.31838">
        <ele>251.8</ele>
        <time>2022-07-25T06:24:33Z</time>
      </trkpt>
      <trkpt lat="46.28382" lon="5.31913">
        <ele>252</ele>
        <time>2022-07-25T06:24:42Z</time>
      </trkpt>
      <trkpt lat="46.28355" lon="5.31988">
        <ele>251.8</ele>
        <time>2022-07-25T06:24:50Z</time>
      </trkpt>
      <trkpt lat="46.28329" lon="5.32058">
        <ele>251.4</ele>
        <time>2022-07-25T06:24:57Z</time>
      </trkpt>
      <trkpt lat="46.28326" lon="5.32068">
        <ele>251.4</ele>
        <time>2022-07-25T06:24:58Z</time>
      </trkpt>
      <trkpt lat="46.28308" lon="5.32124">
        <ele>250.2</ele>
        <time>2022-07-25T06:25:03Z</time>
      </trkpt>
      <trkpt lat="46.283" lon="5.3215">
        <ele>249.4</ele>
        <time>2022-07-25T06:25:05Z</time>
      </trkpt>
      <trkpt lat="46.28296" lon="5.32163">
        <ele>249</ele>
        <time>2022-07-25T06:25:06Z</time>
      </trkpt>
      <trkpt lat="46.28285" lon="5.32203">
        <ele>247.8</ele>
        <time>2022-07-25T06:25:09Z</time>
      </trkpt>
      <trkpt lat="46.28277" lon="5.3224">
        <ele>246.8</ele>
        <time>2022-07-25T06:25:12Z</time>
      </trkpt>
      <trkpt lat="46.28268" lon="5.32309">
        <ele>246</ele>
        <time>2022-07-25T06:25:18Z</time>
      </trkpt>
      <trkpt lat="46.28263" lon="5.32378">
        <ele>246</ele>
        <time>2022-07-25T06:25:24Z</time>
      </trkpt>
      <trkpt lat="46.2826" lon="5.3246">
        <ele>246</ele>
        <time>2022-07-25T06:25:31Z</time>
      </trkpt>
      <trkpt lat="46.28258" lon="5.32486">
        <ele>245.8</ele>
        <time>2022-07-25T06:25:33Z</time>
      </trkpt>
      <trkpt lat="46.28257" lon="5.32508">
        <ele>245.8</ele>
        <time>2022-07-25T06:25:35Z</time>
      </trkpt>
      <trkpt lat="46.28249" lon="5.32584">
        <ele>245.8</ele>
        <time>2022-07-25T06:25:42Z</time>
      </trkpt>
      <trkpt lat="46.28234" lon="5.32668">
        <ele>245.2</ele>
        <time>2022-07-25T06:25:50Z</time>
      </trkpt>
      <trkpt lat="46.28221" lon="5.32729">
        <ele>245.4</ele>
        <time>2022-07-25T06:25:57Z</time>
      </trkpt>
      <trkpt lat="46.28212" lon="5.32775">
        <ele>246.2</ele>
        <time>2022-07-25T06:26:03Z</time>
      </trkpt>
      <trkpt lat="46.28206" lon="5.32796">
        <ele>246.8</ele>
        <time>2022-07-25T06:26:06Z</time>
      </trkpt>
      <trkpt lat="46.28199" lon="5.3283">
        <ele>247.8</ele>
        <time>2022-07-25T06:26:11Z</time>
      </trkpt>
      <trkpt lat="46.28196" lon="5.32843">
        <ele>248.2</ele>
        <time>2022-07-25T06:26:13Z</time>
      </trkpt>
      <trkpt lat="46.28193" lon="5.32863">
        <ele>248.8</ele>
        <time>2022-07-25T06:26:16Z</time>
      </trkpt>
      <trkpt lat="46.28187" lon="5.32902">
        <ele>250.2</ele>
        <time>2022-07-25T06:26:22Z</time>
      </trkpt>
      <trkpt lat="46.28182" lon="5.32946">
        <ele>251.2</ele>
        <time>2022-07-25T06:26:28Z</time>
      </trkpt>
      <trkpt lat="46.2818" lon="5.32961">
        <ele>251.6</ele>
        <time>2022-07-25T06:26:30Z</time>
      </trkpt>
      <trkpt lat="46.28178" lon="5.32984">
        <ele>252.4</ele>
        <time>2022-07-25T06:26:33Z</time>
      </trkpt>
      <trkpt lat="46.28172" lon="5.33032">
        <ele>253</ele>
        <time>2022-07-25T06:26:39Z</time>
      </trkpt>
      <trkpt lat="46.28169" lon="5.33064">
        <ele>253.4</ele>
        <time>2022-07-25T06:26:43Z</time>
      </trkpt>
      <trkpt lat="46.28163" lon="5.33119">
        <ele>254</ele>
        <time>2022-07-25T06:26:50Z</time>
      </trkpt>
      <trkpt lat="46.28157" lon="5.33181">
        <ele>254.4</ele>
        <time>2022-07-25T06:26:57Z</time>
      </trkpt>
      <trkpt lat="46.28156" lon="5.33202">
        <ele>254.4</ele>
        <time>2022-07-25T06:26:59Z</time>
      </trkpt>
      <trkpt lat="46.28153" lon="5.33275">
        <ele>254.4</ele>
        <time>2022-07-25T06:27:07Z</time>
      </trkpt>
      <trkpt lat="46.28154" lon="5.33359">
        <ele>254.4</ele>
        <time>2022-07-25T06:27:16Z</time>
      </trkpt>
      <trkpt lat="46.28155" lon="5.33368">
        <ele>254.4</ele>
        <time>2022-07-25T06:27:17Z</time>
      </trkpt>
      <trkpt lat="46.28158" lon="5.33446">
        <ele>255.2</ele>
        <time>2022-07-25T06:27:26Z</time>
      </trkpt>
      <trkpt lat="46.28159" lon="5.33455">
        <ele>255.2</ele>
        <time>2022-07-25T06:27:27Z</time>
      </trkpt>
      <trkpt lat="46.28163" lon="5.33537">
        <ele>256.4</ele>
        <time>2022-07-25T06:27:36Z</time>
      </trkpt>
      <trkpt lat="46.2817" lon="5.3362">
        <ele>256.6</ele>
        <time>2022-07-25T06:27:45Z</time>
      </trkpt>
      <trkpt lat="46.28171" lon="5.3363">
        <ele>257</ele>
        <time>2022-07-25T06:27:46Z</time>
      </trkpt>
      <trkpt lat="46.28174" lon="5.33676">
        <ele>256.8</ele>
        <time>2022-07-25T06:27:51Z</time>
      </trkpt>
      <trkpt lat="46.28172" lon="5.33684">
        <ele>257</ele>
        <time>2022-07-25T06:27:52Z</time>
      </trkpt>
      <trkpt lat="46.28167" lon="5.33691">
        <ele>257</ele>
        <time>2022-07-25T06:27:53Z</time>
      </trkpt>
      <trkpt lat="46.28159" lon="5.33695">
        <ele>257</ele>
        <time>2022-07-25T06:27:55Z</time>
      </trkpt>
      <trkpt lat="46.28145" lon="5.33688">
        <ele>257</ele>
        <time>2022-07-25T06:27:57Z</time>
      </trkpt>
      <trkpt lat="46.2814" lon="5.33685">
        <ele>257</ele>
        <time>2022-07-25T06:27:58Z</time>
      </trkpt>
      <trkpt lat="46.28085" lon="5.33658">
        <ele>257</ele>
        <time>2022-07-25T06:28:06Z</time>
      </trkpt>
      <trkpt lat="46.28065" lon="5.33649">
        <ele>256.8</ele>
        <time>2022-07-25T06:28:09Z</time>
      </trkpt>
      <trkpt lat="46.28016" lon="5.33625">
        <ele>257</ele>
        <time>2022-07-25T06:28:17Z</time>
      </trkpt>
      <trkpt lat="46.27992" lon="5.33615">
        <ele>257</ele>
        <time>2022-07-25T06:28:21Z</time>
      </trkpt>
      <trkpt lat="46.27979" lon="5.33608">
        <ele>257</ele>
        <time>2022-07-25T06:28:23Z</time>
      </trkpt>
      <trkpt lat="46.27933" lon="5.33587">
        <ele>256.6</ele>
        <time>2022-07-25T06:28:31Z</time>
      </trkpt>
      <trkpt lat="46.27894" lon="5.33568">
        <ele>256.2</ele>
        <time>2022-07-25T06:28:38Z</time>
      </trkpt>
      <trkpt lat="46.27877" lon="5.3356">
        <ele>256.2</ele>
        <time>2022-07-25T06:28:41Z</time>
      </trkpt>
      <trkpt lat="46.27843" lon="5.33544">
        <ele>256.2</ele>
        <time>2022-07-25T06:28:47Z</time>
      </trkpt>
      <trkpt lat="46.2783" lon="5.33537">
        <ele>256.4</ele>
        <time>2022-07-25T06:28:49Z</time>
      </trkpt>
      <trkpt lat="46.27808" lon="5.33526">
        <ele>256.2</ele>
        <time>2022-07-25T06:28:53Z</time>
      </trkpt>
      <trkpt lat="46.27798" lon="5.33516">
        <ele>256.2</ele>
        <time>2022-07-25T06:28:55Z</time>
      </trkpt>
      <trkpt lat="46.27788" lon="5.33502">
        <ele>256.2</ele>
        <time>2022-07-25T06:28:57Z</time>
      </trkpt>
      <trkpt lat="46.27752" lon="5.33442">
        <ele>256</ele>
        <time>2022-07-25T06:29:06Z</time>
      </trkpt>
      <trkpt lat="46.2772" lon="5.33397">
        <ele>255.8</ele>
        <time>2022-07-25T06:29:13Z</time>
      </trkpt>
      <trkpt lat="46.27715" lon="5.33393">
        <ele>255.8</ele>
        <time>2022-07-25T06:29:14Z</time>
      </trkpt>
      <trkpt lat="46.27675" lon="5.33365">
        <ele>256</ele>
        <time>2022-07-25T06:29:21Z</time>
      </trkpt>
      <trkpt lat="46.27633" lon="5.33349">
        <ele>256.2</ele>
        <time>2022-07-25T06:29:28Z</time>
      </trkpt>
      <trkpt lat="46.27603" lon="5.3333">
        <ele>256.2</ele>
        <time>2022-07-25T06:29:33Z</time>
      </trkpt>
      <trkpt lat="46.27568" lon="5.33292">
        <ele>256.2</ele>
        <time>2022-07-25T06:29:40Z</time>
      </trkpt>
      <trkpt lat="46.27525" lon="5.3324">
        <ele>256.4</ele>
        <time>2022-07-25T06:29:49Z</time>
      </trkpt>
      <trkpt lat="46.2749" lon="5.33187">
        <ele>256.4</ele>
        <time>2022-07-25T06:29:57Z</time>
      </trkpt>
      <trkpt lat="46.2746" lon="5.33123">
        <ele>255.8</ele>
        <time>2022-07-25T06:30:05Z</time>
      </trkpt>
      <trkpt lat="46.27452" lon="5.33106">
        <ele>255.6</ele>
        <time>2022-07-25T06:30:07Z</time>
      </trkpt>
      <trkpt lat="46.2742" lon="5.33039">
        <ele>255.4</ele>
        <time>2022-07-25T06:30:15Z</time>
      </trkpt>
      <trkpt lat="46.27416" lon="5.33031">
        <ele>255.4</ele>
        <time>2022-07-25T06:30:16Z</time>
      </trkpt>
      <trkpt lat="46.27401" lon="5.33">
        <ele>254.2</ele>
        <time>2022-07-25T06:30:20Z</time>
      </trkpt>
      <trkpt lat="46.27397" lon="5.32991">
        <ele>254.2</ele>
        <time>2022-07-25T06:30:21Z</time>
      </trkpt>
      <trkpt lat="46.27392" lon="5.32972">
        <ele>253.8</ele>
        <time>2022-07-25T06:30:23Z</time>
      </trkpt>
      <trkpt lat="46.27376" lon="5.32914">
        <ele>253.2</ele>
        <time>2022-07-25T06:30:29Z</time>
      </trkpt>
      <trkpt lat="46.27374" lon="5.32905">
        <ele>253</ele>
        <time>2022-07-25T06:30:30Z</time>
      </trkpt>
      <trkpt lat="46.2737" lon="5.32894">
        <ele>253</ele>
        <time>2022-07-25T06:30:31Z</time>
      </trkpt>
      <trkpt lat="46.2736" lon="5.32879">
        <ele>252.8</ele>
        <time>2022-07-25T06:30:33Z</time>
      </trkpt>
      <trkpt lat="46.27355" lon="5.32874">
        <ele>252.6</ele>
        <time>2022-07-25T06:30:34Z</time>
      </trkpt>
      <trkpt lat="46.27349" lon="5.32871">
        <ele>252.6</ele>
        <time>2022-07-25T06:30:35Z</time>
      </trkpt>
      <trkpt lat="46.27327" lon="5.32864">
        <ele>252.4</ele>
        <time>2022-07-25T06:30:38Z</time>
      </trkpt>
      <trkpt lat="46.27302" lon="5.32858">
        <ele>252.2</ele>
        <time>2022-07-25T06:30:41Z</time>
      </trkpt>
      <trkpt lat="46.27271" lon="5.32853">
        <ele>251.2</ele>
        <time>2022-07-25T06:30:45Z</time>
      </trkpt>
      <trkpt lat="46.27261" lon="5.32852">
        <ele>251</ele>
        <time>2022-07-25T06:30:46Z</time>
      </trkpt>
      <trkpt lat="46.27238" lon="5.32856">
        <ele>250.8</ele>
        <time>2022-07-25T06:30:49Z</time>
      </trkpt>
      <trkpt lat="46.27227" lon="5.32866">
        <ele>250.6</ele>
        <time>2022-07-25T06:30:51Z</time>
      </trkpt>
      <trkpt lat="46.27221" lon="5.32874">
        <ele>250.4</ele>
        <time>2022-07-25T06:30:52Z</time>
      </trkpt>
      <trkpt lat="46.27198" lon="5.32907">
        <ele>250</ele>
        <time>2022-07-25T06:30:56Z</time>
      </trkpt>
      <trkpt lat="46.27192" lon="5.32915">
        <ele>249.8</ele>
        <time>2022-07-25T06:30:57Z</time>
      </trkpt>
      <trkpt lat="46.27166" lon="5.32961">
        <ele>249.2</ele>
        <time>2022-07-25T06:31:02Z</time>
      </trkpt>
      <trkpt lat="46.27162" lon="5.32969">
        <ele>249</ele>
        <time>2022-07-25T06:31:03Z</time>
      </trkpt>
      <trkpt lat="46.27126" lon="5.33041">
        <ele>248</ele>
        <time>2022-07-25T06:31:10Z</time>
      </trkpt>
      <trkpt lat="46.2711" lon="5.33074">
        <ele>246.6</ele>
        <time>2022-07-25T06:31:13Z</time>
      </trkpt>
      <trkpt lat="46.27093" lon="5.33108">
        <ele>245.6</ele>
        <time>2022-07-25T06:31:16Z</time>
      </trkpt>
      <trkpt lat="46.27086" lon="5.33122">
        <ele>245.2</ele>
        <time>2022-07-25T06:31:17Z</time>
      </trkpt>
      <trkpt lat="46.27067" lon="5.33156">
        <ele>243.8</ele>
        <time>2022-07-25T06:31:20Z</time>
      </trkpt>
      <trkpt lat="46.27059" lon="5.33164">
        <ele>243</ele>
        <time>2022-07-25T06:31:21Z</time>
      </trkpt>
      <trkpt lat="46.27051" lon="5.33169">
        <ele>242.6</ele>
        <time>2022-07-25T06:31:22Z</time>
      </trkpt>
      <trkpt lat="46.27029" lon="5.33179">
        <ele>241.4</ele>
        <time>2022-07-25T06:31:24Z</time>
      </trkpt>
      <trkpt lat="46.27002" lon="5.33189">
        <ele>240</ele>
        <time>2022-07-25T06:31:27Z</time>
      </trkpt>
      <trkpt lat="46.26982" lon="5.33197">
        <ele>238.8</ele>
        <time>2022-07-25T06:31:29Z</time>
      </trkpt>
      <trkpt lat="46.26973" lon="5.332">
        <ele>238.2</ele>
        <time>2022-07-25T06:31:30Z</time>
      </trkpt>
      <trkpt lat="46.26958" lon="5.33206">
        <ele>237.6</ele>
        <time>2022-07-25T06:31:32Z</time>
      </trkpt>
      <trkpt lat="46.26917" lon="5.33222">
        <ele>236.8</ele>
        <time>2022-07-25T06:31:37Z</time>
      </trkpt>
      <trkpt lat="46.26872" lon="5.3324">
        <ele>236.8</ele>
        <time>2022-07-25T06:31:43Z</time>
      </trkpt>
      <trkpt lat="46.26839" lon="5.33252">
        <ele>237</ele>
        <time>2022-07-25T06:31:48Z</time>
      </trkpt>
      <trkpt lat="46.26833" lon="5.33255">
        <ele>237</ele>
        <time>2022-07-25T06:31:49Z</time>
      </trkpt>
      <trkpt lat="46.26817" lon="5.33264">
        <ele>237.6</ele>
        <time>2022-07-25T06:31:52Z</time>
      </trkpt>
      <trkpt lat="46.26795" lon="5.33274">
        <ele>238.6</ele>
        <time>2022-07-25T06:31:56Z</time>
      </trkpt>
      <trkpt lat="46.26781" lon="5.3328">
        <ele>239.2</ele>
        <time>2022-07-25T06:31:59Z</time>
      </trkpt>
      <trkpt lat="46.26774" lon="5.33283">
        <ele>239.4</ele>
        <time>2022-07-25T06:32:00Z</time>
      </trkpt>
      <trkpt lat="46.26763" lon="5.33287">
        <ele>240</ele>
        <time>2022-07-25T06:32:02Z</time>
      </trkpt>
      <trkpt lat="46.26747" lon="5.33293">
        <ele>240.8</ele>
        <time>2022-07-25T06:32:05Z</time>
      </trkpt>
      <trkpt lat="46.26736" lon="5.33296">
        <ele>241.2</ele>
        <time>2022-07-25T06:32:07Z</time>
      </trkpt>
      <trkpt lat="46.2671" lon="5.33303">
        <ele>242.2</ele>
        <time>2022-07-25T06:32:12Z</time>
      </trkpt>
      <trkpt lat="46.26704" lon="5.33304">
        <ele>242.2</ele>
        <time>2022-07-25T06:32:13Z</time>
      </trkpt>
      <trkpt lat="46.26696" lon="5.33297">
        <ele>242.8</ele>
        <time>2022-07-25T06:32:15Z</time>
      </trkpt>
      <trkpt lat="46.26693" lon="5.33291">
        <ele>243</ele>
        <time>2022-07-25T06:32:16Z</time>
      </trkpt>
      <trkpt lat="46.26686" lon="5.33279">
        <ele>243.2</ele>
        <time>2022-07-25T06:32:18Z</time>
      </trkpt>
      <trkpt lat="46.26673" lon="5.33258">
        <ele>243.4</ele>
        <time>2022-07-25T06:32:21Z</time>
      </trkpt>
      <trkpt lat="46.26651" lon="5.33228">
        <ele>243.4</ele>
        <time>2022-07-25T06:32:25Z</time>
      </trkpt>
      <trkpt lat="46.26645" lon="5.33223">
        <ele>243.2</ele>
        <time>2022-07-25T06:32:26Z</time>
      </trkpt>
      <trkpt lat="46.26639" lon="5.33219">
        <ele>243</ele>
        <time>2022-07-25T06:32:27Z</time>
      </trkpt>
      <trkpt lat="46.2662" lon="5.33213">
        <ele>242.4</ele>
        <time>2022-07-25T06:32:30Z</time>
      </trkpt>
      <trkpt lat="46.26605" lon="5.3321">
        <ele>242.2</ele>
        <time>2022-07-25T06:32:32Z</time>
      </trkpt>
      <trkpt lat="46.26569" lon="5.33204">
        <ele>241.2</ele>
        <time>2022-07-25T06:32:38Z</time>
      </trkpt>
      <trkpt lat="46.26564" lon="5.33203">
        <ele>241</ele>
        <time>2022-07-25T06:32:39Z</time>
      </trkpt>
      <trkpt lat="46.26557" lon="5.33203">
        <ele>240.6</ele>
        <time>2022-07-25T06:32:42Z</time>
      </trkpt>
      <trkpt lat="46.26557" lon="5.33203">
        <ele>240</ele>
        <time>2022-07-25T06:32:44Z</time>
      </trkpt>
      <trkpt lat="46.26557" lon="5.33203">
        <ele>239.8</ele>
        <time>2022-07-25T06:32:46Z</time>
      </trkpt>
      <trkpt lat="46.26554" lon="5.33204">
        <ele>239.2</ele>
        <time>2022-07-25T06:33:23Z</time>
      </trkpt>
      <trkpt lat="46.26547" lon="5.33204">
        <ele>239</ele>
        <time>2022-07-25T06:33:25Z</time>
      </trkpt>
      <trkpt lat="46.26532" lon="5.33206">
        <ele>239</ele>
        <time>2022-07-25T06:33:28Z</time>
      </trkpt>
      <trkpt lat="46.26525" lon="5.33205">
        <ele>238.8</ele>
        <time>2022-07-25T06:33:29Z</time>
      </trkpt>
      <trkpt lat="46.26518" lon="5.33204">
        <ele>238.8</ele>
        <time>2022-07-25T06:33:30Z</time>
      </trkpt>
      <trkpt lat="46.26511" lon="5.33203">
        <ele>238.8</ele>
        <time>2022-07-25T06:33:31Z</time>
      </trkpt>
      <trkpt lat="46.26499" lon="5.33194">
        <ele>238.6</ele>
        <time>2022-07-25T06:33:33Z</time>
      </trkpt>
      <trkpt lat="46.2649" lon="5.33178">
        <ele>238.4</ele>
        <time>2022-07-25T06:33:35Z</time>
      </trkpt>
      <trkpt lat="46.26487" lon="5.33168">
        <ele>238.4</ele>
        <time>2022-07-25T06:33:36Z</time>
      </trkpt>
      <trkpt lat="46.26464" lon="5.33104">
        <ele>237.8</ele>
        <time>2022-07-25T06:33:43Z</time>
      </trkpt>
      <trkpt lat="46.26441" lon="5.33035">
        <ele>237.8</ele>
        <time>2022-07-25T06:33:51Z</time>
      </trkpt>
      <trkpt lat="46.2644" lon="5.33027">
        <ele>237.8</ele>
        <time>2022-07-25T06:33:52Z</time>
      </trkpt>
      <trkpt lat="46.26438" lon="5.33002">
        <ele>238</ele>
        <time>2022-07-25T06:33:55Z</time>
      </trkpt>
      <trkpt lat="46.26434" lon="5.32972">
        <ele>238.8</ele>
        <time>2022-07-25T06:33:59Z</time>
      </trkpt>
      <trkpt lat="46.26432" lon="5.32966">
        <ele>239</ele>
        <time>2022-07-25T06:34:00Z</time>
      </trkpt>
      <trkpt lat="46.26424" lon="5.32942">
        <ele>240</ele>
        <time>2022-07-25T06:34:04Z</time>
      </trkpt>
      <trkpt lat="46.26419" lon="5.32932">
        <ele>240.4</ele>
        <time>2022-07-25T06:34:06Z</time>
      </trkpt>
      <trkpt lat="46.26414" lon="5.32924">
        <ele>241.2</ele>
        <time>2022-07-25T06:34:08Z</time>
      </trkpt>
      <trkpt lat="46.26407" lon="5.32913">
        <ele>242.2</ele>
        <time>2022-07-25T06:34:11Z</time>
      </trkpt>
      <trkpt lat="46.26405" lon="5.32908">
        <ele>242.4</ele>
        <time>2022-07-25T06:34:12Z</time>
      </trkpt>
      <trkpt lat="46.26396" lon="5.32886">
        <ele>243.6</ele>
        <time>2022-07-25T06:34:17Z</time>
      </trkpt>
      <trkpt lat="46.26395" lon="5.3288">
        <ele>244.2</ele>
        <time>2022-07-25T06:34:18Z</time>
      </trkpt>
      <trkpt lat="46.26392" lon="5.3287">
        <ele>244.6</ele>
        <time>2022-07-25T06:34:20Z</time>
      </trkpt>
      <trkpt lat="46.26384" lon="5.3285">
        <ele>245.6</ele>
        <time>2022-07-25T06:34:24Z</time>
      </trkpt>
      <trkpt lat="46.26383" lon="5.32846">
        <ele>246</ele>
        <time>2022-07-25T06:34:25Z</time>
      </trkpt>
      <trkpt lat="46.26376" lon="5.32828">
        <ele>247.2</ele>
        <time>2022-07-25T06:34:29Z</time>
      </trkpt>
      <trkpt lat="46.2637" lon="5.32813">
        <ele>248</ele>
        <time>2022-07-25T06:34:32Z</time>
      </trkpt>
      <trkpt lat="46.26365" lon="5.32803">
        <ele>248.2</ele>
        <time>2022-07-25T06:34:34Z</time>
      </trkpt>
      <trkpt lat="46.26352" lon="5.32777">
        <ele>249.2</ele>
        <time>2022-07-25T06:34:40Z</time>
      </trkpt>
      <trkpt lat="46.26349" lon="5.32773">
        <ele>249.4</ele>
        <time>2022-07-25T06:34:41Z</time>
      </trkpt>
      <trkpt lat="46.26334" lon="5.32753">
        <ele>250.2</ele>
        <time>2022-07-25T06:34:46Z</time>
      </trkpt>
      <trkpt lat="46.26328" lon="5.32745">
        <ele>250.4</ele>
        <time>2022-07-25T06:34:48Z</time>
      </trkpt>
      <trkpt lat="46.26324" lon="5.3274">
        <ele>250.6</ele>
        <time>2022-07-25T06:34:49Z</time>
      </trkpt>
      <trkpt lat="46.26313" lon="5.32735">
        <ele>251</ele>
        <time>2022-07-25T06:34:52Z</time>
      </trkpt>
      <trkpt lat="46.26303" lon="5.32736">
        <ele>251.2</ele>
        <time>2022-07-25T06:34:54Z</time>
      </trkpt>
      <trkpt lat="46.26294" lon="5.32739">
        <ele>251.4</ele>
        <time>2022-07-25T06:34:56Z</time>
      </trkpt>
      <trkpt lat="46.2629" lon="5.32741">
        <ele>251.6</ele>
        <time>2022-07-25T06:34:57Z</time>
      </trkpt>
      <trkpt lat="46.26273" lon="5.32743">
        <ele>251.8</ele>
        <time>2022-07-25T06:35:00Z</time>
      </trkpt>
      <trkpt lat="46.26264" lon="5.32743">
        <ele>251.8</ele>
        <time>2022-07-25T06:35:02Z</time>
      </trkpt>
      <trkpt lat="46.2621" lon="5.32742">
        <ele>252.2</ele>
        <time>2022-07-25T06:35:12Z</time>
      </trkpt>
      <trkpt lat="46.2618" lon="5.32744">
        <ele>252.6</ele>
        <time>2022-07-25T06:35:18Z</time>
      </trkpt>
      <trkpt lat="46.26162" lon="5.32746">
        <ele>253</ele>
        <time>2022-07-25T06:35:21Z</time>
      </trkpt>
      <trkpt lat="46.2613" lon="5.3275">
        <ele>253.2</ele>
        <time>2022-07-25T06:35:27Z</time>
      </trkpt>
      <trkpt lat="46.26118" lon="5.32751">
        <ele>253.4</ele>
        <time>2022-07-25T06:35:29Z</time>
      </trkpt>
      <trkpt lat="46.26083" lon="5.32759">
        <ele>253.4</ele>
        <time>2022-07-25T06:35:35Z</time>
      </trkpt>
      <trkpt lat="46.26041" lon="5.32772">
        <ele>253.6</ele>
        <time>2022-07-25T06:35:43Z</time>
      </trkpt>
      <trkpt lat="46.26031" lon="5.32776">
        <ele>253.6</ele>
        <time>2022-07-25T06:35:45Z</time>
      </trkpt>
      <trkpt lat="46.2598" lon="5.32805">
        <ele>254.2</ele>
        <time>2022-07-25T06:35:55Z</time>
      </trkpt>
      <trkpt lat="46.25942" lon="5.32832">
        <ele>254.4</ele>
        <time>2022-07-25T06:36:03Z</time>
      </trkpt>
      <trkpt lat="46.25919" lon="5.32847">
        <ele>254.4</ele>
        <time>2022-07-25T06:36:08Z</time>
      </trkpt>
      <trkpt lat="46.25909" lon="5.32848">
        <ele>254.4</ele>
        <time>2022-07-25T06:36:10Z</time>
      </trkpt>
      <trkpt lat="46.25901" lon="5.32841">
        <ele>254.2</ele>
        <time>2022-07-25T06:36:12Z</time>
      </trkpt>
      <trkpt lat="46.25897" lon="5.32834">
        <ele>254.2</ele>
        <time>2022-07-25T06:36:13Z</time>
      </trkpt>
      <trkpt lat="46.25875" lon="5.32789">
        <ele>254</ele>
        <time>2022-07-25T06:36:19Z</time>
      </trkpt>
      <trkpt lat="46.25848" lon="5.32724">
        <ele>254.2</ele>
        <time>2022-07-25T06:36:27Z</time>
      </trkpt>
      <trkpt lat="46.25831" lon="5.32657">
        <ele>254.2</ele>
        <time>2022-07-25T06:36:35Z</time>
      </trkpt>
      <trkpt lat="46.25828" lon="5.32648">
        <ele>254.2</ele>
        <time>2022-07-25T06:36:36Z</time>
      </trkpt>
      <trkpt lat="46.25823" lon="5.32634">
        <ele>254</ele>
        <time>2022-07-25T06:36:38Z</time>
      </trkpt>
      <trkpt lat="46.25817" lon="5.32628">
        <ele>254</ele>
        <time>2022-07-25T06:36:39Z</time>
      </trkpt>
      <trkpt lat="46.25811" lon="5.32625">
        <ele>254</ele>
        <time>2022-07-25T06:36:40Z</time>
      </trkpt>
      <trkpt lat="46.25799" lon="5.32624">
        <ele>254</ele>
        <time>2022-07-25T06:36:42Z</time>
      </trkpt>
      <trkpt lat="46.25781" lon="5.32628">
        <ele>254.2</ele>
        <time>2022-07-25T06:36:45Z</time>
      </trkpt>
      <trkpt lat="46.25755" lon="5.32635">
        <ele>254</ele>
        <time>2022-07-25T06:36:49Z</time>
      </trkpt>
      <trkpt lat="46.25721" lon="5.32644">
        <ele>254</ele>
        <time>2022-07-25T06:36:55Z</time>
      </trkpt>
      <trkpt lat="46.25691" lon="5.32652">
        <ele>254.4</ele>
        <time>2022-07-25T06:37:00Z</time>
      </trkpt>
      <trkpt lat="46.2566" lon="5.3266">
        <ele>254.6</ele>
        <time>2022-07-25T06:37:05Z</time>
      </trkpt>
      <trkpt lat="46.25604" lon="5.32674">
        <ele>254.2</ele>
        <time>2022-07-25T06:37:14Z</time>
      </trkpt>
      <trkpt lat="46.25554" lon="5.32688">
        <ele>254.4</ele>
        <time>2022-07-25T06:37:23Z</time>
      </trkpt>
      <trkpt lat="46.25504" lon="5.32702">
        <ele>255.4</ele>
        <time>2022-07-25T06:37:32Z</time>
      </trkpt>
      <trkpt lat="46.25455" lon="5.32714">
        <ele>255.4</ele>
        <time>2022-07-25T06:37:41Z</time>
      </trkpt>
      <trkpt lat="46.25407" lon="5.32727">
        <ele>256</ele>
        <time>2022-07-25T06:37:50Z</time>
      </trkpt>
      <trkpt lat="46.25366" lon="5.32739">
        <ele>256.4</ele>
        <time>2022-07-25T06:37:58Z</time>
      </trkpt>
      <trkpt lat="46.25359" lon="5.32741">
        <ele>256.6</ele>
        <time>2022-07-25T06:37:59Z</time>
      </trkpt>
      <trkpt lat="46.25348" lon="5.32743">
        <ele>256.6</ele>
        <time>2022-07-25T06:38:01Z</time>
      </trkpt>
      <trkpt lat="46.25293" lon="5.32758">
        <ele>257</ele>
        <time>2022-07-25T06:38:11Z</time>
      </trkpt>
      <trkpt lat="46.25252" lon="5.32771">
        <ele>257.6</ele>
        <time>2022-07-25T06:38:19Z</time>
      </trkpt>
      <trkpt lat="46.25242" lon="5.32775">
        <ele>257.6</ele>
        <time>2022-07-25T06:38:21Z</time>
      </trkpt>
      <trkpt lat="46.25199" lon="5.32796">
        <ele>258</ele>
        <time>2022-07-25T06:38:30Z</time>
      </trkpt>
      <trkpt lat="46.25151" lon="5.3282">
        <ele>258.4</ele>
        <time>2022-07-25T06:38:40Z</time>
      </trkpt>
      <trkpt lat="46.2512" lon="5.32828">
        <ele>258.6</ele>
        <time>2022-07-25T06:38:46Z</time>
      </trkpt>
      <trkpt lat="46.25073" lon="5.32832">
        <ele>259.4</ele>
        <time>2022-07-25T06:38:55Z</time>
      </trkpt>
      <trkpt lat="46.25045" lon="5.32833">
        <ele>259.6</ele>
        <time>2022-07-25T06:39:01Z</time>
      </trkpt>
      <trkpt lat="46.25039" lon="5.32832">
        <ele>259.4</ele>
        <time>2022-07-25T06:39:03Z</time>
      </trkpt>
      <trkpt lat="46.25036" lon="5.32831">
        <ele>259.4</ele>
        <time>2022-07-25T06:39:07Z</time>
      </trkpt>
      <trkpt lat="46.25036" lon="5.32831">
        <ele>259.4</ele>
        <time>2022-07-25T06:39:09Z</time>
      </trkpt>
      <trkpt lat="46.25033" lon="5.32833">
        <ele>259.4</ele>
        <time>2022-07-25T06:39:15Z</time>
      </trkpt>
      <trkpt lat="46.25033" lon="5.32836">
        <ele>259.4</ele>
        <time>2022-07-25T06:39:16Z</time>
      </trkpt>
      <trkpt lat="46.25034" lon="5.32858">
        <ele>259.4</ele>
        <time>2022-07-25T06:39:20Z</time>
      </trkpt>
      <trkpt lat="46.25033" lon="5.32898">
        <ele>259.4</ele>
        <time>2022-07-25T06:39:25Z</time>
      </trkpt>
      <trkpt lat="46.25033" lon="5.32949">
        <ele>259.6</ele>
        <time>2022-07-25T06:39:31Z</time>
      </trkpt>
      <trkpt lat="46.25033" lon="5.32958">
        <ele>259.8</ele>
        <time>2022-07-25T06:39:32Z</time>
      </trkpt>
      <trkpt lat="46.25034" lon="5.33019">
        <ele>260.6</ele>
        <time>2022-07-25T06:39:39Z</time>
      </trkpt>
      <trkpt lat="46.25034" lon="5.33035">
        <ele>260.8</ele>
        <time>2022-07-25T06:39:41Z</time>
      </trkpt>
      <trkpt lat="46.25035" lon="5.33114">
        <ele>261.2</ele>
        <time>2022-07-25T06:39:50Z</time>
      </trkpt>
      <trkpt lat="46.25035" lon="5.33123">
        <ele>261.2</ele>
        <time>2022-07-25T06:39:51Z</time>
      </trkpt>
      <trkpt lat="46.25032" lon="5.33203">
        <ele>261.4</ele>
        <time>2022-07-25T06:40:00Z</time>
      </trkpt>
      <trkpt lat="46.25031" lon="5.33221">
        <ele>261.6</ele>
        <time>2022-07-25T06:40:02Z</time>
      </trkpt>
      <trkpt lat="46.25029" lon="5.33258">
        <ele>261.8</ele>
        <time>2022-07-25T06:40:06Z</time>
      </trkpt>
      <trkpt lat="46.25026" lon="5.33301">
        <ele>261.8</ele>
        <time>2022-07-25T06:40:10Z</time>
      </trkpt>
      <trkpt lat="46.25019" lon="5.33383">
        <ele>260.8</ele>
        <time>2022-07-25T06:40:17Z</time>
      </trkpt>
      <trkpt lat="46.25017" lon="5.3342">
        <ele>259.8</ele>
        <time>2022-07-25T06:40:20Z</time>
      </trkpt>
      <trkpt lat="46.25013" lon="5.33457">
        <ele>259</ele>
        <time>2022-07-25T06:40:23Z</time>
      </trkpt>
      <trkpt lat="46.25008" lon="5.33481">
        <ele>258.6</ele>
        <time>2022-07-25T06:40:25Z</time>
      </trkpt>
      <trkpt lat="46.24999" lon="5.33519">
        <ele>257.4</ele>
        <time>2022-07-25T06:40:28Z</time>
      </trkpt>
      <trkpt lat="46.24995" lon="5.33532">
        <ele>257</ele>
        <time>2022-07-25T06:40:29Z</time>
      </trkpt>
      <trkpt lat="46.24987" lon="5.33559">
        <ele>256.2</ele>
        <time>2022-07-25T06:40:31Z</time>
      </trkpt>
      <trkpt lat="46.24974" lon="5.33599">
        <ele>254.8</ele>
        <time>2022-07-25T06:40:34Z</time>
      </trkpt>
      <trkpt lat="46.24966" lon="5.33625">
        <ele>253.8</ele>
        <time>2022-07-25T06:40:36Z</time>
      </trkpt>
      <trkpt lat="46.24962" lon="5.33639">
        <ele>253.4</ele>
        <time>2022-07-25T06:40:37Z</time>
      </trkpt>
      <trkpt lat="46.24958" lon="5.33667">
        <ele>252.4</ele>
        <time>2022-07-25T06:40:39Z</time>
      </trkpt>
      <trkpt lat="46.24961" lon="5.33719">
        <ele>251.6</ele>
        <time>2022-07-25T06:40:43Z</time>
      </trkpt>
      <trkpt lat="46.24962" lon="5.33735">
        <ele>251.2</ele>
        <time>2022-07-25T06:40:44Z</time>
      </trkpt>
      <trkpt lat="46.24961" lon="5.33787">
        <ele>250.6</ele>
        <time>2022-07-25T06:40:48Z</time>
      </trkpt>
      <trkpt lat="46.24961" lon="5.338">
        <ele>250.2</ele>
        <time>2022-07-25T06:40:49Z</time>
      </trkpt>
      <trkpt lat="46.24956" lon="5.33845">
        <ele>250</ele>
        <time>2022-07-25T06:40:53Z</time>
      </trkpt>
      <trkpt lat="46.24944" lon="5.33892">
        <ele>250.4</ele>
        <time>2022-07-25T06:40:58Z</time>
      </trkpt>
      <trkpt lat="46.24927" lon="5.33942">
        <ele>250.8</ele>
        <time>2022-07-25T06:41:04Z</time>
      </trkpt>
      <trkpt lat="46.24922" lon="5.33957">
        <ele>251.4</ele>
        <time>2022-07-25T06:41:06Z</time>
      </trkpt>
      <trkpt lat="46.24915" lon="5.33979">
        <ele>252.6</ele>
        <time>2022-07-25T06:41:09Z</time>
      </trkpt>
      <trkpt lat="46.24912" lon="5.33987">
        <ele>253.2</ele>
        <time>2022-07-25T06:41:10Z</time>
      </trkpt>
      <trkpt lat="46.24906" lon="5.34002">
        <ele>253.6</ele>
        <time>2022-07-25T06:41:12Z</time>
      </trkpt>
      <trkpt lat="46.24886" lon="5.34047">
        <ele>254.6</ele>
        <time>2022-07-25T06:41:18Z</time>
      </trkpt>
      <trkpt lat="46.2488" lon="5.34061">
        <ele>254.8</ele>
        <time>2022-07-25T06:41:20Z</time>
      </trkpt>
      <trkpt lat="46.24864" lon="5.34105">
        <ele>255.4</ele>
        <time>2022-07-25T06:41:26Z</time>
      </trkpt>
      <trkpt lat="46.24846" lon="5.34167">
        <ele>255.6</ele>
        <time>2022-07-25T06:41:34Z</time>
      </trkpt>
      <trkpt lat="46.2484" lon="5.34202">
        <ele>256</ele>
        <time>2022-07-25T06:41:38Z</time>
      </trkpt>
      <trkpt lat="46.24832" lon="5.34227">
        <ele>256</ele>
        <time>2022-07-25T06:41:41Z</time>
      </trkpt>
      <trkpt lat="46.24808" lon="5.34302">
        <ele>256.4</ele>
        <time>2022-07-25T06:41:50Z</time>
      </trkpt>
      <trkpt lat="46.24784" lon="5.34372">
        <ele>256.8</ele>
        <time>2022-07-25T06:41:59Z</time>
      </trkpt>
      <trkpt lat="46.24781" lon="5.34379">
        <ele>256.8</ele>
        <time>2022-07-25T06:42:00Z</time>
      </trkpt>
      <trkpt lat="46.24759" lon="5.34444">
        <ele>257</ele>
        <time>2022-07-25T06:42:09Z</time>
      </trkpt>
      <trkpt lat="46.24757" lon="5.34452">
        <ele>257.2</ele>
        <time>2022-07-25T06:42:10Z</time>
      </trkpt>
      <trkpt lat="46.24737" lon="5.34509">
        <ele>258</ele>
        <time>2022-07-25T06:42:17Z</time>
      </trkpt>
      <trkpt lat="46.24714" lon="5.34579">
        <ele>257.8</ele>
        <time>2022-07-25T06:42:25Z</time>
      </trkpt>
      <trkpt lat="46.24698" lon="5.34618">
        <ele>257.6</ele>
        <time>2022-07-25T06:42:30Z</time>
      </trkpt>
      <trkpt lat="46.24672" lon="5.34671">
        <ele>257.2</ele>
        <time>2022-07-25T06:42:37Z</time>
      </trkpt>
      <trkpt lat="46.24655" lon="5.34732">
        <ele>257.4</ele>
        <time>2022-07-25T06:42:44Z</time>
      </trkpt>
      <trkpt lat="46.24646" lon="5.34795">
        <ele>257.4</ele>
        <time>2022-07-25T06:42:51Z</time>
      </trkpt>
      <trkpt lat="46.24645" lon="5.34803">
        <ele>257.4</ele>
        <time>2022-07-25T06:42:52Z</time>
      </trkpt>
      <trkpt lat="46.24637" lon="5.34833">
        <ele>257.6</ele>
        <time>2022-07-25T06:42:56Z</time>
      </trkpt>
      <trkpt lat="46.24627" lon="5.34861">
        <ele>258.2</ele>
        <time>2022-07-25T06:43:00Z</time>
      </trkpt>
      <trkpt lat="46.24625" lon="5.34868">
        <ele>258.2</ele>
        <time>2022-07-25T06:43:01Z</time>
      </trkpt>
      <trkpt lat="46.24624" lon="5.34875">
        <ele>258.4</ele>
        <time>2022-07-25T06:43:02Z</time>
      </trkpt>
      <trkpt lat="46.2461" lon="5.34917">
        <ele>259.4</ele>
        <time>2022-07-25T06:43:09Z</time>
      </trkpt>
      <trkpt lat="46.24598" lon="5.34963">
        <ele>260.4</ele>
        <time>2022-07-25T06:43:16Z</time>
      </trkpt>
      <trkpt lat="46.24592" lon="5.34984">
        <ele>260.8</ele>
        <time>2022-07-25T06:43:19Z</time>
      </trkpt>
      <trkpt lat="46.24587" lon="5.34999">
        <ele>260.8</ele>
        <time>2022-07-25T06:43:21Z</time>
      </trkpt>
      <trkpt lat="46.24579" lon="5.35022">
        <ele>261.2</ele>
        <time>2022-07-25T06:43:24Z</time>
      </trkpt>
      <trkpt lat="46.24576" lon="5.35029">
        <ele>261.2</ele>
        <time>2022-07-25T06:43:25Z</time>
      </trkpt>
      <trkpt lat="46.24554" lon="5.35069">
        <ele>260.8</ele>
        <time>2022-07-25T06:43:31Z</time>
      </trkpt>
      <trkpt lat="46.2455" lon="5.35071">
        <ele>260.8</ele>
        <time>2022-07-25T06:43:32Z</time>
      </trkpt>
      <trkpt lat="46.24545" lon="5.3507">
        <ele>260.8</ele>
        <time>2022-07-25T06:43:33Z</time>
      </trkpt>
      <trkpt lat="46.24535" lon="5.35063">
        <ele>260.4</ele>
        <time>2022-07-25T06:43:35Z</time>
      </trkpt>
      <trkpt lat="46.24496" lon="5.35035">
        <ele>260.4</ele>
        <time>2022-07-25T06:43:43Z</time>
      </trkpt>
      <trkpt lat="46.24491" lon="5.35032">
        <ele>260.6</ele>
        <time>2022-07-25T06:43:44Z</time>
      </trkpt>
      <trkpt lat="46.24482" lon="5.35024">
        <ele>260.6</ele>
        <time>2022-07-25T06:43:46Z</time>
      </trkpt>
      <trkpt lat="46.24477" lon="5.3502">
        <ele>260.8</ele>
        <time>2022-07-25T06:43:47Z</time>
      </trkpt>
      <trkpt lat="46.24469" lon="5.35014">
        <ele>261.4</ele>
        <time>2022-07-25T06:43:49Z</time>
      </trkpt>
      <trkpt lat="46.24461" lon="5.35007">
        <ele>261.8</ele>
        <time>2022-07-25T06:43:51Z</time>
      </trkpt>
      <trkpt lat="46.24451" lon="5.35">
        <ele>262</ele>
        <time>2022-07-25T06:43:53Z</time>
      </trkpt>
      <trkpt lat="46.24437" lon="5.34989">
        <ele>262.6</ele>
        <time>2022-07-25T06:43:56Z</time>
      </trkpt>
      <trkpt lat="46.24427" lon="5.34983">
        <ele>263</ele>
        <time>2022-07-25T06:43:58Z</time>
      </trkpt>
      <trkpt lat="46.24418" lon="5.3498">
        <ele>263.2</ele>
        <time>2022-07-25T06:44:00Z</time>
      </trkpt>
      <trkpt lat="46.24408" lon="5.34978">
        <ele>263.6</ele>
        <time>2022-07-25T06:44:02Z</time>
      </trkpt>
      <trkpt lat="46.24404" lon="5.34978">
        <ele>264</ele>
        <time>2022-07-25T06:44:03Z</time>
      </trkpt>
      <trkpt lat="46.24389" lon="5.34979">
        <ele>264.2</ele>
        <time>2022-07-25T06:44:06Z</time>
      </trkpt>
      <trkpt lat="46.24371" lon="5.3498">
        <ele>265.2</ele>
        <time>2022-07-25T06:44:10Z</time>
      </trkpt>
      <trkpt lat="46.24353" lon="5.34977">
        <ele>266.2</ele>
        <time>2022-07-25T06:44:14Z</time>
      </trkpt>
      <trkpt lat="46.2433" lon="5.34976">
        <ele>267.2</ele>
        <time>2022-07-25T06:44:19Z</time>
      </trkpt>
      <trkpt lat="46.24316" lon="5.34974">
        <ele>267.6</ele>
        <time>2022-07-25T06:44:22Z</time>
      </trkpt>
      <trkpt lat="46.24265" lon="5.34965">
        <ele>268.2</ele>
        <time>2022-07-25T06:44:32Z</time>
      </trkpt>
      <trkpt lat="46.2426" lon="5.34964">
        <ele>268.4</ele>
        <time>2022-07-25T06:44:33Z</time>
      </trkpt>
      <trkpt lat="46.24224" lon="5.34946">
        <ele>268.8</ele>
        <time>2022-07-25T06:44:40Z</time>
      </trkpt>
      <trkpt lat="46.24205" lon="5.34932">
        <ele>268.8</ele>
        <time>2022-07-25T06:44:44Z</time>
      </trkpt>
      <trkpt lat="46.24196" lon="5.34934">
        <ele>268.8</ele>
        <time>2022-07-25T06:44:46Z</time>
      </trkpt>
      <trkpt lat="46.24191" lon="5.34946">
        <ele>268.8</ele>
        <time>2022-07-25T06:44:48Z</time>
      </trkpt>
      <trkpt lat="46.2419" lon="5.34953">
        <ele>268.8</ele>
        <time>2022-07-25T06:44:49Z</time>
      </trkpt>
      <trkpt lat="46.24181" lon="5.35002">
        <ele>269.4</ele>
        <time>2022-07-25T06:44:56Z</time>
      </trkpt>
      <trkpt lat="46.2418" lon="5.35009">
        <ele>269.6</ele>
        <time>2022-07-25T06:44:57Z</time>
      </trkpt>
      <trkpt lat="46.24176" lon="5.35036">
        <ele>270.2</ele>
        <time>2022-07-25T06:45:01Z</time>
      </trkpt>
      <trkpt lat="46.24171" lon="5.35047">
        <ele>270.6</ele>
        <time>2022-07-25T06:45:03Z</time>
      </trkpt>
      <trkpt lat="46.24163" lon="5.35053">
        <ele>271.2</ele>
        <time>2022-07-25T06:45:05Z</time>
      </trkpt>
      <trkpt lat="46.24154" lon="5.35056">
        <ele>271.6</ele>
        <time>2022-07-25T06:45:07Z</time>
      </trkpt>
      <trkpt lat="46.24149" lon="5.35057">
        <ele>271.8</ele>
        <time>2022-07-25T06:45:08Z</time>
      </trkpt>
      <trkpt lat="46.24127" lon="5.35063">
        <ele>273</ele>
        <time>2022-07-25T06:45:13Z</time>
      </trkpt>
      <trkpt lat="46.24123" lon="5.35064">
        <ele>273</ele>
        <time>2022-07-25T06:45:14Z</time>
      </trkpt>
      <trkpt lat="46.2411" lon="5.3507">
        <ele>273.4</ele>
        <time>2022-07-25T06:45:17Z</time>
      </trkpt>
      <trkpt lat="46.24103" lon="5.35077">
        <ele>274</ele>
        <time>2022-07-25T06:45:19Z</time>
      </trkpt>
      <trkpt lat="46.24088" lon="5.35098">
        <ele>275</ele>
        <time>2022-07-25T06:45:25Z</time>
      </trkpt>
      <trkpt lat="46.24076" lon="5.35115">
        <ele>276.2</ele>
        <time>2022-07-25T06:45:30Z</time>
      </trkpt>
      <trkpt lat="46.24074" lon="5.35119">
        <ele>276.4</ele>
        <time>2022-07-25T06:45:31Z</time>
      </trkpt>
      <trkpt lat="46.24066" lon="5.35132">
        <ele>277.6</ele>
        <time>2022-07-25T06:45:34Z</time>
      </trkpt>
      <trkpt lat="46.24052" lon="5.35154">
        <ele>278.8</ele>
        <time>2022-07-25T06:45:39Z</time>
      </trkpt>
      <trkpt lat="46.24049" lon="5.35159">
        <ele>278.8</ele>
        <time>2022-07-25T06:45:40Z</time>
      </trkpt>
      <trkpt lat="46.24036" lon="5.3518">
        <ele>280</ele>
        <time>2022-07-25T06:45:45Z</time>
      </trkpt>
      <trkpt lat="46.24031" lon="5.35187">
        <ele>280.6</ele>
        <time>2022-07-25T06:45:47Z</time>
      </trkpt>
      <trkpt lat="46.24022" lon="5.35197">
        <ele>281</ele>
        <time>2022-07-25T06:45:50Z</time>
      </trkpt>
      <trkpt lat="46.24011" lon="5.35209">
        <ele>281.6</ele>
        <time>2022-07-25T06:45:53Z</time>
      </trkpt>
      <trkpt lat="46.23991" lon="5.3523">
        <ele>281.8</ele>
        <time>2022-07-25T06:45:58Z</time>
      </trkpt>
      <trkpt lat="46.23973" lon="5.35248">
        <ele>282</ele>
        <time>2022-07-25T06:46:02Z</time>
      </trkpt>
      <trkpt lat="46.23963" lon="5.35255">
        <ele>282.2</ele>
        <time>2022-07-25T06:46:04Z</time>
      </trkpt>
      <trkpt lat="46.23958" lon="5.35257">
        <ele>282.2</ele>
        <time>2022-07-25T06:46:05Z</time>
      </trkpt>
      <trkpt lat="46.23924" lon="5.35264">
        <ele>282.2</ele>
        <time>2022-07-25T06:46:11Z</time>
      </trkpt>
      <trkpt lat="46.23918" lon="5.35265">
        <ele>282.2</ele>
        <time>2022-07-25T06:46:12Z</time>
      </trkpt>
      <trkpt lat="46.23893" lon="5.35267">
        <ele>281.8</ele>
        <time>2022-07-25T06:46:16Z</time>
      </trkpt>
      <trkpt lat="46.23854" lon="5.35276">
        <ele>281</ele>
        <time>2022-07-25T06:46:22Z</time>
      </trkpt>
      <trkpt lat="46.23842" lon="5.35282">
        <ele>280.8</ele>
        <time>2022-07-25T06:46:24Z</time>
      </trkpt>
      <trkpt lat="46.23815" lon="5.35301">
        <ele>280.4</ele>
        <time>2022-07-25T06:46:29Z</time>
      </trkpt>
      <trkpt lat="46.23811" lon="5.35316">
        <ele>280.2</ele>
        <time>2022-07-25T06:46:31Z</time>
      </trkpt>
      <trkpt lat="46.2381" lon="5.35325">
        <ele>280.2</ele>
        <time>2022-07-25T06:46:32Z</time>
      </trkpt>
      <trkpt lat="46.2381" lon="5.35344">
        <ele>280.2</ele>
        <time>2022-07-25T06:46:34Z</time>
      </trkpt>
      <trkpt lat="46.23806" lon="5.35363">
        <ele>280</ele>
        <time>2022-07-25T06:46:36Z</time>
      </trkpt>
      <trkpt lat="46.23787" lon="5.35397">
        <ele>280.4</ele>
        <time>2022-07-25T06:46:41Z</time>
      </trkpt>
      <trkpt lat="46.23773" lon="5.35421">
        <ele>281.2</ele>
        <time>2022-07-25T06:46:45Z</time>
      </trkpt>
      <trkpt lat="46.2377" lon="5.35426">
        <ele>281.2</ele>
        <time>2022-07-25T06:46:46Z</time>
      </trkpt>
      <trkpt lat="46.23758" lon="5.35448">
        <ele>281.8</ele>
        <time>2022-07-25T06:46:50Z</time>
      </trkpt>
      <trkpt lat="46.23755" lon="5.35453">
        <ele>282</ele>
        <time>2022-07-25T06:46:51Z</time>
      </trkpt>
      <trkpt lat="46.23748" lon="5.35463">
        <ele>282.2</ele>
        <time>2022-07-25T06:46:53Z</time>
      </trkpt>
      <trkpt lat="46.23737" lon="5.35476">
        <ele>282.8</ele>
        <time>2022-07-25T06:46:56Z</time>
      </trkpt>
      <trkpt lat="46.2373" lon="5.35484">
        <ele>283.4</ele>
        <time>2022-07-25T06:46:58Z</time>
      </trkpt>
      <trkpt lat="46.23723" lon="5.35491">
        <ele>283.8</ele>
        <time>2022-07-25T06:47:00Z</time>
      </trkpt>
      <trkpt lat="46.23719" lon="5.35495">
        <ele>284</ele>
        <time>2022-07-25T06:47:01Z</time>
      </trkpt>
      <trkpt lat="46.23712" lon="5.35504">
        <ele>284.4</ele>
        <time>2022-07-25T06:47:03Z</time>
      </trkpt>
      <trkpt lat="46.23698" lon="5.35524">
        <ele>285</ele>
        <time>2022-07-25T06:47:07Z</time>
      </trkpt>
      <trkpt lat="46.23695" lon="5.35529">
        <ele>285.2</ele>
        <time>2022-07-25T06:47:08Z</time>
      </trkpt>
      <trkpt lat="46.23678" lon="5.35563">
        <ele>285.4</ele>
        <time>2022-07-25T06:47:14Z</time>
      </trkpt>
      <trkpt lat="46.23676" lon="5.3557">
        <ele>285.4</ele>
        <time>2022-07-25T06:47:15Z</time>
      </trkpt>
      <trkpt lat="46.23674" lon="5.35583">
        <ele>285.6</ele>
        <time>2022-07-25T06:47:17Z</time>
      </trkpt>
      <trkpt lat="46.23674" lon="5.35598">
        <ele>285.8</ele>
        <time>2022-07-25T06:47:19Z</time>
      </trkpt>
      <trkpt lat="46.23675" lon="5.35605">
        <ele>285.8</ele>
        <time>2022-07-25T06:47:20Z</time>
      </trkpt>
      <trkpt lat="46.23676" lon="5.35612">
        <ele>286</ele>
        <time>2022-07-25T06:47:21Z</time>
      </trkpt>
      <trkpt lat="46.23681" lon="5.35641">
        <ele>286.6</ele>
        <time>2022-07-25T06:47:25Z</time>
      </trkpt>
      <trkpt lat="46.23685" lon="5.35669">
        <ele>287</ele>
        <time>2022-07-25T06:47:29Z</time>
      </trkpt>
      <trkpt lat="46.23687" lon="5.35689">
        <ele>287</ele>
        <time>2022-07-25T06:47:32Z</time>
      </trkpt>
      <trkpt lat="46.23702" lon="5.35735">
        <ele>287.6</ele>
        <time>2022-07-25T06:47:39Z</time>
      </trkpt>
      <trkpt lat="46.23712" lon="5.35759">
        <ele>288</ele>
        <time>2022-07-25T06:47:43Z</time>
      </trkpt>
      <trkpt lat="46.23723" lon="5.35783">
        <ele>288.2</ele>
        <time>2022-07-25T06:47:47Z</time>
      </trkpt>
      <trkpt lat="46.23738" lon="5.35811">
        <ele>289.2</ele>
        <time>2022-07-25T06:47:52Z</time>
      </trkpt>
      <trkpt lat="46.23757" lon="5.35839">
        <ele>289.6</ele>
        <time>2022-07-25T06:47:58Z</time>
      </trkpt>
      <trkpt lat="46.23763" lon="5.35848">
        <ele>290</ele>
        <time>2022-07-25T06:48:00Z</time>
      </trkpt>
      <trkpt lat="46.2378" lon="5.35868">
        <ele>290.8</ele>
        <time>2022-07-25T06:48:05Z</time>
      </trkpt>
      <trkpt lat="46.23783" lon="5.35871">
        <ele>291</ele>
        <time>2022-07-25T06:48:06Z</time>
      </trkpt>
      <trkpt lat="46.23791" lon="5.35877">
        <ele>291.4</ele>
        <time>2022-07-25T06:48:08Z</time>
      </trkpt>
      <trkpt lat="46.23802" lon="5.35885">
        <ele>292.2</ele>
        <time>2022-07-25T06:48:11Z</time>
      </trkpt>
      <trkpt lat="46.23826" lon="5.35905">
        <ele>293.4</ele>
        <time>2022-07-25T06:48:18Z</time>
      </trkpt>
      <trkpt lat="46.2383" lon="5.35906">
        <ele>293.4</ele>
        <time>2022-07-25T06:48:19Z</time>
      </trkpt>
      <trkpt lat="46.23862" lon="5.35911">
        <ele>294.4</ele>
        <time>2022-07-25T06:48:26Z</time>
      </trkpt>
      <trkpt lat="46.23867" lon="5.35912">
        <ele>294.4</ele>
        <time>2022-07-25T06:48:27Z</time>
      </trkpt>
      <trkpt lat="46.23896" lon="5.35921">
        <ele>295</ele>
        <time>2022-07-25T06:48:34Z</time>
      </trkpt>
      <trkpt lat="46.23905" lon="5.35926">
        <ele>295.4</ele>
        <time>2022-07-25T06:48:36Z</time>
      </trkpt>
      <trkpt lat="46.23928" lon="5.35947">
        <ele>295.8</ele>
        <time>2022-07-25T06:48:42Z</time>
      </trkpt>
      <trkpt lat="46.23935" lon="5.35955">
        <ele>295.8</ele>
        <time>2022-07-25T06:48:44Z</time>
      </trkpt>
      <trkpt lat="46.2396" lon="5.35981">
        <ele>296.6</ele>
        <time>2022-07-25T06:48:51Z</time>
      </trkpt>
      <trkpt lat="46.23981" lon="5.36002">
        <ele>297.4</ele>
        <time>2022-07-25T06:48:57Z</time>
      </trkpt>
      <trkpt lat="46.23984" lon="5.36006">
        <ele>297.4</ele>
        <time>2022-07-25T06:48:58Z</time>
      </trkpt>
      <trkpt lat="46.23987" lon="5.36011">
        <ele>297.4</ele>
        <time>2022-07-25T06:48:59Z</time>
      </trkpt>
      <trkpt lat="46.2399" lon="5.36023">
        <ele>297.6</ele>
        <time>2022-07-25T06:49:01Z</time>
      </trkpt>
      <trkpt lat="46.2399" lon="5.36029">
        <ele>297.8</ele>
        <time>2022-07-25T06:49:02Z</time>
      </trkpt>
      <trkpt lat="46.23989" lon="5.36035">
        <ele>298</ele>
        <time>2022-07-25T06:49:03Z</time>
      </trkpt>
      <trkpt lat="46.23983" lon="5.36046">
        <ele>298.2</ele>
        <time>2022-07-25T06:49:05Z</time>
      </trkpt>
      <trkpt lat="46.23976" lon="5.36054">
        <ele>298.4</ele>
        <time>2022-07-25T06:49:07Z</time>
      </trkpt>
      <trkpt lat="46.23968" lon="5.36058">
        <ele>298.6</ele>
        <time>2022-07-25T06:49:09Z</time>
      </trkpt>
      <trkpt lat="46.23964" lon="5.3606">
        <ele>298.8</ele>
        <time>2022-07-25T06:49:10Z</time>
      </trkpt>
      <trkpt lat="46.2395" lon="5.36059">
        <ele>299.2</ele>
        <time>2022-07-25T06:49:14Z</time>
      </trkpt>
      <trkpt lat="46.2394" lon="5.36056">
        <ele>299.6</ele>
        <time>2022-07-25T06:49:17Z</time>
      </trkpt>
      <trkpt lat="46.23933" lon="5.36052">
        <ele>301</ele>
        <time>2022-07-25T06:49:19Z</time>
      </trkpt>
      <trkpt lat="46.23919" lon="5.36044">
        <ele>302.2</ele>
        <time>2022-07-25T06:49:23Z</time>
      </trkpt>
      <trkpt lat="46.23905" lon="5.36037">
        <ele>303.2</ele>
        <time>2022-07-25T06:49:27Z</time>
      </trkpt>
      <trkpt lat="46.23901" lon="5.36036">
        <ele>303.6</ele>
        <time>2022-07-25T06:49:28Z</time>
      </trkpt>
      <trkpt lat="46.23884" lon="5.3603">
        <ele>304.6</ele>
        <time>2022-07-25T06:49:33Z</time>
      </trkpt>
      <trkpt lat="46.2388" lon="5.36028">
        <ele>304.8</ele>
        <time>2022-07-25T06:49:34Z</time>
      </trkpt>
      <trkpt lat="46.23867" lon="5.36019">
        <ele>305.8</ele>
        <time>2022-07-25T06:49:38Z</time>
      </trkpt>
      <trkpt lat="46.23859" lon="5.36014">
        <ele>306.4</ele>
        <time>2022-07-25T06:49:40Z</time>
      </trkpt>
      <trkpt lat="46.23851" lon="5.36012">
        <ele>307</ele>
        <time>2022-07-25T06:49:42Z</time>
      </trkpt>
      <trkpt lat="46.23841" lon="5.36007">
        <ele>307.2</ele>
        <time>2022-07-25T06:49:45Z</time>
      </trkpt>
      <trkpt lat="46.23835" lon="5.36004">
        <ele>307.8</ele>
        <time>2022-07-25T06:49:47Z</time>
      </trkpt>
      <trkpt lat="46.23822" lon="5.35999">
        <ele>309</ele>
        <time>2022-07-25T06:49:51Z</time>
      </trkpt>
      <trkpt lat="46.23819" lon="5.35997">
        <ele>309.2</ele>
        <time>2022-07-25T06:49:52Z</time>
      </trkpt>
      <trkpt lat="46.23806" lon="5.35991">
        <ele>310</ele>
        <time>2022-07-25T06:49:56Z</time>
      </trkpt>
      <trkpt lat="46.23794" lon="5.35983">
        <ele>310.8</ele>
        <time>2022-07-25T06:50:00Z</time>
      </trkpt>
      <trkpt lat="46.23791" lon="5.35982">
        <ele>311</ele>
        <time>2022-07-25T06:50:01Z</time>
      </trkpt>
      <trkpt lat="46.23769" lon="5.35973">
        <ele>312.2</ele>
        <time>2022-07-25T06:50:08Z</time>
      </trkpt>
      <trkpt lat="46.23754" lon="5.35978">
        <ele>313.2</ele>
        <time>2022-07-25T06:50:13Z</time>
      </trkpt>
      <trkpt lat="46.23751" lon="5.3598">
        <ele>313.4</ele>
        <time>2022-07-25T06:50:14Z</time>
      </trkpt>
      <trkpt lat="46.23745" lon="5.35983">
        <ele>313.6</ele>
        <time>2022-07-25T06:50:16Z</time>
      </trkpt>
      <trkpt lat="46.23735" lon="5.35987">
        <ele>314.2</ele>
        <time>2022-07-25T06:50:19Z</time>
      </trkpt>
      <trkpt lat="46.23726" lon="5.35986">
        <ele>315</ele>
        <time>2022-07-25T06:50:22Z</time>
      </trkpt>
      <trkpt lat="46.23723" lon="5.35985">
        <ele>315.2</ele>
        <time>2022-07-25T06:50:23Z</time>
      </trkpt>
      <trkpt lat="46.23707" lon="5.35977">
        <ele>316.4</ele>
        <time>2022-07-25T06:50:28Z</time>
      </trkpt>
      <trkpt lat="46.23694" lon="5.35967">
        <ele>317.4</ele>
        <time>2022-07-25T06:50:32Z</time>
      </trkpt>
      <trkpt lat="46.2368" lon="5.35955">
        <ele>318.2</ele>
        <time>2022-07-25T06:50:37Z</time>
      </trkpt>
      <trkpt lat="46.23677" lon="5.35952">
        <ele>318.4</ele>
        <time>2022-07-25T06:50:38Z</time>
      </trkpt>
      <trkpt lat="46.2366" lon="5.35935">
        <ele>319.4</ele>
        <time>2022-07-25T06:50:44Z</time>
      </trkpt>
      <trkpt lat="46.23655" lon="5.3593">
        <ele>319.6</ele>
        <time>2022-07-25T06:50:46Z</time>
      </trkpt>
      <trkpt lat="46.23643" lon="5.3592">
        <ele>320.4</ele>
        <time>2022-07-25T06:50:50Z</time>
      </trkpt>
      <trkpt lat="46.23633" lon="5.35908">
        <ele>321.2</ele>
        <time>2022-07-25T06:50:54Z</time>
      </trkpt>
      <trkpt lat="46.23628" lon="5.35902">
        <ele>322</ele>
        <time>2022-07-25T06:50:56Z</time>
      </trkpt>
      <trkpt lat="46.23615" lon="5.35886">
        <ele>322.6</ele>
        <time>2022-07-25T06:51:01Z</time>
      </trkpt>
      <trkpt lat="46.23611" lon="5.3588">
        <ele>323</ele>
        <time>2022-07-25T06:51:03Z</time>
      </trkpt>
      <trkpt lat="46.236" lon="5.35864">
        <ele>324.2</ele>
        <time>2022-07-25T06:51:08Z</time>
      </trkpt>
      <trkpt lat="46.23595" lon="5.35858">
        <ele>324.6</ele>
        <time>2022-07-25T06:51:10Z</time>
      </trkpt>
      <trkpt lat="46.23593" lon="5.35856">
        <ele>324.8</ele>
        <time>2022-07-25T06:51:11Z</time>
      </trkpt>
      <trkpt lat="46.23585" lon="5.35848">
        <ele>325.2</ele>
        <time>2022-07-25T06:51:14Z</time>
      </trkpt>
      <trkpt lat="46.23574" lon="5.35837">
        <ele>326.2</ele>
        <time>2022-07-25T06:51:18Z</time>
      </trkpt>
      <trkpt lat="46.23572" lon="5.35835">
        <ele>326.2</ele>
        <time>2022-07-25T06:51:19Z</time>
      </trkpt>
      <trkpt lat="46.23558" lon="5.35824">
        <ele>327.4</ele>
        <time>2022-07-25T06:51:24Z</time>
      </trkpt>
      <trkpt lat="46.23555" lon="5.35822">
        <ele>327.6</ele>
        <time>2022-07-25T06:51:25Z</time>
      </trkpt>
      <trkpt lat="46.23546" lon="5.35816">
        <ele>328.6</ele>
        <time>2022-07-25T06:51:29Z</time>
      </trkpt>
      <trkpt lat="46.23539" lon="5.35811">
        <ele>329.2</ele>
        <time>2022-07-25T06:51:32Z</time>
      </trkpt>
      <trkpt lat="46.23526" lon="5.35805">
        <ele>329.8</ele>
        <time>2022-07-25T06:51:36Z</time>
      </trkpt>
      <trkpt lat="46.23519" lon="5.35802">
        <ele>330.2</ele>
        <time>2022-07-25T06:51:38Z</time>
      </trkpt>
      <trkpt lat="46.23512" lon="5.35798">
        <ele>330.8</ele>
        <time>2022-07-25T06:51:40Z</time>
      </trkpt>
      <trkpt lat="46.23497" lon="5.35787">
        <ele>331.8</ele>
        <time>2022-07-25T06:51:45Z</time>
      </trkpt>
      <trkpt lat="46.23483" lon="5.35775">
        <ele>332.8</ele>
        <time>2022-07-25T06:51:50Z</time>
      </trkpt>
      <trkpt lat="46.23475" lon="5.35768">
        <ele>333.6</ele>
        <time>2022-07-25T06:51:53Z</time>
      </trkpt>
      <trkpt lat="46.23468" lon="5.35765">
        <ele>334.2</ele>
        <time>2022-07-25T06:51:55Z</time>
      </trkpt>
      <trkpt lat="46.2345" lon="5.35752">
        <ele>335.2</ele>
        <time>2022-07-25T06:52:01Z</time>
      </trkpt>
      <trkpt lat="46.23432" lon="5.35742">
        <ele>336.4</ele>
        <time>2022-07-25T06:52:07Z</time>
      </trkpt>
      <trkpt lat="46.23426" lon="5.35738">
        <ele>336.6</ele>
        <time>2022-07-25T06:52:09Z</time>
      </trkpt>
      <trkpt lat="46.23412" lon="5.35731">
        <ele>337.4</ele>
        <time>2022-07-25T06:52:14Z</time>
      </trkpt>
      <trkpt lat="46.23399" lon="5.35726">
        <ele>338.4</ele>
        <time>2022-07-25T06:52:19Z</time>
      </trkpt>
      <trkpt lat="46.23386" lon="5.35721">
        <ele>339.6</ele>
        <time>2022-07-25T06:52:23Z</time>
      </trkpt>
      <trkpt lat="46.2337" lon="5.35715">
        <ele>340.8</ele>
        <time>2022-07-25T06:52:28Z</time>
      </trkpt>
      <trkpt lat="46.23367" lon="5.35714">
        <ele>340.8</ele>
        <time>2022-07-25T06:52:29Z</time>
      </trkpt>
      <trkpt lat="46.23352" lon="5.3571">
        <ele>342</ele>
        <time>2022-07-25T06:52:34Z</time>
      </trkpt>
      <trkpt lat="46.23346" lon="5.35708">
        <ele>342.6</ele>
        <time>2022-07-25T06:52:36Z</time>
      </trkpt>
      <trkpt lat="46.23337" lon="5.35707">
        <ele>343.2</ele>
        <time>2022-07-25T06:52:39Z</time>
      </trkpt>
      <trkpt lat="46.23327" lon="5.35705">
        <ele>343.8</ele>
        <time>2022-07-25T06:52:42Z</time>
      </trkpt>
      <trkpt lat="46.23313" lon="5.35703">
        <ele>344.2</ele>
        <time>2022-07-25T06:52:47Z</time>
      </trkpt>
      <trkpt lat="46.233" lon="5.35703">
        <ele>345.2</ele>
        <time>2022-07-25T06:52:51Z</time>
      </trkpt>
      <trkpt lat="46.23295" lon="5.35704">
        <ele>345.4</ele>
        <time>2022-07-25T06:52:53Z</time>
      </trkpt>
      <trkpt lat="46.23287" lon="5.3571">
        <ele>346</ele>
        <time>2022-07-25T06:52:56Z</time>
      </trkpt>
      <trkpt lat="46.23279" lon="5.3572">
        <ele>346.6</ele>
        <time>2022-07-25T06:52:59Z</time>
      </trkpt>
      <trkpt lat="46.23268" lon="5.35733">
        <ele>347.8</ele>
        <time>2022-07-25T06:53:03Z</time>
      </trkpt>
      <trkpt lat="46.23249" lon="5.35741">
        <ele>348.6</ele>
        <time>2022-07-25T06:53:10Z</time>
      </trkpt>
      <trkpt lat="46.23242" lon="5.35741">
        <ele>349.6</ele>
        <time>2022-07-25T06:53:13Z</time>
      </trkpt>
      <trkpt lat="46.23238" lon="5.35742">
        <ele>350</ele>
        <time>2022-07-25T06:53:15Z</time>
      </trkpt>
      <trkpt lat="46.23234" lon="5.35743">
        <ele>350.8</ele>
        <time>2022-07-25T06:53:17Z</time>
      </trkpt>
      <trkpt lat="46.23223" lon="5.35747">
        <ele>352</ele>
        <time>2022-07-25T06:53:21Z</time>
      </trkpt>
      <trkpt lat="46.2322" lon="5.35748">
        <ele>352</ele>
        <time>2022-07-25T06:53:22Z</time>
      </trkpt>
      <trkpt lat="46.23212" lon="5.35753">
        <ele>353</ele>
        <time>2022-07-25T06:53:25Z</time>
      </trkpt>
      <trkpt lat="46.23202" lon="5.35756">
        <ele>354</ele>
        <time>2022-07-25T06:53:29Z</time>
      </trkpt>
      <trkpt lat="46.23199" lon="5.35758">
        <ele>354.4</ele>
        <time>2022-07-25T06:53:30Z</time>
      </trkpt>
      <trkpt lat="46.23187" lon="5.35768">
        <ele>355</ele>
        <time>2022-07-25T06:53:34Z</time>
      </trkpt>
      <trkpt lat="46.2318" lon="5.35775">
        <ele>355.6</ele>
        <time>2022-07-25T06:53:37Z</time>
      </trkpt>
      <trkpt lat="46.23175" lon="5.35781">
        <ele>356.2</ele>
        <time>2022-07-25T06:53:39Z</time>
      </trkpt>
      <trkpt lat="46.23163" lon="5.35786">
        <ele>356.6</ele>
        <time>2022-07-25T06:53:43Z</time>
      </trkpt>
      <trkpt lat="46.23157" lon="5.35786">
        <ele>356.8</ele>
        <time>2022-07-25T06:53:48Z</time>
      </trkpt>
      <trkpt lat="46.23157" lon="5.35786">
        <ele>356.8</ele>
        <time>2022-07-25T06:53:50Z</time>
      </trkpt>
      <trkpt lat="46.23154" lon="5.35785">
        <ele>356.8</ele>
        <time>2022-07-25T06:53:58Z</time>
      </trkpt>
      <trkpt lat="46.23152" lon="5.35785">
        <ele>356.8</ele>
        <time>2022-07-25T06:53:59Z</time>
      </trkpt>
      <trkpt lat="46.2314" lon="5.35793">
        <ele>356.8</ele>
        <time>2022-07-25T06:54:03Z</time>
      </trkpt>
      <trkpt lat="46.23134" lon="5.35804">
        <ele>356.8</ele>
        <time>2022-07-25T06:54:05Z</time>
      </trkpt>
      <trkpt lat="46.2313" lon="5.35819">
        <ele>356.4</ele>
        <time>2022-07-25T06:54:07Z</time>
      </trkpt>
      <trkpt lat="46.23114" lon="5.35871">
        <ele>355.2</ele>
        <time>2022-07-25T06:54:13Z</time>
      </trkpt>
      <trkpt lat="46.23101" lon="5.35909">
        <ele>354.4</ele>
        <time>2022-07-25T06:54:17Z</time>
      </trkpt>
      <trkpt lat="46.23094" lon="5.35929">
        <ele>354</ele>
        <time>2022-07-25T06:54:19Z</time>
      </trkpt>
      <trkpt lat="46.23084" lon="5.3596">
        <ele>353</ele>
        <time>2022-07-25T06:54:22Z</time>
      </trkpt>
      <trkpt lat="46.2307" lon="5.36003">
        <ele>352</ele>
        <time>2022-07-25T06:54:26Z</time>
      </trkpt>
      <trkpt lat="46.23067" lon="5.36014">
        <ele>351.6</ele>
        <time>2022-07-25T06:54:27Z</time>
      </trkpt>
      <trkpt lat="46.23053" lon="5.36057">
        <ele>350.6</ele>
        <time>2022-07-25T06:54:31Z</time>
      </trkpt>
      <trkpt lat="46.23042" lon="5.3609">
        <ele>349.2</ele>
        <time>2022-07-25T06:54:34Z</time>
      </trkpt>
      <trkpt lat="46.23038" lon="5.36102">
        <ele>349</ele>
        <time>2022-07-25T06:54:35Z</time>
      </trkpt>
      <trkpt lat="46.23027" lon="5.36138">
        <ele>348</ele>
        <time>2022-07-25T06:54:38Z</time>
      </trkpt>
      <trkpt lat="46.23015" lon="5.36175">
        <ele>346.6</ele>
        <time>2022-07-25T06:54:41Z</time>
      </trkpt>
      <trkpt lat="46.23011" lon="5.36188">
        <ele>346.6</ele>
        <time>2022-07-25T06:54:42Z</time>
      </trkpt>
      <trkpt lat="46.23007" lon="5.362">
        <ele>345.4</ele>
        <time>2022-07-25T06:54:43Z</time>
      </trkpt>
      <trkpt lat="46.22994" lon="5.36238">
        <ele>344.2</ele>
        <time>2022-07-25T06:54:46Z</time>
      </trkpt>
      <trkpt lat="46.22986" lon="5.36264">
        <ele>343</ele>
        <time>2022-07-25T06:54:48Z</time>
      </trkpt>
      <trkpt lat="46.22982" lon="5.36277">
        <ele>342.6</ele>
        <time>2022-07-25T06:54:49Z</time>
      </trkpt>
      <trkpt lat="46.22978" lon="5.3629">
        <ele>341.8</ele>
        <time>2022-07-25T06:54:50Z</time>
      </trkpt>
      <trkpt lat="46.2297" lon="5.36314">
        <ele>340</ele>
        <time>2022-07-25T06:54:52Z</time>
      </trkpt>
      <trkpt lat="46.22961" lon="5.36344">
        <ele>338.6</ele>
        <time>2022-07-25T06:54:54Z</time>
      </trkpt>
      <trkpt lat="46.22953" lon="5.36367">
        <ele>338</ele>
        <time>2022-07-25T06:54:56Z</time>
      </trkpt>
      <trkpt lat="46.22944" lon="5.36394">
        <ele>337.6</ele>
        <time>2022-07-25T06:54:58Z</time>
      </trkpt>
      <trkpt lat="46.22934" lon="5.36424">
        <ele>336.6</ele>
        <time>2022-07-25T06:55:00Z</time>
      </trkpt>
      <trkpt lat="46.22922" lon="5.36464">
        <ele>334.8</ele>
        <time>2022-07-25T06:55:03Z</time>
      </trkpt>
      <trkpt lat="46.22914" lon="5.36488">
        <ele>334.4</ele>
        <time>2022-07-25T06:55:05Z</time>
      </trkpt>
      <trkpt lat="46.22909" lon="5.36504">
        <ele>333.8</ele>
        <time>2022-07-25T06:55:06Z</time>
      </trkpt>
      <trkpt lat="46.22894" lon="5.36553">
        <ele>332.6</ele>
        <time>2022-07-25T06:55:10Z</time>
      </trkpt>
      <trkpt lat="46.22879" lon="5.36603">
        <ele>331.6</ele>
        <time>2022-07-25T06:55:14Z</time>
      </trkpt>
      <trkpt lat="46.22866" lon="5.36642">
        <ele>329.8</ele>
        <time>2022-07-25T06:55:17Z</time>
      </trkpt>
      <trkpt lat="46.22863" lon="5.36651">
        <ele>329.2</ele>
        <time>2022-07-25T06:55:18Z</time>
      </trkpt>
      <trkpt lat="46.22859" lon="5.36663">
        <ele>328.8</ele>
        <time>2022-07-25T06:55:19Z</time>
      </trkpt>
      <trkpt lat="46.2284" lon="5.3672">
        <ele>327.6</ele>
        <time>2022-07-25T06:55:24Z</time>
      </trkpt>
      <trkpt lat="46.22829" lon="5.36753">
        <ele>326.6</ele>
        <time>2022-07-25T06:55:27Z</time>
      </trkpt>
      <trkpt lat="46.22815" lon="5.36795">
        <ele>325.4</ele>
        <time>2022-07-25T06:55:31Z</time>
      </trkpt>
      <trkpt lat="46.22805" lon="5.36826">
        <ele>325</ele>
        <time>2022-07-25T06:55:34Z</time>
      </trkpt>
      <trkpt lat="46.22792" lon="5.36868">
        <ele>324.4</ele>
        <time>2022-07-25T06:55:38Z</time>
      </trkpt>
      <trkpt lat="46.22778" lon="5.3691">
        <ele>324</ele>
        <time>2022-07-25T06:55:42Z</time>
      </trkpt>
      <trkpt lat="46.22767" lon="5.36942">
        <ele>323.2</ele>
        <time>2022-07-25T06:55:45Z</time>
      </trkpt>
      <trkpt lat="46.22755" lon="5.36976">
        <ele>322</ele>
        <time>2022-07-25T06:55:48Z</time>
      </trkpt>
      <trkpt lat="46.22748" lon="5.36999">
        <ele>321.2</ele>
        <time>2022-07-25T06:55:50Z</time>
      </trkpt>
      <trkpt lat="46.2274" lon="5.37023">
        <ele>320.4</ele>
        <time>2022-07-25T06:55:52Z</time>
      </trkpt>
      <trkpt lat="46.22728" lon="5.37061">
        <ele>319.4</ele>
        <time>2022-07-25T06:55:55Z</time>
      </trkpt>
      <trkpt lat="46.22721" lon="5.37085">
        <ele>318</ele>
        <time>2022-07-25T06:55:57Z</time>
      </trkpt>
      <trkpt lat="46.22711" lon="5.37119">
        <ele>316.8</ele>
        <time>2022-07-25T06:56:00Z</time>
      </trkpt>
      <trkpt lat="46.22703" lon="5.37145">
        <ele>315.8</ele>
        <time>2022-07-25T06:56:02Z</time>
      </trkpt>
      <trkpt lat="46.22696" lon="5.37168">
        <ele>315.2</ele>
        <time>2022-07-25T06:56:04Z</time>
      </trkpt>
      <trkpt lat="46.22689" lon="5.37189">
        <ele>314.8</ele>
        <time>2022-07-25T06:56:06Z</time>
      </trkpt>
      <trkpt lat="46.2268" lon="5.37215">
        <ele>314</ele>
        <time>2022-07-25T06:56:09Z</time>
      </trkpt>
      <trkpt lat="46.22679" lon="5.37223">
        <ele>314</ele>
        <time>2022-07-25T06:56:10Z</time>
      </trkpt>
      <trkpt lat="46.2268" lon="5.3723">
        <ele>313.8</ele>
        <time>2022-07-25T06:56:11Z</time>
      </trkpt>
      <trkpt lat="46.22682" lon="5.37236">
        <ele>313.8</ele>
        <time>2022-07-25T06:56:12Z</time>
      </trkpt>
      <trkpt lat="46.22685" lon="5.3724">
        <ele>313.8</ele>
        <time>2022-07-25T06:56:13Z</time>
      </trkpt>
      <trkpt lat="46.22698" lon="5.37255">
        <ele>313.8</ele>
        <time>2022-07-25T06:56:16Z</time>
      </trkpt>
      <trkpt lat="46.22707" lon="5.37264">
        <ele>314</ele>
        <time>2022-07-25T06:56:18Z</time>
      </trkpt>
      <trkpt lat="46.22723" lon="5.37272">
        <ele>314.2</ele>
        <time>2022-07-25T06:56:21Z</time>
      </trkpt>
      <trkpt lat="46.22763" lon="5.37297">
        <ele>315.2</ele>
        <time>2022-07-25T06:56:28Z</time>
      </trkpt>
      <trkpt lat="46.22795" lon="5.37316">
        <ele>315.4</ele>
        <time>2022-07-25T06:56:33Z</time>
      </trkpt>
      <trkpt lat="46.22843" lon="5.37344">
        <ele>315.2</ele>
        <time>2022-07-25T06:56:40Z</time>
      </trkpt>
      <trkpt lat="46.22881" lon="5.37367">
        <ele>314.6</ele>
        <time>2022-07-25T06:56:45Z</time>
      </trkpt>
      <trkpt lat="46.22927" lon="5.37394">
        <ele>314</ele>
        <time>2022-07-25T06:56:52Z</time>
      </trkpt>
      <trkpt lat="46.22976" lon="5.37423">
        <ele>314</ele>
        <time>2022-07-25T06:57:00Z</time>
      </trkpt>
      <trkpt lat="46.23017" lon="5.37447">
        <ele>315.4</ele>
        <time>2022-07-25T06:57:07Z</time>
      </trkpt>
      <trkpt lat="46.23051" lon="5.37467">
        <ele>315.4</ele>
        <time>2022-07-25T06:57:12Z</time>
      </trkpt>
      <trkpt lat="46.23106" lon="5.37501">
        <ele>314.8</ele>
        <time>2022-07-25T06:57:19Z</time>
      </trkpt>
      <trkpt lat="46.23159" lon="5.37532">
        <ele>314</ele>
        <time>2022-07-25T06:57:26Z</time>
      </trkpt>
      <trkpt lat="46.23166" lon="5.37537">
        <ele>314.2</ele>
        <time>2022-07-25T06:57:27Z</time>
      </trkpt>
      <trkpt lat="46.23217" lon="5.37567">
        <ele>314.4</ele>
        <time>2022-07-25T06:57:34Z</time>
      </trkpt>
      <trkpt lat="46.23224" lon="5.37571">
        <ele>314.6</ele>
        <time>2022-07-25T06:57:35Z</time>
      </trkpt>
      <trkpt lat="46.23278" lon="5.37605">
        <ele>314.8</ele>
        <time>2022-07-25T06:57:43Z</time>
      </trkpt>
      <trkpt lat="46.23284" lon="5.37608">
        <ele>314.8</ele>
        <time>2022-07-25T06:57:44Z</time>
      </trkpt>
      <trkpt lat="46.23324" lon="5.37633">
        <ele>315.6</ele>
        <time>2022-07-25T06:57:51Z</time>
      </trkpt>
      <trkpt lat="46.2333" lon="5.37636">
        <ele>315.6</ele>
        <time>2022-07-25T06:57:52Z</time>
      </trkpt>
      <trkpt lat="46.23379" lon="5.37664">
        <ele>315.8</ele>
        <time>2022-07-25T06:58:00Z</time>
      </trkpt>
      <trkpt lat="46.23431" lon="5.37696">
        <ele>315.2</ele>
        <time>2022-07-25T06:58:07Z</time>
      </trkpt>
      <trkpt lat="46.23439" lon="5.377">
        <ele>315</ele>
        <time>2022-07-25T06:58:08Z</time>
      </trkpt>
      <trkpt lat="46.23489" lon="5.37731">
        <ele>314.8</ele>
        <time>2022-07-25T06:58:15Z</time>
      </trkpt>
      <trkpt lat="46.23502" lon="5.37738">
        <ele>315</ele>
        <time>2022-07-25T06:58:17Z</time>
      </trkpt>
      <trkpt lat="46.23543" lon="5.37762">
        <ele>315.4</ele>
        <time>2022-07-25T06:58:24Z</time>
      </trkpt>
      <trkpt lat="46.23582" lon="5.37785">
        <ele>316</ele>
        <time>2022-07-25T06:58:30Z</time>
      </trkpt>
      <trkpt lat="46.23636" lon="5.37817">
        <ele>315.8</ele>
        <time>2022-07-25T06:58:38Z</time>
      </trkpt>
      <trkpt lat="46.23672" lon="5.37838">
        <ele>316.4</ele>
        <time>2022-07-25T06:58:44Z</time>
      </trkpt>
      <trkpt lat="46.23676" lon="5.3784">
        <ele>316.8</ele>
        <time>2022-07-25T06:58:45Z</time>
      </trkpt>
      <trkpt lat="46.23712" lon="5.37861">
        <ele>317</ele>
        <time>2022-07-25T06:58:51Z</time>
      </trkpt>
      <trkpt lat="46.23761" lon="5.37892">
        <ele>317</ele>
        <time>2022-07-25T06:58:59Z</time>
      </trkpt>
      <trkpt lat="46.23813" lon="5.37922">
        <ele>317.6</ele>
        <time>2022-07-25T06:59:08Z</time>
      </trkpt>
      <trkpt lat="46.23818" lon="5.37926">
        <ele>317.8</ele>
        <time>2022-07-25T06:59:09Z</time>
      </trkpt>
      <trkpt lat="46.23857" lon="5.37951">
        <ele>318.6</ele>
        <time>2022-07-25T06:59:16Z</time>
      </trkpt>
      <trkpt lat="46.23869" lon="5.37957">
        <ele>318.8</ele>
        <time>2022-07-25T06:59:18Z</time>
      </trkpt>
      <trkpt lat="46.23914" lon="5.37985">
        <ele>319.2</ele>
        <time>2022-07-25T06:59:26Z</time>
      </trkpt>
      <trkpt lat="46.23962" lon="5.38015">
        <ele>319.6</ele>
        <time>2022-07-25T06:59:34Z</time>
      </trkpt>
      <trkpt lat="46.23975" lon="5.38022">
        <ele>319.6</ele>
        <time>2022-07-25T06:59:36Z</time>
      </trkpt>
      <trkpt lat="46.2402" lon="5.38048">
        <ele>319.6</ele>
        <time>2022-07-25T06:59:43Z</time>
      </trkpt>
      <trkpt lat="46.24051" lon="5.38066">
        <ele>319.6</ele>
        <time>2022-07-25T06:59:48Z</time>
      </trkpt>
      <trkpt lat="46.24062" lon="5.38072">
        <ele>319.6</ele>
        <time>2022-07-25T06:59:50Z</time>
      </trkpt>
      <trkpt lat="46.241" lon="5.38096">
        <ele>320.8</ele>
        <time>2022-07-25T06:59:57Z</time>
      </trkpt>
      <trkpt lat="46.24139" lon="5.38118">
        <ele>322</ele>
        <time>2022-07-25T07:00:04Z</time>
      </trkpt>
      <trkpt lat="46.24162" lon="5.38132">
        <ele>322.6</ele>
        <time>2022-07-25T07:00:08Z</time>
      </trkpt>
      <trkpt lat="46.24187" lon="5.38147">
        <ele>323.2</ele>
        <time>2022-07-25T07:00:13Z</time>
      </trkpt>
      <trkpt lat="46.24203" lon="5.38157">
        <ele>323.6</ele>
        <time>2022-07-25T07:00:16Z</time>
      </trkpt>
      <trkpt lat="46.24224" lon="5.3817">
        <ele>324.2</ele>
        <time>2022-07-25T07:00:20Z</time>
      </trkpt>
      <trkpt lat="46.24254" lon="5.38187">
        <ele>324.8</ele>
        <time>2022-07-25T07:00:26Z</time>
      </trkpt>
      <trkpt lat="46.24274" lon="5.38199">
        <ele>325.4</ele>
        <time>2022-07-25T07:00:30Z</time>
      </trkpt>
      <trkpt lat="46.24294" lon="5.3821">
        <ele>325.8</ele>
        <time>2022-07-25T07:00:34Z</time>
      </trkpt>
      <trkpt lat="46.24314" lon="5.38221">
        <ele>326.4</ele>
        <time>2022-07-25T07:00:38Z</time>
      </trkpt>
      <trkpt lat="46.24337" lon="5.38237">
        <ele>327</ele>
        <time>2022-07-25T07:00:43Z</time>
      </trkpt>
      <trkpt lat="46.24342" lon="5.3824">
        <ele>327.4</ele>
        <time>2022-07-25T07:00:44Z</time>
      </trkpt>
      <trkpt lat="46.24377" lon="5.38259">
        <ele>328.4</ele>
        <time>2022-07-25T07:00:51Z</time>
      </trkpt>
      <trkpt lat="46.24382" lon="5.38261">
        <ele>328.6</ele>
        <time>2022-07-25T07:00:52Z</time>
      </trkpt>
      <trkpt lat="46.24396" lon="5.38271">
        <ele>329.6</ele>
        <time>2022-07-25T07:00:55Z</time>
      </trkpt>
      <trkpt lat="46.24424" lon="5.38288">
        <ele>330.6</ele>
        <time>2022-07-25T07:01:01Z</time>
      </trkpt>
      <trkpt lat="46.2443" lon="5.38291">
        <ele>330.8</ele>
        <time>2022-07-25T07:01:02Z</time>
      </trkpt>
      <trkpt lat="46.24452" lon="5.38305">
        <ele>332</ele>
        <time>2022-07-25T07:01:07Z</time>
      </trkpt>
      <trkpt lat="46.24469" lon="5.38318">
        <ele>332.8</ele>
        <time>2022-07-25T07:01:11Z</time>
      </trkpt>
      <trkpt lat="46.24474" lon="5.38321">
        <ele>333</ele>
        <time>2022-07-25T07:01:12Z</time>
      </trkpt>
      <trkpt lat="46.24501" lon="5.38348">
        <ele>334</ele>
        <time>2022-07-25T07:01:19Z</time>
      </trkpt>
      <trkpt lat="46.24505" lon="5.38352">
        <ele>334.2</ele>
        <time>2022-07-25T07:01:20Z</time>
      </trkpt>
      <trkpt lat="46.2452" lon="5.38371">
        <ele>335</ele>
        <time>2022-07-25T07:01:24Z</time>
      </trkpt>
      <trkpt lat="46.24533" lon="5.38392">
        <ele>335.6</ele>
        <time>2022-07-25T07:01:28Z</time>
      </trkpt>
      <trkpt lat="46.24539" lon="5.38403">
        <ele>336.2</ele>
        <time>2022-07-25T07:01:30Z</time>
      </trkpt>
      <trkpt lat="46.24553" lon="5.38433">
        <ele>337.2</ele>
        <time>2022-07-25T07:01:35Z</time>
      </trkpt>
      <trkpt lat="46.24555" lon="5.3844">
        <ele>337.4</ele>
        <time>2022-07-25T07:01:36Z</time>
      </trkpt>
      <trkpt lat="46.24569" lon="5.38478">
        <ele>338.4</ele>
        <time>2022-07-25T07:01:42Z</time>
      </trkpt>
      <trkpt lat="46.24573" lon="5.38491">
        <ele>338.8</ele>
        <time>2022-07-25T07:01:44Z</time>
      </trkpt>
      <trkpt lat="46.2458" lon="5.38524">
        <ele>339.6</ele>
        <time>2022-07-25T07:01:49Z</time>
      </trkpt>
      <trkpt lat="46.24584" lon="5.38545">
        <ele>340.6</ele>
        <time>2022-07-25T07:01:52Z</time>
      </trkpt>
      <trkpt lat="46.24584" lon="5.38552">
        <ele>340.6</ele>
        <time>2022-07-25T07:01:53Z</time>
      </trkpt>
      <trkpt lat="46.24588" lon="5.386">
        <ele>341.8</ele>
        <time>2022-07-25T07:02:00Z</time>
      </trkpt>
      <trkpt lat="46.24588" lon="5.38634">
        <ele>343</ele>
        <time>2022-07-25T07:02:05Z</time>
      </trkpt>
      <trkpt lat="46.24588" lon="5.38641">
        <ele>343.2</ele>
        <time>2022-07-25T07:02:06Z</time>
      </trkpt>
      <trkpt lat="46.24588" lon="5.38648">
        <ele>343.4</ele>
        <time>2022-07-25T07:02:07Z</time>
      </trkpt>
      <trkpt lat="46.24588" lon="5.38655">
        <ele>343.8</ele>
        <time>2022-07-25T07:02:08Z</time>
      </trkpt>
      <trkpt lat="46.24587" lon="5.38669">
        <ele>344.2</ele>
        <time>2022-07-25T07:02:10Z</time>
      </trkpt>
      <trkpt lat="46.24587" lon="5.38689">
        <ele>344.8</ele>
        <time>2022-07-25T07:02:13Z</time>
      </trkpt>
      <trkpt lat="46.24588" lon="5.38709">
        <ele>345.4</ele>
        <time>2022-07-25T07:02:16Z</time>
      </trkpt>
      <trkpt lat="46.24592" lon="5.38744">
        <ele>346.4</ele>
        <time>2022-07-25T07:02:21Z</time>
      </trkpt>
      <trkpt lat="46.24593" lon="5.3875">
        <ele>346.6</ele>
        <time>2022-07-25T07:02:22Z</time>
      </trkpt>
      <trkpt lat="46.24601" lon="5.38783">
        <ele>347.6</ele>
        <time>2022-07-25T07:02:27Z</time>
      </trkpt>
      <trkpt lat="46.24604" lon="5.38789">
        <ele>347.8</ele>
        <time>2022-07-25T07:02:28Z</time>
      </trkpt>
      <trkpt lat="46.24613" lon="5.38812">
        <ele>348.4</ele>
        <time>2022-07-25T07:02:32Z</time>
      </trkpt>
      <trkpt lat="46.24616" lon="5.38817">
        <ele>348.8</ele>
        <time>2022-07-25T07:02:33Z</time>
      </trkpt>
      <trkpt lat="46.24622" lon="5.38828">
        <ele>349.2</ele>
        <time>2022-07-25T07:02:35Z</time>
      </trkpt>
      <trkpt lat="46.24632" lon="5.38842">
        <ele>349.6</ele>
        <time>2022-07-25T07:02:37Z</time>
      </trkpt>
      <trkpt lat="46.24632" lon="5.38842">
        <ele>350</ele>
        <time>2022-07-25T07:02:38Z</time>
      </trkpt>
      <trkpt lat="46.24647" lon="5.38858">
        <ele>350.6</ele>
        <time>2022-07-25T07:02:42Z</time>
      </trkpt>
      <trkpt lat="46.24651" lon="5.38862">
        <ele>351</ele>
        <time>2022-07-25T07:02:43Z</time>
      </trkpt>
      <trkpt lat="46.24672" lon="5.38879">
        <ele>352</ele>
        <time>2022-07-25T07:02:48Z</time>
      </trkpt>
      <trkpt lat="46.24679" lon="5.38884">
        <ele>352.4</ele>
        <time>2022-07-25T07:02:50Z</time>
      </trkpt>
      <trkpt lat="46.24701" lon="5.38903">
        <ele>353.2</ele>
        <time>2022-07-25T07:02:54Z</time>
      </trkpt>
      <trkpt lat="46.24718" lon="5.38918">
        <ele>354.2</ele>
        <time>2022-07-25T07:02:59Z</time>
      </trkpt>
      <trkpt lat="46.2473" lon="5.38929">
        <ele>354.4</ele>
        <time>2022-07-25T07:03:01Z</time>
      </trkpt>
      <trkpt lat="46.24749" lon="5.38948">
        <ele>355.2</ele>
        <time>2022-07-25T07:03:06Z</time>
      </trkpt>
      <trkpt lat="46.24753" lon="5.38952">
        <ele>355.6</ele>
        <time>2022-07-25T07:03:08Z</time>
      </trkpt>
      <trkpt lat="46.24763" lon="5.38966">
        <ele>356.2</ele>
        <time>2022-07-25T07:03:11Z</time>
      </trkpt>
      <trkpt lat="46.24781" lon="5.38998">
        <ele>357</ele>
        <time>2022-07-25T07:03:17Z</time>
      </trkpt>
      <trkpt lat="46.24784" lon="5.39003">
        <ele>357.4</ele>
        <time>2022-07-25T07:03:18Z</time>
      </trkpt>
      <trkpt lat="46.24799" lon="5.39039">
        <ele>358.8</ele>
        <time>2022-07-25T07:03:23Z</time>
      </trkpt>
      <trkpt lat="46.24809" lon="5.39064">
        <ele>359.4</ele>
        <time>2022-07-25T07:03:28Z</time>
      </trkpt>
      <trkpt lat="46.24814" lon="5.39076">
        <ele>359.6</ele>
        <time>2022-07-25T07:03:29Z</time>
      </trkpt>
      <trkpt lat="46.24842" lon="5.39144">
        <ele>360.6</ele>
        <time>2022-07-25T07:03:40Z</time>
      </trkpt>
      <trkpt lat="46.24842" lon="5.39144">
        <ele>360.6</ele>
        <time>2022-07-25T07:03:41Z</time>
      </trkpt>
      <trkpt lat="46.24847" lon="5.39157">
        <ele>360.6</ele>
        <time>2022-07-25T07:03:42Z</time>
      </trkpt>
      <trkpt lat="46.24854" lon="5.39175">
        <ele>360.6</ele>
        <time>2022-07-25T07:03:45Z</time>
      </trkpt>
      <trkpt lat="46.24856" lon="5.39179">
        <ele>360.6</ele>
        <time>2022-07-25T07:03:46Z</time>
      </trkpt>
      <trkpt lat="46.24857" lon="5.39182">
        <ele>360.6</ele>
        <time>2022-07-25T07:03:49Z</time>
      </trkpt>
      <trkpt lat="46.24857" lon="5.39182">
        <ele>360.6</ele>
        <time>2022-07-25T07:03:50Z</time>
      </trkpt>
      <trkpt lat="46.24861" lon="5.39187">
        <ele>360.2</ele>
        <time>2022-07-25T07:04:01Z</time>
      </trkpt>
      <trkpt lat="46.24864" lon="5.39194">
        <ele>360.2</ele>
        <time>2022-07-25T07:04:03Z</time>
      </trkpt>
      <trkpt lat="46.24871" lon="5.39213">
        <ele>360.2</ele>
        <time>2022-07-25T07:04:07Z</time>
      </trkpt>
      <trkpt lat="46.24886" lon="5.39248">
        <ele>360</ele>
        <time>2022-07-25T07:04:11Z</time>
      </trkpt>
      <trkpt lat="46.24896" lon="5.39272">
        <ele>359.8</ele>
        <time>2022-07-25T07:04:14Z</time>
      </trkpt>
      <trkpt lat="46.24911" lon="5.3932">
        <ele>359.8</ele>
        <time>2022-07-25T07:04:19Z</time>
      </trkpt>
      <trkpt lat="46.2492" lon="5.39356">
        <ele>359.4</ele>
        <time>2022-07-25T07:04:22Z</time>
      </trkpt>
      <trkpt lat="46.24923" lon="5.39369">
        <ele>359.2</ele>
        <time>2022-07-25T07:04:23Z</time>
      </trkpt>
      <trkpt lat="46.2493" lon="5.39422">
        <ele>357.8</ele>
        <time>2022-07-25T07:04:27Z</time>
      </trkpt>
      <trkpt lat="46.24933" lon="5.3945">
        <ele>357</ele>
        <time>2022-07-25T07:04:29Z</time>
      </trkpt>
      <trkpt lat="46.24934" lon="5.39464">
        <ele>356.6</ele>
        <time>2022-07-25T07:04:30Z</time>
      </trkpt>
      <trkpt lat="46.24941" lon="5.39522">
        <ele>355.2</ele>
        <time>2022-07-25T07:04:34Z</time>
      </trkpt>
      <trkpt lat="46.24942" lon="5.39536">
        <ele>354.6</ele>
        <time>2022-07-25T07:04:35Z</time>
      </trkpt>
      <trkpt lat="46.24945" lon="5.39566">
        <ele>354</ele>
        <time>2022-07-25T07:04:37Z</time>
      </trkpt>
      <trkpt lat="46.24949" lon="5.3961">
        <ele>353</ele>
        <time>2022-07-25T07:04:40Z</time>
      </trkpt>
      <trkpt lat="46.24952" lon="5.39639">
        <ele>352.2</ele>
        <time>2022-07-25T07:04:42Z</time>
      </trkpt>
      <trkpt lat="46.24954" lon="5.39653">
        <ele>352</ele>
        <time>2022-07-25T07:04:43Z</time>
      </trkpt>
      <trkpt lat="46.24957" lon="5.39683">
        <ele>350.8</ele>
        <time>2022-07-25T07:04:45Z</time>
      </trkpt>
      <trkpt lat="46.24961" lon="5.39726">
        <ele>349.2</ele>
        <time>2022-07-25T07:04:48Z</time>
      </trkpt>
      <trkpt lat="46.24966" lon="5.39769">
        <ele>348</ele>
        <time>2022-07-25T07:04:51Z</time>
      </trkpt>
      <trkpt lat="46.24968" lon="5.39783">
        <ele>348</ele>
        <time>2022-07-25T07:04:52Z</time>
      </trkpt>
      <trkpt lat="46.24973" lon="5.39822">
        <ele>346.6</ele>
        <time>2022-07-25T07:04:55Z</time>
      </trkpt>
      <trkpt lat="46.24974" lon="5.39834">
        <ele>346</ele>
        <time>2022-07-25T07:04:56Z</time>
      </trkpt>
      <trkpt lat="46.24972" lon="5.3986">
        <ele>345</ele>
        <time>2022-07-25T07:04:58Z</time>
      </trkpt>
      <trkpt lat="46.24969" lon="5.39886">
        <ele>344.6</ele>
        <time>2022-07-25T07:05:00Z</time>
      </trkpt>
      <trkpt lat="46.24966" lon="5.39912">
        <ele>343.8</ele>
        <time>2022-07-25T07:05:02Z</time>
      </trkpt>
      <trkpt lat="46.2496" lon="5.39941">
        <ele>342.4</ele>
        <time>2022-07-25T07:05:04Z</time>
      </trkpt>
      <trkpt lat="46.24955" lon="5.39954">
        <ele>341.4</ele>
        <time>2022-07-25T07:05:05Z</time>
      </trkpt>
      <trkpt lat="46.24949" lon="5.39966">
        <ele>341.2</ele>
        <time>2022-07-25T07:05:06Z</time>
      </trkpt>
      <trkpt lat="46.24935" lon="5.39989">
        <ele>339.8</ele>
        <time>2022-07-25T07:05:08Z</time>
      </trkpt>
      <trkpt lat="46.24918" lon="5.40029">
        <ele>338.6</ele>
        <time>2022-07-25T07:05:11Z</time>
      </trkpt>
      <trkpt lat="46.24911" lon="5.40042">
        <ele>338</ele>
        <time>2022-07-25T07:05:12Z</time>
      </trkpt>
      <trkpt lat="46.24894" lon="5.40064">
        <ele>336.4</ele>
        <time>2022-07-25T07:05:14Z</time>
      </trkpt>
      <trkpt lat="46.24884" lon="5.40074">
        <ele>335.6</ele>
        <time>2022-07-25T07:05:15Z</time>
      </trkpt>
      <trkpt lat="46.24874" lon="5.40084">
        <ele>334.6</ele>
        <time>2022-07-25T07:05:16Z</time>
      </trkpt>
      <trkpt lat="46.24855" lon="5.401">
        <ele>333.2</ele>
        <time>2022-07-25T07:05:18Z</time>
      </trkpt>
      <trkpt lat="46.24842" lon="5.4011">
        <ele>332.4</ele>
        <time>2022-07-25T07:05:19Z</time>
      </trkpt>
      <trkpt lat="46.24831" lon="5.40117">
        <ele>332.2</ele>
        <time>2022-07-25T07:05:20Z</time>
      </trkpt>
      <trkpt lat="46.2482" lon="5.40124">
        <ele>331.2</ele>
        <time>2022-07-25T07:05:21Z</time>
      </trkpt>
      <trkpt lat="46.24798" lon="5.40141">
        <ele>330.4</ele>
        <time>2022-07-25T07:05:23Z</time>
      </trkpt>
      <trkpt lat="46.24788" lon="5.40152">
        <ele>329.8</ele>
        <time>2022-07-25T07:05:24Z</time>
      </trkpt>
      <trkpt lat="46.24769" lon="5.40177">
        <ele>328</ele>
        <time>2022-07-25T07:05:26Z</time>
      </trkpt>
      <trkpt lat="46.24749" lon="5.402">
        <ele>326.6</ele>
        <time>2022-07-25T07:05:28Z</time>
      </trkpt>
      <trkpt lat="46.24738" lon="5.40209">
        <ele>326</ele>
        <time>2022-07-25T07:05:29Z</time>
      </trkpt>
      <trkpt lat="46.24727" lon="5.40218">
        <ele>325</ele>
        <time>2022-07-25T07:05:30Z</time>
      </trkpt>
      <trkpt lat="46.24704" lon="5.40235">
        <ele>323.6</ele>
        <time>2022-07-25T07:05:32Z</time>
      </trkpt>
      <trkpt lat="46.24693" lon="5.40244">
        <ele>322.4</ele>
        <time>2022-07-25T07:05:33Z</time>
      </trkpt>
      <trkpt lat="46.24683" lon="5.40254">
        <ele>322.2</ele>
        <time>2022-07-25T07:05:34Z</time>
      </trkpt>
      <trkpt lat="46.24674" lon="5.40269">
        <ele>321.2</ele>
        <time>2022-07-25T07:05:35Z</time>
      </trkpt>
      <trkpt lat="46.24668" lon="5.40283">
        <ele>320.6</ele>
        <time>2022-07-25T07:05:36Z</time>
      </trkpt>
      <trkpt lat="46.2466" lon="5.40304">
        <ele>320</ele>
        <time>2022-07-25T07:05:37Z</time>
      </trkpt>
      <trkpt lat="46.24653" lon="5.4032">
        <ele>318.4</ele>
        <time>2022-07-25T07:05:38Z</time>
      </trkpt>
      <trkpt lat="46.24641" lon="5.40351">
        <ele>316</ele>
        <time>2022-07-25T07:05:40Z</time>
      </trkpt>
      <trkpt lat="46.24628" lon="5.40384">
        <ele>314.2</ele>
        <time>2022-07-25T07:05:42Z</time>
      </trkpt>
      <trkpt lat="46.24616" lon="5.40414">
        <ele>312.8</ele>
        <time>2022-07-25T07:05:44Z</time>
      </trkpt>
      <trkpt lat="46.24605" lon="5.40443">
        <ele>311.4</ele>
        <time>2022-07-25T07:05:46Z</time>
      </trkpt>
      <trkpt lat="46.246" lon="5.40457">
        <ele>310.2</ele>
        <time>2022-07-25T07:05:47Z</time>
      </trkpt>
      <trkpt lat="46.24594" lon="5.40469">
        <ele>309.6</ele>
        <time>2022-07-25T07:05:48Z</time>
      </trkpt>
      <trkpt lat="46.24588" lon="5.40481">
        <ele>309</ele>
        <time>2022-07-25T07:05:49Z</time>
      </trkpt>
      <trkpt lat="46.24574" lon="5.405">
        <ele>308</ele>
        <time>2022-07-25T07:05:51Z</time>
      </trkpt>
      <trkpt lat="46.24557" lon="5.40515">
        <ele>307</ele>
        <time>2022-07-25T07:05:53Z</time>
      </trkpt>
      <trkpt lat="46.24549" lon="5.40521">
        <ele>306</ele>
        <time>2022-07-25T07:05:54Z</time>
      </trkpt>
      <trkpt lat="46.24541" lon="5.40526">
        <ele>305.6</ele>
        <time>2022-07-25T07:05:55Z</time>
      </trkpt>
      <trkpt lat="46.24531" lon="5.40533">
        <ele>304.8</ele>
        <time>2022-07-25T07:05:56Z</time>
      </trkpt>
      <trkpt lat="46.24488" lon="5.40561">
        <ele>303.6</ele>
        <time>2022-07-25T07:06:01Z</time>
      </trkpt>
      <trkpt lat="46.24452" lon="5.40595">
        <ele>302.6</ele>
        <time>2022-07-25T07:06:06Z</time>
      </trkpt>
      <trkpt lat="46.24431" lon="5.40618">
        <ele>302.4</ele>
        <time>2022-07-25T07:06:09Z</time>
      </trkpt>
      <trkpt lat="46.24414" lon="5.40631">
        <ele>302.2</ele>
        <time>2022-07-25T07:06:11Z</time>
      </trkpt>
      <trkpt lat="46.24372" lon="5.40654">
        <ele>301.6</ele>
        <time>2022-07-25T07:06:16Z</time>
      </trkpt>
      <trkpt lat="46.24355" lon="5.40664">
        <ele>301</ele>
        <time>2022-07-25T07:06:18Z</time>
      </trkpt>
      <trkpt lat="46.24338" lon="5.40674">
        <ele>300</ele>
        <time>2022-07-25T07:06:20Z</time>
      </trkpt>
      <trkpt lat="46.24293" lon="5.40707">
        <ele>299.2</ele>
        <time>2022-07-25T07:06:26Z</time>
      </trkpt>
      <trkpt lat="46.24277" lon="5.40718">
        <ele>299</ele>
        <time>2022-07-25T07:06:28Z</time>
      </trkpt>
      <trkpt lat="46.24226" lon="5.4075">
        <ele>298.4</ele>
        <time>2022-07-25T07:06:35Z</time>
      </trkpt>
      <trkpt lat="46.24185" lon="5.40779">
        <ele>298</ele>
        <time>2022-07-25T07:06:41Z</time>
      </trkpt>
      <trkpt lat="46.2416" lon="5.40802">
        <ele>297.6</ele>
        <time>2022-07-25T07:06:45Z</time>
      </trkpt>
      <trkpt lat="46.24136" lon="5.40825">
        <ele>297.6</ele>
        <time>2022-07-25T07:06:49Z</time>
      </trkpt>
      <trkpt lat="46.24122" lon="5.40833">
        <ele>297.6</ele>
        <time>2022-07-25T07:06:51Z</time>
      </trkpt>
      <trkpt lat="46.24088" lon="5.40845">
        <ele>297.6</ele>
        <time>2022-07-25T07:06:56Z</time>
      </trkpt>
      <trkpt lat="46.24056" lon="5.40869">
        <ele>297.4</ele>
        <time>2022-07-25T07:07:01Z</time>
      </trkpt>
      <trkpt lat="46.2401" lon="5.40918">
        <ele>297.2</ele>
        <time>2022-07-25T07:07:09Z</time>
      </trkpt>
      <trkpt lat="46.23962" lon="5.40961">
        <ele>297.2</ele>
        <time>2022-07-25T07:07:17Z</time>
      </trkpt>
      <trkpt lat="46.23939" lon="5.4099">
        <ele>297.4</ele>
        <time>2022-07-25T07:07:22Z</time>
      </trkpt>
      <trkpt lat="46.23915" lon="5.41024">
        <ele>297.8</ele>
        <time>2022-07-25T07:07:28Z</time>
      </trkpt>
      <trkpt lat="46.23888" lon="5.41057">
        <ele>298.6</ele>
        <time>2022-07-25T07:07:34Z</time>
      </trkpt>
      <trkpt lat="46.23875" lon="5.41071">
        <ele>299</ele>
        <time>2022-07-25T07:07:37Z</time>
      </trkpt>
      <trkpt lat="46.23853" lon="5.41095">
        <ele>300</ele>
        <time>2022-07-25T07:07:42Z</time>
      </trkpt>
      <trkpt lat="46.23848" lon="5.41099">
        <ele>300.2</ele>
        <time>2022-07-25T07:07:43Z</time>
      </trkpt>
      <trkpt lat="46.23843" lon="5.41104">
        <ele>300.4</ele>
        <time>2022-07-25T07:07:44Z</time>
      </trkpt>
      <trkpt lat="46.23818" lon="5.41123">
        <ele>301.2</ele>
        <time>2022-07-25T07:07:49Z</time>
      </trkpt>
      <trkpt lat="46.23808" lon="5.41129">
        <ele>301.4</ele>
        <time>2022-07-25T07:07:51Z</time>
      </trkpt>
      <trkpt lat="46.23777" lon="5.41149">
        <ele>301.6</ele>
        <time>2022-07-25T07:07:57Z</time>
      </trkpt>
      <trkpt lat="46.23773" lon="5.41153">
        <ele>301.6</ele>
        <time>2022-07-25T07:07:58Z</time>
      </trkpt>
      <trkpt lat="46.23751" lon="5.41186">
        <ele>302.2</ele>
        <time>2022-07-25T07:08:04Z</time>
      </trkpt>
      <trkpt lat="46.23735" lon="5.41209">
        <ele>302.4</ele>
        <time>2022-07-25T07:08:08Z</time>
      </trkpt>
      <trkpt lat="46.23724" lon="5.41216">
        <ele>302.4</ele>
        <time>2022-07-25T07:08:10Z</time>
      </trkpt>
      <trkpt lat="46.23692" lon="5.41221">
        <ele>302.4</ele>
        <time>2022-07-25T07:08:15Z</time>
      </trkpt>
      <trkpt lat="46.23681" lon="5.4123">
        <ele>302.2</ele>
        <time>2022-07-25T07:08:17Z</time>
      </trkpt>
      <trkpt lat="46.23676" lon="5.41237">
        <ele>302</ele>
        <time>2022-07-25T07:08:18Z</time>
      </trkpt>
      <trkpt lat="46.23673" lon="5.41246">
        <ele>302</ele>
        <time>2022-07-25T07:08:19Z</time>
      </trkpt>
      <trkpt lat="46.23667" lon="5.41263">
        <ele>301.8</ele>
        <time>2022-07-25T07:08:21Z</time>
      </trkpt>
      <trkpt lat="46.23664" lon="5.41273">
        <ele>301.6</ele>
        <time>2022-07-25T07:08:22Z</time>
      </trkpt>
      <trkpt lat="46.23661" lon="5.41309">
        <ele>301.4</ele>
        <time>2022-07-25T07:08:26Z</time>
      </trkpt>
      <trkpt lat="46.23661" lon="5.41318">
        <ele>301.4</ele>
        <time>2022-07-25T07:08:27Z</time>
      </trkpt>
      <trkpt lat="46.2366" lon="5.41368">
        <ele>302</ele>
        <time>2022-07-25T07:08:33Z</time>
      </trkpt>
      <trkpt lat="46.23656" lon="5.41405">
        <ele>303</ele>
        <time>2022-07-25T07:08:38Z</time>
      </trkpt>
      <trkpt lat="46.23654" lon="5.41412">
        <ele>303.4</ele>
        <time>2022-07-25T07:08:39Z</time>
      </trkpt>
      <trkpt lat="46.23649" lon="5.41425">
        <ele>304</ele>
        <time>2022-07-25T07:08:41Z</time>
      </trkpt>
      <trkpt lat="46.23646" lon="5.4143">
        <ele>304.2</ele>
        <time>2022-07-25T07:08:42Z</time>
      </trkpt>
      <trkpt lat="46.23642" lon="5.41434">
        <ele>304.4</ele>
        <time>2022-07-25T07:08:43Z</time>
      </trkpt>
      <trkpt lat="46.23638" lon="5.41439">
        <ele>304.6</ele>
        <time>2022-07-25T07:08:44Z</time>
      </trkpt>
      <trkpt lat="46.23633" lon="5.41443">
        <ele>304.8</ele>
        <time>2022-07-25T07:08:45Z</time>
      </trkpt>
      <trkpt lat="46.23626" lon="5.41455">
        <ele>305.4</ele>
        <time>2022-07-25T07:08:47Z</time>
      </trkpt>
      <trkpt lat="46.23623" lon="5.41461">
        <ele>305.6</ele>
        <time>2022-07-25T07:08:48Z</time>
      </trkpt>
      <trkpt lat="46.2362" lon="5.41475">
        <ele>305.6</ele>
        <time>2022-07-25T07:08:50Z</time>
      </trkpt>
      <trkpt lat="46.23619" lon="5.41482">
        <ele>306</ele>
        <time>2022-07-25T07:08:51Z</time>
      </trkpt>
      <trkpt lat="46.23617" lon="5.41503">
        <ele>306.2</ele>
        <time>2022-07-25T07:08:54Z</time>
      </trkpt>
      <trkpt lat="46.23615" lon="5.41516">
        <ele>306.6</ele>
        <time>2022-07-25T07:08:56Z</time>
      </trkpt>
      <trkpt lat="46.23614" lon="5.41522">
        <ele>306.6</ele>
        <time>2022-07-25T07:08:57Z</time>
      </trkpt>
      <trkpt lat="46.23612" lon="5.41534">
        <ele>307.2</ele>
        <time>2022-07-25T07:08:59Z</time>
      </trkpt>
      <trkpt lat="46.23608" lon="5.41544">
        <ele>307.6</ele>
        <time>2022-07-25T07:09:01Z</time>
      </trkpt>
      <trkpt lat="46.23605" lon="5.41547">
        <ele>307.6</ele>
        <time>2022-07-25T07:09:02Z</time>
      </trkpt>
      <trkpt lat="46.23601" lon="5.41549">
        <ele>308.2</ele>
        <time>2022-07-25T07:09:03Z</time>
      </trkpt>
      <trkpt lat="46.23596" lon="5.41551">
        <ele>308.2</ele>
        <time>2022-07-25T07:09:04Z</time>
      </trkpt>
      <trkpt lat="46.23591" lon="5.41551">
        <ele>308.2</ele>
        <time>2022-07-25T07:09:05Z</time>
      </trkpt>
      <trkpt lat="46.23568" lon="5.41551">
        <ele>308.6</ele>
        <time>2022-07-25T07:09:09Z</time>
      </trkpt>
      <trkpt lat="46.23563" lon="5.41552">
        <ele>308.6</ele>
        <time>2022-07-25T07:09:10Z</time>
      </trkpt>
      <trkpt lat="46.23557" lon="5.41554">
        <ele>308.6</ele>
        <time>2022-07-25T07:09:11Z</time>
      </trkpt>
      <trkpt lat="46.23553" lon="5.41559">
        <ele>308.8</ele>
        <time>2022-07-25T07:09:12Z</time>
      </trkpt>
      <trkpt lat="46.23546" lon="5.41571">
        <ele>308.8</ele>
        <time>2022-07-25T07:09:14Z</time>
      </trkpt>
      <trkpt lat="46.23543" lon="5.41583">
        <ele>308.8</ele>
        <time>2022-07-25T07:09:16Z</time>
      </trkpt>
      <trkpt lat="46.23541" lon="5.41589">
        <ele>308.8</ele>
        <time>2022-07-25T07:09:17Z</time>
      </trkpt>
      <trkpt lat="46.23535" lon="5.41597">
        <ele>308.8</ele>
        <time>2022-07-25T07:09:19Z</time>
      </trkpt>
      <trkpt lat="46.23531" lon="5.41601">
        <ele>309.2</ele>
        <time>2022-07-25T07:09:20Z</time>
      </trkpt>
      <trkpt lat="46.23527" lon="5.41604">
        <ele>309.4</ele>
        <time>2022-07-25T07:09:21Z</time>
      </trkpt>
      <trkpt lat="46.23522" lon="5.41607">
        <ele>309.8</ele>
        <time>2022-07-25T07:09:22Z</time>
      </trkpt>
      <trkpt lat="46.23517" lon="5.41609">
        <ele>309.8</ele>
        <time>2022-07-25T07:09:23Z</time>
      </trkpt>
      <trkpt lat="46.23511" lon="5.41611">
        <ele>310.2</ele>
        <time>2022-07-25T07:09:24Z</time>
      </trkpt>
      <trkpt lat="46.23488" lon="5.41613">
        <ele>310.6</ele>
        <time>2022-07-25T07:09:28Z</time>
      </trkpt>
      <trkpt lat="46.2347" lon="5.41613">
        <ele>311</ele>
        <time>2022-07-25T07:09:31Z</time>
      </trkpt>
      <trkpt lat="46.23435" lon="5.41613">
        <ele>311</ele>
        <time>2022-07-25T07:09:36Z</time>
      </trkpt>
      <trkpt lat="46.23428" lon="5.41614">
        <ele>310.8</ele>
        <time>2022-07-25T07:09:37Z</time>
      </trkpt>
      <trkpt lat="46.23405" lon="5.41618">
        <ele>310.4</ele>
        <time>2022-07-25T07:09:40Z</time>
      </trkpt>
      <trkpt lat="46.2338" lon="5.41624">
        <ele>309.4</ele>
        <time>2022-07-25T07:09:43Z</time>
      </trkpt>
      <trkpt lat="46.23365" lon="5.41628">
        <ele>309</ele>
        <time>2022-07-25T07:09:45Z</time>
      </trkpt>
      <trkpt lat="46.2335" lon="5.41635">
        <ele>308.4</ele>
        <time>2022-07-25T07:09:47Z</time>
      </trkpt>
      <trkpt lat="46.23343" lon="5.41641">
        <ele>308.2</ele>
        <time>2022-07-25T07:09:48Z</time>
      </trkpt>
      <trkpt lat="46.23337" lon="5.41647">
        <ele>308</ele>
        <time>2022-07-25T07:09:49Z</time>
      </trkpt>
      <trkpt lat="46.2331" lon="5.41679">
        <ele>307</ele>
        <time>2022-07-25T07:09:54Z</time>
      </trkpt>
      <trkpt lat="46.23299" lon="5.41693">
        <ele>306.8</ele>
        <time>2022-07-25T07:09:56Z</time>
      </trkpt>
      <trkpt lat="46.23264" lon="5.41731">
        <ele>306.6</ele>
        <time>2022-07-25T07:10:03Z</time>
      </trkpt>
      <trkpt lat="46.23245" lon="5.41753">
        <ele>306.6</ele>
        <time>2022-07-25T07:10:07Z</time>
      </trkpt>
      <trkpt lat="46.23233" lon="5.4176">
        <ele>306.4</ele>
        <time>2022-07-25T07:10:09Z</time>
      </trkpt>
      <trkpt lat="46.23192" lon="5.4177">
        <ele>305.8</ele>
        <time>2022-07-25T07:10:15Z</time>
      </trkpt>
      <trkpt lat="46.23156" lon="5.41773">
        <ele>304.4</ele>
        <time>2022-07-25T07:10:20Z</time>
      </trkpt>
      <trkpt lat="46.23142" lon="5.41774">
        <ele>304.2</ele>
        <time>2022-07-25T07:10:22Z</time>
      </trkpt>
      <trkpt lat="46.2309" lon="5.41778">
        <ele>303.4</ele>
        <time>2022-07-25T07:10:29Z</time>
      </trkpt>
      <trkpt lat="46.23067" lon="5.41781">
        <ele>303</ele>
        <time>2022-07-25T07:10:32Z</time>
      </trkpt>
      <trkpt lat="46.23045" lon="5.41785">
        <ele>302.4</ele>
        <time>2022-07-25T07:10:35Z</time>
      </trkpt>
      <trkpt lat="46.23016" lon="5.41793">
        <ele>301.6</ele>
        <time>2022-07-25T07:10:39Z</time>
      </trkpt>
      <trkpt lat="46.22995" lon="5.418">
        <ele>301.4</ele>
        <time>2022-07-25T07:10:42Z</time>
      </trkpt>
      <trkpt lat="46.22968" lon="5.41809">
        <ele>300.6</ele>
        <time>2022-07-25T07:10:46Z</time>
      </trkpt>
      <trkpt lat="46.22953" lon="5.41816">
        <ele>300.4</ele>
        <time>2022-07-25T07:10:49Z</time>
      </trkpt>
      <trkpt lat="46.2295" lon="5.4182">
        <ele>300.4</ele>
        <time>2022-07-25T07:10:50Z</time>
      </trkpt>
      <trkpt lat="46.2295" lon="5.41824">
        <ele>300.2</ele>
        <time>2022-07-25T07:10:51Z</time>
      </trkpt>
      <trkpt lat="46.22952" lon="5.41834">
        <ele>300</ele>
        <time>2022-07-25T07:10:53Z</time>
      </trkpt>
      <trkpt lat="46.22955" lon="5.41839">
        <ele>300</ele>
        <time>2022-07-25T07:10:54Z</time>
      </trkpt>
      <trkpt lat="46.22965" lon="5.41848">
        <ele>299.8</ele>
        <time>2022-07-25T07:10:56Z</time>
      </trkpt>
      <trkpt lat="46.22996" lon="5.41872">
        <ele>299.6</ele>
        <time>2022-07-25T07:11:01Z</time>
      </trkpt>
      <trkpt lat="46.23049" lon="5.41909">
        <ele>299.6</ele>
        <time>2022-07-25T07:11:09Z</time>
      </trkpt>
      <trkpt lat="46.23102" lon="5.41943">
        <ele>299.6</ele>
        <time>2022-07-25T07:11:17Z</time>
      </trkpt>
      <trkpt lat="46.2315" lon="5.41972">
        <ele>299.8</ele>
        <time>2022-07-25T07:11:25Z</time>
      </trkpt>
      <trkpt lat="46.23205" lon="5.42004">
        <ele>300.8</ele>
        <time>2022-07-25T07:11:34Z</time>
      </trkpt>
      <trkpt lat="46.23251" lon="5.42034">
        <ele>301.4</ele>
        <time>2022-07-25T07:11:42Z</time>
      </trkpt>
      <trkpt lat="46.23262" lon="5.42043">
        <ele>301.4</ele>
        <time>2022-07-25T07:11:44Z</time>
      </trkpt>
      <trkpt lat="46.23301" lon="5.42084">
        <ele>302</ele>
        <time>2022-07-25T07:11:52Z</time>
      </trkpt>
      <trkpt lat="46.2331" lon="5.42095">
        <ele>302.4</ele>
        <time>2022-07-25T07:11:54Z</time>
      </trkpt>
      <trkpt lat="46.23352" lon="5.4214">
        <ele>302.6</ele>
        <time>2022-07-25T07:12:02Z</time>
      </trkpt>
      <trkpt lat="46.23396" lon="5.42179">
        <ele>302.2</ele>
        <time>2022-07-25T07:12:09Z</time>
      </trkpt>
      <trkpt lat="46.23429" lon="5.42208">
        <ele>300.8</ele>
        <time>2022-07-25T07:12:14Z</time>
      </trkpt>
      <trkpt lat="46.23456" lon="5.4223">
        <ele>300</ele>
        <time>2022-07-25T07:12:18Z</time>
      </trkpt>
      <trkpt lat="46.23492" lon="5.4225">
        <ele>299.6</ele>
        <time>2022-07-25T07:12:23Z</time>
      </trkpt>
      <trkpt lat="46.23499" lon="5.42253">
        <ele>299.6</ele>
        <time>2022-07-25T07:12:24Z</time>
      </trkpt>
      <trkpt lat="46.23559" lon="5.42274">
        <ele>299</ele>
        <time>2022-07-25T07:12:32Z</time>
      </trkpt>
      <trkpt lat="46.23617" lon="5.42298">
        <ele>299.4</ele>
        <time>2022-07-25T07:12:40Z</time>
      </trkpt>
      <trkpt lat="46.23633" lon="5.42305">
        <ele>299.4</ele>
        <time>2022-07-25T07:12:42Z</time>
      </trkpt>
      <trkpt lat="46.23686" lon="5.42327">
        <ele>299</ele>
        <time>2022-07-25T07:12:49Z</time>
      </trkpt>
      <trkpt lat="46.23709" lon="5.42337">
        <ele>298.8</ele>
        <time>2022-07-25T07:12:52Z</time>
      </trkpt>
      <trkpt lat="46.23725" lon="5.42343">
        <ele>298.6</ele>
        <time>2022-07-25T07:12:54Z</time>
      </trkpt>
      <trkpt lat="46.23764" lon="5.42352">
        <ele>297.8</ele>
        <time>2022-07-25T07:12:59Z</time>
      </trkpt>
      <trkpt lat="46.23796" lon="5.42356">
        <ele>297.6</ele>
        <time>2022-07-25T07:13:03Z</time>
      </trkpt>
      <trkpt lat="46.23828" lon="5.42359">
        <ele>297.4</ele>
        <time>2022-07-25T07:13:07Z</time>
      </trkpt>
      <trkpt lat="46.23851" lon="5.42358">
        <ele>297.2</ele>
        <time>2022-07-25T07:13:10Z</time>
      </trkpt>
      <trkpt lat="46.23859" lon="5.42355">
        <ele>297.2</ele>
        <time>2022-07-25T07:13:11Z</time>
      </trkpt>
      <trkpt lat="46.23912" lon="5.42337">
        <ele>296.8</ele>
        <time>2022-07-25T07:13:18Z</time>
      </trkpt>
      <trkpt lat="46.23964" lon="5.42329">
        <ele>296.8</ele>
        <time>2022-07-25T07:13:25Z</time>
      </trkpt>
      <trkpt lat="46.24024" lon="5.42329">
        <ele>297.4</ele>
        <time>2022-07-25T07:13:33Z</time>
      </trkpt>
      <trkpt lat="46.24073" lon="5.42326">
        <ele>298</ele>
        <time>2022-07-25T07:13:40Z</time>
      </trkpt>
      <trkpt lat="46.24093" lon="5.42319">
        <ele>298.4</ele>
        <time>2022-07-25T07:13:43Z</time>
      </trkpt>
      <trkpt lat="46.2412" lon="5.42309">
        <ele>299</ele>
        <time>2022-07-25T07:13:47Z</time>
      </trkpt>
      <trkpt lat="46.24139" lon="5.42302">
        <ele>299.6</ele>
        <time>2022-07-25T07:13:50Z</time>
      </trkpt>
      <trkpt lat="46.24146" lon="5.423">
        <ele>299.6</ele>
        <time>2022-07-25T07:13:51Z</time>
      </trkpt>
      <trkpt lat="46.24159" lon="5.42298">
        <ele>300</ele>
        <time>2022-07-25T07:13:53Z</time>
      </trkpt>
      <trkpt lat="46.24165" lon="5.42299">
        <ele>300</ele>
        <time>2022-07-25T07:13:54Z</time>
      </trkpt>
      <trkpt lat="46.24198" lon="5.42304">
        <ele>300.6</ele>
        <time>2022-07-25T07:13:59Z</time>
      </trkpt>
      <trkpt lat="46.24218" lon="5.42305">
        <ele>301.2</ele>
        <time>2022-07-25T07:14:02Z</time>
      </trkpt>
      <trkpt lat="46.24232" lon="5.42305">
        <ele>301.2</ele>
        <time>2022-07-25T07:14:04Z</time>
      </trkpt>
      <trkpt lat="46.24253" lon="5.42304">
        <ele>301.6</ele>
        <time>2022-07-25T07:14:07Z</time>
      </trkpt>
      <trkpt lat="46.2428" lon="5.42301">
        <ele>301.4</ele>
        <time>2022-07-25T07:14:11Z</time>
      </trkpt>
      <trkpt lat="46.24299" lon="5.42299">
        <ele>301.6</ele>
        <time>2022-07-25T07:14:14Z</time>
      </trkpt>
      <trkpt lat="46.24344" lon="5.42295">
        <ele>302.4</ele>
        <time>2022-07-25T07:14:21Z</time>
      </trkpt>
      <trkpt lat="46.2435" lon="5.42295">
        <ele>302.6</ele>
        <time>2022-07-25T07:14:22Z</time>
      </trkpt>
      <trkpt lat="46.24405" lon="5.42294">
        <ele>303.2</ele>
        <time>2022-07-25T07:14:30Z</time>
      </trkpt>
      <trkpt lat="46.24463" lon="5.42294">
        <ele>302.8</ele>
        <time>2022-07-25T07:14:38Z</time>
      </trkpt>
      <trkpt lat="46.24478" lon="5.42294">
        <ele>302.8</ele>
        <time>2022-07-25T07:14:40Z</time>
      </trkpt>
      <trkpt lat="46.24536" lon="5.42305">
        <ele>301.8</ele>
        <time>2022-07-25T07:14:48Z</time>
      </trkpt>
      <trkpt lat="46.24543" lon="5.42307">
        <ele>301.8</ele>
        <time>2022-07-25T07:14:49Z</time>
      </trkpt>
      <trkpt lat="46.24587" lon="5.42318">
        <ele>301.4</ele>
        <time>2022-07-25T07:14:55Z</time>
      </trkpt>
      <trkpt lat="46.24594" lon="5.4232">
        <ele>301.4</ele>
        <time>2022-07-25T07:14:56Z</time>
      </trkpt>
      <trkpt lat="46.24625" lon="5.42329">
        <ele>301</ele>
        <time>2022-07-25T07:15:01Z</time>
      </trkpt>
      <trkpt lat="46.24636" lon="5.42334">
        <ele>300.8</ele>
        <time>2022-07-25T07:15:03Z</time>
      </trkpt>
      <trkpt lat="46.24647" lon="5.42339">
        <ele>300.8</ele>
        <time>2022-07-25T07:15:05Z</time>
      </trkpt>
      <trkpt lat="46.24681" lon="5.42343">
        <ele>300.6</ele>
        <time>2022-07-25T07:15:10Z</time>
      </trkpt>
      <trkpt lat="46.24735" lon="5.42351">
        <ele>300.6</ele>
        <time>2022-07-25T07:15:17Z</time>
      </trkpt>
      <trkpt lat="46.24796" lon="5.42357">
        <ele>301</ele>
        <time>2022-07-25T07:15:25Z</time>
      </trkpt>
      <trkpt lat="46.24804" lon="5.42358">
        <ele>301</ele>
        <time>2022-07-25T07:15:26Z</time>
      </trkpt>
      <trkpt lat="46.24859" lon="5.42366">
        <ele>301.6</ele>
        <time>2022-07-25T07:15:33Z</time>
      </trkpt>
      <trkpt lat="46.2489" lon="5.4237">
        <ele>301.4</ele>
        <time>2022-07-25T07:15:37Z</time>
      </trkpt>
      <trkpt lat="46.24951" lon="5.42378">
        <ele>301.2</ele>
        <time>2022-07-25T07:15:45Z</time>
      </trkpt>
      <trkpt lat="46.25012" lon="5.42385">
        <ele>301</ele>
        <time>2022-07-25T07:15:53Z</time>
      </trkpt>
      <trkpt lat="46.25027" lon="5.42387">
        <ele>301</ele>
        <time>2022-07-25T07:15:55Z</time>
      </trkpt>
      <trkpt lat="46.25088" lon="5.42394">
        <ele>300.8</ele>
        <time>2022-07-25T07:16:03Z</time>
      </trkpt>
      <trkpt lat="46.25096" lon="5.42395">
        <ele>300.8</ele>
        <time>2022-07-25T07:16:04Z</time>
      </trkpt>
      <trkpt lat="46.25157" lon="5.42401">
        <ele>301</ele>
        <time>2022-07-25T07:16:12Z</time>
      </trkpt>
      <trkpt lat="46.25218" lon="5.42411">
        <ele>301</ele>
        <time>2022-07-25T07:16:20Z</time>
      </trkpt>
      <trkpt lat="46.25279" lon="5.42421">
        <ele>301.4</ele>
        <time>2022-07-25T07:16:28Z</time>
      </trkpt>
      <trkpt lat="46.25286" lon="5.42422">
        <ele>301.4</ele>
        <time>2022-07-25T07:16:29Z</time>
      </trkpt>
      <trkpt lat="46.2534" lon="5.42431">
        <ele>301.4</ele>
        <time>2022-07-25T07:16:36Z</time>
      </trkpt>
      <trkpt lat="46.25377" lon="5.42437">
        <ele>301</ele>
        <time>2022-07-25T07:16:41Z</time>
      </trkpt>
      <trkpt lat="46.25432" lon="5.42445">
        <ele>301</ele>
        <time>2022-07-25T07:16:48Z</time>
      </trkpt>
      <trkpt lat="46.25439" lon="5.42446">
        <ele>300.8</ele>
        <time>2022-07-25T07:16:49Z</time>
      </trkpt>
      <trkpt lat="46.25501" lon="5.42456">
        <ele>301.2</ele>
        <time>2022-07-25T07:16:57Z</time>
      </trkpt>
      <trkpt lat="46.25507" lon="5.42457">
        <ele>301.2</ele>
        <time>2022-07-25T07:16:58Z</time>
      </trkpt>
      <trkpt lat="46.25562" lon="5.42466">
        <ele>301.2</ele>
        <time>2022-07-25T07:17:05Z</time>
      </trkpt>
      <trkpt lat="46.2557" lon="5.42467">
        <ele>301.2</ele>
        <time>2022-07-25T07:17:06Z</time>
      </trkpt>
      <trkpt lat="46.25629" lon="5.42476">
        <ele>301.4</ele>
        <time>2022-07-25T07:17:13Z</time>
      </trkpt>
      <trkpt lat="46.25645" lon="5.42479">
        <ele>301.2</ele>
        <time>2022-07-25T07:17:15Z</time>
      </trkpt>
      <trkpt lat="46.25701" lon="5.42488">
        <ele>301.4</ele>
        <time>2022-07-25T07:17:22Z</time>
      </trkpt>
      <trkpt lat="46.25733" lon="5.42493">
        <ele>301.4</ele>
        <time>2022-07-25T07:17:26Z</time>
      </trkpt>
      <trkpt lat="46.25787" lon="5.42502">
        <ele>301.6</ele>
        <time>2022-07-25T07:17:33Z</time>
      </trkpt>
      <trkpt lat="46.25804" lon="5.42504">
        <ele>301.8</ele>
        <time>2022-07-25T07:17:35Z</time>
      </trkpt>
      <trkpt lat="46.25866" lon="5.42515">
        <ele>301.8</ele>
        <time>2022-07-25T07:17:43Z</time>
      </trkpt>
      <trkpt lat="46.25881" lon="5.42517">
        <ele>302</ele>
        <time>2022-07-25T07:17:45Z</time>
      </trkpt>
      <trkpt lat="46.2592" lon="5.42523">
        <ele>302.2</ele>
        <time>2022-07-25T07:17:50Z</time>
      </trkpt>
      <trkpt lat="46.2595" lon="5.42528">
        <ele>302.4</ele>
        <time>2022-07-25T07:17:54Z</time>
      </trkpt>
      <trkpt lat="46.25965" lon="5.42531">
        <ele>302.4</ele>
        <time>2022-07-25T07:17:56Z</time>
      </trkpt>
      <trkpt lat="46.26021" lon="5.4254">
        <ele>302.4</ele>
        <time>2022-07-25T07:18:03Z</time>
      </trkpt>
      <trkpt lat="46.26069" lon="5.42547">
        <ele>302.4</ele>
        <time>2022-07-25T07:18:09Z</time>
      </trkpt>
      <trkpt lat="46.26124" lon="5.42556">
        <ele>302.2</ele>
        <time>2022-07-25T07:18:16Z</time>
      </trkpt>
      <trkpt lat="46.26133" lon="5.42557">
        <ele>302.2</ele>
        <time>2022-07-25T07:18:17Z</time>
      </trkpt>
      <trkpt lat="46.26189" lon="5.42564">
        <ele>302.4</ele>
        <time>2022-07-25T07:18:24Z</time>
      </trkpt>
      <trkpt lat="46.26195" lon="5.42565">
        <ele>302.4</ele>
        <time>2022-07-25T07:18:25Z</time>
      </trkpt>
      <trkpt lat="46.26257" lon="5.42573">
        <ele>302.8</ele>
        <time>2022-07-25T07:18:33Z</time>
      </trkpt>
      <trkpt lat="46.26263" lon="5.42573">
        <ele>302.8</ele>
        <time>2022-07-25T07:18:34Z</time>
      </trkpt>
      <trkpt lat="46.26318" lon="5.4258">
        <ele>303.2</ele>
        <time>2022-07-25T07:18:41Z</time>
      </trkpt>
      <trkpt lat="46.26325" lon="5.42581">
        <ele>303.2</ele>
        <time>2022-07-25T07:18:42Z</time>
      </trkpt>
      <trkpt lat="46.26355" lon="5.42582">
        <ele>303.6</ele>
        <time>2022-07-25T07:18:46Z</time>
      </trkpt>
      <trkpt lat="46.26406" lon="5.42592">
        <ele>303.8</ele>
        <time>2022-07-25T07:18:53Z</time>
      </trkpt>
      <trkpt lat="46.26453" lon="5.42599">
        <ele>304.2</ele>
        <time>2022-07-25T07:18:59Z</time>
      </trkpt>
      <trkpt lat="46.2649" lon="5.4261">
        <ele>304.4</ele>
        <time>2022-07-25T07:19:04Z</time>
      </trkpt>
      <trkpt lat="46.2653" lon="5.42621">
        <ele>304.4</ele>
        <time>2022-07-25T07:19:10Z</time>
      </trkpt>
      <trkpt lat="46.26567" lon="5.42626">
        <ele>305</ele>
        <time>2022-07-25T07:19:15Z</time>
      </trkpt>
      <trkpt lat="46.26592" lon="5.4263">
        <ele>305.4</ele>
        <time>2022-07-25T07:19:18Z</time>
      </trkpt>
      <trkpt lat="46.2663" lon="5.42641">
        <ele>305.4</ele>
        <time>2022-07-25T07:19:23Z</time>
      </trkpt>
      <trkpt lat="46.26688" lon="5.42656">
        <ele>305.4</ele>
        <time>2022-07-25T07:19:31Z</time>
      </trkpt>
      <trkpt lat="46.26747" lon="5.42671">
        <ele>306</ele>
        <time>2022-07-25T07:19:39Z</time>
      </trkpt>
      <trkpt lat="46.26761" lon="5.42675">
        <ele>306</ele>
        <time>2022-07-25T07:19:41Z</time>
      </trkpt>
      <trkpt lat="46.26814" lon="5.4269">
        <ele>306.2</ele>
        <time>2022-07-25T07:19:48Z</time>
      </trkpt>
      <trkpt lat="46.2687" lon="5.42708">
        <ele>306.2</ele>
        <time>2022-07-25T07:19:56Z</time>
      </trkpt>
      <trkpt lat="46.26904" lon="5.42724">
        <ele>306.8</ele>
        <time>2022-07-25T07:20:01Z</time>
      </trkpt>
      <trkpt lat="46.2691" lon="5.42726">
        <ele>306.8</ele>
        <time>2022-07-25T07:20:02Z</time>
      </trkpt>
      <trkpt lat="46.2696" lon="5.42743">
        <ele>307.8</ele>
        <time>2022-07-25T07:20:09Z</time>
      </trkpt>
      <trkpt lat="46.27003" lon="5.42755">
        <ele>308</ele>
        <time>2022-07-25T07:20:15Z</time>
      </trkpt>
      <trkpt lat="46.27012" lon="5.42757">
        <ele>308</ele>
        <time>2022-07-25T07:20:16Z</time>
      </trkpt>
      <trkpt lat="46.27034" lon="5.42762">
        <ele>308</ele>
        <time>2022-07-25T07:20:19Z</time>
      </trkpt>
      <trkpt lat="46.27086" lon="5.42769">
        <ele>308.8</ele>
        <time>2022-07-25T07:20:27Z</time>
      </trkpt>
      <trkpt lat="46.27122" lon="5.42771">
        <ele>310</ele>
        <time>2022-07-25T07:20:33Z</time>
      </trkpt>
      <trkpt lat="46.27129" lon="5.42772">
        <ele>310.2</ele>
        <time>2022-07-25T07:20:34Z</time>
      </trkpt>
      <trkpt lat="46.27171" lon="5.42787">
        <ele>311</ele>
        <time>2022-07-25T07:20:41Z</time>
      </trkpt>
      <trkpt lat="46.27177" lon="5.4279">
        <ele>311.2</ele>
        <time>2022-07-25T07:20:42Z</time>
      </trkpt>
      <trkpt lat="46.27223" lon="5.42816">
        <ele>311.8</ele>
        <time>2022-07-25T07:20:49Z</time>
      </trkpt>
      <trkpt lat="46.27267" lon="5.42845">
        <ele>311.4</ele>
        <time>2022-07-25T07:20:55Z</time>
      </trkpt>
      <trkpt lat="46.27315" lon="5.42877">
        <ele>310.8</ele>
        <time>2022-07-25T07:21:01Z</time>
      </trkpt>
      <trkpt lat="46.27358" lon="5.42895">
        <ele>309.4</ele>
        <time>2022-07-25T07:21:06Z</time>
      </trkpt>
      <trkpt lat="46.27405" lon="5.42911">
        <ele>308.2</ele>
        <time>2022-07-25T07:21:11Z</time>
      </trkpt>
      <trkpt lat="46.27423" lon="5.42917">
        <ele>308.2</ele>
        <time>2022-07-25T07:21:13Z</time>
      </trkpt>
      <trkpt lat="46.27431" lon="5.4292">
        <ele>308</ele>
        <time>2022-07-25T07:21:14Z</time>
      </trkpt>
      <trkpt lat="46.2749" lon="5.42939">
        <ele>308</ele>
        <time>2022-07-25T07:21:21Z</time>
      </trkpt>
      <trkpt lat="46.27547" lon="5.42957">
        <ele>308</ele>
        <time>2022-07-25T07:21:28Z</time>
      </trkpt>
      <trkpt lat="46.27564" lon="5.42962">
        <ele>308</ele>
        <time>2022-07-25T07:21:30Z</time>
      </trkpt>
      <trkpt lat="46.27623" lon="5.42982">
        <ele>308</ele>
        <time>2022-07-25T07:21:37Z</time>
      </trkpt>
      <trkpt lat="46.27639" lon="5.42987">
        <ele>308</ele>
        <time>2022-07-25T07:21:39Z</time>
      </trkpt>
      <trkpt lat="46.27697" lon="5.43007">
        <ele>308</ele>
        <time>2022-07-25T07:21:46Z</time>
      </trkpt>
      <trkpt lat="46.27705" lon="5.4301">
        <ele>308.2</ele>
        <time>2022-07-25T07:21:47Z</time>
      </trkpt>
      <trkpt lat="46.27763" lon="5.43034">
        <ele>308.2</ele>
        <time>2022-07-25T07:21:54Z</time>
      </trkpt>
      <trkpt lat="46.27789" lon="5.43044">
        <ele>308.2</ele>
        <time>2022-07-25T07:21:57Z</time>
      </trkpt>
      <trkpt lat="46.27826" lon="5.4305">
        <ele>307.8</ele>
        <time>2022-07-25T07:22:01Z</time>
      </trkpt>
      <trkpt lat="46.27882" lon="5.43049">
        <ele>307.2</ele>
        <time>2022-07-25T07:22:07Z</time>
      </trkpt>
      <trkpt lat="46.27936" lon="5.4306">
        <ele>306.8</ele>
        <time>2022-07-25T07:22:13Z</time>
      </trkpt>
      <trkpt lat="46.27945" lon="5.43061">
        <ele>306.8</ele>
        <time>2022-07-25T07:22:14Z</time>
      </trkpt>
      <trkpt lat="46.28006" lon="5.43074">
        <ele>307</ele>
        <time>2022-07-25T07:22:21Z</time>
      </trkpt>
      <trkpt lat="46.28023" lon="5.43078">
        <ele>307</ele>
        <time>2022-07-25T07:22:23Z</time>
      </trkpt>
      <trkpt lat="46.28084" lon="5.4309">
        <ele>307.4</ele>
        <time>2022-07-25T07:22:30Z</time>
      </trkpt>
      <trkpt lat="46.28102" lon="5.43094">
        <ele>307.4</ele>
        <time>2022-07-25T07:22:32Z</time>
      </trkpt>
      <trkpt lat="46.28163" lon="5.43107">
        <ele>307.6</ele>
        <time>2022-07-25T07:22:39Z</time>
      </trkpt>
      <trkpt lat="46.28197" lon="5.43114">
        <ele>307.6</ele>
        <time>2022-07-25T07:22:43Z</time>
      </trkpt>
      <trkpt lat="46.28258" lon="5.43123">
        <ele>307.8</ele>
        <time>2022-07-25T07:22:50Z</time>
      </trkpt>
      <trkpt lat="46.28267" lon="5.43125">
        <ele>307.8</ele>
        <time>2022-07-25T07:22:51Z</time>
      </trkpt>
      <trkpt lat="46.28327" lon="5.43131">
        <ele>308</ele>
        <time>2022-07-25T07:22:58Z</time>
      </trkpt>
      <trkpt lat="46.28336" lon="5.43131">
        <ele>308</ele>
        <time>2022-07-25T07:22:59Z</time>
      </trkpt>
      <trkpt lat="46.28396" lon="5.43123">
        <ele>308</ele>
        <time>2022-07-25T07:23:06Z</time>
      </trkpt>
      <trkpt lat="46.28413" lon="5.43121">
        <ele>307.8</ele>
        <time>2022-07-25T07:23:08Z</time>
      </trkpt>
      <trkpt lat="46.28455" lon="5.43115">
        <ele>308.2</ele>
        <time>2022-07-25T07:23:13Z</time>
      </trkpt>
      <trkpt lat="46.28496" lon="5.4311">
        <ele>308.4</ele>
        <time>2022-07-25T07:23:18Z</time>
      </trkpt>
      <trkpt lat="46.28555" lon="5.43107">
        <ele>308.8</ele>
        <time>2022-07-25T07:23:25Z</time>
      </trkpt>
      <trkpt lat="46.28598" lon="5.43108">
        <ele>308.8</ele>
        <time>2022-07-25T07:23:30Z</time>
      </trkpt>
      <trkpt lat="46.28655" lon="5.43113">
        <ele>309.2</ele>
        <time>2022-07-25T07:23:37Z</time>
      </trkpt>
      <trkpt lat="46.28664" lon="5.43114">
        <ele>309.2</ele>
        <time>2022-07-25T07:23:38Z</time>
      </trkpt>
      <trkpt lat="46.28672" lon="5.43114">
        <ele>309.2</ele>
        <time>2022-07-25T07:23:39Z</time>
      </trkpt>
      <trkpt lat="46.28732" lon="5.43121">
        <ele>309.4</ele>
        <time>2022-07-25T07:23:46Z</time>
      </trkpt>
      <trkpt lat="46.2874" lon="5.43122">
        <ele>309.4</ele>
        <time>2022-07-25T07:23:47Z</time>
      </trkpt>
      <trkpt lat="46.28801" lon="5.43138">
        <ele>309.6</ele>
        <time>2022-07-25T07:23:54Z</time>
      </trkpt>
      <trkpt lat="46.2886" lon="5.43162">
        <ele>309.8</ele>
        <time>2022-07-25T07:24:01Z</time>
      </trkpt>
      <trkpt lat="46.28877" lon="5.43169">
        <ele>309.8</ele>
        <time>2022-07-25T07:24:03Z</time>
      </trkpt>
      <trkpt lat="46.28936" lon="5.43194">
        <ele>310</ele>
        <time>2022-07-25T07:24:10Z</time>
      </trkpt>
      <trkpt lat="46.28961" lon="5.43205">
        <ele>310</ele>
        <time>2022-07-25T07:24:13Z</time>
      </trkpt>
      <trkpt lat="46.29009" lon="5.43237">
        <ele>310.2</ele>
        <time>2022-07-25T07:24:19Z</time>
      </trkpt>
      <trkpt lat="46.29061" lon="5.43286">
        <ele>310</ele>
        <time>2022-07-25T07:24:26Z</time>
      </trkpt>
      <trkpt lat="46.29076" lon="5.433">
        <ele>310</ele>
        <time>2022-07-25T07:24:28Z</time>
      </trkpt>
      <trkpt lat="46.29127" lon="5.43345">
        <ele>310.2</ele>
        <time>2022-07-25T07:24:35Z</time>
      </trkpt>
      <trkpt lat="46.29134" lon="5.43351">
        <ele>310.2</ele>
        <time>2022-07-25T07:24:36Z</time>
      </trkpt>
      <trkpt lat="46.29171" lon="5.43378">
        <ele>310.8</ele>
        <time>2022-07-25T07:24:41Z</time>
      </trkpt>
      <trkpt lat="46.29185" lon="5.43387">
        <ele>311</ele>
        <time>2022-07-25T07:24:43Z</time>
      </trkpt>
      <trkpt lat="46.292" lon="5.43396">
        <ele>311.4</ele>
        <time>2022-07-25T07:24:45Z</time>
      </trkpt>
      <trkpt lat="46.2924" lon="5.43412">
        <ele>311.4</ele>
        <time>2022-07-25T07:24:50Z</time>
      </trkpt>
      <trkpt lat="46.29296" lon="5.43434">
        <ele>311.6</ele>
        <time>2022-07-25T07:24:57Z</time>
      </trkpt>
      <trkpt lat="46.2932" lon="5.43444">
        <ele>311.6</ele>
        <time>2022-07-25T07:25:00Z</time>
      </trkpt>
      <trkpt lat="46.29371" lon="5.43475">
        <ele>311.6</ele>
        <time>2022-07-25T07:25:07Z</time>
      </trkpt>
      <trkpt lat="46.29426" lon="5.4351">
        <ele>311.6</ele>
        <time>2022-07-25T07:25:15Z</time>
      </trkpt>
      <trkpt lat="46.29433" lon="5.43514">
        <ele>312</ele>
        <time>2022-07-25T07:25:16Z</time>
      </trkpt>
      <trkpt lat="46.29461" lon="5.43531">
        <ele>312.4</ele>
        <time>2022-07-25T07:25:20Z</time>
      </trkpt>
      <trkpt lat="46.29489" lon="5.43547">
        <ele>313</ele>
        <time>2022-07-25T07:25:24Z</time>
      </trkpt>
      <trkpt lat="46.29532" lon="5.43569">
        <ele>313.4</ele>
        <time>2022-07-25T07:25:30Z</time>
      </trkpt>
      <trkpt lat="46.29546" lon="5.43577">
        <ele>313.6</ele>
        <time>2022-07-25T07:25:32Z</time>
      </trkpt>
      <trkpt lat="46.29603" lon="5.43608">
        <ele>313.8</ele>
        <time>2022-07-25T07:25:40Z</time>
      </trkpt>
      <trkpt lat="46.29624" lon="5.43619">
        <ele>313.8</ele>
        <time>2022-07-25T07:25:43Z</time>
      </trkpt>
      <trkpt lat="46.29681" lon="5.43648">
        <ele>314.4</ele>
        <time>2022-07-25T07:25:51Z</time>
      </trkpt>
      <trkpt lat="46.29689" lon="5.43652">
        <ele>314.4</ele>
        <time>2022-07-25T07:25:52Z</time>
      </trkpt>
      <trkpt lat="46.29696" lon="5.43656">
        <ele>314.4</ele>
        <time>2022-07-25T07:25:53Z</time>
      </trkpt>
      <trkpt lat="46.29748" lon="5.43683">
        <ele>314.4</ele>
        <time>2022-07-25T07:26:00Z</time>
      </trkpt>
      <trkpt lat="46.29755" lon="5.43687">
        <ele>314.4</ele>
        <time>2022-07-25T07:26:01Z</time>
      </trkpt>
      <trkpt lat="46.29807" lon="5.43713">
        <ele>314.8</ele>
        <time>2022-07-25T07:26:08Z</time>
      </trkpt>
      <trkpt lat="46.29815" lon="5.43716">
        <ele>314.8</ele>
        <time>2022-07-25T07:26:09Z</time>
      </trkpt>
      <trkpt lat="46.29867" lon="5.43739">
        <ele>314.8</ele>
        <time>2022-07-25T07:26:16Z</time>
      </trkpt>
      <trkpt lat="46.29905" lon="5.43755">
        <ele>314.8</ele>
        <time>2022-07-25T07:26:21Z</time>
      </trkpt>
      <trkpt lat="46.29958" lon="5.43777">
        <ele>315</ele>
        <time>2022-07-25T07:26:28Z</time>
      </trkpt>
      <trkpt lat="46.2998" lon="5.43787">
        <ele>315.2</ele>
        <time>2022-07-25T07:26:31Z</time>
      </trkpt>
      <trkpt lat="46.30034" lon="5.43813">
        <ele>315.4</ele>
        <time>2022-07-25T07:26:38Z</time>
      </trkpt>
      <trkpt lat="46.30042" lon="5.43817">
        <ele>315.6</ele>
        <time>2022-07-25T07:26:39Z</time>
      </trkpt>
      <trkpt lat="46.30065" lon="5.43829">
        <ele>315.6</ele>
        <time>2022-07-25T07:26:42Z</time>
      </trkpt>
      <trkpt lat="46.30118" lon="5.43856">
        <ele>315.8</ele>
        <time>2022-07-25T07:26:49Z</time>
      </trkpt>
      <trkpt lat="46.30126" lon="5.4386">
        <ele>315.8</ele>
        <time>2022-07-25T07:26:50Z</time>
      </trkpt>
      <trkpt lat="46.30177" lon="5.43888">
        <ele>316.2</ele>
        <time>2022-07-25T07:26:57Z</time>
      </trkpt>
      <trkpt lat="46.30198" lon="5.43899">
        <ele>316.4</ele>
        <time>2022-07-25T07:27:00Z</time>
      </trkpt>
      <trkpt lat="46.30213" lon="5.43906">
        <ele>316.6</ele>
        <time>2022-07-25T07:27:02Z</time>
      </trkpt>
      <trkpt lat="46.30265" lon="5.43932">
        <ele>317</ele>
        <time>2022-07-25T07:27:09Z</time>
      </trkpt>
      <trkpt lat="46.30273" lon="5.43936">
        <ele>317</ele>
        <time>2022-07-25T07:27:10Z</time>
      </trkpt>
      <trkpt lat="46.30326" lon="5.43963">
        <ele>317.2</ele>
        <time>2022-07-25T07:27:17Z</time>
      </trkpt>
      <trkpt lat="46.30342" lon="5.4397">
        <ele>317.2</ele>
        <time>2022-07-25T07:27:19Z</time>
      </trkpt>
      <trkpt lat="46.30397" lon="5.43996">
        <ele>317</ele>
        <time>2022-07-25T07:27:26Z</time>
      </trkpt>
      <trkpt lat="46.30404" lon="5.43999">
        <ele>316.8</ele>
        <time>2022-07-25T07:27:27Z</time>
      </trkpt>
      <trkpt lat="46.30461" lon="5.44015">
        <ele>317</ele>
        <time>2022-07-25T07:27:34Z</time>
      </trkpt>
      <trkpt lat="46.30468" lon="5.44017">
        <ele>317</ele>
        <time>2022-07-25T07:27:35Z</time>
      </trkpt>
      <trkpt lat="46.30514" lon="5.4403">
        <ele>317.2</ele>
        <time>2022-07-25T07:27:41Z</time>
      </trkpt>
      <trkpt lat="46.30543" lon="5.44036">
        <ele>317.6</ele>
        <time>2022-07-25T07:27:45Z</time>
      </trkpt>
      <trkpt lat="46.3055" lon="5.44037">
        <ele>317.8</ele>
        <time>2022-07-25T07:27:46Z</time>
      </trkpt>
      <trkpt lat="46.30586" lon="5.44041">
        <ele>318.6</ele>
        <time>2022-07-25T07:27:51Z</time>
      </trkpt>
      <trkpt lat="46.30608" lon="5.44043">
        <ele>319.8</ele>
        <time>2022-07-25T07:27:54Z</time>
      </trkpt>
      <trkpt lat="46.30654" lon="5.4405">
        <ele>320.6</ele>
        <time>2022-07-25T07:28:00Z</time>
      </trkpt>
      <trkpt lat="46.307" lon="5.44051">
        <ele>321.6</ele>
        <time>2022-07-25T07:28:06Z</time>
      </trkpt>
      <trkpt lat="46.30716" lon="5.44047">
        <ele>321.6</ele>
        <time>2022-07-25T07:28:08Z</time>
      </trkpt>
      <trkpt lat="46.30758" lon="5.44032">
        <ele>321.6</ele>
        <time>2022-07-25T07:28:13Z</time>
      </trkpt>
      <trkpt lat="46.30803" lon="5.44021">
        <ele>320.6</ele>
        <time>2022-07-25T07:28:18Z</time>
      </trkpt>
      <trkpt lat="46.30842" lon="5.44027">
        <ele>319.6</ele>
        <time>2022-07-25T07:28:22Z</time>
      </trkpt>
      <trkpt lat="46.30878" lon="5.44038">
        <ele>318.6</ele>
        <time>2022-07-25T07:28:26Z</time>
      </trkpt>
      <trkpt lat="46.30913" lon="5.44054">
        <ele>318</ele>
        <time>2022-07-25T07:28:30Z</time>
      </trkpt>
      <trkpt lat="46.30958" lon="5.44084">
        <ele>317.6</ele>
        <time>2022-07-25T07:28:36Z</time>
      </trkpt>
      <trkpt lat="46.30999" lon="5.44113">
        <ele>317.6</ele>
        <time>2022-07-25T07:28:42Z</time>
      </trkpt>
      <trkpt lat="46.3104" lon="5.44145">
        <ele>318.6</ele>
        <time>2022-07-25T07:28:49Z</time>
      </trkpt>
      <trkpt lat="46.31063" lon="5.44165">
        <ele>319.6</ele>
        <time>2022-07-25T07:28:53Z</time>
      </trkpt>
      <trkpt lat="46.31108" lon="5.44204">
        <ele>320.2</ele>
        <time>2022-07-25T07:29:01Z</time>
      </trkpt>
      <trkpt lat="46.31126" lon="5.44219">
        <ele>320.6</ele>
        <time>2022-07-25T07:29:04Z</time>
      </trkpt>
      <trkpt lat="46.31168" lon="5.44257">
        <ele>321</ele>
        <time>2022-07-25T07:29:11Z</time>
      </trkpt>
      <trkpt lat="46.31206" lon="5.44281">
        <ele>321.2</ele>
        <time>2022-07-25T07:29:17Z</time>
      </trkpt>
      <trkpt lat="46.31239" lon="5.44294">
        <ele>321.8</ele>
        <time>2022-07-25T07:29:22Z</time>
      </trkpt>
      <trkpt lat="46.31279" lon="5.4431">
        <ele>322.2</ele>
        <time>2022-07-25T07:29:28Z</time>
      </trkpt>
      <trkpt lat="46.31313" lon="5.44324">
        <ele>322.8</ele>
        <time>2022-07-25T07:29:33Z</time>
      </trkpt>
      <trkpt lat="46.31349" lon="5.44338">
        <ele>322.8</ele>
        <time>2022-07-25T07:29:38Z</time>
      </trkpt>
      <trkpt lat="46.31402" lon="5.4436">
        <ele>322.8</ele>
        <time>2022-07-25T07:29:45Z</time>
      </trkpt>
      <trkpt lat="46.31427" lon="5.4437">
        <ele>322.8</ele>
        <time>2022-07-25T07:29:48Z</time>
      </trkpt>
      <trkpt lat="46.31484" lon="5.44392">
        <ele>321.8</ele>
        <time>2022-07-25T07:29:55Z</time>
      </trkpt>
      <trkpt lat="46.31492" lon="5.44395">
        <ele>321.8</ele>
        <time>2022-07-25T07:29:56Z</time>
      </trkpt>
      <trkpt lat="46.31508" lon="5.44402">
        <ele>321.8</ele>
        <time>2022-07-25T07:29:58Z</time>
      </trkpt>
      <trkpt lat="46.31565" lon="5.44418">
        <ele>321.4</ele>
        <time>2022-07-25T07:30:05Z</time>
      </trkpt>
      <trkpt lat="46.31623" lon="5.44425">
        <ele>321.2</ele>
        <time>2022-07-25T07:30:12Z</time>
      </trkpt>
      <trkpt lat="46.31647" lon="5.44428">
        <ele>321.2</ele>
        <time>2022-07-25T07:30:15Z</time>
      </trkpt>
      <trkpt lat="46.31703" lon="5.4443">
        <ele>321.2</ele>
        <time>2022-07-25T07:30:22Z</time>
      </trkpt>
      <trkpt lat="46.31719" lon="5.44429">
        <ele>321.2</ele>
        <time>2022-07-25T07:30:24Z</time>
      </trkpt>
      <trkpt lat="46.31766" lon="5.44415">
        <ele>321.4</ele>
        <time>2022-07-25T07:30:30Z</time>
      </trkpt>
      <trkpt lat="46.31818" lon="5.44392">
        <ele>322</ele>
        <time>2022-07-25T07:30:37Z</time>
      </trkpt>
      <trkpt lat="46.31854" lon="5.44376">
        <ele>322.4</ele>
        <time>2022-07-25T07:30:42Z</time>
      </trkpt>
      <trkpt lat="46.31883" lon="5.44364">
        <ele>322.8</ele>
        <time>2022-07-25T07:30:46Z</time>
      </trkpt>
      <trkpt lat="46.3192" lon="5.44348">
        <ele>323.6</ele>
        <time>2022-07-25T07:30:51Z</time>
      </trkpt>
      <trkpt lat="46.3194" lon="5.4434">
        <ele>323.8</ele>
        <time>2022-07-25T07:30:54Z</time>
      </trkpt>
      <trkpt lat="46.31981" lon="5.44321">
        <ele>324.8</ele>
        <time>2022-07-25T07:31:00Z</time>
      </trkpt>
      <trkpt lat="46.32034" lon="5.44299">
        <ele>325.6</ele>
        <time>2022-07-25T07:31:07Z</time>
      </trkpt>
      <trkpt lat="46.32056" lon="5.44289">
        <ele>326</ele>
        <time>2022-07-25T07:31:10Z</time>
      </trkpt>
      <trkpt lat="46.32063" lon="5.44286">
        <ele>326</ele>
        <time>2022-07-25T07:31:11Z</time>
      </trkpt>
      <trkpt lat="46.32116" lon="5.44261">
        <ele>326.4</ele>
        <time>2022-07-25T07:31:18Z</time>
      </trkpt>
      <trkpt lat="46.3213" lon="5.44253">
        <ele>326.6</ele>
        <time>2022-07-25T07:31:20Z</time>
      </trkpt>
      <trkpt lat="46.32165" lon="5.4423">
        <ele>327</ele>
        <time>2022-07-25T07:31:25Z</time>
      </trkpt>
      <trkpt lat="46.32171" lon="5.44224">
        <ele>327.2</ele>
        <time>2022-07-25T07:31:26Z</time>
      </trkpt>
      <trkpt lat="46.32206" lon="5.4419">
        <ele>328</ele>
        <time>2022-07-25T07:31:32Z</time>
      </trkpt>
      <trkpt lat="46.3225" lon="5.44151">
        <ele>329</ele>
        <time>2022-07-25T07:31:39Z</time>
      </trkpt>
      <trkpt lat="46.32267" lon="5.44136">
        <ele>329.6</ele>
        <time>2022-07-25T07:31:42Z</time>
      </trkpt>
      <trkpt lat="46.3229" lon="5.44115">
        <ele>330.6</ele>
        <time>2022-07-25T07:31:46Z</time>
      </trkpt>
      <trkpt lat="46.32311" lon="5.44094">
        <ele>331.4</ele>
        <time>2022-07-25T07:31:50Z</time>
      </trkpt>
      <trkpt lat="46.32317" lon="5.44089">
        <ele>331.6</ele>
        <time>2022-07-25T07:31:51Z</time>
      </trkpt>
      <trkpt lat="46.32351" lon="5.44056">
        <ele>332.8</ele>
        <time>2022-07-25T07:31:58Z</time>
      </trkpt>
      <trkpt lat="46.32356" lon="5.44052">
        <ele>333.2</ele>
        <time>2022-07-25T07:31:59Z</time>
      </trkpt>
      <trkpt lat="46.32372" lon="5.44038">
        <ele>334</ele>
        <time>2022-07-25T07:32:02Z</time>
      </trkpt>
      <trkpt lat="46.32386" lon="5.44025">
        <ele>335</ele>
        <time>2022-07-25T07:32:05Z</time>
      </trkpt>
      <trkpt lat="46.32405" lon="5.44008">
        <ele>335.8</ele>
        <time>2022-07-25T07:32:09Z</time>
      </trkpt>
      <trkpt lat="46.32418" lon="5.43997">
        <ele>336.2</ele>
        <time>2022-07-25T07:32:12Z</time>
      </trkpt>
      <trkpt lat="46.32439" lon="5.43978">
        <ele>337.6</ele>
        <time>2022-07-25T07:32:17Z</time>
      </trkpt>
      <trkpt lat="46.32443" lon="5.43974">
        <ele>337.8</ele>
        <time>2022-07-25T07:32:18Z</time>
      </trkpt>
      <trkpt lat="46.3246" lon="5.43959">
        <ele>338.6</ele>
        <time>2022-07-25T07:32:22Z</time>
      </trkpt>
      <trkpt lat="46.32473" lon="5.43947">
        <ele>339</ele>
        <time>2022-07-25T07:32:25Z</time>
      </trkpt>
      <trkpt lat="46.32485" lon="5.43937">
        <ele>339.6</ele>
        <time>2022-07-25T07:32:28Z</time>
      </trkpt>
      <trkpt lat="46.32514" lon="5.43911">
        <ele>340.4</ele>
        <time>2022-07-25T07:32:34Z</time>
      </trkpt>
      <trkpt lat="46.32523" lon="5.43903">
        <ele>340.8</ele>
        <time>2022-07-25T07:32:36Z</time>
      </trkpt>
      <trkpt lat="46.32551" lon="5.43881">
        <ele>342</ele>
        <time>2022-07-25T07:32:42Z</time>
      </trkpt>
      <trkpt lat="46.32561" lon="5.43874">
        <ele>342.4</ele>
        <time>2022-07-25T07:32:44Z</time>
      </trkpt>
      <trkpt lat="46.32616" lon="5.43841">
        <ele>343.2</ele>
        <time>2022-07-25T07:32:54Z</time>
      </trkpt>
      <trkpt lat="46.3266" lon="5.43824">
        <ele>343.4</ele>
        <time>2022-07-25T07:33:00Z</time>
      </trkpt>
      <trkpt lat="46.32716" lon="5.43812">
        <ele>342.4</ele>
        <time>2022-07-25T07:33:07Z</time>
      </trkpt>
      <trkpt lat="46.32747" lon="5.43804">
        <ele>342.2</ele>
        <time>2022-07-25T07:33:11Z</time>
      </trkpt>
      <trkpt lat="46.32792" lon="5.43792">
        <ele>341.8</ele>
        <time>2022-07-25T07:33:17Z</time>
      </trkpt>
      <trkpt lat="46.32842" lon="5.43781">
        <ele>341.8</ele>
        <time>2022-07-25T07:33:24Z</time>
      </trkpt>
      <trkpt lat="46.32892" lon="5.43766">
        <ele>342.4</ele>
        <time>2022-07-25T07:33:31Z</time>
      </trkpt>
      <trkpt lat="46.32908" lon="5.43764">
        <ele>342.8</ele>
        <time>2022-07-25T07:33:33Z</time>
      </trkpt>
      <trkpt lat="46.32936" lon="5.43755">
        <ele>343.2</ele>
        <time>2022-07-25T07:33:37Z</time>
      </trkpt>
      <trkpt lat="46.32995" lon="5.43743">
        <ele>343.8</ele>
        <time>2022-07-25T07:33:45Z</time>
      </trkpt>
      <trkpt lat="46.33003" lon="5.43742">
        <ele>343.8</ele>
        <time>2022-07-25T07:33:46Z</time>
      </trkpt>
      <trkpt lat="46.33036" lon="5.43735">
        <ele>343.4</ele>
        <time>2022-07-25T07:33:50Z</time>
      </trkpt>
      <trkpt lat="46.33044" lon="5.43733">
        <ele>343.4</ele>
        <time>2022-07-25T07:33:51Z</time>
      </trkpt>
      <trkpt lat="46.33053" lon="5.43733">
        <ele>343.2</ele>
        <time>2022-07-25T07:33:52Z</time>
      </trkpt>
      <trkpt lat="46.33071" lon="5.43734">
        <ele>342.8</ele>
        <time>2022-07-25T07:33:54Z</time>
      </trkpt>
      <trkpt lat="46.33098" lon="5.43732">
        <ele>342.2</ele>
        <time>2022-07-25T07:33:57Z</time>
      </trkpt>
      <trkpt lat="46.33117" lon="5.43732">
        <ele>341.8</ele>
        <time>2022-07-25T07:33:59Z</time>
      </trkpt>
      <trkpt lat="46.33175" lon="5.4373">
        <ele>341.2</ele>
        <time>2022-07-25T07:34:05Z</time>
      </trkpt>
      <trkpt lat="46.33203" lon="5.43728">
        <ele>341</ele>
        <time>2022-07-25T07:34:08Z</time>
      </trkpt>
      <trkpt lat="46.33221" lon="5.43727">
        <ele>340.6</ele>
        <time>2022-07-25T07:34:10Z</time>
      </trkpt>
      <trkpt lat="46.33249" lon="5.43725">
        <ele>339.2</ele>
        <time>2022-07-25T07:34:13Z</time>
      </trkpt>
      <trkpt lat="46.33268" lon="5.43723">
        <ele>338.8</ele>
        <time>2022-07-25T07:34:15Z</time>
      </trkpt>
      <trkpt lat="46.33286" lon="5.43722">
        <ele>338</ele>
        <time>2022-07-25T07:34:17Z</time>
      </trkpt>
      <trkpt lat="46.33313" lon="5.43719">
        <ele>336.8</ele>
        <time>2022-07-25T07:34:20Z</time>
      </trkpt>
      <trkpt lat="46.3334" lon="5.43716">
        <ele>335.6</ele>
        <time>2022-07-25T07:34:23Z</time>
      </trkpt>
      <trkpt lat="46.33349" lon="5.43714">
        <ele>335.4</ele>
        <time>2022-07-25T07:34:24Z</time>
      </trkpt>
      <trkpt lat="46.33386" lon="5.43707">
        <ele>334.2</ele>
        <time>2022-07-25T07:34:28Z</time>
      </trkpt>
      <trkpt lat="46.33414" lon="5.437">
        <ele>333</ele>
        <time>2022-07-25T07:34:31Z</time>
      </trkpt>
      <trkpt lat="46.33424" lon="5.43699">
        <ele>332.8</ele>
        <time>2022-07-25T07:34:32Z</time>
      </trkpt>
      <trkpt lat="46.33453" lon="5.43693">
        <ele>332</ele>
        <time>2022-07-25T07:34:35Z</time>
      </trkpt>
      <trkpt lat="46.33482" lon="5.43688">
        <ele>330.6</ele>
        <time>2022-07-25T07:34:38Z</time>
      </trkpt>
      <trkpt lat="46.33512" lon="5.43685">
        <ele>329.2</ele>
        <time>2022-07-25T07:34:41Z</time>
      </trkpt>
      <trkpt lat="46.33541" lon="5.43683">
        <ele>328.2</ele>
        <time>2022-07-25T07:34:44Z</time>
      </trkpt>
      <trkpt lat="46.33571" lon="5.43681">
        <ele>327.2</ele>
        <time>2022-07-25T07:34:47Z</time>
      </trkpt>
      <trkpt lat="46.3359" lon="5.43681">
        <ele>326.4</ele>
        <time>2022-07-25T07:34:49Z</time>
      </trkpt>
      <trkpt lat="46.3361" lon="5.43682">
        <ele>325.8</ele>
        <time>2022-07-25T07:34:51Z</time>
      </trkpt>
      <trkpt lat="46.33646" lon="5.4369">
        <ele>325</ele>
        <time>2022-07-25T07:34:55Z</time>
      </trkpt>
      <trkpt lat="46.33664" lon="5.43697">
        <ele>324.8</ele>
        <time>2022-07-25T07:34:57Z</time>
      </trkpt>
      <trkpt lat="46.33695" lon="5.43713">
        <ele>324</ele>
        <time>2022-07-25T07:35:01Z</time>
      </trkpt>
      <trkpt lat="46.33734" lon="5.43739">
        <ele>323.6</ele>
        <time>2022-07-25T07:35:06Z</time>
      </trkpt>
      <trkpt lat="46.33739" lon="5.43744">
        <ele>323.6</ele>
        <time>2022-07-25T07:35:07Z</time>
      </trkpt>
      <trkpt lat="46.33786" lon="5.43788">
        <ele>323.6</ele>
        <time>2022-07-25T07:35:14Z</time>
      </trkpt>
      <trkpt lat="46.33794" lon="5.43796">
        <ele>323.6</ele>
        <time>2022-07-25T07:35:15Z</time>
      </trkpt>
      <trkpt lat="46.33844" lon="5.43845">
        <ele>323.4</ele>
        <time>2022-07-25T07:35:23Z</time>
      </trkpt>
      <trkpt lat="46.33856" lon="5.43857">
        <ele>323.4</ele>
        <time>2022-07-25T07:35:25Z</time>
      </trkpt>
      <trkpt lat="46.33896" lon="5.43897">
        <ele>323.2</ele>
        <time>2022-07-25T07:35:32Z</time>
      </trkpt>
      <trkpt lat="46.33925" lon="5.43926">
        <ele>323.2</ele>
        <time>2022-07-25T07:35:38Z</time>
      </trkpt>
      <trkpt lat="46.33934" lon="5.43938">
        <ele>323.2</ele>
        <time>2022-07-25T07:35:41Z</time>
      </trkpt>
      <trkpt lat="46.33934" lon="5.43941">
        <ele>323.2</ele>
        <time>2022-07-25T07:35:42Z</time>
      </trkpt>
      <trkpt lat="46.33935" lon="5.43945">
        <ele>323.2</ele>
        <time>2022-07-25T07:35:46Z</time>
      </trkpt>
      <trkpt lat="46.33935" lon="5.43945">
        <ele>323.4</ele>
        <time>2022-07-25T07:35:48Z</time>
      </trkpt>
      <trkpt lat="46.33941" lon="5.4394">
        <ele>323.6</ele>
        <time>2022-07-25T07:36:40Z</time>
      </trkpt>
      <trkpt lat="46.33946" lon="5.43937">
        <ele>323.6</ele>
        <time>2022-07-25T07:36:42Z</time>
      </trkpt>
      <trkpt lat="46.33969" lon="5.43931">
        <ele>323.8</ele>
        <time>2022-07-25T07:36:47Z</time>
      </trkpt>
      <trkpt lat="46.34013" lon="5.43929">
        <ele>323.6</ele>
        <time>2022-07-25T07:36:54Z</time>
      </trkpt>
      <trkpt lat="46.34069" lon="5.43924">
        <ele>323.6</ele>
        <time>2022-07-25T07:37:02Z</time>
      </trkpt>
      <trkpt lat="46.34076" lon="5.43923">
        <ele>323.6</ele>
        <time>2022-07-25T07:37:03Z</time>
      </trkpt>
      <trkpt lat="46.34131" lon="5.43918">
        <ele>323.6</ele>
        <time>2022-07-25T07:37:11Z</time>
      </trkpt>
      <trkpt lat="46.34186" lon="5.43912">
        <ele>324.2</ele>
        <time>2022-07-25T07:37:19Z</time>
      </trkpt>
      <trkpt lat="46.34241" lon="5.43904">
        <ele>324.6</ele>
        <time>2022-07-25T07:37:26Z</time>
      </trkpt>
      <trkpt lat="46.34248" lon="5.43903">
        <ele>324.6</ele>
        <time>2022-07-25T07:37:27Z</time>
      </trkpt>
      <trkpt lat="46.34256" lon="5.43902">
        <ele>324.8</ele>
        <time>2022-07-25T07:37:28Z</time>
      </trkpt>
      <trkpt lat="46.34308" lon="5.43888">
        <ele>325.2</ele>
        <time>2022-07-25T07:37:35Z</time>
      </trkpt>
      <trkpt lat="46.3433" lon="5.4388">
        <ele>325.8</ele>
        <time>2022-07-25T07:37:38Z</time>
      </trkpt>
      <trkpt lat="46.34372" lon="5.43861">
        <ele>325.8</ele>
        <time>2022-07-25T07:37:44Z</time>
      </trkpt>
      <trkpt lat="46.34427" lon="5.43829">
        <ele>326</ele>
        <time>2022-07-25T07:37:52Z</time>
      </trkpt>
      <trkpt lat="46.34432" lon="5.43826">
        <ele>326</ele>
        <time>2022-07-25T07:37:53Z</time>
      </trkpt>
      <trkpt lat="46.3448" lon="5.43797">
        <ele>326.8</ele>
        <time>2022-07-25T07:38:00Z</time>
      </trkpt>
      <trkpt lat="46.34533" lon="5.43774">
        <ele>327.6</ele>
        <time>2022-07-25T07:38:08Z</time>
      </trkpt>
      <trkpt lat="46.3454" lon="5.43772">
        <ele>327.8</ele>
        <time>2022-07-25T07:38:09Z</time>
      </trkpt>
      <trkpt lat="46.34547" lon="5.43769">
        <ele>327.8</ele>
        <time>2022-07-25T07:38:10Z</time>
      </trkpt>
      <trkpt lat="46.34601" lon="5.43748">
        <ele>328.2</ele>
        <time>2022-07-25T07:38:18Z</time>
      </trkpt>
      <trkpt lat="46.34608" lon="5.43745">
        <ele>328.2</ele>
        <time>2022-07-25T07:38:19Z</time>
      </trkpt>
      <trkpt lat="46.34665" lon="5.4373">
        <ele>328</ele>
        <time>2022-07-25T07:38:27Z</time>
      </trkpt>
      <trkpt lat="46.34709" lon="5.43733">
        <ele>328</ele>
        <time>2022-07-25T07:38:33Z</time>
      </trkpt>
      <trkpt lat="46.34759" lon="5.43751">
        <ele>328</ele>
        <time>2022-07-25T07:38:40Z</time>
      </trkpt>
      <trkpt lat="46.34811" lon="5.43777">
        <ele>328.2</ele>
        <time>2022-07-25T07:38:47Z</time>
      </trkpt>
      <trkpt lat="46.34818" lon="5.43782">
        <ele>328.2</ele>
        <time>2022-07-25T07:38:48Z</time>
      </trkpt>
      <trkpt lat="46.34873" lon="5.43817">
        <ele>327.6</ele>
        <time>2022-07-25T07:38:55Z</time>
      </trkpt>
      <trkpt lat="46.34882" lon="5.43821">
        <ele>327.2</ele>
        <time>2022-07-25T07:38:56Z</time>
      </trkpt>
      <trkpt lat="46.34925" lon="5.4383">
        <ele>326.8</ele>
        <time>2022-07-25T07:39:01Z</time>
      </trkpt>
      <trkpt lat="46.3495" lon="5.43834">
        <ele>326.8</ele>
        <time>2022-07-25T07:39:04Z</time>
      </trkpt>
      <trkpt lat="46.34966" lon="5.43834">
        <ele>326.8</ele>
        <time>2022-07-25T07:39:06Z</time>
      </trkpt>
      <trkpt lat="46.35004" lon="5.43838">
        <ele>326.8</ele>
        <time>2022-07-25T07:39:11Z</time>
      </trkpt>
      <trkpt lat="46.35047" lon="5.43842">
        <ele>326.8</ele>
        <time>2022-07-25T07:39:17Z</time>
      </trkpt>
      <trkpt lat="46.35098" lon="5.43833">
        <ele>327.2</ele>
        <time>2022-07-25T07:39:24Z</time>
      </trkpt>
      <trkpt lat="46.35122" lon="5.43815">
        <ele>327.6</ele>
        <time>2022-07-25T07:39:28Z</time>
      </trkpt>
      <trkpt lat="46.35127" lon="5.4381">
        <ele>327.8</ele>
        <time>2022-07-25T07:39:29Z</time>
      </trkpt>
      <trkpt lat="46.35158" lon="5.43769">
        <ele>328.6</ele>
        <time>2022-07-25T07:39:36Z</time>
      </trkpt>
      <trkpt lat="46.35166" lon="5.43759">
        <ele>328.8</ele>
        <time>2022-07-25T07:39:38Z</time>
      </trkpt>
      <trkpt lat="46.35175" lon="5.43749">
        <ele>329.2</ele>
        <time>2022-07-25T07:39:40Z</time>
      </trkpt>
      <trkpt lat="46.35183" lon="5.43739">
        <ele>329.4</ele>
        <time>2022-07-25T07:39:42Z</time>
      </trkpt>
      <trkpt lat="46.35196" lon="5.43726">
        <ele>330</ele>
        <time>2022-07-25T07:39:45Z</time>
      </trkpt>
      <trkpt lat="46.3521" lon="5.43713">
        <ele>330.8</ele>
        <time>2022-07-25T07:39:48Z</time>
      </trkpt>
      <trkpt lat="46.35214" lon="5.4371">
        <ele>331</ele>
        <time>2022-07-25T07:39:49Z</time>
      </trkpt>
      <trkpt lat="46.35223" lon="5.43703">
        <ele>331.2</ele>
        <time>2022-07-25T07:39:51Z</time>
      </trkpt>
      <trkpt lat="46.35237" lon="5.43694">
        <ele>332</ele>
        <time>2022-07-25T07:39:54Z</time>
      </trkpt>
      <trkpt lat="46.35246" lon="5.43689">
        <ele>332.6</ele>
        <time>2022-07-25T07:39:56Z</time>
      </trkpt>
      <trkpt lat="46.35257" lon="5.43684">
        <ele>333.2</ele>
        <time>2022-07-25T07:39:58Z</time>
      </trkpt>
      <trkpt lat="46.35281" lon="5.43676">
        <ele>334</ele>
        <time>2022-07-25T07:40:03Z</time>
      </trkpt>
      <trkpt lat="46.35286" lon="5.43675">
        <ele>334.2</ele>
        <time>2022-07-25T07:40:04Z</time>
      </trkpt>
      <trkpt lat="46.35296" lon="5.43673">
        <ele>334.6</ele>
        <time>2022-07-25T07:40:06Z</time>
      </trkpt>
      <trkpt lat="46.35305" lon="5.43672">
        <ele>335</ele>
        <time>2022-07-25T07:40:08Z</time>
      </trkpt>
      <trkpt lat="46.35319" lon="5.43669">
        <ele>336</ele>
        <time>2022-07-25T07:40:11Z</time>
      </trkpt>
      <trkpt lat="46.35346" lon="5.43666">
        <ele>337</ele>
        <time>2022-07-25T07:40:17Z</time>
      </trkpt>
      <trkpt lat="46.35355" lon="5.43664">
        <ele>337.2</ele>
        <time>2022-07-25T07:40:19Z</time>
      </trkpt>
      <trkpt lat="46.35373" lon="5.43662">
        <ele>338.2</ele>
        <time>2022-07-25T07:40:23Z</time>
      </trkpt>
      <trkpt lat="46.354" lon="5.43658">
        <ele>339.2</ele>
        <time>2022-07-25T07:40:29Z</time>
      </trkpt>
      <trkpt lat="46.35409" lon="5.43657">
        <ele>339.8</ele>
        <time>2022-07-25T07:40:31Z</time>
      </trkpt>
      <trkpt lat="46.35419" lon="5.43656">
        <ele>340.4</ele>
        <time>2022-07-25T07:40:33Z</time>
      </trkpt>
      <trkpt lat="46.35447" lon="5.43653">
        <ele>341.2</ele>
        <time>2022-07-25T07:40:39Z</time>
      </trkpt>
      <trkpt lat="46.35465" lon="5.4365">
        <ele>342.2</ele>
        <time>2022-07-25T07:40:43Z</time>
      </trkpt>
      <trkpt lat="46.3547" lon="5.4365">
        <ele>342.6</ele>
        <time>2022-07-25T07:40:44Z</time>
      </trkpt>
      <trkpt lat="46.35498" lon="5.43645">
        <ele>343.6</ele>
        <time>2022-07-25T07:40:50Z</time>
      </trkpt>
      <trkpt lat="46.35503" lon="5.43645">
        <ele>343.8</ele>
        <time>2022-07-25T07:40:51Z</time>
      </trkpt>
      <trkpt lat="46.35521" lon="5.43643">
        <ele>344.8</ele>
        <time>2022-07-25T07:40:55Z</time>
      </trkpt>
      <trkpt lat="46.35549" lon="5.4364">
        <ele>345.8</ele>
        <time>2022-07-25T07:41:01Z</time>
      </trkpt>
      <trkpt lat="46.35559" lon="5.43639">
        <ele>346.2</ele>
        <time>2022-07-25T07:41:03Z</time>
      </trkpt>
      <trkpt lat="46.35584" lon="5.43636">
        <ele>346.8</ele>
        <time>2022-07-25T07:41:08Z</time>
      </trkpt>
      <trkpt lat="46.35605" lon="5.43633">
        <ele>347.2</ele>
        <time>2022-07-25T07:41:12Z</time>
      </trkpt>
      <trkpt lat="46.35629" lon="5.43629">
        <ele>348</ele>
        <time>2022-07-25T07:41:16Z</time>
      </trkpt>
      <trkpt lat="46.35642" lon="5.43628">
        <ele>348.4</ele>
        <time>2022-07-25T07:41:18Z</time>
      </trkpt>
      <trkpt lat="46.35688" lon="5.43622">
        <ele>348.8</ele>
        <time>2022-07-25T07:41:25Z</time>
      </trkpt>
      <trkpt lat="46.35746" lon="5.43612">
        <ele>348.6</ele>
        <time>2022-07-25T07:41:33Z</time>
      </trkpt>
      <trkpt lat="46.35786" lon="5.43603">
        <ele>347.8</ele>
        <time>2022-07-25T07:41:38Z</time>
      </trkpt>
      <trkpt lat="46.35838" lon="5.43591">
        <ele>347</ele>
        <time>2022-07-25T07:41:44Z</time>
      </trkpt>
      <trkpt lat="46.35863" lon="5.43584">
        <ele>346.2</ele>
        <time>2022-07-25T07:41:47Z</time>
      </trkpt>
      <trkpt lat="46.35924" lon="5.43573">
        <ele>346</ele>
        <time>2022-07-25T07:41:54Z</time>
      </trkpt>
      <trkpt lat="46.35932" lon="5.43571">
        <ele>346</ele>
        <time>2022-07-25T07:41:55Z</time>
      </trkpt>
      <trkpt lat="46.35941" lon="5.4357">
        <ele>345.8</ele>
        <time>2022-07-25T07:41:56Z</time>
      </trkpt>
      <trkpt lat="46.35996" lon="5.43567">
        <ele>345.2</ele>
        <time>2022-07-25T07:42:02Z</time>
      </trkpt>
      <trkpt lat="46.36005" lon="5.43567">
        <ele>345.2</ele>
        <time>2022-07-25T07:42:03Z</time>
      </trkpt>
      <trkpt lat="46.36035" lon="5.43567">
        <ele>344.8</ele>
        <time>2022-07-25T07:42:06Z</time>
      </trkpt>
      <trkpt lat="46.36066" lon="5.43569">
        <ele>344.4</ele>
        <time>2022-07-25T07:42:09Z</time>
      </trkpt>
      <trkpt lat="46.36098" lon="5.43571">
        <ele>343.6</ele>
        <time>2022-07-25T07:42:12Z</time>
      </trkpt>
      <trkpt lat="46.36129" lon="5.43573">
        <ele>342.6</ele>
        <time>2022-07-25T07:42:15Z</time>
      </trkpt>
      <trkpt lat="46.36139" lon="5.43574">
        <ele>342.4</ele>
        <time>2022-07-25T07:42:16Z</time>
      </trkpt>
      <trkpt lat="46.3619" lon="5.43578">
        <ele>341</ele>
        <time>2022-07-25T07:42:21Z</time>
      </trkpt>
      <trkpt lat="46.36241" lon="5.43583">
        <ele>340</ele>
        <time>2022-07-25T07:42:26Z</time>
      </trkpt>
      <trkpt lat="46.36293" lon="5.43595">
        <ele>339</ele>
        <time>2022-07-25T07:42:31Z</time>
      </trkpt>
      <trkpt lat="46.36315" lon="5.436">
        <ele>338.6</ele>
        <time>2022-07-25T07:42:33Z</time>
      </trkpt>
      <trkpt lat="46.36347" lon="5.43606">
        <ele>337.8</ele>
        <time>2022-07-25T07:42:36Z</time>
      </trkpt>
      <trkpt lat="46.36388" lon="5.43612">
        <ele>336.6</ele>
        <time>2022-07-25T07:42:40Z</time>
      </trkpt>
      <trkpt lat="46.36409" lon="5.43614">
        <ele>336</ele>
        <time>2022-07-25T07:42:42Z</time>
      </trkpt>
      <trkpt lat="46.36439" lon="5.43615">
        <ele>335.4</ele>
        <time>2022-07-25T07:42:45Z</time>
      </trkpt>
      <trkpt lat="46.36478" lon="5.43613">
        <ele>334.6</ele>
        <time>2022-07-25T07:42:49Z</time>
      </trkpt>
      <trkpt lat="46.36532" lon="5.43605">
        <ele>334.8</ele>
        <time>2022-07-25T07:42:55Z</time>
      </trkpt>
      <trkpt lat="46.36541" lon="5.43604">
        <ele>334.8</ele>
        <time>2022-07-25T07:42:56Z</time>
      </trkpt>
      <trkpt lat="46.36601" lon="5.43594">
        <ele>335.4</ele>
        <time>2022-07-25T07:43:03Z</time>
      </trkpt>
      <trkpt lat="46.36618" lon="5.43592">
        <ele>335.4</ele>
        <time>2022-07-25T07:43:05Z</time>
      </trkpt>
      <trkpt lat="46.36674" lon="5.43584">
        <ele>335.2</ele>
        <time>2022-07-25T07:43:12Z</time>
      </trkpt>
      <trkpt lat="46.36717" lon="5.43577">
        <ele>335.6</ele>
        <time>2022-07-25T07:43:18Z</time>
      </trkpt>
      <trkpt lat="46.36744" lon="5.43573">
        <ele>336.4</ele>
        <time>2022-07-25T07:43:22Z</time>
      </trkpt>
      <trkpt lat="46.36764" lon="5.43572">
        <ele>336.8</ele>
        <time>2022-07-25T07:43:25Z</time>
      </trkpt>
      <trkpt lat="46.36796" lon="5.4357">
        <ele>337.6</ele>
        <time>2022-07-25T07:43:30Z</time>
      </trkpt>
      <trkpt lat="46.36821" lon="5.4357">
        <ele>338.2</ele>
        <time>2022-07-25T07:43:34Z</time>
      </trkpt>
      <trkpt lat="46.36879" lon="5.43573">
        <ele>338.4</ele>
        <time>2022-07-25T07:43:43Z</time>
      </trkpt>
      <trkpt lat="46.36891" lon="5.43574">
        <ele>338.6</ele>
        <time>2022-07-25T07:43:45Z</time>
      </trkpt>
      <trkpt lat="46.36945" lon="5.43576">
        <ele>339.2</ele>
        <time>2022-07-25T07:43:54Z</time>
      </trkpt>
      <trkpt lat="46.36967" lon="5.43578">
        <ele>339.8</ele>
        <time>2022-07-25T07:43:58Z</time>
      </trkpt>
      <trkpt lat="46.36996" lon="5.43581">
        <ele>340.4</ele>
        <time>2022-07-25T07:44:03Z</time>
      </trkpt>
      <trkpt lat="46.37008" lon="5.43584">
        <ele>340.8</ele>
        <time>2022-07-25T07:44:05Z</time>
      </trkpt>
      <trkpt lat="46.37042" lon="5.43598">
        <ele>342</ele>
        <time>2022-07-25T07:44:11Z</time>
      </trkpt>
      <trkpt lat="46.37071" lon="5.43611">
        <ele>343</ele>
        <time>2022-07-25T07:44:16Z</time>
      </trkpt>
      <trkpt lat="46.37082" lon="5.43615">
        <ele>343.2</ele>
        <time>2022-07-25T07:44:18Z</time>
      </trkpt>
      <trkpt lat="46.37099" lon="5.43623">
        <ele>344</ele>
        <time>2022-07-25T07:44:21Z</time>
      </trkpt>
      <trkpt lat="46.3714" lon="5.43642">
        <ele>345</ele>
        <time>2022-07-25T07:44:28Z</time>
      </trkpt>
      <trkpt lat="46.37151" lon="5.43648">
        <ele>345.2</ele>
        <time>2022-07-25T07:44:30Z</time>
      </trkpt>
      <trkpt lat="46.37192" lon="5.43665">
        <ele>346.2</ele>
        <time>2022-07-25T07:44:37Z</time>
      </trkpt>
      <trkpt lat="46.37208" lon="5.43673">
        <ele>346.8</ele>
        <time>2022-07-25T07:44:40Z</time>
      </trkpt>
      <trkpt lat="46.37231" lon="5.43684">
        <ele>347.4</ele>
        <time>2022-07-25T07:44:44Z</time>
      </trkpt>
      <trkpt lat="46.37259" lon="5.43701">
        <ele>347.8</ele>
        <time>2022-07-25T07:44:49Z</time>
      </trkpt>
      <trkpt lat="46.37288" lon="5.43722">
        <ele>348.2</ele>
        <time>2022-07-25T07:44:54Z</time>
      </trkpt>
      <trkpt lat="46.37312" lon="5.43739">
        <ele>348.4</ele>
        <time>2022-07-25T07:44:58Z</time>
      </trkpt>
      <trkpt lat="46.37352" lon="5.43769">
        <ele>348.2</ele>
        <time>2022-07-25T07:45:04Z</time>
      </trkpt>
      <trkpt lat="46.37404" lon="5.43813">
        <ele>347.4</ele>
        <time>2022-07-25T07:45:11Z</time>
      </trkpt>
      <trkpt lat="46.37412" lon="5.43821">
        <ele>347.2</ele>
        <time>2022-07-25T07:45:12Z</time>
      </trkpt>
      <trkpt lat="46.37455" lon="5.43859">
        <ele>345.4</ele>
        <time>2022-07-25T07:45:17Z</time>
      </trkpt>
      <trkpt lat="46.37482" lon="5.43877">
        <ele>344.4</ele>
        <time>2022-07-25T07:45:20Z</time>
      </trkpt>
      <trkpt lat="46.37502" lon="5.43887">
        <ele>343.6</ele>
        <time>2022-07-25T07:45:22Z</time>
      </trkpt>
      <trkpt lat="46.37511" lon="5.43891">
        <ele>343.4</ele>
        <time>2022-07-25T07:45:23Z</time>
      </trkpt>
      <trkpt lat="46.37561" lon="5.4391">
        <ele>342.2</ele>
        <time>2022-07-25T07:45:28Z</time>
      </trkpt>
      <trkpt lat="46.37601" lon="5.4393">
        <ele>341.2</ele>
        <time>2022-07-25T07:45:32Z</time>
      </trkpt>
      <trkpt lat="46.37611" lon="5.43935">
        <ele>340.8</ele>
        <time>2022-07-25T07:45:33Z</time>
      </trkpt>
      <trkpt lat="46.3766" lon="5.43961">
        <ele>339.8</ele>
        <time>2022-07-25T07:45:38Z</time>
      </trkpt>
      <trkpt lat="46.37679" lon="5.43971">
        <ele>339.4</ele>
        <time>2022-07-25T07:45:40Z</time>
      </trkpt>
      <trkpt lat="46.37734" lon="5.44003">
        <ele>338.8</ele>
        <time>2022-07-25T07:45:46Z</time>
      </trkpt>
      <trkpt lat="46.37753" lon="5.44014">
        <ele>338.6</ele>
        <time>2022-07-25T07:45:48Z</time>
      </trkpt>
      <trkpt lat="46.3777" lon="5.44025">
        <ele>338.4</ele>
        <time>2022-07-25T07:45:50Z</time>
      </trkpt>
      <trkpt lat="46.37805" lon="5.44048">
        <ele>337.6</ele>
        <time>2022-07-25T07:45:54Z</time>
      </trkpt>
      <trkpt lat="46.37845" lon="5.44079">
        <ele>337.2</ele>
        <time>2022-07-25T07:45:59Z</time>
      </trkpt>
      <trkpt lat="46.37893" lon="5.44119">
        <ele>337.2</ele>
        <time>2022-07-25T07:46:05Z</time>
      </trkpt>
      <trkpt lat="46.37917" lon="5.44139">
        <ele>337.2</ele>
        <time>2022-07-25T07:46:08Z</time>
      </trkpt>
      <trkpt lat="46.37964" lon="5.4418">
        <ele>337</ele>
        <time>2022-07-25T07:46:14Z</time>
      </trkpt>
      <trkpt lat="46.3798" lon="5.44194">
        <ele>336.8</ele>
        <time>2022-07-25T07:46:16Z</time>
      </trkpt>
      <trkpt lat="46.38026" lon="5.44238">
        <ele>336.8</ele>
        <time>2022-07-25T07:46:22Z</time>
      </trkpt>
      <trkpt lat="46.38034" lon="5.44245">
        <ele>336.8</ele>
        <time>2022-07-25T07:46:23Z</time>
      </trkpt>
      <trkpt lat="46.3808" lon="5.44287">
        <ele>336.6</ele>
        <time>2022-07-25T07:46:29Z</time>
      </trkpt>
      <trkpt lat="46.38088" lon="5.44294">
        <ele>336.6</ele>
        <time>2022-07-25T07:46:30Z</time>
      </trkpt>
      <trkpt lat="46.38111" lon="5.44315">
        <ele>336.4</ele>
        <time>2022-07-25T07:46:33Z</time>
      </trkpt>
      <trkpt lat="46.38163" lon="5.44361">
        <ele>336.4</ele>
        <time>2022-07-25T07:46:40Z</time>
      </trkpt>
      <trkpt lat="46.38177" lon="5.44374">
        <ele>336.4</ele>
        <time>2022-07-25T07:46:42Z</time>
      </trkpt>
      <trkpt lat="46.38184" lon="5.44381">
        <ele>336.6</ele>
        <time>2022-07-25T07:46:43Z</time>
      </trkpt>
      <trkpt lat="46.38232" lon="5.44424">
        <ele>337.2</ele>
        <time>2022-07-25T07:46:50Z</time>
      </trkpt>
      <trkpt lat="46.38238" lon="5.44431">
        <ele>337</ele>
        <time>2022-07-25T07:46:51Z</time>
      </trkpt>
      <trkpt lat="46.38283" lon="5.44472">
        <ele>337.6</ele>
        <time>2022-07-25T07:46:58Z</time>
      </trkpt>
      <trkpt lat="46.38295" lon="5.44484">
        <ele>337.8</ele>
        <time>2022-07-25T07:47:00Z</time>
      </trkpt>
      <trkpt lat="46.38344" lon="5.44529">
        <ele>338.4</ele>
        <time>2022-07-25T07:47:08Z</time>
      </trkpt>
      <trkpt lat="46.3835" lon="5.44535">
        <ele>338.6</ele>
        <time>2022-07-25T07:47:09Z</time>
      </trkpt>
      <trkpt lat="46.38361" lon="5.44546">
        <ele>338.6</ele>
        <time>2022-07-25T07:47:11Z</time>
      </trkpt>
      <trkpt lat="46.38395" lon="5.44579">
        <ele>339.4</ele>
        <time>2022-07-25T07:47:17Z</time>
      </trkpt>
      <trkpt lat="46.38429" lon="5.44611">
        <ele>339.8</ele>
        <time>2022-07-25T07:47:23Z</time>
      </trkpt>
      <trkpt lat="46.38446" lon="5.44627">
        <ele>340.2</ele>
        <time>2022-07-25T07:47:26Z</time>
      </trkpt>
      <trkpt lat="46.38484" lon="5.44661">
        <ele>341</ele>
        <time>2022-07-25T07:47:33Z</time>
      </trkpt>
      <trkpt lat="46.38506" lon="5.44682">
        <ele>341.6</ele>
        <time>2022-07-25T07:47:37Z</time>
      </trkpt>
      <trkpt lat="46.38521" lon="5.44698">
        <ele>342</ele>
        <time>2022-07-25T07:47:40Z</time>
      </trkpt>
      <trkpt lat="46.38548" lon="5.44732">
        <ele>342.4</ele>
        <time>2022-07-25T07:47:45Z</time>
      </trkpt>
      <trkpt lat="46.38552" lon="5.44737">
        <ele>342.4</ele>
        <time>2022-07-25T07:47:46Z</time>
      </trkpt>
      <trkpt lat="46.38596" lon="5.44795">
        <ele>342.6</ele>
        <time>2022-07-25T07:47:54Z</time>
      </trkpt>
      <trkpt lat="46.38638" lon="5.44849">
        <ele>342.8</ele>
        <time>2022-07-25T07:48:02Z</time>
      </trkpt>
      <trkpt lat="46.38647" lon="5.44861">
        <ele>343</ele>
        <time>2022-07-25T07:48:04Z</time>
      </trkpt>
      <trkpt lat="46.38689" lon="5.44915">
        <ele>343.4</ele>
        <time>2022-07-25T07:48:12Z</time>
      </trkpt>
      <trkpt lat="46.38711" lon="5.44943">
        <ele>343.4</ele>
        <time>2022-07-25T07:48:16Z</time>
      </trkpt>
      <trkpt lat="46.38753" lon="5.44998">
        <ele>343.8</ele>
        <time>2022-07-25T07:48:24Z</time>
      </trkpt>
      <trkpt lat="46.3877" lon="5.4502">
        <ele>344</ele>
        <time>2022-07-25T07:48:27Z</time>
      </trkpt>
      <trkpt lat="46.38773" lon="5.45025">
        <ele>344.2</ele>
        <time>2022-07-25T07:48:28Z</time>
      </trkpt>
      <trkpt lat="46.38813" lon="5.45076">
        <ele>344.6</ele>
        <time>2022-07-25T07:48:36Z</time>
      </trkpt>
      <trkpt lat="46.38838" lon="5.45107">
        <ele>345.2</ele>
        <time>2022-07-25T07:48:42Z</time>
      </trkpt>
      <trkpt lat="46.38847" lon="5.45117">
        <ele>345.6</ele>
        <time>2022-07-25T07:48:44Z</time>
      </trkpt>
      <trkpt lat="46.38859" lon="5.45131">
        <ele>346.4</ele>
        <time>2022-07-25T07:48:47Z</time>
      </trkpt>
      <trkpt lat="46.38875" lon="5.45148">
        <ele>347.2</ele>
        <time>2022-07-25T07:48:51Z</time>
      </trkpt>
      <trkpt lat="46.38883" lon="5.45155">
        <ele>347.4</ele>
        <time>2022-07-25T07:48:53Z</time>
      </trkpt>
      <trkpt lat="46.38895" lon="5.45165">
        <ele>348</ele>
        <time>2022-07-25T07:48:56Z</time>
      </trkpt>
      <trkpt lat="46.38904" lon="5.45171">
        <ele>348.8</ele>
        <time>2022-07-25T07:48:58Z</time>
      </trkpt>
      <trkpt lat="46.38923" lon="5.45182">
        <ele>349.8</ele>
        <time>2022-07-25T07:49:02Z</time>
      </trkpt>
      <trkpt lat="46.38932" lon="5.45187">
        <ele>350.6</ele>
        <time>2022-07-25T07:49:04Z</time>
      </trkpt>
      <trkpt lat="46.38942" lon="5.45191">
        <ele>351</ele>
        <time>2022-07-25T07:49:06Z</time>
      </trkpt>
      <trkpt lat="46.38963" lon="5.45201">
        <ele>352.2</ele>
        <time>2022-07-25T07:49:11Z</time>
      </trkpt>
      <trkpt lat="46.38967" lon="5.45204">
        <ele>352.4</ele>
        <time>2022-07-25T07:49:12Z</time>
      </trkpt>
      <trkpt lat="46.38981" lon="5.45211">
        <ele>353.6</ele>
        <time>2022-07-25T07:49:15Z</time>
      </trkpt>
      <trkpt lat="46.39007" lon="5.45223">
        <ele>354.6</ele>
        <time>2022-07-25T07:49:21Z</time>
      </trkpt>
      <trkpt lat="46.39026" lon="5.45231">
        <ele>355.8</ele>
        <time>2022-07-25T07:49:25Z</time>
      </trkpt>
      <trkpt lat="46.3904" lon="5.45236">
        <ele>356.4</ele>
        <time>2022-07-25T07:49:28Z</time>
      </trkpt>
      <trkpt lat="46.39049" lon="5.4524">
        <ele>357</ele>
        <time>2022-07-25T07:49:30Z</time>
      </trkpt>
      <trkpt lat="46.39075" lon="5.45251">
        <ele>358.4</ele>
        <time>2022-07-25T07:49:36Z</time>
      </trkpt>
      <trkpt lat="46.3908" lon="5.45252">
        <ele>358.6</ele>
        <time>2022-07-25T07:49:37Z</time>
      </trkpt>
      <trkpt lat="46.39104" lon="5.45261">
        <ele>359.4</ele>
        <time>2022-07-25T07:49:42Z</time>
      </trkpt>
      <trkpt lat="46.39113" lon="5.45264">
        <ele>359.8</ele>
        <time>2022-07-25T07:49:44Z</time>
      </trkpt>
      <trkpt lat="46.3913" lon="5.45269">
        <ele>360.6</ele>
        <time>2022-07-25T07:49:48Z</time>
      </trkpt>
      <trkpt lat="46.39154" lon="5.45274">
        <ele>361.6</ele>
        <time>2022-07-25T07:49:53Z</time>
      </trkpt>
      <trkpt lat="46.39158" lon="5.45275">
        <ele>361.8</ele>
        <time>2022-07-25T07:49:54Z</time>
      </trkpt>
      <trkpt lat="46.39181" lon="5.45279">
        <ele>362.8</ele>
        <time>2022-07-25T07:49:59Z</time>
      </trkpt>
      <trkpt lat="46.3919" lon="5.4528">
        <ele>363.2</ele>
        <time>2022-07-25T07:50:01Z</time>
      </trkpt>
      <trkpt lat="46.39208" lon="5.45281">
        <ele>364</ele>
        <time>2022-07-25T07:50:05Z</time>
      </trkpt>
      <trkpt lat="46.39221" lon="5.45284">
        <ele>364.4</ele>
        <time>2022-07-25T07:50:08Z</time>
      </trkpt>
      <trkpt lat="46.3923" lon="5.45285">
        <ele>365.2</ele>
        <time>2022-07-25T07:50:10Z</time>
      </trkpt>
      <trkpt lat="46.39254" lon="5.45288">
        <ele>366</ele>
        <time>2022-07-25T07:50:15Z</time>
      </trkpt>
      <trkpt lat="46.39258" lon="5.45289">
        <ele>366.2</ele>
        <time>2022-07-25T07:50:16Z</time>
      </trkpt>
      <trkpt lat="46.39263" lon="5.4529">
        <ele>366.4</ele>
        <time>2022-07-25T07:50:17Z</time>
      </trkpt>
      <trkpt lat="46.39282" lon="5.45294">
        <ele>367.4</ele>
        <time>2022-07-25T07:50:21Z</time>
      </trkpt>
      <trkpt lat="46.39287" lon="5.45294">
        <ele>367.4</ele>
        <time>2022-07-25T07:50:22Z</time>
      </trkpt>
      <trkpt lat="46.39312" lon="5.45293">
        <ele>368.2</ele>
        <time>2022-07-25T07:50:27Z</time>
      </trkpt>
      <trkpt lat="46.39317" lon="5.45291">
        <ele>368.4</ele>
        <time>2022-07-25T07:50:28Z</time>
      </trkpt>
      <trkpt lat="46.39324" lon="5.4529">
        <ele>368.4</ele>
        <time>2022-07-25T07:50:29Z</time>
      </trkpt>
      <trkpt lat="46.39331" lon="5.45288">
        <ele>368.6</ele>
        <time>2022-07-25T07:50:30Z</time>
      </trkpt>
      <trkpt lat="46.39353" lon="5.45279">
        <ele>368.6</ele>
        <time>2022-07-25T07:50:33Z</time>
      </trkpt>
      <trkpt lat="46.39395" lon="5.45257">
        <ele>367.6</ele>
        <time>2022-07-25T07:50:38Z</time>
      </trkpt>
      <trkpt lat="46.39404" lon="5.45253">
        <ele>367</ele>
        <time>2022-07-25T07:50:39Z</time>
      </trkpt>
      <trkpt lat="46.39452" lon="5.45232">
        <ele>365.2</ele>
        <time>2022-07-25T07:50:44Z</time>
      </trkpt>
      <trkpt lat="46.39473" lon="5.45223">
        <ele>363.8</ele>
        <time>2022-07-25T07:50:46Z</time>
      </trkpt>
      <trkpt lat="46.39494" lon="5.45212">
        <ele>362.2</ele>
        <time>2022-07-25T07:50:48Z</time>
      </trkpt>
      <trkpt lat="46.39504" lon="5.45207">
        <ele>361.4</ele>
        <time>2022-07-25T07:50:49Z</time>
      </trkpt>
      <trkpt lat="46.39515" lon="5.45202">
        <ele>360.8</ele>
        <time>2022-07-25T07:50:50Z</time>
      </trkpt>
      <trkpt lat="46.39527" lon="5.45198">
        <ele>359.8</ele>
        <time>2022-07-25T07:50:51Z</time>
      </trkpt>
      <trkpt lat="46.3955" lon="5.45193">
        <ele>358.8</ele>
        <time>2022-07-25T07:50:53Z</time>
      </trkpt>
      <trkpt lat="46.39562" lon="5.45192">
        <ele>358.2</ele>
        <time>2022-07-25T07:50:54Z</time>
      </trkpt>
      <trkpt lat="46.39585" lon="5.45195">
        <ele>357</ele>
        <time>2022-07-25T07:50:56Z</time>
      </trkpt>
      <trkpt lat="46.3963" lon="5.45213">
        <ele>356</ele>
        <time>2022-07-25T07:51:00Z</time>
      </trkpt>
      <trkpt lat="46.39663" lon="5.4523">
        <ele>355</ele>
        <time>2022-07-25T07:51:03Z</time>
      </trkpt>
      <trkpt lat="46.39685" lon="5.4524">
        <ele>353.8</ele>
        <time>2022-07-25T07:51:05Z</time>
      </trkpt>
      <trkpt lat="46.39706" lon="5.45251">
        <ele>352.4</ele>
        <time>2022-07-25T07:51:07Z</time>
      </trkpt>
      <trkpt lat="46.39726" lon="5.45262">
        <ele>351.2</ele>
        <time>2022-07-25T07:51:09Z</time>
      </trkpt>
      <trkpt lat="46.39757" lon="5.45278">
        <ele>350</ele>
        <time>2022-07-25T07:51:12Z</time>
      </trkpt>
      <trkpt lat="46.39777" lon="5.45287">
        <ele>348.6</ele>
        <time>2022-07-25T07:51:14Z</time>
      </trkpt>
      <trkpt lat="46.39798" lon="5.45293">
        <ele>347.4</ele>
        <time>2022-07-25T07:51:16Z</time>
      </trkpt>
      <trkpt lat="46.3982" lon="5.45295">
        <ele>346.8</ele>
        <time>2022-07-25T07:51:18Z</time>
      </trkpt>
      <trkpt lat="46.39842" lon="5.45294">
        <ele>346</ele>
        <time>2022-07-25T07:51:20Z</time>
      </trkpt>
      <trkpt lat="46.39852" lon="5.45292">
        <ele>345.4</ele>
        <time>2022-07-25T07:51:21Z</time>
      </trkpt>
      <trkpt lat="46.39873" lon="5.45291">
        <ele>344.8</ele>
        <time>2022-07-25T07:51:23Z</time>
      </trkpt>
      <trkpt lat="46.39904" lon="5.45287">
        <ele>343.4</ele>
        <time>2022-07-25T07:51:26Z</time>
      </trkpt>
      <trkpt lat="46.39942" lon="5.45282">
        <ele>342.8</ele>
        <time>2022-07-25T07:51:30Z</time>
      </trkpt>
      <trkpt lat="46.39968" lon="5.45278">
        <ele>342.2</ele>
        <time>2022-07-25T07:51:33Z</time>
      </trkpt>
      <trkpt lat="46.40004" lon="5.45275">
        <ele>341.8</ele>
        <time>2022-07-25T07:51:37Z</time>
      </trkpt>
      <trkpt lat="46.40063" lon="5.45268">
        <ele>341.6</ele>
        <time>2022-07-25T07:51:44Z</time>
      </trkpt>
      <trkpt lat="46.40072" lon="5.45266">
        <ele>341.6</ele>
        <time>2022-07-25T07:51:45Z</time>
      </trkpt>
      <trkpt lat="46.40129" lon="5.45257">
        <ele>341.6</ele>
        <time>2022-07-25T07:51:52Z</time>
      </trkpt>
      <trkpt lat="46.40151" lon="5.45245">
        <ele>341.6</ele>
        <time>2022-07-25T07:51:55Z</time>
      </trkpt>
      <trkpt lat="46.40165" lon="5.45238">
        <ele>341.6</ele>
        <time>2022-07-25T07:51:57Z</time>
      </trkpt>
      <trkpt lat="46.40198" lon="5.45235">
        <ele>342</ele>
        <time>2022-07-25T07:52:01Z</time>
      </trkpt>
      <trkpt lat="46.40229" lon="5.45226">
        <ele>342</ele>
        <time>2022-07-25T07:52:05Z</time>
      </trkpt>
      <trkpt lat="46.40236" lon="5.45222">
        <ele>342</ele>
        <time>2022-07-25T07:52:06Z</time>
      </trkpt>
      <trkpt lat="46.40292" lon="5.45191">
        <ele>342.2</ele>
        <time>2022-07-25T07:52:14Z</time>
      </trkpt>
      <trkpt lat="46.403" lon="5.45187">
        <ele>342.2</ele>
        <time>2022-07-25T07:52:15Z</time>
      </trkpt>
      <trkpt lat="46.40351" lon="5.45161">
        <ele>342.4</ele>
        <time>2022-07-25T07:52:22Z</time>
      </trkpt>
      <trkpt lat="46.4038" lon="5.45146">
        <ele>342.4</ele>
        <time>2022-07-25T07:52:26Z</time>
      </trkpt>
      <trkpt lat="46.40435" lon="5.45117">
        <ele>342.8</ele>
        <time>2022-07-25T07:52:34Z</time>
      </trkpt>
      <trkpt lat="46.40452" lon="5.45108">
        <ele>343.2</ele>
        <time>2022-07-25T07:52:37Z</time>
      </trkpt>
      <trkpt lat="46.4046" lon="5.45104">
        <ele>343.6</ele>
        <time>2022-07-25T07:52:38Z</time>
      </trkpt>
      <trkpt lat="46.40492" lon="5.45086">
        <ele>344.6</ele>
        <time>2022-07-25T07:52:43Z</time>
      </trkpt>
      <trkpt lat="46.40506" lon="5.4508">
        <ele>344.8</ele>
        <time>2022-07-25T07:52:45Z</time>
      </trkpt>
      <trkpt lat="46.4056" lon="5.45051">
        <ele>345</ele>
        <time>2022-07-25T07:52:53Z</time>
      </trkpt>
      <trkpt lat="46.40581" lon="5.45039">
        <ele>345</ele>
        <time>2022-07-25T07:52:56Z</time>
      </trkpt>
      <trkpt lat="46.40634" lon="5.45011">
        <ele>345.2</ele>
        <time>2022-07-25T07:53:03Z</time>
      </trkpt>
      <trkpt lat="46.4065" lon="5.45004">
        <ele>345.2</ele>
        <time>2022-07-25T07:53:05Z</time>
      </trkpt>
      <trkpt lat="46.40699" lon="5.44996">
        <ele>345</ele>
        <time>2022-07-25T07:53:11Z</time>
      </trkpt>
      <trkpt lat="46.40737" lon="5.45004">
        <ele>345.2</ele>
        <time>2022-07-25T07:53:16Z</time>
      </trkpt>
      <trkpt lat="46.40789" lon="5.45022">
        <ele>345.4</ele>
        <time>2022-07-25T07:53:23Z</time>
      </trkpt>
      <trkpt lat="46.40837" lon="5.45046">
        <ele>345.6</ele>
        <time>2022-07-25T07:53:30Z</time>
      </trkpt>
      <trkpt lat="46.40879" lon="5.45078">
        <ele>346.6</ele>
        <time>2022-07-25T07:53:37Z</time>
      </trkpt>
      <trkpt lat="46.40888" lon="5.45086">
        <ele>346.8</ele>
        <time>2022-07-25T07:53:39Z</time>
      </trkpt>
      <trkpt lat="46.409" lon="5.45096">
        <ele>347.2</ele>
        <time>2022-07-25T07:53:41Z</time>
      </trkpt>
      <trkpt lat="46.40905" lon="5.45101">
        <ele>347.4</ele>
        <time>2022-07-25T07:53:42Z</time>
      </trkpt>
      <trkpt lat="46.40915" lon="5.4511">
        <ele>348</ele>
        <time>2022-07-25T07:53:44Z</time>
      </trkpt>
      <trkpt lat="46.40936" lon="5.45127">
        <ele>349.2</ele>
        <time>2022-07-25T07:53:48Z</time>
      </trkpt>
      <trkpt lat="46.40964" lon="5.45147">
        <ele>350.4</ele>
        <time>2022-07-25T07:53:53Z</time>
      </trkpt>
      <trkpt lat="46.40986" lon="5.4516">
        <ele>350.6</ele>
        <time>2022-07-25T07:53:57Z</time>
      </trkpt>
      <trkpt lat="46.41028" lon="5.45179">
        <ele>351.4</ele>
        <time>2022-07-25T07:54:04Z</time>
      </trkpt>
      <trkpt lat="46.41045" lon="5.45184">
        <ele>351.8</ele>
        <time>2022-07-25T07:54:07Z</time>
      </trkpt>
      <trkpt lat="46.41069" lon="5.45191">
        <ele>352</ele>
        <time>2022-07-25T07:54:11Z</time>
      </trkpt>
      <trkpt lat="46.41086" lon="5.45195">
        <ele>352.2</ele>
        <time>2022-07-25T07:54:14Z</time>
      </trkpt>
      <trkpt lat="46.41098" lon="5.45197">
        <ele>352.4</ele>
        <time>2022-07-25T07:54:16Z</time>
      </trkpt>
      <trkpt lat="46.41135" lon="5.45205">
        <ele>353</ele>
        <time>2022-07-25T07:54:22Z</time>
      </trkpt>
      <trkpt lat="46.4116" lon="5.45209">
        <ele>353.4</ele>
        <time>2022-07-25T07:54:26Z</time>
      </trkpt>
      <trkpt lat="46.4118" lon="5.45213">
        <ele>354</ele>
        <time>2022-07-25T07:54:29Z</time>
      </trkpt>
      <trkpt lat="46.41214" lon="5.45219">
        <ele>354.6</ele>
        <time>2022-07-25T07:54:34Z</time>
      </trkpt>
      <trkpt lat="46.41236" lon="5.45223">
        <ele>354.6</ele>
        <time>2022-07-25T07:54:37Z</time>
      </trkpt>
      <trkpt lat="46.41293" lon="5.45236">
        <ele>355</ele>
        <time>2022-07-25T07:54:45Z</time>
      </trkpt>
      <trkpt lat="46.41299" lon="5.45238">
        <ele>355</ele>
        <time>2022-07-25T07:54:46Z</time>
      </trkpt>
      <trkpt lat="46.41358" lon="5.45251">
        <ele>354.8</ele>
        <time>2022-07-25T07:54:54Z</time>
      </trkpt>
      <trkpt lat="46.41372" lon="5.45255">
        <ele>354.8</ele>
        <time>2022-07-25T07:54:56Z</time>
      </trkpt>
      <trkpt lat="46.4143" lon="5.45268">
        <ele>355</ele>
        <time>2022-07-25T07:55:04Z</time>
      </trkpt>
      <trkpt lat="46.41489" lon="5.45283">
        <ele>355.4</ele>
        <time>2022-07-25T07:55:13Z</time>
      </trkpt>
      <trkpt lat="46.41497" lon="5.45285">
        <ele>355.4</ele>
        <time>2022-07-25T07:55:14Z</time>
      </trkpt>
      <trkpt lat="46.41548" lon="5.45297">
        <ele>355.4</ele>
        <time>2022-07-25T07:55:21Z</time>
      </trkpt>
      <trkpt lat="46.41585" lon="5.45306">
        <ele>355.4</ele>
        <time>2022-07-25T07:55:26Z</time>
      </trkpt>
      <trkpt lat="46.41606" lon="5.45311">
        <ele>355.6</ele>
        <time>2022-07-25T07:55:29Z</time>
      </trkpt>
      <trkpt lat="46.4164" lon="5.4532">
        <ele>356</ele>
        <time>2022-07-25T07:55:34Z</time>
      </trkpt>
      <trkpt lat="46.41667" lon="5.45326">
        <ele>356.6</ele>
        <time>2022-07-25T07:55:38Z</time>
      </trkpt>
      <trkpt lat="46.41694" lon="5.45333">
        <ele>357.2</ele>
        <time>2022-07-25T07:55:42Z</time>
      </trkpt>
      <trkpt lat="46.41727" lon="5.45341">
        <ele>357.6</ele>
        <time>2022-07-25T07:55:47Z</time>
      </trkpt>
      <trkpt lat="46.41768" lon="5.4535">
        <ele>358.2</ele>
        <time>2022-07-25T07:55:53Z</time>
      </trkpt>
      <trkpt lat="46.41797" lon="5.45357">
        <ele>358.6</ele>
        <time>2022-07-25T07:55:57Z</time>
      </trkpt>
      <trkpt lat="46.41819" lon="5.45361">
        <ele>358.8</ele>
        <time>2022-07-25T07:56:00Z</time>
      </trkpt>
      <trkpt lat="46.41879" lon="5.45376">
        <ele>359.2</ele>
        <time>2022-07-25T07:56:08Z</time>
      </trkpt>
      <trkpt lat="46.41886" lon="5.45378">
        <ele>359.4</ele>
        <time>2022-07-25T07:56:09Z</time>
      </trkpt>
      <trkpt lat="46.4193" lon="5.4539">
        <ele>359.6</ele>
        <time>2022-07-25T07:56:15Z</time>
      </trkpt>
      <trkpt lat="46.41944" lon="5.45394">
        <ele>359.6</ele>
        <time>2022-07-25T07:56:17Z</time>
      </trkpt>
      <trkpt lat="46.4199" lon="5.45412">
        <ele>360.2</ele>
        <time>2022-07-25T07:56:24Z</time>
      </trkpt>
      <trkpt lat="46.4201" lon="5.4542">
        <ele>360.6</ele>
        <time>2022-07-25T07:56:27Z</time>
      </trkpt>
      <trkpt lat="46.4205" lon="5.45438">
        <ele>361.2</ele>
        <time>2022-07-25T07:56:33Z</time>
      </trkpt>
      <trkpt lat="46.42065" lon="5.45444">
        <ele>361.2</ele>
        <time>2022-07-25T07:56:35Z</time>
      </trkpt>
      <trkpt lat="46.42111" lon="5.45462">
        <ele>361.6</ele>
        <time>2022-07-25T07:56:41Z</time>
      </trkpt>
      <trkpt lat="46.42165" lon="5.45484">
        <ele>361.2</ele>
        <time>2022-07-25T07:56:48Z</time>
      </trkpt>
      <trkpt lat="46.42181" lon="5.45489">
        <ele>361.2</ele>
        <time>2022-07-25T07:56:50Z</time>
      </trkpt>
      <trkpt lat="46.42235" lon="5.45508">
        <ele>361</ele>
        <time>2022-07-25T07:56:57Z</time>
      </trkpt>
      <trkpt lat="46.42259" lon="5.45516">
        <ele>361</ele>
        <time>2022-07-25T07:57:00Z</time>
      </trkpt>
      <trkpt lat="46.42318" lon="5.45535">
        <ele>361</ele>
        <time>2022-07-25T07:57:08Z</time>
      </trkpt>
      <trkpt lat="46.42342" lon="5.45542">
        <ele>361.2</ele>
        <time>2022-07-25T07:57:11Z</time>
      </trkpt>
      <trkpt lat="46.42395" lon="5.45559">
        <ele>360.8</ele>
        <time>2022-07-25T07:57:17Z</time>
      </trkpt>
      <trkpt lat="46.42414" lon="5.45565">
        <ele>360.4</ele>
        <time>2022-07-25T07:57:19Z</time>
      </trkpt>
      <trkpt lat="46.42444" lon="5.45574">
        <ele>359.4</ele>
        <time>2022-07-25T07:57:22Z</time>
      </trkpt>
      <trkpt lat="46.42464" lon="5.45581">
        <ele>358.8</ele>
        <time>2022-07-25T07:57:24Z</time>
      </trkpt>
      <trkpt lat="46.42494" lon="5.45591">
        <ele>358</ele>
        <time>2022-07-25T07:57:27Z</time>
      </trkpt>
      <trkpt lat="46.42554" lon="5.45609">
        <ele>356.8</ele>
        <time>2022-07-25T07:57:33Z</time>
      </trkpt>
      <trkpt lat="46.4261" lon="5.45627">
        <ele>356.6</ele>
        <time>2022-07-25T07:57:39Z</time>
      </trkpt>
      <trkpt lat="46.42647" lon="5.45639">
        <ele>356.8</ele>
        <time>2022-07-25T07:57:43Z</time>
      </trkpt>
      <trkpt lat="46.42705" lon="5.45658">
        <ele>357.2</ele>
        <time>2022-07-25T07:57:50Z</time>
      </trkpt>
      <trkpt lat="46.42753" lon="5.45672">
        <ele>357.8</ele>
        <time>2022-07-25T07:57:56Z</time>
      </trkpt>
      <trkpt lat="46.42761" lon="5.45674">
        <ele>358</ele>
        <time>2022-07-25T07:57:57Z</time>
      </trkpt>
      <trkpt lat="46.42818" lon="5.45682">
        <ele>358.2</ele>
        <time>2022-07-25T07:58:04Z</time>
      </trkpt>
      <trkpt lat="46.42878" lon="5.45683">
        <ele>358</ele>
        <time>2022-07-25T07:58:11Z</time>
      </trkpt>
      <trkpt lat="46.42906" lon="5.45684">
        <ele>357.4</ele>
        <time>2022-07-25T07:58:14Z</time>
      </trkpt>
      <trkpt lat="46.42944" lon="5.45684">
        <ele>356.8</ele>
        <time>2022-07-25T07:58:18Z</time>
      </trkpt>
      <trkpt lat="46.42982" lon="5.45685">
        <ele>355.8</ele>
        <time>2022-07-25T07:58:22Z</time>
      </trkpt>
      <trkpt lat="46.42992" lon="5.45685">
        <ele>355.6</ele>
        <time>2022-07-25T07:58:23Z</time>
      </trkpt>
      <trkpt lat="46.43047" lon="5.45685">
        <ele>354.6</ele>
        <time>2022-07-25T07:58:29Z</time>
      </trkpt>
      <trkpt lat="46.43057" lon="5.45686">
        <ele>354.4</ele>
        <time>2022-07-25T07:58:30Z</time>
      </trkpt>
      <trkpt lat="46.43086" lon="5.45686">
        <ele>354</ele>
        <time>2022-07-25T07:58:33Z</time>
      </trkpt>
      <trkpt lat="46.43115" lon="5.45686">
        <ele>353.2</ele>
        <time>2022-07-25T07:58:36Z</time>
      </trkpt>
      <trkpt lat="46.43145" lon="5.45687">
        <ele>352</ele>
        <time>2022-07-25T07:58:39Z</time>
      </trkpt>
      <trkpt lat="46.43164" lon="5.45687">
        <ele>351.6</ele>
        <time>2022-07-25T07:58:41Z</time>
      </trkpt>
      <trkpt lat="46.43195" lon="5.45688">
        <ele>351</ele>
        <time>2022-07-25T07:58:44Z</time>
      </trkpt>
      <trkpt lat="46.43251" lon="5.4569">
        <ele>350.2</ele>
        <time>2022-07-25T07:58:50Z</time>
      </trkpt>
      <trkpt lat="46.43293" lon="5.45691">
        <ele>350</ele>
        <time>2022-07-25T07:58:55Z</time>
      </trkpt>
      <trkpt lat="46.43309" lon="5.45691">
        <ele>349.8</ele>
        <time>2022-07-25T07:58:57Z</time>
      </trkpt>
      <trkpt lat="46.43372" lon="5.45693">
        <ele>349.2</ele>
        <time>2022-07-25T07:59:05Z</time>
      </trkpt>
      <trkpt lat="46.43431" lon="5.45694">
        <ele>349</ele>
        <time>2022-07-25T07:59:13Z</time>
      </trkpt>
      <trkpt lat="46.43438" lon="5.45694">
        <ele>349</ele>
        <time>2022-07-25T07:59:14Z</time>
      </trkpt>
      <trkpt lat="46.43455" lon="5.45695">
        <ele>349</ele>
        <time>2022-07-25T07:59:18Z</time>
      </trkpt>
      <trkpt lat="46.43455" lon="5.45695">
        <ele>348.8</ele>
        <time>2022-07-25T07:59:19Z</time>
      </trkpt>
      <trkpt lat="46.43455" lon="5.45695">
        <ele>348.8</ele>
        <time>2022-07-25T07:59:21Z</time>
      </trkpt>
      <trkpt lat="46.43458" lon="5.45694">
        <ele>348.4</ele>
        <time>2022-07-25T07:59:29Z</time>
      </trkpt>
      <trkpt lat="46.43472" lon="5.45695">
        <ele>348.2</ele>
        <time>2022-07-25T07:59:33Z</time>
      </trkpt>
      <trkpt lat="46.43502" lon="5.45695">
        <ele>348.2</ele>
        <time>2022-07-25T07:59:38Z</time>
      </trkpt>
      <trkpt lat="46.43545" lon="5.45696">
        <ele>348.4</ele>
        <time>2022-07-25T07:59:44Z</time>
      </trkpt>
      <trkpt lat="46.43604" lon="5.45697">
        <ele>348.6</ele>
        <time>2022-07-25T07:59:52Z</time>
      </trkpt>
      <trkpt lat="46.43612" lon="5.45697">
        <ele>348.8</ele>
        <time>2022-07-25T07:59:53Z</time>
      </trkpt>
      <trkpt lat="46.43671" lon="5.45699">
        <ele>349.2</ele>
        <time>2022-07-25T08:00:01Z</time>
      </trkpt>
      <trkpt lat="46.43731" lon="5.45701">
        <ele>349.2</ele>
        <time>2022-07-25T08:00:09Z</time>
      </trkpt>
      <trkpt lat="46.43739" lon="5.45701">
        <ele>349.2</ele>
        <time>2022-07-25T08:00:10Z</time>
      </trkpt>
      <trkpt lat="46.43798" lon="5.45702">
        <ele>349.4</ele>
        <time>2022-07-25T08:00:18Z</time>
      </trkpt>
      <trkpt lat="46.43805" lon="5.45702">
        <ele>349.6</ele>
        <time>2022-07-25T08:00:19Z</time>
      </trkpt>
      <trkpt lat="46.43828" lon="5.45702">
        <ele>349.8</ele>
        <time>2022-07-25T08:00:22Z</time>
      </trkpt>
      <trkpt lat="46.43881" lon="5.45698">
        <ele>350.4</ele>
        <time>2022-07-25T08:00:29Z</time>
      </trkpt>
      <trkpt lat="46.43936" lon="5.45689">
        <ele>350.4</ele>
        <time>2022-07-25T08:00:36Z</time>
      </trkpt>
      <trkpt lat="46.43951" lon="5.45686">
        <ele>350.4</ele>
        <time>2022-07-25T08:00:38Z</time>
      </trkpt>
      <trkpt lat="46.44006" lon="5.45676">
        <ele>350.2</ele>
        <time>2022-07-25T08:00:45Z</time>
      </trkpt>
      <trkpt lat="46.44037" lon="5.4567">
        <ele>350.4</ele>
        <time>2022-07-25T08:00:49Z</time>
      </trkpt>
      <trkpt lat="46.44073" lon="5.45664">
        <ele>351</ele>
        <time>2022-07-25T08:00:54Z</time>
      </trkpt>
      <trkpt lat="46.44088" lon="5.45661">
        <ele>351</ele>
        <time>2022-07-25T08:00:56Z</time>
      </trkpt>
      <trkpt lat="46.44111" lon="5.45656">
        <ele>351.4</ele>
        <time>2022-07-25T08:00:59Z</time>
      </trkpt>
      <trkpt lat="46.44167" lon="5.45646">
        <ele>351.6</ele>
        <time>2022-07-25T08:01:06Z</time>
      </trkpt>
      <trkpt lat="46.44182" lon="5.45643">
        <ele>351.8</ele>
        <time>2022-07-25T08:01:08Z</time>
      </trkpt>
      <trkpt lat="46.44198" lon="5.4564">
        <ele>352</ele>
        <time>2022-07-25T08:01:10Z</time>
      </trkpt>
      <trkpt lat="46.44258" lon="5.4563">
        <ele>352.4</ele>
        <time>2022-07-25T08:01:18Z</time>
      </trkpt>
      <trkpt lat="46.44294" lon="5.45631">
        <ele>353</ele>
        <time>2022-07-25T08:01:23Z</time>
      </trkpt>
      <trkpt lat="46.4431" lon="5.45633">
        <ele>353.2</ele>
        <time>2022-07-25T08:01:25Z</time>
      </trkpt>
      <trkpt lat="46.4436" lon="5.45638">
        <ele>354</ele>
        <time>2022-07-25T08:01:32Z</time>
      </trkpt>
      <trkpt lat="46.44381" lon="5.4564">
        <ele>354.6</ele>
        <time>2022-07-25T08:01:35Z</time>
      </trkpt>
      <trkpt lat="46.44402" lon="5.45642">
        <ele>355</ele>
        <time>2022-07-25T08:01:38Z</time>
      </trkpt>
      <trkpt lat="46.44435" lon="5.45646">
        <ele>356.2</ele>
        <time>2022-07-25T08:01:43Z</time>
      </trkpt>
      <trkpt lat="46.44441" lon="5.45646">
        <ele>356.4</ele>
        <time>2022-07-25T08:01:44Z</time>
      </trkpt>
      <trkpt lat="46.4448" lon="5.45651">
        <ele>357.4</ele>
        <time>2022-07-25T08:01:50Z</time>
      </trkpt>
      <trkpt lat="46.44487" lon="5.45652">
        <ele>357.6</ele>
        <time>2022-07-25T08:01:51Z</time>
      </trkpt>
      <trkpt lat="46.44531" lon="5.45663">
        <ele>358.2</ele>
        <time>2022-07-25T08:01:57Z</time>
      </trkpt>
      <trkpt lat="46.44547" lon="5.45667">
        <ele>358.6</ele>
        <time>2022-07-25T08:01:59Z</time>
      </trkpt>
      <trkpt lat="46.44578" lon="5.45678">
        <ele>358.6</ele>
        <time>2022-07-25T08:02:03Z</time>
      </trkpt>
      <trkpt lat="46.44633" lon="5.45696">
        <ele>358.2</ele>
        <time>2022-07-25T08:02:10Z</time>
      </trkpt>
      <trkpt lat="46.44641" lon="5.45699">
        <ele>358</ele>
        <time>2022-07-25T08:02:11Z</time>
      </trkpt>
      <trkpt lat="46.44694" lon="5.45718">
        <ele>358.2</ele>
        <time>2022-07-25T08:02:18Z</time>
      </trkpt>
      <trkpt lat="46.44723" lon="5.45731">
        <ele>358.4</ele>
        <time>2022-07-25T08:02:22Z</time>
      </trkpt>
      <trkpt lat="46.44779" lon="5.4576">
        <ele>358.6</ele>
        <time>2022-07-25T08:02:30Z</time>
      </trkpt>
      <trkpt lat="46.44792" lon="5.45767">
        <ele>358.6</ele>
        <time>2022-07-25T08:02:32Z</time>
      </trkpt>
      <trkpt lat="46.44845" lon="5.45798">
        <ele>359.4</ele>
        <time>2022-07-25T08:02:40Z</time>
      </trkpt>
      <trkpt lat="46.44866" lon="5.4581">
        <ele>359.4</ele>
        <time>2022-07-25T08:02:43Z</time>
      </trkpt>
      <trkpt lat="46.4491" lon="5.45835">
        <ele>359.6</ele>
        <time>2022-07-25T08:02:49Z</time>
      </trkpt>
      <trkpt lat="46.44933" lon="5.45848">
        <ele>359.6</ele>
        <time>2022-07-25T08:02:52Z</time>
      </trkpt>
      <trkpt lat="46.44991" lon="5.45882">
        <ele>359.2</ele>
        <time>2022-07-25T08:02:59Z</time>
      </trkpt>
      <trkpt lat="46.45017" lon="5.45898">
        <ele>358.4</ele>
        <time>2022-07-25T08:03:02Z</time>
      </trkpt>
      <trkpt lat="46.45053" lon="5.4592">
        <ele>357.4</ele>
        <time>2022-07-25T08:03:06Z</time>
      </trkpt>
      <trkpt lat="46.45107" lon="5.45947">
        <ele>356.6</ele>
        <time>2022-07-25T08:03:12Z</time>
      </trkpt>
      <trkpt lat="46.45113" lon="5.45951">
        <ele>356.6</ele>
        <time>2022-07-25T08:03:13Z</time>
      </trkpt>
      <trkpt lat="46.45144" lon="5.45974">
        <ele>356.6</ele>
        <time>2022-07-25T08:03:17Z</time>
      </trkpt>
      <trkpt lat="46.45159" lon="5.45985">
        <ele>356.8</ele>
        <time>2022-07-25T08:03:19Z</time>
      </trkpt>
      <trkpt lat="46.45172" lon="5.45994">
        <ele>357</ele>
        <time>2022-07-25T08:03:21Z</time>
      </trkpt>
      <trkpt lat="46.45191" lon="5.46008">
        <ele>357.4</ele>
        <time>2022-07-25T08:03:24Z</time>
      </trkpt>
      <trkpt lat="46.45202" lon="5.46019">
        <ele>358</ele>
        <time>2022-07-25T08:03:26Z</time>
      </trkpt>
      <trkpt lat="46.45215" lon="5.46031">
        <ele>358.4</ele>
        <time>2022-07-25T08:03:28Z</time>
      </trkpt>
      <trkpt lat="46.45221" lon="5.46036">
        <ele>358.6</ele>
        <time>2022-07-25T08:03:29Z</time>
      </trkpt>
      <trkpt lat="46.45227" lon="5.4604">
        <ele>358.8</ele>
        <time>2022-07-25T08:03:30Z</time>
      </trkpt>
      <trkpt lat="46.45233" lon="5.46043">
        <ele>359.2</ele>
        <time>2022-07-25T08:03:31Z</time>
      </trkpt>
      <trkpt lat="46.45245" lon="5.46047">
        <ele>359.6</ele>
        <time>2022-07-25T08:03:33Z</time>
      </trkpt>
      <trkpt lat="46.4525" lon="5.46049">
        <ele>359.8</ele>
        <time>2022-07-25T08:03:34Z</time>
      </trkpt>
      <trkpt lat="46.45269" lon="5.46052">
        <ele>360.8</ele>
        <time>2022-07-25T08:03:37Z</time>
      </trkpt>
      <trkpt lat="46.45296" lon="5.46056">
        <ele>361.6</ele>
        <time>2022-07-25T08:03:41Z</time>
      </trkpt>
      <trkpt lat="46.4531" lon="5.46059">
        <ele>362</ele>
        <time>2022-07-25T08:03:43Z</time>
      </trkpt>
      <trkpt lat="46.45339" lon="5.46065">
        <ele>362</ele>
        <time>2022-07-25T08:03:47Z</time>
      </trkpt>
      <trkpt lat="46.45393" lon="5.46074">
        <ele>362</ele>
        <time>2022-07-25T08:03:54Z</time>
      </trkpt>
      <trkpt lat="46.45401" lon="5.46076">
        <ele>361.8</ele>
        <time>2022-07-25T08:03:55Z</time>
      </trkpt>
      <trkpt lat="46.45459" lon="5.46086">
        <ele>361.4</ele>
        <time>2022-07-25T08:04:02Z</time>
      </trkpt>
      <trkpt lat="46.45483" lon="5.4609">
        <ele>361</ele>
        <time>2022-07-25T08:04:05Z</time>
      </trkpt>
      <trkpt lat="46.45494" lon="5.46092">
        <ele>360.8</ele>
        <time>2022-07-25T08:04:06Z</time>
      </trkpt>
      <trkpt lat="46.45529" lon="5.46098">
        <ele>359.8</ele>
        <time>2022-07-25T08:04:10Z</time>
      </trkpt>
      <trkpt lat="46.45538" lon="5.461">
        <ele>359.6</ele>
        <time>2022-07-25T08:04:11Z</time>
      </trkpt>
      <trkpt lat="46.45597" lon="5.46111">
        <ele>358.6</ele>
        <time>2022-07-25T08:04:17Z</time>
      </trkpt>
      <trkpt lat="46.45607" lon="5.46112">
        <ele>358.4</ele>
        <time>2022-07-25T08:04:18Z</time>
      </trkpt>
      <trkpt lat="46.45648" lon="5.4612">
        <ele>357.6</ele>
        <time>2022-07-25T08:04:22Z</time>
      </trkpt>
      <trkpt lat="46.45682" lon="5.46126">
        <ele>357</ele>
        <time>2022-07-25T08:04:25Z</time>
      </trkpt>
      <trkpt lat="46.45702" lon="5.46129">
        <ele>356.4</ele>
        <time>2022-07-25T08:04:27Z</time>
      </trkpt>
      <trkpt lat="46.45765" lon="5.46141">
        <ele>355.6</ele>
        <time>2022-07-25T08:04:33Z</time>
      </trkpt>
      <trkpt lat="46.45785" lon="5.46145">
        <ele>355.6</ele>
        <time>2022-07-25T08:04:35Z</time>
      </trkpt>
      <trkpt lat="46.45805" lon="5.46148">
        <ele>355.2</ele>
        <time>2022-07-25T08:04:37Z</time>
      </trkpt>
      <trkpt lat="46.45866" lon="5.46159">
        <ele>355</ele>
        <time>2022-07-25T08:04:43Z</time>
      </trkpt>
      <trkpt lat="46.45886" lon="5.46162">
        <ele>355</ele>
        <time>2022-07-25T08:04:45Z</time>
      </trkpt>
      <trkpt lat="46.45946" lon="5.46173">
        <ele>354.8</ele>
        <time>2022-07-25T08:04:51Z</time>
      </trkpt>
      <trkpt lat="46.45976" lon="5.46179">
        <ele>354.6</ele>
        <time>2022-07-25T08:04:54Z</time>
      </trkpt>
      <trkpt lat="46.46035" lon="5.46189">
        <ele>354.6</ele>
        <time>2022-07-25T08:05:00Z</time>
      </trkpt>
      <trkpt lat="46.46054" lon="5.46192">
        <ele>354.6</ele>
        <time>2022-07-25T08:05:02Z</time>
      </trkpt>
      <trkpt lat="46.46111" lon="5.46202">
        <ele>354.6</ele>
        <time>2022-07-25T08:05:08Z</time>
      </trkpt>
      <trkpt lat="46.46149" lon="5.46209">
        <ele>354.8</ele>
        <time>2022-07-25T08:05:12Z</time>
      </trkpt>
      <trkpt lat="46.46206" lon="5.46219">
        <ele>355</ele>
        <time>2022-07-25T08:05:18Z</time>
      </trkpt>
      <trkpt lat="46.46233" lon="5.46223">
        <ele>355</ele>
        <time>2022-07-25T08:05:21Z</time>
      </trkpt>
      <trkpt lat="46.46291" lon="5.46234">
        <ele>355</ele>
        <time>2022-07-25T08:05:27Z</time>
      </trkpt>
      <trkpt lat="46.46319" lon="5.46239">
        <ele>354.8</ele>
        <time>2022-07-25T08:05:30Z</time>
      </trkpt>
      <trkpt lat="46.46373" lon="5.46249">
        <ele>354.8</ele>
        <time>2022-07-25T08:05:36Z</time>
      </trkpt>
      <trkpt lat="46.46392" lon="5.46252">
        <ele>354.8</ele>
        <time>2022-07-25T08:05:38Z</time>
      </trkpt>
      <trkpt lat="46.46445" lon="5.46262">
        <ele>355</ele>
        <time>2022-07-25T08:05:44Z</time>
      </trkpt>
      <trkpt lat="46.4649" lon="5.4627">
        <ele>355</ele>
        <time>2022-07-25T08:05:49Z</time>
      </trkpt>
      <trkpt lat="46.46553" lon="5.46281">
        <ele>355</ele>
        <time>2022-07-25T08:05:56Z</time>
      </trkpt>
      <trkpt lat="46.46597" lon="5.46289">
        <ele>355</ele>
        <time>2022-07-25T08:06:01Z</time>
      </trkpt>
      <trkpt lat="46.46659" lon="5.463">
        <ele>355.2</ele>
        <time>2022-07-25T08:06:08Z</time>
      </trkpt>
      <trkpt lat="46.46676" lon="5.46303">
        <ele>355.2</ele>
        <time>2022-07-25T08:06:10Z</time>
      </trkpt>
      <trkpt lat="46.46737" lon="5.46314">
        <ele>355.4</ele>
        <time>2022-07-25T08:06:17Z</time>
      </trkpt>
      <trkpt lat="46.46771" lon="5.4632">
        <ele>355.6</ele>
        <time>2022-07-25T08:06:21Z</time>
      </trkpt>
      <trkpt lat="46.46831" lon="5.46331">
        <ele>355.8</ele>
        <time>2022-07-25T08:06:28Z</time>
      </trkpt>
      <trkpt lat="46.46848" lon="5.46334">
        <ele>356</ele>
        <time>2022-07-25T08:06:30Z</time>
      </trkpt>
      <trkpt lat="46.46909" lon="5.46345">
        <ele>356</ele>
        <time>2022-07-25T08:06:37Z</time>
      </trkpt>
      <trkpt lat="46.46933" lon="5.4635">
        <ele>356.2</ele>
        <time>2022-07-25T08:06:40Z</time>
      </trkpt>
      <trkpt lat="46.46972" lon="5.46356">
        <ele>356.6</ele>
        <time>2022-07-25T08:06:45Z</time>
      </trkpt>
      <trkpt lat="46.47004" lon="5.46362">
        <ele>356.6</ele>
        <time>2022-07-25T08:06:49Z</time>
      </trkpt>
      <trkpt lat="46.47058" lon="5.46372">
        <ele>356.6</ele>
        <time>2022-07-25T08:06:56Z</time>
      </trkpt>
      <trkpt lat="46.47073" lon="5.46374">
        <ele>356.8</ele>
        <time>2022-07-25T08:06:58Z</time>
      </trkpt>
      <trkpt lat="46.47133" lon="5.46385">
        <ele>357</ele>
        <time>2022-07-25T08:07:06Z</time>
      </trkpt>
      <trkpt lat="46.47163" lon="5.46391">
        <ele>357</ele>
        <time>2022-07-25T08:07:10Z</time>
      </trkpt>
      <trkpt lat="46.47222" lon="5.464">
        <ele>357.6</ele>
        <time>2022-07-25T08:07:18Z</time>
      </trkpt>
      <trkpt lat="46.47244" lon="5.46405">
        <ele>357.4</ele>
        <time>2022-07-25T08:07:21Z</time>
      </trkpt>
      <trkpt lat="46.47302" lon="5.46416">
        <ele>357.8</ele>
        <time>2022-07-25T08:07:29Z</time>
      </trkpt>
      <trkpt lat="46.47324" lon="5.4642">
        <ele>357.8</ele>
        <time>2022-07-25T08:07:32Z</time>
      </trkpt>
      <trkpt lat="46.47368" lon="5.46427">
        <ele>358.6</ele>
        <time>2022-07-25T08:07:38Z</time>
      </trkpt>
      <trkpt lat="46.47375" lon="5.46428">
        <ele>358.8</ele>
        <time>2022-07-25T08:07:39Z</time>
      </trkpt>
      <trkpt lat="46.47431" lon="5.46439">
        <ele>359.8</ele>
        <time>2022-07-25T08:07:46Z</time>
      </trkpt>
      <trkpt lat="46.47482" lon="5.46448">
        <ele>360.6</ele>
        <time>2022-07-25T08:07:53Z</time>
      </trkpt>
      <trkpt lat="46.47489" lon="5.46449">
        <ele>360.8</ele>
        <time>2022-07-25T08:07:54Z</time>
      </trkpt>
      <trkpt lat="46.47545" lon="5.46459">
        <ele>361.4</ele>
        <time>2022-07-25T08:08:02Z</time>
      </trkpt>
      <trkpt lat="46.47574" lon="5.46465">
        <ele>361.8</ele>
        <time>2022-07-25T08:08:06Z</time>
      </trkpt>
      <trkpt lat="46.47616" lon="5.46472">
        <ele>362.4</ele>
        <time>2022-07-25T08:08:12Z</time>
      </trkpt>
      <trkpt lat="46.47637" lon="5.46475">
        <ele>362.8</ele>
        <time>2022-07-25T08:08:15Z</time>
      </trkpt>
      <trkpt lat="46.47665" lon="5.46479">
        <ele>363.2</ele>
        <time>2022-07-25T08:08:19Z</time>
      </trkpt>
      <trkpt lat="46.47716" lon="5.4649">
        <ele>363.6</ele>
        <time>2022-07-25T08:08:26Z</time>
      </trkpt>
      <trkpt lat="46.47769" lon="5.46499">
        <ele>363.8</ele>
        <time>2022-07-25T08:08:33Z</time>
      </trkpt>
      <trkpt lat="46.47813" lon="5.46507">
        <ele>364</ele>
        <time>2022-07-25T08:08:39Z</time>
      </trkpt>
      <trkpt lat="46.47835" lon="5.46511">
        <ele>364</ele>
        <time>2022-07-25T08:08:42Z</time>
      </trkpt>
      <trkpt lat="46.47894" lon="5.46522">
        <ele>364.4</ele>
        <time>2022-07-25T08:08:50Z</time>
      </trkpt>
      <trkpt lat="46.47908" lon="5.46524">
        <ele>364.4</ele>
        <time>2022-07-25T08:08:52Z</time>
      </trkpt>
      <trkpt lat="46.47967" lon="5.46535">
        <ele>364.8</ele>
        <time>2022-07-25T08:09:00Z</time>
      </trkpt>
      <trkpt lat="46.47974" lon="5.46536">
        <ele>364.8</ele>
        <time>2022-07-25T08:09:01Z</time>
      </trkpt>
      <trkpt lat="46.48025" lon="5.46546">
        <ele>365</ele>
        <time>2022-07-25T08:09:08Z</time>
      </trkpt>
      <trkpt lat="46.48079" lon="5.46555">
        <ele>364.8</ele>
        <time>2022-07-25T08:09:15Z</time>
      </trkpt>
      <trkpt lat="46.4811" lon="5.46561">
        <ele>364.8</ele>
        <time>2022-07-25T08:09:19Z</time>
      </trkpt>
      <trkpt lat="46.48168" lon="5.46571">
        <ele>364.4</ele>
        <time>2022-07-25T08:09:27Z</time>
      </trkpt>
      <trkpt lat="46.48223" lon="5.46581">
        <ele>364.4</ele>
        <time>2022-07-25T08:09:34Z</time>
      </trkpt>
      <trkpt lat="46.48277" lon="5.4659">
        <ele>364.6</ele>
        <time>2022-07-25T08:09:41Z</time>
      </trkpt>
      <trkpt lat="46.48292" lon="5.46593">
        <ele>364.8</ele>
        <time>2022-07-25T08:09:43Z</time>
      </trkpt>
      <trkpt lat="46.48323" lon="5.46598">
        <ele>364.8</ele>
        <time>2022-07-25T08:09:47Z</time>
      </trkpt>
      <trkpt lat="46.48337" lon="5.46602">
        <ele>364.8</ele>
        <time>2022-07-25T08:09:49Z</time>
      </trkpt>
      <trkpt lat="46.48353" lon="5.46599">
        <ele>364.8</ele>
        <time>2022-07-25T08:09:51Z</time>
      </trkpt>
      <trkpt lat="46.48359" lon="5.46593">
        <ele>364.8</ele>
        <time>2022-07-25T08:09:52Z</time>
      </trkpt>
      <trkpt lat="46.48362" lon="5.46584">
        <ele>364.8</ele>
        <time>2022-07-25T08:09:53Z</time>
      </trkpt>
      <trkpt lat="46.48365" lon="5.46576">
        <ele>364.6</ele>
        <time>2022-07-25T08:09:54Z</time>
      </trkpt>
      <trkpt lat="46.48385" lon="5.46513">
        <ele>364.8</ele>
        <time>2022-07-25T08:10:00Z</time>
      </trkpt>
      <trkpt lat="46.48388" lon="5.46503">
        <ele>365</ele>
        <time>2022-07-25T08:10:01Z</time>
      </trkpt>
      <trkpt lat="46.48391" lon="5.46481">
        <ele>365.2</ele>
        <time>2022-07-25T08:10:03Z</time>
      </trkpt>
      <trkpt lat="46.48392" lon="5.4647">
        <ele>365.4</ele>
        <time>2022-07-25T08:10:04Z</time>
      </trkpt>
      <trkpt lat="46.48394" lon="5.46413">
        <ele>365.4</ele>
        <time>2022-07-25T08:10:09Z</time>
      </trkpt>
      <trkpt lat="46.48397" lon="5.46404">
        <ele>365.2</ele>
        <time>2022-07-25T08:10:10Z</time>
      </trkpt>
      <trkpt lat="46.48419" lon="5.46346">
        <ele>365</ele>
        <time>2022-07-25T08:10:16Z</time>
      </trkpt>
      <trkpt lat="46.4844" lon="5.46298">
        <ele>365.2</ele>
        <time>2022-07-25T08:10:22Z</time>
      </trkpt>
      <trkpt lat="46.4845" lon="5.46278">
        <ele>365.4</ele>
        <time>2022-07-25T08:10:25Z</time>
      </trkpt>
      <trkpt lat="46.48455" lon="5.46274">
        <ele>365.4</ele>
        <time>2022-07-25T08:10:26Z</time>
      </trkpt>
      <trkpt lat="46.48459" lon="5.46272">
        <ele>365.6</ele>
        <time>2022-07-25T08:10:27Z</time>
      </trkpt>
      <trkpt lat="46.48469" lon="5.46271">
        <ele>366.2</ele>
        <time>2022-07-25T08:10:29Z</time>
      </trkpt>
      <trkpt lat="46.48473" lon="5.46273">
        <ele>366.2</ele>
        <time>2022-07-25T08:10:30Z</time>
      </trkpt>
      <trkpt lat="46.48476" lon="5.46277">
        <ele>366.6</ele>
        <time>2022-07-25T08:10:31Z</time>
      </trkpt>
      <trkpt lat="46.48483" lon="5.46281">
        <ele>367</ele>
        <time>2022-07-25T08:10:33Z</time>
      </trkpt>
      <trkpt lat="46.48487" lon="5.46279">
        <ele>367.4</ele>
        <time>2022-07-25T08:10:34Z</time>
      </trkpt>
      <trkpt lat="46.4849" lon="5.46275">
        <ele>367.4</ele>
        <time>2022-07-25T08:10:35Z</time>
      </trkpt>
      <trkpt lat="46.48491" lon="5.4627">
        <ele>367.8</ele>
        <time>2022-07-25T08:10:36Z</time>
      </trkpt>
      <trkpt lat="46.48493" lon="5.46266">
        <ele>367.8</ele>
        <time>2022-07-25T08:10:37Z</time>
      </trkpt>
      <trkpt lat="46.48496" lon="5.46266">
        <ele>367.8</ele>
        <time>2022-07-25T08:10:38Z</time>
      </trkpt>
      <trkpt lat="46.48505" lon="5.46261">
        <ele>368.2</ele>
        <time>2022-07-25T08:10:41Z</time>
      </trkpt>
      <trkpt lat="46.48508" lon="5.46261">
        <ele>368.4</ele>
        <time>2022-07-25T08:10:42Z</time>
      </trkpt>
      <trkpt lat="46.4852" lon="5.46266">
        <ele>369.6</ele>
        <time>2022-07-25T08:10:46Z</time>
      </trkpt>
      <trkpt lat="46.48528" lon="5.46274">
        <ele>370.8</ele>
        <time>2022-07-25T08:10:49Z</time>
      </trkpt>
      <trkpt lat="46.48538" lon="5.46279">
        <ele>371.6</ele>
        <time>2022-07-25T08:10:52Z</time>
      </trkpt>
      <trkpt lat="46.48545" lon="5.46282">
        <ele>372</ele>
        <time>2022-07-25T08:10:54Z</time>
      </trkpt>
      <trkpt lat="46.48561" lon="5.46286">
        <ele>372.8</ele>
        <time>2022-07-25T08:10:59Z</time>
      </trkpt>
      <trkpt lat="46.48567" lon="5.46288">
        <ele>373.2</ele>
        <time>2022-07-25T08:11:01Z</time>
      </trkpt>
      <trkpt lat="46.4858" lon="5.46283">
        <ele>374</ele>
        <time>2022-07-25T08:11:05Z</time>
      </trkpt>
      <trkpt lat="46.48585" lon="5.46278">
        <ele>374.2</ele>
        <time>2022-07-25T08:11:07Z</time>
      </trkpt>
      <trkpt lat="46.48588" lon="5.46269">
        <ele>374.8</ele>
        <time>2022-07-25T08:11:09Z</time>
      </trkpt>
      <trkpt lat="46.48589" lon="5.4626">
        <ele>375.2</ele>
        <time>2022-07-25T08:11:11Z</time>
      </trkpt>
      <trkpt lat="46.48588" lon="5.46241">
        <ele>376.2</ele>
        <time>2022-07-25T08:11:15Z</time>
      </trkpt>
      <trkpt lat="46.48588" lon="5.46238">
        <ele>376.6</ele>
        <time>2022-07-25T08:11:16Z</time>
      </trkpt>
      <trkpt lat="46.48589" lon="5.46215">
        <ele>377.4</ele>
        <time>2022-07-25T08:11:21Z</time>
      </trkpt>
      <trkpt lat="46.48589" lon="5.46211">
        <ele>377.8</ele>
        <time>2022-07-25T08:11:22Z</time>
      </trkpt>
      <trkpt lat="46.4859" lon="5.4619">
        <ele>378.8</ele>
        <time>2022-07-25T08:11:27Z</time>
      </trkpt>
      <trkpt lat="46.48591" lon="5.46182">
        <ele>379.2</ele>
        <time>2022-07-25T08:11:29Z</time>
      </trkpt>
      <trkpt lat="46.48592" lon="5.46168">
        <ele>380</ele>
        <time>2022-07-25T08:11:32Z</time>
      </trkpt>
      <trkpt lat="46.48593" lon="5.46146">
        <ele>381.4</ele>
        <time>2022-07-25T08:11:37Z</time>
      </trkpt>
      <trkpt lat="46.48593" lon="5.46141">
        <ele>381.4</ele>
        <time>2022-07-25T08:11:38Z</time>
      </trkpt>
      <trkpt lat="46.48594" lon="5.46116">
        <ele>382.6</ele>
        <time>2022-07-25T08:11:43Z</time>
      </trkpt>
      <trkpt lat="46.48595" lon="5.46097">
        <ele>383.2</ele>
        <time>2022-07-25T08:11:47Z</time>
      </trkpt>
      <trkpt lat="46.48597" lon="5.46084">
        <ele>383.8</ele>
        <time>2022-07-25T08:11:50Z</time>
      </trkpt>
      <trkpt lat="46.48602" lon="5.46064">
        <ele>384.8</ele>
        <time>2022-07-25T08:11:55Z</time>
      </trkpt>
      <trkpt lat="46.48606" lon="5.46045">
        <ele>386</ele>
        <time>2022-07-25T08:12:00Z</time>
      </trkpt>
      <trkpt lat="46.48609" lon="5.46034">
        <ele>386.8</ele>
        <time>2022-07-25T08:12:03Z</time>
      </trkpt>
      <trkpt lat="46.4861" lon="5.46029">
        <ele>387</ele>
        <time>2022-07-25T08:12:04Z</time>
      </trkpt>
      <trkpt lat="46.48615" lon="5.46006">
        <ele>388</ele>
        <time>2022-07-25T08:12:10Z</time>
      </trkpt>
      <trkpt lat="46.48619" lon="5.45992">
        <ele>389.2</ele>
        <time>2022-07-25T08:12:14Z</time>
      </trkpt>
      <trkpt lat="46.48622" lon="5.45978">
        <ele>390.2</ele>
        <time>2022-07-25T08:12:18Z</time>
      </trkpt>
      <trkpt lat="46.48624" lon="5.45967">
        <ele>391.4</ele>
        <time>2022-07-25T08:12:21Z</time>
      </trkpt>
      <trkpt lat="46.48627" lon="5.45957">
        <ele>391.8</ele>
        <time>2022-07-25T08:12:24Z</time>
      </trkpt>
      <trkpt lat="46.48629" lon="5.4595">
        <ele>392.4</ele>
        <time>2022-07-25T08:12:26Z</time>
      </trkpt>
      <trkpt lat="46.48635" lon="5.45925">
        <ele>393.4</ele>
        <time>2022-07-25T08:12:33Z</time>
      </trkpt>
      <trkpt lat="46.48637" lon="5.45918">
        <ele>393.6</ele>
        <time>2022-07-25T08:12:35Z</time>
      </trkpt>
      <trkpt lat="46.48639" lon="5.45908">
        <ele>394.6</ele>
        <time>2022-07-25T08:12:38Z</time>
      </trkpt>
      <trkpt lat="46.48642" lon="5.45895">
        <ele>395.6</ele>
        <time>2022-07-25T08:12:42Z</time>
      </trkpt>
      <trkpt lat="46.48643" lon="5.45891">
        <ele>395.8</ele>
        <time>2022-07-25T08:12:43Z</time>
      </trkpt>
      <trkpt lat="46.48647" lon="5.45879">
        <ele>396.8</ele>
        <time>2022-07-25T08:12:47Z</time>
      </trkpt>
      <trkpt lat="46.48651" lon="5.45866">
        <ele>397.6</ele>
        <time>2022-07-25T08:12:51Z</time>
      </trkpt>
      <trkpt lat="46.48653" lon="5.4586">
        <ele>398</ele>
        <time>2022-07-25T08:12:53Z</time>
      </trkpt>
      <trkpt lat="46.48657" lon="5.45843">
        <ele>399.2</ele>
        <time>2022-07-25T08:12:58Z</time>
      </trkpt>
      <trkpt lat="46.48659" lon="5.45836">
        <ele>399.6</ele>
        <time>2022-07-25T08:13:00Z</time>
      </trkpt>
      <trkpt lat="46.48664" lon="5.45821">
        <ele>400.6</ele>
        <time>2022-07-25T08:13:05Z</time>
      </trkpt>
      <trkpt lat="46.48668" lon="5.45809">
        <ele>401.4</ele>
        <time>2022-07-25T08:13:09Z</time>
      </trkpt>
      <trkpt lat="46.48672" lon="5.45793">
        <ele>402.4</ele>
        <time>2022-07-25T08:13:14Z</time>
      </trkpt>
      <trkpt lat="46.48676" lon="5.4578">
        <ele>403.4</ele>
        <time>2022-07-25T08:13:18Z</time>
      </trkpt>
      <trkpt lat="46.48681" lon="5.45763">
        <ele>404.6</ele>
        <time>2022-07-25T08:13:23Z</time>
      </trkpt>
      <trkpt lat="46.48685" lon="5.45754">
        <ele>405.2</ele>
        <time>2022-07-25T08:13:26Z</time>
      </trkpt>
      <trkpt lat="46.48689" lon="5.45748">
        <ele>405.6</ele>
        <time>2022-07-25T08:13:28Z</time>
      </trkpt>
      <trkpt lat="46.48697" lon="5.45743">
        <ele>406.6</ele>
        <time>2022-07-25T08:13:32Z</time>
      </trkpt>
      <trkpt lat="46.48699" lon="5.45742">
        <ele>406.8</ele>
        <time>2022-07-25T08:13:33Z</time>
      </trkpt>
      <trkpt lat="46.48717" lon="5.45744">
        <ele>408</ele>
        <time>2022-07-25T08:13:40Z</time>
      </trkpt>
      <trkpt lat="46.48726" lon="5.45746">
        <ele>408.8</ele>
        <time>2022-07-25T08:13:43Z</time>
      </trkpt>
      <trkpt lat="46.48731" lon="5.45748">
        <ele>409.2</ele>
        <time>2022-07-25T08:13:45Z</time>
      </trkpt>
      <trkpt lat="46.48746" lon="5.45755">
        <ele>410.2</ele>
        <time>2022-07-25T08:13:51Z</time>
      </trkpt>
      <trkpt lat="46.48749" lon="5.45756">
        <ele>410.4</ele>
        <time>2022-07-25T08:13:52Z</time>
      </trkpt>
      <trkpt lat="46.4876" lon="5.4576">
        <ele>411.4</ele>
        <time>2022-07-25T08:13:56Z</time>
      </trkpt>
      <trkpt lat="46.48772" lon="5.45767">
        <ele>412.4</ele>
        <time>2022-07-25T08:14:00Z</time>
      </trkpt>
      <trkpt lat="46.48795" lon="5.45774">
        <ele>413.4</ele>
        <time>2022-07-25T08:14:07Z</time>
      </trkpt>
      <trkpt lat="46.48799" lon="5.45774">
        <ele>413.6</ele>
        <time>2022-07-25T08:14:08Z</time>
      </trkpt>
      <trkpt lat="46.48811" lon="5.4577">
        <ele>414.6</ele>
        <time>2022-07-25T08:14:12Z</time>
      </trkpt>
      <trkpt lat="46.4882" lon="5.45765">
        <ele>415.2</ele>
        <time>2022-07-25T08:14:15Z</time>
      </trkpt>
      <trkpt lat="46.48828" lon="5.4576">
        <ele>415.8</ele>
        <time>2022-07-25T08:14:18Z</time>
      </trkpt>
      <trkpt lat="46.48844" lon="5.4575">
        <ele>416.6</ele>
        <time>2022-07-25T08:14:24Z</time>
      </trkpt>
      <trkpt lat="46.4885" lon="5.45746">
        <ele>416.8</ele>
        <time>2022-07-25T08:14:26Z</time>
      </trkpt>
      <trkpt lat="46.48869" lon="5.45735">
        <ele>417.8</ele>
        <time>2022-07-25T08:14:32Z</time>
      </trkpt>
      <trkpt lat="46.48886" lon="5.45723">
        <ele>418.8</ele>
        <time>2022-07-25T08:14:38Z</time>
      </trkpt>
      <trkpt lat="46.48892" lon="5.45719">
        <ele>419</ele>
        <time>2022-07-25T08:14:40Z</time>
      </trkpt>
      <trkpt lat="46.48906" lon="5.45711">
        <ele>420</ele>
        <time>2022-07-25T08:14:45Z</time>
      </trkpt>
      <trkpt lat="46.48917" lon="5.45706">
        <ele>420.8</ele>
        <time>2022-07-25T08:14:49Z</time>
      </trkpt>
      <trkpt lat="46.48925" lon="5.45705">
        <ele>421.4</ele>
        <time>2022-07-25T08:14:52Z</time>
      </trkpt>
      <trkpt lat="46.48935" lon="5.45706">
        <ele>422.2</ele>
        <time>2022-07-25T08:14:56Z</time>
      </trkpt>
      <trkpt lat="46.48938" lon="5.45707">
        <ele>422.6</ele>
        <time>2022-07-25T08:14:57Z</time>
      </trkpt>
      <trkpt lat="46.48951" lon="5.4571">
        <ele>423.8</ele>
        <time>2022-07-25T08:15:02Z</time>
      </trkpt>
      <trkpt lat="46.48955" lon="5.45711">
        <ele>424.4</ele>
        <time>2022-07-25T08:15:04Z</time>
      </trkpt>
      <trkpt lat="46.48961" lon="5.45712">
        <ele>425</ele>
        <time>2022-07-25T08:15:06Z</time>
      </trkpt>
      <trkpt lat="46.48975" lon="5.45716">
        <ele>426</ele>
        <time>2022-07-25T08:15:12Z</time>
      </trkpt>
      <trkpt lat="46.48978" lon="5.45717">
        <ele>426.4</ele>
        <time>2022-07-25T08:15:13Z</time>
      </trkpt>
      <trkpt lat="46.48985" lon="5.45719">
        <ele>427.2</ele>
        <time>2022-07-25T08:15:16Z</time>
      </trkpt>
      <trkpt lat="46.48997" lon="5.45722">
        <ele>428.2</ele>
        <time>2022-07-25T08:15:21Z</time>
      </trkpt>
      <trkpt lat="46.49008" lon="5.45725">
        <ele>429.2</ele>
        <time>2022-07-25T08:15:25Z</time>
      </trkpt>
      <trkpt lat="46.4901" lon="5.45725">
        <ele>429.4</ele>
        <time>2022-07-25T08:15:26Z</time>
      </trkpt>
      <trkpt lat="46.49023" lon="5.45728">
        <ele>430.6</ele>
        <time>2022-07-25T08:15:31Z</time>
      </trkpt>
      <trkpt lat="46.49032" lon="5.45729">
        <ele>431.2</ele>
        <time>2022-07-25T08:15:34Z</time>
      </trkpt>
      <trkpt lat="46.49037" lon="5.4573">
        <ele>431.6</ele>
        <time>2022-07-25T08:15:36Z</time>
      </trkpt>
      <trkpt lat="46.49049" lon="5.45733">
        <ele>432.6</ele>
        <time>2022-07-25T08:15:41Z</time>
      </trkpt>
      <trkpt lat="46.49052" lon="5.45734">
        <ele>433</ele>
        <time>2022-07-25T08:15:42Z</time>
      </trkpt>
      <trkpt lat="46.49067" lon="5.45738">
        <ele>434.2</ele>
        <time>2022-07-25T08:15:48Z</time>
      </trkpt>
      <trkpt lat="46.49069" lon="5.45738">
        <ele>434.4</ele>
        <time>2022-07-25T08:15:49Z</time>
      </trkpt>
      <trkpt lat="46.4908" lon="5.4574">
        <ele>435.2</ele>
        <time>2022-07-25T08:15:53Z</time>
      </trkpt>
      <trkpt lat="46.49091" lon="5.45742">
        <ele>436.2</ele>
        <time>2022-07-25T08:15:57Z</time>
      </trkpt>
      <trkpt lat="46.49094" lon="5.45741">
        <ele>436.4</ele>
        <time>2022-07-25T08:15:58Z</time>
      </trkpt>
      <trkpt lat="46.49109" lon="5.45738">
        <ele>437.4</ele>
        <time>2022-07-25T08:16:03Z</time>
      </trkpt>
      <trkpt lat="46.49118" lon="5.45734">
        <ele>438.2</ele>
        <time>2022-07-25T08:16:06Z</time>
      </trkpt>
      <trkpt lat="46.49121" lon="5.45732">
        <ele>438.4</ele>
        <time>2022-07-25T08:16:07Z</time>
      </trkpt>
      <trkpt lat="46.49135" lon="5.45723">
        <ele>439.6</ele>
        <time>2022-07-25T08:16:12Z</time>
      </trkpt>
      <trkpt lat="46.49143" lon="5.45717">
        <ele>440</ele>
        <time>2022-07-25T08:16:15Z</time>
      </trkpt>
      <trkpt lat="46.49145" lon="5.45716">
        <ele>440.2</ele>
        <time>2022-07-25T08:16:16Z</time>
      </trkpt>
      <trkpt lat="46.49147" lon="5.45714">
        <ele>440.8</ele>
        <time>2022-07-25T08:16:17Z</time>
      </trkpt>
      <trkpt lat="46.4916" lon="5.45706">
        <ele>441.6</ele>
        <time>2022-07-25T08:16:22Z</time>
      </trkpt>
      <trkpt lat="46.49168" lon="5.45703">
        <ele>442.2</ele>
        <time>2022-07-25T08:16:25Z</time>
      </trkpt>
      <trkpt lat="46.49176" lon="5.45699">
        <ele>442.8</ele>
        <time>2022-07-25T08:16:28Z</time>
      </trkpt>
      <trkpt lat="46.49189" lon="5.45695">
        <ele>443.8</ele>
        <time>2022-07-25T08:16:33Z</time>
      </trkpt>
      <trkpt lat="46.492" lon="5.45692">
        <ele>444.6</ele>
        <time>2022-07-25T08:16:37Z</time>
      </trkpt>
      <trkpt lat="46.49205" lon="5.4569">
        <ele>445</ele>
        <time>2022-07-25T08:16:39Z</time>
      </trkpt>
      <trkpt lat="46.49221" lon="5.45685">
        <ele>446.6</ele>
        <time>2022-07-25T08:16:45Z</time>
      </trkpt>
      <trkpt lat="46.49224" lon="5.45684">
        <ele>446.8</ele>
        <time>2022-07-25T08:16:46Z</time>
      </trkpt>
      <trkpt lat="46.49231" lon="5.45683">
        <ele>447.2</ele>
        <time>2022-07-25T08:16:49Z</time>
      </trkpt>
      <trkpt lat="46.49236" lon="5.45681">
        <ele>447.6</ele>
        <time>2022-07-25T08:16:51Z</time>
      </trkpt>
      <trkpt lat="46.49248" lon="5.45677">
        <ele>448.8</ele>
        <time>2022-07-25T08:16:56Z</time>
      </trkpt>
      <trkpt lat="46.49261" lon="5.45673">
        <ele>449.6</ele>
        <time>2022-07-25T08:17:01Z</time>
      </trkpt>
      <trkpt lat="46.49266" lon="5.45672">
        <ele>450.2</ele>
        <time>2022-07-25T08:17:03Z</time>
      </trkpt>
      <trkpt lat="46.49271" lon="5.4567">
        <ele>450.8</ele>
        <time>2022-07-25T08:17:05Z</time>
      </trkpt>
      <trkpt lat="46.49288" lon="5.45663">
        <ele>452</ele>
        <time>2022-07-25T08:17:12Z</time>
      </trkpt>
      <trkpt lat="46.49301" lon="5.45659">
        <ele>453.2</ele>
        <time>2022-07-25T08:17:17Z</time>
      </trkpt>
      <trkpt lat="46.49304" lon="5.45658">
        <ele>453.4</ele>
        <time>2022-07-25T08:17:18Z</time>
      </trkpt>
      <trkpt lat="46.49314" lon="5.45653">
        <ele>454.2</ele>
        <time>2022-07-25T08:17:22Z</time>
      </trkpt>
      <trkpt lat="46.49323" lon="5.45647">
        <ele>455</ele>
        <time>2022-07-25T08:17:26Z</time>
      </trkpt>
      <trkpt lat="46.49326" lon="5.45646">
        <ele>455.2</ele>
        <time>2022-07-25T08:17:27Z</time>
      </trkpt>
      <trkpt lat="46.49329" lon="5.45644">
        <ele>455.6</ele>
        <time>2022-07-25T08:17:28Z</time>
      </trkpt>
      <trkpt lat="46.49336" lon="5.45638">
        <ele>457</ele>
        <time>2022-07-25T08:17:31Z</time>
      </trkpt>
      <trkpt lat="46.49339" lon="5.45633">
        <ele>457.2</ele>
        <time>2022-07-25T08:17:33Z</time>
      </trkpt>
      <trkpt lat="46.4935" lon="5.45619">
        <ele>458</ele>
        <time>2022-07-25T08:17:38Z</time>
      </trkpt>
      <trkpt lat="46.4936" lon="5.45606">
        <ele>459</ele>
        <time>2022-07-25T08:17:43Z</time>
      </trkpt>
      <trkpt lat="46.49367" lon="5.45594">
        <ele>460.2</ele>
        <time>2022-07-25T08:17:47Z</time>
      </trkpt>
      <trkpt lat="46.49369" lon="5.45591">
        <ele>460.4</ele>
        <time>2022-07-25T08:17:48Z</time>
      </trkpt>
      <trkpt lat="46.49377" lon="5.45578">
        <ele>461.2</ele>
        <time>2022-07-25T08:17:52Z</time>
      </trkpt>
      <trkpt lat="46.49386" lon="5.45568">
        <ele>462</ele>
        <time>2022-07-25T08:17:56Z</time>
      </trkpt>
      <trkpt lat="46.49388" lon="5.45566">
        <ele>462.4</ele>
        <time>2022-07-25T08:17:57Z</time>
      </trkpt>
      <trkpt lat="46.49399" lon="5.45563">
        <ele>463.2</ele>
        <time>2022-07-25T08:18:01Z</time>
      </trkpt>
      <trkpt lat="46.49401" lon="5.45564">
        <ele>463.4</ele>
        <time>2022-07-25T08:18:02Z</time>
      </trkpt>
      <trkpt lat="46.49407" lon="5.45572">
        <ele>464.2</ele>
        <time>2022-07-25T08:18:05Z</time>
      </trkpt>
      <trkpt lat="46.4941" lon="5.45578">
        <ele>464.6</ele>
        <time>2022-07-25T08:18:07Z</time>
      </trkpt>
      <trkpt lat="46.49412" lon="5.4559">
        <ele>465.2</ele>
        <time>2022-07-25T08:18:10Z</time>
      </trkpt>
      <trkpt lat="46.49417" lon="5.4561">
        <ele>466</ele>
        <time>2022-07-25T08:18:15Z</time>
      </trkpt>
      <trkpt lat="46.49423" lon="5.4562">
        <ele>466.4</ele>
        <time>2022-07-25T08:18:18Z</time>
      </trkpt>
      <trkpt lat="46.49429" lon="5.45625">
        <ele>466.6</ele>
        <time>2022-07-25T08:18:21Z</time>
      </trkpt>
      <trkpt lat="46.49433" lon="5.45626">
        <ele>467.2</ele>
        <time>2022-07-25T08:18:23Z</time>
      </trkpt>
      <trkpt lat="46.49439" lon="5.45628">
        <ele>468.2</ele>
        <time>2022-07-25T08:18:26Z</time>
      </trkpt>
      <trkpt lat="46.49442" lon="5.45628">
        <ele>468.4</ele>
        <time>2022-07-25T08:18:27Z</time>
      </trkpt>
      <trkpt lat="46.49453" lon="5.4563">
        <ele>469.2</ele>
        <time>2022-07-25T08:18:31Z</time>
      </trkpt>
      <trkpt lat="46.4946" lon="5.45633">
        <ele>469.6</ele>
        <time>2022-07-25T08:18:33Z</time>
      </trkpt>
      <trkpt lat="46.49469" lon="5.45635">
        <ele>470.2</ele>
        <time>2022-07-25T08:18:36Z</time>
      </trkpt>
      <trkpt lat="46.4948" lon="5.45637">
        <ele>470.6</ele>
        <time>2022-07-25T08:18:39Z</time>
      </trkpt>
      <trkpt lat="46.49498" lon="5.4564">
        <ele>471.6</ele>
        <time>2022-07-25T08:18:44Z</time>
      </trkpt>
      <trkpt lat="46.4951" lon="5.45644">
        <ele>473</ele>
        <time>2022-07-25T08:18:48Z</time>
      </trkpt>
      <trkpt lat="46.49517" lon="5.45646">
        <ele>473.6</ele>
        <time>2022-07-25T08:18:50Z</time>
      </trkpt>
      <trkpt lat="46.49523" lon="5.45647">
        <ele>474.2</ele>
        <time>2022-07-25T08:18:52Z</time>
      </trkpt>
      <trkpt lat="46.49536" lon="5.45651">
        <ele>475</ele>
        <time>2022-07-25T08:18:56Z</time>
      </trkpt>
      <trkpt lat="46.49545" lon="5.45654">
        <ele>475.2</ele>
        <time>2022-07-25T08:18:59Z</time>
      </trkpt>
      <trkpt lat="46.49555" lon="5.45655">
        <ele>475.8</ele>
        <time>2022-07-25T08:19:02Z</time>
      </trkpt>
      <trkpt lat="46.49564" lon="5.45658">
        <ele>476.4</ele>
        <time>2022-07-25T08:19:05Z</time>
      </trkpt>
      <trkpt lat="46.49575" lon="5.45661">
        <ele>477</ele>
        <time>2022-07-25T08:19:08Z</time>
      </trkpt>
      <trkpt lat="46.49585" lon="5.45663">
        <ele>477.6</ele>
        <time>2022-07-25T08:19:11Z</time>
      </trkpt>
      <trkpt lat="46.49599" lon="5.4567">
        <ele>477.6</ele>
        <time>2022-07-25T08:19:15Z</time>
      </trkpt>
      <trkpt lat="46.49621" lon="5.45681">
        <ele>478.2</ele>
        <time>2022-07-25T08:19:21Z</time>
      </trkpt>
      <trkpt lat="46.49624" lon="5.4568">
        <ele>478.4</ele>
        <time>2022-07-25T08:19:22Z</time>
      </trkpt>
      <trkpt lat="46.49628" lon="5.45677">
        <ele>478.4</ele>
        <time>2022-07-25T08:19:23Z</time>
      </trkpt>
      <trkpt lat="46.4963" lon="5.45674">
        <ele>478.6</ele>
        <time>2022-07-25T08:19:24Z</time>
      </trkpt>
      <trkpt lat="46.4963" lon="5.45669">
        <ele>478.8</ele>
        <time>2022-07-25T08:19:25Z</time>
      </trkpt>
      <trkpt lat="46.49627" lon="5.4566">
        <ele>479.2</ele>
        <time>2022-07-25T08:19:27Z</time>
      </trkpt>
      <trkpt lat="46.49624" lon="5.45658">
        <ele>479.4</ele>
        <time>2022-07-25T08:19:28Z</time>
      </trkpt>
      <trkpt lat="46.49614" lon="5.45652">
        <ele>480.4</ele>
        <time>2022-07-25T08:19:31Z</time>
      </trkpt>
      <trkpt lat="46.49601" lon="5.45642">
        <ele>481.6</ele>
        <time>2022-07-25T08:19:35Z</time>
      </trkpt>
      <trkpt lat="46.49591" lon="5.4563">
        <ele>482.6</ele>
        <time>2022-07-25T08:19:39Z</time>
      </trkpt>
      <trkpt lat="46.49588" lon="5.45627">
        <ele>482.8</ele>
        <time>2022-07-25T08:19:40Z</time>
      </trkpt>
      <trkpt lat="46.49578" lon="5.45614">
        <ele>483.8</ele>
        <time>2022-07-25T08:19:45Z</time>
      </trkpt>
      <trkpt lat="46.49567" lon="5.45602">
        <ele>485</ele>
        <time>2022-07-25T08:19:50Z</time>
      </trkpt>
      <trkpt lat="46.49558" lon="5.45591">
        <ele>486.2</ele>
        <time>2022-07-25T08:19:54Z</time>
      </trkpt>
      <trkpt lat="46.49548" lon="5.45577">
        <ele>487.2</ele>
        <time>2022-07-25T08:19:59Z</time>
      </trkpt>
      <trkpt lat="46.49538" lon="5.45563">
        <ele>488.2</ele>
        <time>2022-07-25T08:20:04Z</time>
      </trkpt>
      <trkpt lat="46.49531" lon="5.45547">
        <ele>489.2</ele>
        <time>2022-07-25T08:20:09Z</time>
      </trkpt>
      <trkpt lat="46.49525" lon="5.45537">
        <ele>490.4</ele>
        <time>2022-07-25T08:20:12Z</time>
      </trkpt>
      <trkpt lat="46.49513" lon="5.45519">
        <ele>491.4</ele>
        <time>2022-07-25T08:20:18Z</time>
      </trkpt>
      <trkpt lat="46.49511" lon="5.45516">
        <ele>491.4</ele>
        <time>2022-07-25T08:20:19Z</time>
      </trkpt>
      <trkpt lat="46.49504" lon="5.45504">
        <ele>492.4</ele>
        <time>2022-07-25T08:20:23Z</time>
      </trkpt>
      <trkpt lat="46.49503" lon="5.45502">
        <ele>492.6</ele>
        <time>2022-07-25T08:20:24Z</time>
      </trkpt>
      <trkpt lat="46.49496" lon="5.4549">
        <ele>493.4</ele>
        <time>2022-07-25T08:20:28Z</time>
      </trkpt>
      <trkpt lat="46.4949" lon="5.45477">
        <ele>494.2</ele>
        <time>2022-07-25T08:20:32Z</time>
      </trkpt>
      <trkpt lat="46.49487" lon="5.4547">
        <ele>494.8</ele>
        <time>2022-07-25T08:20:34Z</time>
      </trkpt>
      <trkpt lat="46.49486" lon="5.45451">
        <ele>495.8</ele>
        <time>2022-07-25T08:20:39Z</time>
      </trkpt>
      <trkpt lat="46.49488" lon="5.45431">
        <ele>496.6</ele>
        <time>2022-07-25T08:20:44Z</time>
      </trkpt>
      <trkpt lat="46.4949" lon="5.45424">
        <ele>497.2</ele>
        <time>2022-07-25T08:20:46Z</time>
      </trkpt>
      <trkpt lat="46.49493" lon="5.45417">
        <ele>497.8</ele>
        <time>2022-07-25T08:20:48Z</time>
      </trkpt>
      <trkpt lat="46.49499" lon="5.45396">
        <ele>499</ele>
        <time>2022-07-25T08:20:54Z</time>
      </trkpt>
      <trkpt lat="46.495" lon="5.45393">
        <ele>499.2</ele>
        <time>2022-07-25T08:20:55Z</time>
      </trkpt>
      <trkpt lat="46.49507" lon="5.45379">
        <ele>500.2</ele>
        <time>2022-07-25T08:20:59Z</time>
      </trkpt>
      <trkpt lat="46.49511" lon="5.45371">
        <ele>500.8</ele>
        <time>2022-07-25T08:21:02Z</time>
      </trkpt>
      <trkpt lat="46.49514" lon="5.45363">
        <ele>501.2</ele>
        <time>2022-07-25T08:21:04Z</time>
      </trkpt>
      <trkpt lat="46.4952" lon="5.45349">
        <ele>502.2</ele>
        <time>2022-07-25T08:21:09Z</time>
      </trkpt>
      <trkpt lat="46.49521" lon="5.45346">
        <ele>502.2</ele>
        <time>2022-07-25T08:21:10Z</time>
      </trkpt>
      <trkpt lat="46.49525" lon="5.45337">
        <ele>503.2</ele>
        <time>2022-07-25T08:21:13Z</time>
      </trkpt>
      <trkpt lat="46.49526" lon="5.45334">
        <ele>503.2</ele>
        <time>2022-07-25T08:21:14Z</time>
      </trkpt>
      <trkpt lat="46.49527" lon="5.45331">
        <ele>503.6</ele>
        <time>2022-07-25T08:21:15Z</time>
      </trkpt>
      <trkpt lat="46.49531" lon="5.45312">
        <ele>504.2</ele>
        <time>2022-07-25T08:21:19Z</time>
      </trkpt>
      <trkpt lat="46.49531" lon="5.45308">
        <ele>504.2</ele>
        <time>2022-07-25T08:21:20Z</time>
      </trkpt>
      <trkpt lat="46.49529" lon="5.45285">
        <ele>505.2</ele>
        <time>2022-07-25T08:21:25Z</time>
      </trkpt>
      <trkpt lat="46.49529" lon="5.45281">
        <ele>505.2</ele>
        <time>2022-07-25T08:21:26Z</time>
      </trkpt>
      <trkpt lat="46.49525" lon="5.45263">
        <ele>506.2</ele>
        <time>2022-07-25T08:21:31Z</time>
      </trkpt>
      <trkpt lat="46.49521" lon="5.45254">
        <ele>507</ele>
        <time>2022-07-25T08:21:34Z</time>
      </trkpt>
      <trkpt lat="46.49518" lon="5.45247">
        <ele>507.4</ele>
        <time>2022-07-25T08:21:36Z</time>
      </trkpt>
      <trkpt lat="46.49513" lon="5.45231">
        <ele>508.4</ele>
        <time>2022-07-25T08:21:40Z</time>
      </trkpt>
      <trkpt lat="46.49509" lon="5.4522">
        <ele>509</ele>
        <time>2022-07-25T08:21:43Z</time>
      </trkpt>
      <trkpt lat="46.49505" lon="5.4521">
        <ele>509.4</ele>
        <time>2022-07-25T08:21:46Z</time>
      </trkpt>
      <trkpt lat="46.49498" lon="5.45199">
        <ele>510</ele>
        <time>2022-07-25T08:21:50Z</time>
      </trkpt>
      <trkpt lat="46.49494" lon="5.45194">
        <ele>510.2</ele>
        <time>2022-07-25T08:21:53Z</time>
      </trkpt>
      <trkpt lat="46.49494" lon="5.45187">
        <ele>510.2</ele>
        <time>2022-07-25T08:21:55Z</time>
      </trkpt>
      <trkpt lat="46.49497" lon="5.45173">
        <ele>509.8</ele>
        <time>2022-07-25T08:22:01Z</time>
      </trkpt>
      <trkpt lat="46.49498" lon="5.45163">
        <ele>508.6</ele>
        <time>2022-07-25T08:23:03Z</time>
      </trkpt>
      <trkpt lat="46.49499" lon="5.45159">
        <ele>508.6</ele>
        <time>2022-07-25T08:23:04Z</time>
      </trkpt>
      <trkpt lat="46.49501" lon="5.45151">
        <ele>508.4</ele>
        <time>2022-07-25T08:23:05Z</time>
      </trkpt>
      <trkpt lat="46.49508" lon="5.45126">
        <ele>508.2</ele>
        <time>2022-07-25T08:23:08Z</time>
      </trkpt>
      <trkpt lat="46.4952" lon="5.45098">
        <ele>507.8</ele>
        <time>2022-07-25T08:23:11Z</time>
      </trkpt>
      <trkpt lat="46.49524" lon="5.45087">
        <ele>507</ele>
        <time>2022-07-25T08:23:12Z</time>
      </trkpt>
      <trkpt lat="46.49527" lon="5.45075">
        <ele>506.2</ele>
        <time>2022-07-25T08:23:13Z</time>
      </trkpt>
      <trkpt lat="46.49529" lon="5.45063">
        <ele>505.8</ele>
        <time>2022-07-25T08:23:14Z</time>
      </trkpt>
      <trkpt lat="46.4953" lon="5.4505">
        <ele>505</ele>
        <time>2022-07-25T08:23:15Z</time>
      </trkpt>
      <trkpt lat="46.49531" lon="5.45036">
        <ele>504.8</ele>
        <time>2022-07-25T08:23:16Z</time>
      </trkpt>
      <trkpt lat="46.49534" lon="5.44997">
        <ele>503.8</ele>
        <time>2022-07-25T08:23:19Z</time>
      </trkpt>
      <trkpt lat="46.49539" lon="5.4497">
        <ele>502.8</ele>
        <time>2022-07-25T08:23:21Z</time>
      </trkpt>
      <trkpt lat="46.49543" lon="5.44943">
        <ele>502</ele>
        <time>2022-07-25T08:23:23Z</time>
      </trkpt>
      <trkpt lat="46.49548" lon="5.4493">
        <ele>501.6</ele>
        <time>2022-07-25T08:23:24Z</time>
      </trkpt>
      <trkpt lat="46.49554" lon="5.44918">
        <ele>501.2</ele>
        <time>2022-07-25T08:23:25Z</time>
      </trkpt>
      <trkpt lat="46.49561" lon="5.44908">
        <ele>500.4</ele>
        <time>2022-07-25T08:23:26Z</time>
      </trkpt>
      <trkpt lat="46.49578" lon="5.4489">
        <ele>499</ele>
        <time>2022-07-25T08:23:28Z</time>
      </trkpt>
      <trkpt lat="46.49586" lon="5.4488">
        <ele>498.4</ele>
        <time>2022-07-25T08:23:29Z</time>
      </trkpt>
      <trkpt lat="46.496" lon="5.44855">
        <ele>497</ele>
        <time>2022-07-25T08:23:31Z</time>
      </trkpt>
      <trkpt lat="46.49604" lon="5.4484">
        <ele>496.6</ele>
        <time>2022-07-25T08:23:32Z</time>
      </trkpt>
      <trkpt lat="46.49609" lon="5.44805">
        <ele>495.8</ele>
        <time>2022-07-25T08:23:34Z</time>
      </trkpt>
      <trkpt lat="46.49616" lon="5.44767">
        <ele>494.2</ele>
        <time>2022-07-25T08:23:36Z</time>
      </trkpt>
      <trkpt lat="46.49623" lon="5.44729">
        <ele>492.2</ele>
        <time>2022-07-25T08:23:38Z</time>
      </trkpt>
      <trkpt lat="46.4963" lon="5.44687">
        <ele>490</ele>
        <time>2022-07-25T08:23:40Z</time>
      </trkpt>
      <trkpt lat="46.49633" lon="5.44669">
        <ele>489.6</ele>
        <time>2022-07-25T08:23:41Z</time>
      </trkpt>
      <trkpt lat="46.49636" lon="5.44655">
        <ele>488.8</ele>
        <time>2022-07-25T08:23:42Z</time>
      </trkpt>
      <trkpt lat="46.49643" lon="5.44617">
        <ele>487.8</ele>
        <time>2022-07-25T08:23:44Z</time>
      </trkpt>
      <trkpt lat="46.49645" lon="5.44601">
        <ele>486.6</ele>
        <time>2022-07-25T08:23:45Z</time>
      </trkpt>
      <trkpt lat="46.49647" lon="5.44586">
        <ele>486.2</ele>
        <time>2022-07-25T08:23:46Z</time>
      </trkpt>
      <trkpt lat="46.49648" lon="5.44574">
        <ele>485.4</ele>
        <time>2022-07-25T08:23:47Z</time>
      </trkpt>
      <trkpt lat="46.49648" lon="5.44558">
        <ele>484.6</ele>
        <time>2022-07-25T08:23:48Z</time>
      </trkpt>
      <trkpt lat="46.49647" lon="5.44533">
        <ele>484.2</ele>
        <time>2022-07-25T08:23:50Z</time>
      </trkpt>
      <trkpt lat="46.49645" lon="5.44522">
        <ele>484</ele>
        <time>2022-07-25T08:23:51Z</time>
      </trkpt>
      <trkpt lat="46.49638" lon="5.44504">
        <ele>484</ele>
        <time>2022-07-25T08:23:53Z</time>
      </trkpt>
      <trkpt lat="46.4963" lon="5.44491">
        <ele>484</ele>
        <time>2022-07-25T08:23:55Z</time>
      </trkpt>
      <trkpt lat="46.49622" lon="5.44479">
        <ele>484.6</ele>
        <time>2022-07-25T08:23:57Z</time>
      </trkpt>
      <trkpt lat="46.49615" lon="5.44468">
        <ele>485</ele>
        <time>2022-07-25T08:23:59Z</time>
      </trkpt>
      <trkpt lat="46.49609" lon="5.44457">
        <ele>485.8</ele>
        <time>2022-07-25T08:24:01Z</time>
      </trkpt>
      <trkpt lat="46.49607" lon="5.44452">
        <ele>486.4</ele>
        <time>2022-07-25T08:24:02Z</time>
      </trkpt>
      <trkpt lat="46.49601" lon="5.44441">
        <ele>487</ele>
        <time>2022-07-25T08:24:04Z</time>
      </trkpt>
      <trkpt lat="46.49596" lon="5.44428">
        <ele>487.8</ele>
        <time>2022-07-25T08:24:07Z</time>
      </trkpt>
      <trkpt lat="46.49596" lon="5.44423">
        <ele>488.2</ele>
        <time>2022-07-25T08:24:08Z</time>
      </trkpt>
      <trkpt lat="46.49598" lon="5.44406">
        <ele>488.8</ele>
        <time>2022-07-25T08:24:11Z</time>
      </trkpt>
      <trkpt lat="46.49599" lon="5.44397">
        <ele>489.4</ele>
        <time>2022-07-25T08:24:13Z</time>
      </trkpt>
      <trkpt lat="46.49602" lon="5.44386">
        <ele>489.8</ele>
        <time>2022-07-25T08:24:15Z</time>
      </trkpt>
      <trkpt lat="46.49608" lon="5.44375">
        <ele>490.6</ele>
        <time>2022-07-25T08:24:18Z</time>
      </trkpt>
      <trkpt lat="46.49612" lon="5.44368">
        <ele>491</ele>
        <time>2022-07-25T08:24:20Z</time>
      </trkpt>
      <trkpt lat="46.49618" lon="5.44357">
        <ele>491.6</ele>
        <time>2022-07-25T08:24:23Z</time>
      </trkpt>
      <trkpt lat="46.49626" lon="5.44336">
        <ele>492.6</ele>
        <time>2022-07-25T08:24:28Z</time>
      </trkpt>
      <trkpt lat="46.49626" lon="5.44311">
        <ele>493.6</ele>
        <time>2022-07-25T08:24:33Z</time>
      </trkpt>
      <trkpt lat="46.49625" lon="5.44306">
        <ele>493.8</ele>
        <time>2022-07-25T08:24:34Z</time>
      </trkpt>
      <trkpt lat="46.49615" lon="5.44282">
        <ele>494.8</ele>
        <time>2022-07-25T08:24:39Z</time>
      </trkpt>
      <trkpt lat="46.49612" lon="5.44279">
        <ele>494.8</ele>
        <time>2022-07-25T08:24:40Z</time>
      </trkpt>
      <trkpt lat="46.49604" lon="5.44271">
        <ele>495.4</ele>
        <time>2022-07-25T08:24:43Z</time>
      </trkpt>
      <trkpt lat="46.49599" lon="5.44268">
        <ele>495.8</ele>
        <time>2022-07-25T08:24:45Z</time>
      </trkpt>
      <trkpt lat="46.49591" lon="5.44264">
        <ele>496.4</ele>
        <time>2022-07-25T08:24:48Z</time>
      </trkpt>
      <trkpt lat="46.49586" lon="5.44261">
        <ele>496.6</ele>
        <time>2022-07-25T08:24:50Z</time>
      </trkpt>
      <trkpt lat="46.49584" lon="5.44259">
        <ele>497</ele>
        <time>2022-07-25T08:24:51Z</time>
      </trkpt>
      <trkpt lat="46.49582" lon="5.44258">
        <ele>497</ele>
        <time>2022-07-25T08:24:52Z</time>
      </trkpt>
      <trkpt lat="46.49568" lon="5.44253">
        <ele>498</ele>
        <time>2022-07-25T08:24:57Z</time>
      </trkpt>
      <trkpt lat="46.49565" lon="5.44251">
        <ele>498.4</ele>
        <time>2022-07-25T08:24:58Z</time>
      </trkpt>
      <trkpt lat="46.49552" lon="5.44245">
        <ele>499</ele>
        <time>2022-07-25T08:25:02Z</time>
      </trkpt>
      <trkpt lat="46.49545" lon="5.44238">
        <ele>499.6</ele>
        <time>2022-07-25T08:25:05Z</time>
      </trkpt>
      <trkpt lat="46.49539" lon="5.44232">
        <ele>500.2</ele>
        <time>2022-07-25T08:25:07Z</time>
      </trkpt>
      <trkpt lat="46.49524" lon="5.44214">
        <ele>501</ele>
        <time>2022-07-25T08:25:13Z</time>
      </trkpt>
      <trkpt lat="46.49523" lon="5.4421">
        <ele>501.2</ele>
        <time>2022-07-25T08:25:14Z</time>
      </trkpt>
      <trkpt lat="46.49515" lon="5.44202">
        <ele>502</ele>
        <time>2022-07-25T08:25:18Z</time>
      </trkpt>
      <trkpt lat="46.49514" lon="5.44201">
        <ele>502.2</ele>
        <time>2022-07-25T08:25:19Z</time>
      </trkpt>
      <trkpt lat="46.49502" lon="5.44187">
        <ele>503.2</ele>
        <time>2022-07-25T08:25:24Z</time>
      </trkpt>
      <trkpt lat="46.49499" lon="5.44183">
        <ele>503.4</ele>
        <time>2022-07-25T08:25:25Z</time>
      </trkpt>
      <trkpt lat="46.49491" lon="5.44174">
        <ele>504</ele>
        <time>2022-07-25T08:25:28Z</time>
      </trkpt>
      <trkpt lat="46.49485" lon="5.4416">
        <ele>504.4</ele>
        <time>2022-07-25T08:25:31Z</time>
      </trkpt>
      <trkpt lat="46.49483" lon="5.44152">
        <ele>504.8</ele>
        <time>2022-07-25T08:25:33Z</time>
      </trkpt>
      <trkpt lat="46.49484" lon="5.44141">
        <ele>505.4</ele>
        <time>2022-07-25T08:25:36Z</time>
      </trkpt>
      <trkpt lat="46.49485" lon="5.44138">
        <ele>505.4</ele>
        <time>2022-07-25T08:25:37Z</time>
      </trkpt>
      <trkpt lat="46.49488" lon="5.44133">
        <ele>505.6</ele>
        <time>2022-07-25T08:25:39Z</time>
      </trkpt>
      <trkpt lat="46.49494" lon="5.44127">
        <ele>506.2</ele>
        <time>2022-07-25T08:25:42Z</time>
      </trkpt>
      <trkpt lat="46.49496" lon="5.44126">
        <ele>506.2</ele>
        <time>2022-07-25T08:25:43Z</time>
      </trkpt>
      <trkpt lat="46.49498" lon="5.44124">
        <ele>506.6</ele>
        <time>2022-07-25T08:25:44Z</time>
      </trkpt>
      <trkpt lat="46.49503" lon="5.44124">
        <ele>507</ele>
        <time>2022-07-25T08:25:46Z</time>
      </trkpt>
      <trkpt lat="46.4951" lon="5.44126">
        <ele>507.6</ele>
        <time>2022-07-25T08:25:49Z</time>
      </trkpt>
      <trkpt lat="46.49515" lon="5.4413">
        <ele>508.2</ele>
        <time>2022-07-25T08:25:51Z</time>
      </trkpt>
      <trkpt lat="46.49522" lon="5.44137">
        <ele>508.8</ele>
        <time>2022-07-25T08:25:54Z</time>
      </trkpt>
      <trkpt lat="46.49524" lon="5.4414">
        <ele>509</ele>
        <time>2022-07-25T08:25:55Z</time>
      </trkpt>
      <trkpt lat="46.49537" lon="5.44153">
        <ele>509.8</ele>
        <time>2022-07-25T08:26:00Z</time>
      </trkpt>
      <trkpt lat="46.4954" lon="5.44155">
        <ele>510</ele>
        <time>2022-07-25T08:26:01Z</time>
      </trkpt>
      <trkpt lat="46.49551" lon="5.4416">
        <ele>510.8</ele>
        <time>2022-07-25T08:26:05Z</time>
      </trkpt>
      <trkpt lat="46.49575" lon="5.44166">
        <ele>511.6</ele>
        <time>2022-07-25T08:26:11Z</time>
      </trkpt>
      <trkpt lat="46.49579" lon="5.44166">
        <ele>511.8</ele>
        <time>2022-07-25T08:26:12Z</time>
      </trkpt>
      <trkpt lat="46.49596" lon="5.44164">
        <ele>512.6</ele>
        <time>2022-07-25T08:26:16Z</time>
      </trkpt>
      <trkpt lat="46.49608" lon="5.44162">
        <ele>513</ele>
        <time>2022-07-25T08:26:19Z</time>
      </trkpt>
      <trkpt lat="46.49623" lon="5.44163">
        <ele>513.8</ele>
        <time>2022-07-25T08:26:23Z</time>
      </trkpt>
      <trkpt lat="46.49631" lon="5.44162">
        <ele>514</ele>
        <time>2022-07-25T08:26:25Z</time>
      </trkpt>
      <trkpt lat="46.49649" lon="5.44159">
        <ele>514.8</ele>
        <time>2022-07-25T08:26:30Z</time>
      </trkpt>
      <trkpt lat="46.49653" lon="5.44158">
        <ele>515</ele>
        <time>2022-07-25T08:26:31Z</time>
      </trkpt>
      <trkpt lat="46.49671" lon="5.44149">
        <ele>516</ele>
        <time>2022-07-25T08:26:36Z</time>
      </trkpt>
      <trkpt lat="46.49674" lon="5.44148">
        <ele>516.2</ele>
        <time>2022-07-25T08:26:37Z</time>
      </trkpt>
      <trkpt lat="46.4969" lon="5.4414">
        <ele>517.2</ele>
        <time>2022-07-25T08:26:42Z</time>
      </trkpt>
      <trkpt lat="46.49692" lon="5.44138">
        <ele>517.6</ele>
        <time>2022-07-25T08:26:43Z</time>
      </trkpt>
      <trkpt lat="46.49704" lon="5.44129">
        <ele>518.4</ele>
        <time>2022-07-25T08:26:47Z</time>
      </trkpt>
      <trkpt lat="46.49714" lon="5.44118">
        <ele>519.2</ele>
        <time>2022-07-25T08:26:51Z</time>
      </trkpt>
      <trkpt lat="46.49716" lon="5.44115">
        <ele>519.4</ele>
        <time>2022-07-25T08:26:52Z</time>
      </trkpt>
      <trkpt lat="46.49723" lon="5.44106">
        <ele>519.8</ele>
        <time>2022-07-25T08:26:55Z</time>
      </trkpt>
      <trkpt lat="46.49728" lon="5.44099">
        <ele>520.4</ele>
        <time>2022-07-25T08:26:58Z</time>
      </trkpt>
      <trkpt lat="46.4973" lon="5.44096">
        <ele>521</ele>
        <time>2022-07-25T08:26:59Z</time>
      </trkpt>
      <trkpt lat="46.49734" lon="5.44095">
        <ele>521.6</ele>
        <time>2022-07-25T08:27:01Z</time>
      </trkpt>
      <trkpt lat="46.49748" lon="5.44093">
        <ele>521.8</ele>
        <time>2022-07-25T08:27:05Z</time>
      </trkpt>
      <trkpt lat="46.49758" lon="5.44091">
        <ele>522.4</ele>
        <time>2022-07-25T08:27:07Z</time>
      </trkpt>
      <trkpt lat="46.4978" lon="5.44089">
        <ele>523</ele>
        <time>2022-07-25T08:27:11Z</time>
      </trkpt>
      <trkpt lat="46.49803" lon="5.44091">
        <ele>523.4</ele>
        <time>2022-07-25T08:27:15Z</time>
      </trkpt>
      <trkpt lat="46.4981" lon="5.44089">
        <ele>523.4</ele>
        <time>2022-07-25T08:27:16Z</time>
      </trkpt>
      <trkpt lat="46.49834" lon="5.44085">
        <ele>522.6</ele>
        <time>2022-07-25T08:27:20Z</time>
      </trkpt>
      <trkpt lat="46.4984" lon="5.44084">
        <ele>522.2</ele>
        <time>2022-07-25T08:27:21Z</time>
      </trkpt>
      <trkpt lat="46.49863" lon="5.44086">
        <ele>521</ele>
        <time>2022-07-25T08:27:24Z</time>
      </trkpt>
      <trkpt lat="46.4987" lon="5.44091">
        <ele>520.6</ele>
        <time>2022-07-25T08:27:25Z</time>
      </trkpt>
      <trkpt lat="46.49886" lon="5.441">
        <ele>519.8</ele>
        <time>2022-07-25T08:27:27Z</time>
      </trkpt>
      <trkpt lat="46.49903" lon="5.44108">
        <ele>519.4</ele>
        <time>2022-07-25T08:27:29Z</time>
      </trkpt>
      <trkpt lat="46.49933" lon="5.4412">
        <ele>518.4</ele>
        <time>2022-07-25T08:27:32Z</time>
      </trkpt>
      <trkpt lat="46.49945" lon="5.44126">
        <ele>518</ele>
        <time>2022-07-25T08:27:33Z</time>
      </trkpt>
      <trkpt lat="46.49958" lon="5.4413">
        <ele>517.2</ele>
        <time>2022-07-25T08:27:34Z</time>
      </trkpt>
      <trkpt lat="46.4998" lon="5.44134">
        <ele>514.6</ele>
        <time>2022-07-25T08:27:36Z</time>
      </trkpt>
      <trkpt lat="46.4999" lon="5.44137">
        <ele>514</ele>
        <time>2022-07-25T08:27:37Z</time>
      </trkpt>
      <trkpt lat="46.50002" lon="5.44138">
        <ele>512.8</ele>
        <time>2022-07-25T08:27:38Z</time>
      </trkpt>
      <trkpt lat="46.50011" lon="5.44138">
        <ele>511.4</ele>
        <time>2022-07-25T08:27:39Z</time>
      </trkpt>
      <trkpt lat="46.50031" lon="5.44128">
        <ele>510.2</ele>
        <time>2022-07-25T08:27:41Z</time>
      </trkpt>
      <trkpt lat="46.50054" lon="5.44123">
        <ele>507.8</ele>
        <time>2022-07-25T08:27:43Z</time>
      </trkpt>
      <trkpt lat="46.50076" lon="5.44131">
        <ele>506.8</ele>
        <time>2022-07-25T08:27:45Z</time>
      </trkpt>
      <trkpt lat="46.50087" lon="5.44137">
        <ele>504.8</ele>
        <time>2022-07-25T08:27:46Z</time>
      </trkpt>
      <trkpt lat="46.50101" lon="5.44138">
        <ele>504</ele>
        <time>2022-07-25T08:27:47Z</time>
      </trkpt>
      <trkpt lat="46.50113" lon="5.44139">
        <ele>502.8</ele>
        <time>2022-07-25T08:27:48Z</time>
      </trkpt>
      <trkpt lat="46.50134" lon="5.44142">
        <ele>501.2</ele>
        <time>2022-07-25T08:27:50Z</time>
      </trkpt>
      <trkpt lat="46.50142" lon="5.44145">
        <ele>500.8</ele>
        <time>2022-07-25T08:27:51Z</time>
      </trkpt>
      <trkpt lat="46.50153" lon="5.4415">
        <ele>500.2</ele>
        <time>2022-07-25T08:27:52Z</time>
      </trkpt>
      <trkpt lat="46.50169" lon="5.44157">
        <ele>499.2</ele>
        <time>2022-07-25T08:27:53Z</time>
      </trkpt>
      <trkpt lat="46.50181" lon="5.44166">
        <ele>499</ele>
        <time>2022-07-25T08:27:54Z</time>
      </trkpt>
      <trkpt lat="46.50191" lon="5.44175">
        <ele>497.6</ele>
        <time>2022-07-25T08:27:55Z</time>
      </trkpt>
      <trkpt lat="46.50202" lon="5.44186">
        <ele>497.2</ele>
        <time>2022-07-25T08:27:56Z</time>
      </trkpt>
      <trkpt lat="46.50211" lon="5.44195">
        <ele>496.6</ele>
        <time>2022-07-25T08:27:57Z</time>
      </trkpt>
      <trkpt lat="46.50219" lon="5.44206">
        <ele>495.8</ele>
        <time>2022-07-25T08:27:58Z</time>
      </trkpt>
      <trkpt lat="46.50227" lon="5.44218">
        <ele>494.6</ele>
        <time>2022-07-25T08:27:59Z</time>
      </trkpt>
      <trkpt lat="46.50234" lon="5.4423">
        <ele>494</ele>
        <time>2022-07-25T08:28:00Z</time>
      </trkpt>
      <trkpt lat="46.50243" lon="5.44252">
        <ele>493.6</ele>
        <time>2022-07-25T08:28:02Z</time>
      </trkpt>
      <trkpt lat="46.50254" lon="5.44272">
        <ele>493.2</ele>
        <time>2022-07-25T08:28:04Z</time>
      </trkpt>
      <trkpt lat="46.50271" lon="5.44289">
        <ele>492.8</ele>
        <time>2022-07-25T08:28:06Z</time>
      </trkpt>
      <trkpt lat="46.50288" lon="5.443">
        <ele>492.4</ele>
        <time>2022-07-25T08:28:08Z</time>
      </trkpt>
      <trkpt lat="46.50308" lon="5.44312">
        <ele>491.4</ele>
        <time>2022-07-25T08:28:10Z</time>
      </trkpt>
      <trkpt lat="46.50317" lon="5.44317">
        <ele>490.4</ele>
        <time>2022-07-25T08:28:11Z</time>
      </trkpt>
      <trkpt lat="46.50335" lon="5.44323">
        <ele>488.8</ele>
        <time>2022-07-25T08:28:13Z</time>
      </trkpt>
      <trkpt lat="46.50344" lon="5.44324">
        <ele>488.4</ele>
        <time>2022-07-25T08:28:14Z</time>
      </trkpt>
      <trkpt lat="46.5037" lon="5.44324">
        <ele>487.8</ele>
        <time>2022-07-25T08:28:17Z</time>
      </trkpt>
      <trkpt lat="46.50387" lon="5.44325">
        <ele>488</ele>
        <time>2022-07-25T08:28:19Z</time>
      </trkpt>
      <trkpt lat="46.50418" lon="5.44327">
        <ele>489</ele>
        <time>2022-07-25T08:28:23Z</time>
      </trkpt>
      <trkpt lat="46.50433" lon="5.44329">
        <ele>489.4</ele>
        <time>2022-07-25T08:28:25Z</time>
      </trkpt>
      <trkpt lat="46.50478" lon="5.44334">
        <ele>489.8</ele>
        <time>2022-07-25T08:28:31Z</time>
      </trkpt>
      <trkpt lat="46.505" lon="5.44338">
        <ele>490.4</ele>
        <time>2022-07-25T08:28:34Z</time>
      </trkpt>
      <trkpt lat="46.50536" lon="5.44348">
        <ele>490.6</ele>
        <time>2022-07-25T08:28:39Z</time>
      </trkpt>
      <trkpt lat="46.50549" lon="5.44352">
        <ele>490.8</ele>
        <time>2022-07-25T08:28:41Z</time>
      </trkpt>
      <trkpt lat="46.50563" lon="5.44357">
        <ele>491</ele>
        <time>2022-07-25T08:28:43Z</time>
      </trkpt>
      <trkpt lat="46.50575" lon="5.44361">
        <ele>491.2</ele>
        <time>2022-07-25T08:28:45Z</time>
      </trkpt>
      <trkpt lat="46.50594" lon="5.44366">
        <ele>492</ele>
        <time>2022-07-25T08:28:48Z</time>
      </trkpt>
      <trkpt lat="46.506" lon="5.44366">
        <ele>492.4</ele>
        <time>2022-07-25T08:28:49Z</time>
      </trkpt>
      <trkpt lat="46.50606" lon="5.44364">
        <ele>492.4</ele>
        <time>2022-07-25T08:28:50Z</time>
      </trkpt>
      <trkpt lat="46.50624" lon="5.44354">
        <ele>492.6</ele>
        <time>2022-07-25T08:28:53Z</time>
      </trkpt>
      <trkpt lat="46.50641" lon="5.44343">
        <ele>492.6</ele>
        <time>2022-07-25T08:28:55Z</time>
      </trkpt>
      <trkpt lat="46.50648" lon="5.4434">
        <ele>492.2</ele>
        <time>2022-07-25T08:28:56Z</time>
      </trkpt>
      <trkpt lat="46.5066" lon="5.44341">
        <ele>492.2</ele>
        <time>2022-07-25T08:28:57Z</time>
      </trkpt>
      <trkpt lat="46.50669" lon="5.44346">
        <ele>491.8</ele>
        <time>2022-07-25T08:28:58Z</time>
      </trkpt>
      <trkpt lat="46.50686" lon="5.44354">
        <ele>491</ele>
        <time>2022-07-25T08:29:00Z</time>
      </trkpt>
      <trkpt lat="46.50704" lon="5.44364">
        <ele>490</ele>
        <time>2022-07-25T08:29:02Z</time>
      </trkpt>
      <trkpt lat="46.50713" lon="5.44368">
        <ele>489</ele>
        <time>2022-07-25T08:29:03Z</time>
      </trkpt>
      <trkpt lat="46.50723" lon="5.4437">
        <ele>488.6</ele>
        <time>2022-07-25T08:29:04Z</time>
      </trkpt>
      <trkpt lat="46.50733" lon="5.44369">
        <ele>488</ele>
        <time>2022-07-25T08:29:05Z</time>
      </trkpt>
      <trkpt lat="46.50743" lon="5.44368">
        <ele>487.8</ele>
        <time>2022-07-25T08:29:06Z</time>
      </trkpt>
      <trkpt lat="46.50765" lon="5.44364">
        <ele>487.4</ele>
        <time>2022-07-25T08:29:08Z</time>
      </trkpt>
      <trkpt lat="46.50787" lon="5.44362">
        <ele>486.2</ele>
        <time>2022-07-25T08:29:10Z</time>
      </trkpt>
      <trkpt lat="46.50799" lon="5.44363">
        <ele>485.6</ele>
        <time>2022-07-25T08:29:11Z</time>
      </trkpt>
      <trkpt lat="46.50811" lon="5.44364">
        <ele>484.8</ele>
        <time>2022-07-25T08:29:12Z</time>
      </trkpt>
      <trkpt lat="46.50847" lon="5.44367">
        <ele>482.8</ele>
        <time>2022-07-25T08:29:15Z</time>
      </trkpt>
      <trkpt lat="46.50859" lon="5.44368">
        <ele>481.4</ele>
        <time>2022-07-25T08:29:16Z</time>
      </trkpt>
      <trkpt lat="46.5087" lon="5.4437">
        <ele>480.6</ele>
        <time>2022-07-25T08:29:17Z</time>
      </trkpt>
      <trkpt lat="46.50881" lon="5.44371">
        <ele>480</ele>
        <time>2022-07-25T08:29:18Z</time>
      </trkpt>
      <trkpt lat="46.50913" lon="5.44373">
        <ele>478.6</ele>
        <time>2022-07-25T08:29:21Z</time>
      </trkpt>
      <trkpt lat="46.50924" lon="5.44372">
        <ele>478.4</ele>
        <time>2022-07-25T08:29:22Z</time>
      </trkpt>
      <trkpt lat="46.50945" lon="5.44372">
        <ele>476.4</ele>
        <time>2022-07-25T08:29:24Z</time>
      </trkpt>
      <trkpt lat="46.50965" lon="5.44374">
        <ele>475.2</ele>
        <time>2022-07-25T08:29:26Z</time>
      </trkpt>
      <trkpt lat="46.50977" lon="5.44375">
        <ele>474.8</ele>
        <time>2022-07-25T08:29:27Z</time>
      </trkpt>
      <trkpt lat="46.50984" lon="5.44376">
        <ele>474</ele>
        <time>2022-07-25T08:29:28Z</time>
      </trkpt>
      <trkpt lat="46.51004" lon="5.44376">
        <ele>471.4</ele>
        <time>2022-07-25T08:29:30Z</time>
      </trkpt>
      <trkpt lat="46.51014" lon="5.44374">
        <ele>470</ele>
        <time>2022-07-25T08:29:31Z</time>
      </trkpt>
      <trkpt lat="46.51024" lon="5.44369">
        <ele>469.4</ele>
        <time>2022-07-25T08:29:32Z</time>
      </trkpt>
      <trkpt lat="46.51035" lon="5.44365">
        <ele>468.2</ele>
        <time>2022-07-25T08:29:33Z</time>
      </trkpt>
      <trkpt lat="46.51054" lon="5.44358">
        <ele>467</ele>
        <time>2022-07-25T08:29:35Z</time>
      </trkpt>
      <trkpt lat="46.51083" lon="5.44348">
        <ele>465</ele>
        <time>2022-07-25T08:29:38Z</time>
      </trkpt>
      <trkpt lat="46.51094" lon="5.44345">
        <ele>464.4</ele>
        <time>2022-07-25T08:29:39Z</time>
      </trkpt>
      <trkpt lat="46.51105" lon="5.44344">
        <ele>463</ele>
        <time>2022-07-25T08:29:40Z</time>
      </trkpt>
      <trkpt lat="46.51116" lon="5.44345">
        <ele>462.6</ele>
        <time>2022-07-25T08:29:41Z</time>
      </trkpt>
      <trkpt lat="46.51137" lon="5.44352">
        <ele>461.6</ele>
        <time>2022-07-25T08:29:43Z</time>
      </trkpt>
      <trkpt lat="46.51148" lon="5.44355">
        <ele>460.4</ele>
        <time>2022-07-25T08:29:44Z</time>
      </trkpt>
      <trkpt lat="46.51173" lon="5.44351">
        <ele>459.2</ele>
        <time>2022-07-25T08:29:46Z</time>
      </trkpt>
      <trkpt lat="46.51194" lon="5.44333">
        <ele>458.4</ele>
        <time>2022-07-25T08:29:48Z</time>
      </trkpt>
      <trkpt lat="46.51204" lon="5.44321">
        <ele>457.6</ele>
        <time>2022-07-25T08:29:49Z</time>
      </trkpt>
      <trkpt lat="46.51214" lon="5.44311">
        <ele>457</ele>
        <time>2022-07-25T08:29:50Z</time>
      </trkpt>
      <trkpt lat="46.51224" lon="5.44304">
        <ele>455.8</ele>
        <time>2022-07-25T08:29:51Z</time>
      </trkpt>
      <trkpt lat="46.51235" lon="5.44297">
        <ele>454.8</ele>
        <time>2022-07-25T08:29:52Z</time>
      </trkpt>
      <trkpt lat="46.51257" lon="5.44286">
        <ele>453.2</ele>
        <time>2022-07-25T08:29:54Z</time>
      </trkpt>
      <trkpt lat="46.51278" lon="5.44276">
        <ele>451.2</ele>
        <time>2022-07-25T08:29:56Z</time>
      </trkpt>
      <trkpt lat="46.51293" lon="5.44264">
        <ele>450.2</ele>
        <time>2022-07-25T08:29:58Z</time>
      </trkpt>
      <trkpt lat="46.51298" lon="5.44255">
        <ele>449.6</ele>
        <time>2022-07-25T08:29:59Z</time>
      </trkpt>
      <trkpt lat="46.51302" lon="5.44245">
        <ele>449.2</ele>
        <time>2022-07-25T08:30:00Z</time>
      </trkpt>
      <trkpt lat="46.51302" lon="5.44233">
        <ele>448.2</ele>
        <time>2022-07-25T08:30:01Z</time>
      </trkpt>
      <trkpt lat="46.5129" lon="5.44213">
        <ele>445.4</ele>
        <time>2022-07-25T08:30:03Z</time>
      </trkpt>
      <trkpt lat="46.51283" lon="5.44207">
        <ele>444.8</ele>
        <time>2022-07-25T08:30:04Z</time>
      </trkpt>
      <trkpt lat="46.51274" lon="5.442">
        <ele>443.8</ele>
        <time>2022-07-25T08:30:05Z</time>
      </trkpt>
      <trkpt lat="46.51265" lon="5.44193">
        <ele>442.4</ele>
        <time>2022-07-25T08:30:06Z</time>
      </trkpt>
      <trkpt lat="46.51248" lon="5.44181">
        <ele>440.6</ele>
        <time>2022-07-25T08:30:08Z</time>
      </trkpt>
      <trkpt lat="46.51243" lon="5.44175">
        <ele>439.8</ele>
        <time>2022-07-25T08:30:09Z</time>
      </trkpt>
      <trkpt lat="46.51239" lon="5.44168">
        <ele>439</ele>
        <time>2022-07-25T08:30:10Z</time>
      </trkpt>
      <trkpt lat="46.51238" lon="5.44159">
        <ele>438.6</ele>
        <time>2022-07-25T08:30:11Z</time>
      </trkpt>
      <trkpt lat="46.51247" lon="5.44141">
        <ele>437.4</ele>
        <time>2022-07-25T08:30:13Z</time>
      </trkpt>
      <trkpt lat="46.51262" lon="5.44131">
        <ele>436.8</ele>
        <time>2022-07-25T08:30:15Z</time>
      </trkpt>
      <trkpt lat="46.51269" lon="5.44128">
        <ele>436.4</ele>
        <time>2022-07-25T08:30:16Z</time>
      </trkpt>
      <trkpt lat="46.51277" lon="5.44124">
        <ele>436</ele>
        <time>2022-07-25T08:30:17Z</time>
      </trkpt>
      <trkpt lat="46.51302" lon="5.44112">
        <ele>434.6</ele>
        <time>2022-07-25T08:30:20Z</time>
      </trkpt>
      <trkpt lat="46.51318" lon="5.44103">
        <ele>433.4</ele>
        <time>2022-07-25T08:30:22Z</time>
      </trkpt>
      <trkpt lat="46.51333" lon="5.44086">
        <ele>432.6</ele>
        <time>2022-07-25T08:30:24Z</time>
      </trkpt>
      <trkpt lat="46.51338" lon="5.44076">
        <ele>432.6</ele>
        <time>2022-07-25T08:30:25Z</time>
      </trkpt>
      <trkpt lat="46.51343" lon="5.44063">
        <ele>432.2</ele>
        <time>2022-07-25T08:30:26Z</time>
      </trkpt>
      <trkpt lat="46.51348" lon="5.4405">
        <ele>432</ele>
        <time>2022-07-25T08:30:27Z</time>
      </trkpt>
      <trkpt lat="46.51356" lon="5.4404">
        <ele>431.8</ele>
        <time>2022-07-25T08:30:28Z</time>
      </trkpt>
      <trkpt lat="46.51364" lon="5.44031">
        <ele>431.4</ele>
        <time>2022-07-25T08:30:29Z</time>
      </trkpt>
      <trkpt lat="46.51381" lon="5.44019">
        <ele>431</ele>
        <time>2022-07-25T08:30:31Z</time>
      </trkpt>
      <trkpt lat="46.51402" lon="5.44014">
        <ele>429.4</ele>
        <time>2022-07-25T08:30:33Z</time>
      </trkpt>
      <trkpt lat="46.5142" lon="5.4401">
        <ele>428</ele>
        <time>2022-07-25T08:30:35Z</time>
      </trkpt>
      <trkpt lat="46.51427" lon="5.44007">
        <ele>427</ele>
        <time>2022-07-25T08:30:36Z</time>
      </trkpt>
      <trkpt lat="46.51433" lon="5.44">
        <ele>426.6</ele>
        <time>2022-07-25T08:30:37Z</time>
      </trkpt>
      <trkpt lat="46.51436" lon="5.43989">
        <ele>425.4</ele>
        <time>2022-07-25T08:30:38Z</time>
      </trkpt>
      <trkpt lat="46.51436" lon="5.43977">
        <ele>425</ele>
        <time>2022-07-25T08:30:39Z</time>
      </trkpt>
      <trkpt lat="46.51435" lon="5.43964">
        <ele>424</ele>
        <time>2022-07-25T08:30:40Z</time>
      </trkpt>
      <trkpt lat="46.5143" lon="5.43938">
        <ele>422.6</ele>
        <time>2022-07-25T08:30:42Z</time>
      </trkpt>
      <trkpt lat="46.51428" lon="5.43924">
        <ele>421.8</ele>
        <time>2022-07-25T08:30:43Z</time>
      </trkpt>
      <trkpt lat="46.51427" lon="5.4391">
        <ele>421.4</ele>
        <time>2022-07-25T08:30:44Z</time>
      </trkpt>
      <trkpt lat="46.51424" lon="5.43881">
        <ele>420</ele>
        <time>2022-07-25T08:30:46Z</time>
      </trkpt>
      <trkpt lat="46.51423" lon="5.43866">
        <ele>418.8</ele>
        <time>2022-07-25T08:30:47Z</time>
      </trkpt>
      <trkpt lat="46.51422" lon="5.43851">
        <ele>418.2</ele>
        <time>2022-07-25T08:30:48Z</time>
      </trkpt>
      <trkpt lat="46.51421" lon="5.43822">
        <ele>417.2</ele>
        <time>2022-07-25T08:30:50Z</time>
      </trkpt>
      <trkpt lat="46.51419" lon="5.43793">
        <ele>416.2</ele>
        <time>2022-07-25T08:30:52Z</time>
      </trkpt>
      <trkpt lat="46.5142" lon="5.43779">
        <ele>416</ele>
        <time>2022-07-25T08:30:53Z</time>
      </trkpt>
      <trkpt lat="46.51424" lon="5.43766">
        <ele>415.6</ele>
        <time>2022-07-25T08:30:54Z</time>
      </trkpt>
      <trkpt lat="46.51431" lon="5.43755">
        <ele>415.2</ele>
        <time>2022-07-25T08:30:55Z</time>
      </trkpt>
      <trkpt lat="46.51439" lon="5.43747">
        <ele>415</ele>
        <time>2022-07-25T08:30:56Z</time>
      </trkpt>
      <trkpt lat="46.51459" lon="5.43737">
        <ele>413.8</ele>
        <time>2022-07-25T08:30:58Z</time>
      </trkpt>
      <trkpt lat="46.51478" lon="5.43728">
        <ele>412.8</ele>
        <time>2022-07-25T08:31:00Z</time>
      </trkpt>
      <trkpt lat="46.51498" lon="5.43718">
        <ele>411.6</ele>
        <time>2022-07-25T08:31:02Z</time>
      </trkpt>
      <trkpt lat="46.51521" lon="5.43703">
        <ele>410.6</ele>
        <time>2022-07-25T08:31:05Z</time>
      </trkpt>
      <trkpt lat="46.51526" lon="5.43698">
        <ele>410.4</ele>
        <time>2022-07-25T08:31:06Z</time>
      </trkpt>
      <trkpt lat="46.51529" lon="5.43691">
        <ele>410.2</ele>
        <time>2022-07-25T08:31:07Z</time>
      </trkpt>
      <trkpt lat="46.51529" lon="5.43684">
        <ele>409.8</ele>
        <time>2022-07-25T08:31:08Z</time>
      </trkpt>
      <trkpt lat="46.51528" lon="5.43676">
        <ele>409.6</ele>
        <time>2022-07-25T08:31:09Z</time>
      </trkpt>
      <trkpt lat="46.51523" lon="5.43659">
        <ele>409.4</ele>
        <time>2022-07-25T08:31:11Z</time>
      </trkpt>
      <trkpt lat="46.51519" lon="5.43651">
        <ele>409.2</ele>
        <time>2022-07-25T08:31:12Z</time>
      </trkpt>
      <trkpt lat="46.515" lon="5.43621">
        <ele>409.4</ele>
        <time>2022-07-25T08:31:16Z</time>
      </trkpt>
      <trkpt lat="46.51465" lon="5.43579">
        <ele>409.8</ele>
        <time>2022-07-25T08:31:23Z</time>
      </trkpt>
      <trkpt lat="46.51437" lon="5.43555">
        <ele>410.2</ele>
        <time>2022-07-25T08:31:28Z</time>
      </trkpt>
      <trkpt lat="46.51432" lon="5.43551">
        <ele>410.2</ele>
        <time>2022-07-25T08:31:29Z</time>
      </trkpt>
      <trkpt lat="46.51426" lon="5.43548">
        <ele>410.2</ele>
        <time>2022-07-25T08:31:30Z</time>
      </trkpt>
      <trkpt lat="46.51407" lon="5.43541">
        <ele>410.4</ele>
        <time>2022-07-25T08:31:33Z</time>
      </trkpt>
      <trkpt lat="46.51356" lon="5.4352">
        <ele>410.4</ele>
        <time>2022-07-25T08:31:41Z</time>
      </trkpt>
      <trkpt lat="46.51328" lon="5.43512">
        <ele>411</ele>
        <time>2022-07-25T08:31:45Z</time>
      </trkpt>
      <trkpt lat="46.51309" lon="5.43509">
        <ele>411</ele>
        <time>2022-07-25T08:31:48Z</time>
      </trkpt>
      <trkpt lat="46.51281" lon="5.43506">
        <ele>410.6</ele>
        <time>2022-07-25T08:31:52Z</time>
      </trkpt>
      <trkpt lat="46.51267" lon="5.43499">
        <ele>410.6</ele>
        <time>2022-07-25T08:31:54Z</time>
      </trkpt>
      <trkpt lat="46.51251" lon="5.43485">
        <ele>410.2</ele>
        <time>2022-07-25T08:31:57Z</time>
      </trkpt>
      <trkpt lat="46.51241" lon="5.43473">
        <ele>410.2</ele>
        <time>2022-07-25T08:31:59Z</time>
      </trkpt>
      <trkpt lat="46.51209" lon="5.43428">
        <ele>410.6</ele>
        <time>2022-07-25T08:32:06Z</time>
      </trkpt>
      <trkpt lat="46.51183" lon="5.43404">
        <ele>411</ele>
        <time>2022-07-25T08:32:11Z</time>
      </trkpt>
      <trkpt lat="46.51176" lon="5.434">
        <ele>410.8</ele>
        <time>2022-07-25T08:32:12Z</time>
      </trkpt>
      <trkpt lat="46.5117" lon="5.43397">
        <ele>410.8</ele>
        <time>2022-07-25T08:32:13Z</time>
      </trkpt>
      <trkpt lat="46.51156" lon="5.43394">
        <ele>410.8</ele>
        <time>2022-07-25T08:32:15Z</time>
      </trkpt>
      <trkpt lat="46.51149" lon="5.43394">
        <ele>410.6</ele>
        <time>2022-07-25T08:32:16Z</time>
      </trkpt>
      <trkpt lat="46.51117" lon="5.43394">
        <ele>409.8</ele>
        <time>2022-07-25T08:32:21Z</time>
      </trkpt>
      <trkpt lat="46.51109" lon="5.43391">
        <ele>409.8</ele>
        <time>2022-07-25T08:32:22Z</time>
      </trkpt>
      <trkpt lat="46.51103" lon="5.43387">
        <ele>409.8</ele>
        <time>2022-07-25T08:32:23Z</time>
      </trkpt>
      <trkpt lat="46.51089" lon="5.43377">
        <ele>410.2</ele>
        <time>2022-07-25T08:32:26Z</time>
      </trkpt>
      <trkpt lat="46.51079" lon="5.43371">
        <ele>410.4</ele>
        <time>2022-07-25T08:32:28Z</time>
      </trkpt>
      <trkpt lat="46.51058" lon="5.43363">
        <ele>410.6</ele>
        <time>2022-07-25T08:32:32Z</time>
      </trkpt>
      <trkpt lat="46.51037" lon="5.43354">
        <ele>411</ele>
        <time>2022-07-25T08:32:36Z</time>
      </trkpt>
      <trkpt lat="46.51027" lon="5.4335">
        <ele>411.4</ele>
        <time>2022-07-25T08:32:38Z</time>
      </trkpt>
      <trkpt lat="46.51016" lon="5.43349">
        <ele>411.8</ele>
        <time>2022-07-25T08:32:40Z</time>
      </trkpt>
      <trkpt lat="46.51005" lon="5.43351">
        <ele>412</ele>
        <time>2022-07-25T08:32:42Z</time>
      </trkpt>
      <trkpt lat="46.51" lon="5.43354">
        <ele>412</ele>
        <time>2022-07-25T08:32:43Z</time>
      </trkpt>
      <trkpt lat="46.50995" lon="5.43358">
        <ele>412.2</ele>
        <time>2022-07-25T08:32:44Z</time>
      </trkpt>
      <trkpt lat="46.50982" lon="5.43372">
        <ele>412.8</ele>
        <time>2022-07-25T08:32:47Z</time>
      </trkpt>
      <trkpt lat="46.50973" lon="5.43382">
        <ele>412.8</ele>
        <time>2022-07-25T08:32:49Z</time>
      </trkpt>
      <trkpt lat="46.50959" lon="5.43391">
        <ele>412.8</ele>
        <time>2022-07-25T08:32:52Z</time>
      </trkpt>
      <trkpt lat="46.50948" lon="5.43401">
        <ele>412.8</ele>
        <time>2022-07-25T08:32:54Z</time>
      </trkpt>
      <trkpt lat="46.50934" lon="5.43408">
        <ele>412.4</ele>
        <time>2022-07-25T08:32:56Z</time>
      </trkpt>
      <trkpt lat="46.50915" lon="5.43403">
        <ele>412.2</ele>
        <time>2022-07-25T08:32:59Z</time>
      </trkpt>
      <trkpt lat="46.50878" lon="5.43385">
        <ele>412.4</ele>
        <time>2022-07-25T08:33:05Z</time>
      </trkpt>
      <trkpt lat="46.50855" lon="5.43372">
        <ele>412.8</ele>
        <time>2022-07-25T08:33:09Z</time>
      </trkpt>
      <trkpt lat="46.50845" lon="5.43365">
        <ele>413</ele>
        <time>2022-07-25T08:33:11Z</time>
      </trkpt>
      <trkpt lat="46.50794" lon="5.4333">
        <ele>413</ele>
        <time>2022-07-25T08:33:20Z</time>
      </trkpt>
      <trkpt lat="46.50788" lon="5.43325">
        <ele>413</ele>
        <time>2022-07-25T08:33:21Z</time>
      </trkpt>
      <trkpt lat="46.50761" lon="5.43313">
        <ele>413.2</ele>
        <time>2022-07-25T08:33:25Z</time>
      </trkpt>
      <trkpt lat="46.50748" lon="5.43311">
        <ele>413.2</ele>
        <time>2022-07-25T08:33:27Z</time>
      </trkpt>
      <trkpt lat="46.50741" lon="5.43312">
        <ele>413.2</ele>
        <time>2022-07-25T08:33:28Z</time>
      </trkpt>
      <trkpt lat="46.50735" lon="5.43314">
        <ele>413.4</ele>
        <time>2022-07-25T08:33:29Z</time>
      </trkpt>
      <trkpt lat="46.50715" lon="5.43327">
        <ele>413.4</ele>
        <time>2022-07-25T08:33:32Z</time>
      </trkpt>
      <trkpt lat="46.50702" lon="5.4333">
        <ele>413.4</ele>
        <time>2022-07-25T08:33:34Z</time>
      </trkpt>
      <trkpt lat="46.5069" lon="5.43328">
        <ele>413.6</ele>
        <time>2022-07-25T08:33:36Z</time>
      </trkpt>
      <trkpt lat="46.5068" lon="5.43321">
        <ele>413.6</ele>
        <time>2022-07-25T08:33:38Z</time>
      </trkpt>
      <trkpt lat="46.50656" lon="5.43303">
        <ele>414</ele>
        <time>2022-07-25T08:33:43Z</time>
      </trkpt>
      <trkpt lat="46.50644" lon="5.43295">
        <ele>414.2</ele>
        <time>2022-07-25T08:33:45Z</time>
      </trkpt>
      <trkpt lat="46.50616" lon="5.43276">
        <ele>414.4</ele>
        <time>2022-07-25T08:33:50Z</time>
      </trkpt>
      <trkpt lat="46.50583" lon="5.43255">
        <ele>415.2</ele>
        <time>2022-07-25T08:33:56Z</time>
      </trkpt>
      <trkpt lat="46.50577" lon="5.43252">
        <ele>415.6</ele>
        <time>2022-07-25T08:33:57Z</time>
      </trkpt>
      <trkpt lat="46.50536" lon="5.43228">
        <ele>416.2</ele>
        <time>2022-07-25T08:34:04Z</time>
      </trkpt>
      <trkpt lat="46.5053" lon="5.43226">
        <ele>416.2</ele>
        <time>2022-07-25T08:34:05Z</time>
      </trkpt>
      <trkpt lat="46.50524" lon="5.43226">
        <ele>416.4</ele>
        <time>2022-07-25T08:34:06Z</time>
      </trkpt>
      <trkpt lat="46.50506" lon="5.43219">
        <ele>416.4</ele>
        <time>2022-07-25T08:34:09Z</time>
      </trkpt>
      <trkpt lat="46.505" lon="5.43217">
        <ele>416.6</ele>
        <time>2022-07-25T08:34:10Z</time>
      </trkpt>
      <trkpt lat="46.50462" lon="5.4321">
        <ele>416.8</ele>
        <time>2022-07-25T08:34:16Z</time>
      </trkpt>
      <trkpt lat="46.50453" lon="5.43205">
        <ele>416.8</ele>
        <time>2022-07-25T08:34:18Z</time>
      </trkpt>
      <trkpt lat="46.50437" lon="5.43198">
        <ele>417.2</ele>
        <time>2022-07-25T08:34:21Z</time>
      </trkpt>
      <trkpt lat="46.50413" lon="5.43187">
        <ele>418</ele>
        <time>2022-07-25T08:34:25Z</time>
      </trkpt>
      <trkpt lat="46.50386" lon="5.43171">
        <ele>418.2</ele>
        <time>2022-07-25T08:34:30Z</time>
      </trkpt>
      <trkpt lat="46.50368" lon="5.43163">
        <ele>418.4</ele>
        <time>2022-07-25T08:34:33Z</time>
      </trkpt>
      <trkpt lat="46.50319" lon="5.43135">
        <ele>418.8</ele>
        <time>2022-07-25T08:34:42Z</time>
      </trkpt>
      <trkpt lat="46.50282" lon="5.43116">
        <ele>419</ele>
        <time>2022-07-25T08:34:49Z</time>
      </trkpt>
      <trkpt lat="46.5027" lon="5.4311">
        <ele>419</ele>
        <time>2022-07-25T08:34:51Z</time>
      </trkpt>
      <trkpt lat="46.50264" lon="5.43108">
        <ele>419.2</ele>
        <time>2022-07-25T08:34:52Z</time>
      </trkpt>
      <trkpt lat="46.50246" lon="5.43105">
        <ele>419.4</ele>
        <time>2022-07-25T08:34:55Z</time>
      </trkpt>
      <trkpt lat="46.50203" lon="5.43102">
        <ele>420.2</ele>
        <time>2022-07-25T08:35:02Z</time>
      </trkpt>
      <trkpt lat="46.50166" lon="5.43095">
        <ele>421.4</ele>
        <time>2022-07-25T08:35:09Z</time>
      </trkpt>
      <trkpt lat="46.50148" lon="5.43092">
        <ele>421.8</ele>
        <time>2022-07-25T08:35:12Z</time>
      </trkpt>
      <trkpt lat="46.50109" lon="5.43085">
        <ele>422.4</ele>
        <time>2022-07-25T08:35:19Z</time>
      </trkpt>
      <trkpt lat="46.50098" lon="5.43083">
        <ele>422.6</ele>
        <time>2022-07-25T08:35:21Z</time>
      </trkpt>
      <trkpt lat="46.50061" lon="5.43076">
        <ele>423.4</ele>
        <time>2022-07-25T08:35:27Z</time>
      </trkpt>
      <trkpt lat="46.50016" lon="5.4307">
        <ele>423.6</ele>
        <time>2022-07-25T08:35:34Z</time>
      </trkpt>
      <trkpt lat="46.49984" lon="5.43068">
        <ele>423.8</ele>
        <time>2022-07-25T08:35:40Z</time>
      </trkpt>
      <trkpt lat="46.49975" lon="5.43066">
        <ele>423.8</ele>
        <time>2022-07-25T08:35:42Z</time>
      </trkpt>
      <trkpt lat="46.49966" lon="5.43064">
        <ele>424.4</ele>
        <time>2022-07-25T08:35:44Z</time>
      </trkpt>
      <trkpt lat="46.49961" lon="5.43064">
        <ele>424.6</ele>
        <time>2022-07-25T08:35:45Z</time>
      </trkpt>
      <trkpt lat="46.49941" lon="5.43063">
        <ele>425.6</ele>
        <time>2022-07-25T08:35:49Z</time>
      </trkpt>
      <trkpt lat="46.49931" lon="5.43061">
        <ele>426</ele>
        <time>2022-07-25T08:35:51Z</time>
      </trkpt>
      <trkpt lat="46.49921" lon="5.4306">
        <ele>426.2</ele>
        <time>2022-07-25T08:35:53Z</time>
      </trkpt>
      <trkpt lat="46.49909" lon="5.43059">
        <ele>426.6</ele>
        <time>2022-07-25T08:35:55Z</time>
      </trkpt>
      <trkpt lat="46.49898" lon="5.43059">
        <ele>426.8</ele>
        <time>2022-07-25T08:35:57Z</time>
      </trkpt>
      <trkpt lat="46.4988" lon="5.43055">
        <ele>427.4</ele>
        <time>2022-07-25T08:36:00Z</time>
      </trkpt>
      <trkpt lat="46.49874" lon="5.43055">
        <ele>427.6</ele>
        <time>2022-07-25T08:36:01Z</time>
      </trkpt>
      <trkpt lat="46.49859" lon="5.43057">
        <ele>428</ele>
        <time>2022-07-25T08:36:03Z</time>
      </trkpt>
      <trkpt lat="46.49839" lon="5.43056">
        <ele>428.2</ele>
        <time>2022-07-25T08:36:06Z</time>
      </trkpt>
      <trkpt lat="46.49822" lon="5.43055">
        <ele>428.4</ele>
        <time>2022-07-25T08:36:09Z</time>
      </trkpt>
      <trkpt lat="46.49794" lon="5.43053">
        <ele>428.6</ele>
        <time>2022-07-25T08:36:14Z</time>
      </trkpt>
      <trkpt lat="46.49769" lon="5.43049">
        <ele>429.4</ele>
        <time>2022-07-25T08:36:19Z</time>
      </trkpt>
      <trkpt lat="46.49758" lon="5.43047">
        <ele>429.8</ele>
        <time>2022-07-25T08:36:21Z</time>
      </trkpt>
      <trkpt lat="46.49718" lon="5.43034">
        <ele>430.4</ele>
        <time>2022-07-25T08:36:28Z</time>
      </trkpt>
      <trkpt lat="46.49696" lon="5.43024">
        <ele>430.4</ele>
        <time>2022-07-25T08:36:32Z</time>
      </trkpt>
      <trkpt lat="46.49678" lon="5.43018">
        <ele>430.2</ele>
        <time>2022-07-25T08:36:35Z</time>
      </trkpt>
      <trkpt lat="46.49643" lon="5.43003">
        <ele>430.2</ele>
        <time>2022-07-25T08:36:42Z</time>
      </trkpt>
      <trkpt lat="46.49633" lon="5.42998">
        <ele>430.4</ele>
        <time>2022-07-25T08:36:44Z</time>
      </trkpt>
      <trkpt lat="46.49624" lon="5.42994">
        <ele>430.6</ele>
        <time>2022-07-25T08:36:46Z</time>
      </trkpt>
      <trkpt lat="46.49613" lon="5.42991">
        <ele>431</ele>
        <time>2022-07-25T08:36:48Z</time>
      </trkpt>
      <trkpt lat="46.49591" lon="5.42983">
        <ele>431.8</ele>
        <time>2022-07-25T08:36:53Z</time>
      </trkpt>
      <trkpt lat="46.49578" lon="5.42977">
        <ele>432.8</ele>
        <time>2022-07-25T08:36:56Z</time>
      </trkpt>
      <trkpt lat="46.49556" lon="5.42967">
        <ele>433.8</ele>
        <time>2022-07-25T08:37:01Z</time>
      </trkpt>
      <trkpt lat="46.49533" lon="5.42956">
        <ele>434.8</ele>
        <time>2022-07-25T08:37:06Z</time>
      </trkpt>
      <trkpt lat="46.49511" lon="5.42943">
        <ele>435.6</ele>
        <time>2022-07-25T08:37:11Z</time>
      </trkpt>
      <trkpt lat="46.49501" lon="5.42936">
        <ele>435.8</ele>
        <time>2022-07-25T08:37:13Z</time>
      </trkpt>
      <trkpt lat="46.49471" lon="5.4291">
        <ele>436</ele>
        <time>2022-07-25T08:37:20Z</time>
      </trkpt>
      <trkpt lat="46.49467" lon="5.42906">
        <ele>436.2</ele>
        <time>2022-07-25T08:37:21Z</time>
      </trkpt>
      <trkpt lat="46.49464" lon="5.42902">
        <ele>436.2</ele>
        <time>2022-07-25T08:37:22Z</time>
      </trkpt>
      <trkpt lat="46.49443" lon="5.4287">
        <ele>436.8</ele>
        <time>2022-07-25T08:37:28Z</time>
      </trkpt>
      <trkpt lat="46.49436" lon="5.42858">
        <ele>437.2</ele>
        <time>2022-07-25T08:37:30Z</time>
      </trkpt>
      <trkpt lat="46.49409" lon="5.42815">
        <ele>437.8</ele>
        <time>2022-07-25T08:37:37Z</time>
      </trkpt>
      <trkpt lat="46.49406" lon="5.4281">
        <ele>438</ele>
        <time>2022-07-25T08:37:38Z</time>
      </trkpt>
      <trkpt lat="46.49388" lon="5.42782">
        <ele>438.6</ele>
        <time>2022-07-25T08:37:43Z</time>
      </trkpt>
      <trkpt lat="46.49371" lon="5.42753">
        <ele>439</ele>
        <time>2022-07-25T08:37:48Z</time>
      </trkpt>
      <trkpt lat="46.49365" lon="5.42741">
        <ele>439.4</ele>
        <time>2022-07-25T08:37:50Z</time>
      </trkpt>
      <trkpt lat="46.49348" lon="5.42713">
        <ele>439.8</ele>
        <time>2022-07-25T08:37:55Z</time>
      </trkpt>
      <trkpt lat="46.49344" lon="5.42709">
        <ele>440</ele>
        <time>2022-07-25T08:37:56Z</time>
      </trkpt>
      <trkpt lat="46.4934" lon="5.42705">
        <ele>440.2</ele>
        <time>2022-07-25T08:37:57Z</time>
      </trkpt>
      <trkpt lat="46.49332" lon="5.42698">
        <ele>440.6</ele>
        <time>2022-07-25T08:37:59Z</time>
      </trkpt>
      <trkpt lat="46.49328" lon="5.42694">
        <ele>440.8</ele>
        <time>2022-07-25T08:38:00Z</time>
      </trkpt>
      <trkpt lat="46.49324" lon="5.4269">
        <ele>441.2</ele>
        <time>2022-07-25T08:38:01Z</time>
      </trkpt>
      <trkpt lat="46.49305" lon="5.42669">
        <ele>441.8</ele>
        <time>2022-07-25T08:38:06Z</time>
      </trkpt>
      <trkpt lat="46.49297" lon="5.42659">
        <ele>441.8</ele>
        <time>2022-07-25T08:38:08Z</time>
      </trkpt>
      <trkpt lat="46.49285" lon="5.42644">
        <ele>442</ele>
        <time>2022-07-25T08:38:11Z</time>
      </trkpt>
      <trkpt lat="46.49264" lon="5.42616">
        <ele>443.2</ele>
        <time>2022-07-25T08:38:17Z</time>
      </trkpt>
      <trkpt lat="46.4926" lon="5.42612">
        <ele>443.4</ele>
        <time>2022-07-25T08:38:18Z</time>
      </trkpt>
      <trkpt lat="46.49252" lon="5.42603">
        <ele>444.2</ele>
        <time>2022-07-25T08:38:20Z</time>
      </trkpt>
      <trkpt lat="46.49249" lon="5.42599">
        <ele>444.2</ele>
        <time>2022-07-25T08:38:21Z</time>
      </trkpt>
      <trkpt lat="46.49238" lon="5.42587">
        <ele>444.8</ele>
        <time>2022-07-25T08:38:24Z</time>
      </trkpt>
      <trkpt lat="46.4923" lon="5.4258">
        <ele>445.2</ele>
        <time>2022-07-25T08:38:26Z</time>
      </trkpt>
      <trkpt lat="46.4921" lon="5.4256">
        <ele>446</ele>
        <time>2022-07-25T08:38:31Z</time>
      </trkpt>
      <trkpt lat="46.49202" lon="5.42553">
        <ele>446.2</ele>
        <time>2022-07-25T08:38:33Z</time>
      </trkpt>
      <trkpt lat="46.49189" lon="5.42542">
        <ele>446.8</ele>
        <time>2022-07-25T08:38:36Z</time>
      </trkpt>
      <trkpt lat="46.4918" lon="5.42534">
        <ele>447.2</ele>
        <time>2022-07-25T08:38:38Z</time>
      </trkpt>
      <trkpt lat="46.49171" lon="5.42527">
        <ele>447.2</ele>
        <time>2022-07-25T08:38:40Z</time>
      </trkpt>
      <trkpt lat="46.49158" lon="5.42517">
        <ele>447.8</ele>
        <time>2022-07-25T08:38:43Z</time>
      </trkpt>
      <trkpt lat="46.49155" lon="5.42512">
        <ele>447.8</ele>
        <time>2022-07-25T08:38:44Z</time>
      </trkpt>
      <trkpt lat="46.49151" lon="5.42508">
        <ele>448</ele>
        <time>2022-07-25T08:38:45Z</time>
      </trkpt>
      <trkpt lat="46.49143" lon="5.425">
        <ele>448.2</ele>
        <time>2022-07-25T08:38:47Z</time>
      </trkpt>
      <trkpt lat="46.49135" lon="5.42491">
        <ele>448.6</ele>
        <time>2022-07-25T08:38:49Z</time>
      </trkpt>
      <trkpt lat="46.49127" lon="5.42482">
        <ele>448.6</ele>
        <time>2022-07-25T08:38:51Z</time>
      </trkpt>
      <trkpt lat="46.49116" lon="5.42469">
        <ele>449.2</ele>
        <time>2022-07-25T08:38:54Z</time>
      </trkpt>
      <trkpt lat="46.49112" lon="5.42465">
        <ele>449.2</ele>
        <time>2022-07-25T08:38:55Z</time>
      </trkpt>
      <trkpt lat="46.49089" lon="5.42439">
        <ele>450.2</ele>
        <time>2022-07-25T08:39:01Z</time>
      </trkpt>
      <trkpt lat="46.49079" lon="5.42426">
        <ele>450.4</ele>
        <time>2022-07-25T08:39:04Z</time>
      </trkpt>
      <trkpt lat="46.49075" lon="5.42421">
        <ele>450.6</ele>
        <time>2022-07-25T08:39:05Z</time>
      </trkpt>
      <trkpt lat="46.49055" lon="5.42399">
        <ele>451</ele>
        <time>2022-07-25T08:39:10Z</time>
      </trkpt>
      <trkpt lat="46.49048" lon="5.42391">
        <ele>451</ele>
        <time>2022-07-25T08:39:12Z</time>
      </trkpt>
      <trkpt lat="46.49036" lon="5.42379">
        <ele>451.4</ele>
        <time>2022-07-25T08:39:15Z</time>
      </trkpt>
      <trkpt lat="46.49023" lon="5.42369">
        <ele>451.6</ele>
        <time>2022-07-25T08:39:18Z</time>
      </trkpt>
      <trkpt lat="46.49019" lon="5.42366">
        <ele>452</ele>
        <time>2022-07-25T08:39:19Z</time>
      </trkpt>
      <trkpt lat="46.49015" lon="5.42363">
        <ele>452.2</ele>
        <time>2022-07-25T08:39:20Z</time>
      </trkpt>
      <trkpt lat="46.48992" lon="5.42349">
        <ele>452.6</ele>
        <time>2022-07-25T08:39:25Z</time>
      </trkpt>
      <trkpt lat="46.48976" lon="5.42341">
        <ele>453.2</ele>
        <time>2022-07-25T08:39:29Z</time>
      </trkpt>
      <trkpt lat="46.48963" lon="5.42334">
        <ele>453.6</ele>
        <time>2022-07-25T08:39:32Z</time>
      </trkpt>
      <trkpt lat="46.48959" lon="5.42332">
        <ele>453.8</ele>
        <time>2022-07-25T08:39:33Z</time>
      </trkpt>
      <trkpt lat="46.48951" lon="5.42326">
        <ele>454.2</ele>
        <time>2022-07-25T08:39:35Z</time>
      </trkpt>
      <trkpt lat="46.48939" lon="5.42319">
        <ele>455.2</ele>
        <time>2022-07-25T08:39:38Z</time>
      </trkpt>
      <trkpt lat="46.48935" lon="5.42317">
        <ele>455.4</ele>
        <time>2022-07-25T08:39:39Z</time>
      </trkpt>
      <trkpt lat="46.48931" lon="5.42316">
        <ele>455.4</ele>
        <time>2022-07-25T08:39:40Z</time>
      </trkpt>
      <trkpt lat="46.48919" lon="5.42313">
        <ele>456</ele>
        <time>2022-07-25T08:39:43Z</time>
      </trkpt>
      <trkpt lat="46.4891" lon="5.42313">
        <ele>456.2</ele>
        <time>2022-07-25T08:39:45Z</time>
      </trkpt>
      <trkpt lat="46.48902" lon="5.42314">
        <ele>456.2</ele>
        <time>2022-07-25T08:39:47Z</time>
      </trkpt>
      <trkpt lat="46.48894" lon="5.42316">
        <ele>456.4</ele>
        <time>2022-07-25T08:39:49Z</time>
      </trkpt>
      <trkpt lat="46.48886" lon="5.42318">
        <ele>457.2</ele>
        <time>2022-07-25T08:39:51Z</time>
      </trkpt>
      <trkpt lat="46.48878" lon="5.4232">
        <ele>457.6</ele>
        <time>2022-07-25T08:39:53Z</time>
      </trkpt>
      <trkpt lat="46.48857" lon="5.42322">
        <ele>458.2</ele>
        <time>2022-07-25T08:39:58Z</time>
      </trkpt>
      <trkpt lat="46.48848" lon="5.42321">
        <ele>458.6</ele>
        <time>2022-07-25T08:40:00Z</time>
      </trkpt>
      <trkpt lat="46.4884" lon="5.4232">
        <ele>458.8</ele>
        <time>2022-07-25T08:40:02Z</time>
      </trkpt>
      <trkpt lat="46.48825" lon="5.42315">
        <ele>459</ele>
        <time>2022-07-25T08:40:05Z</time>
      </trkpt>
      <trkpt lat="46.4882" lon="5.42312">
        <ele>459.2</ele>
        <time>2022-07-25T08:40:06Z</time>
      </trkpt>
      <trkpt lat="46.48786" lon="5.42295">
        <ele>459.4</ele>
        <time>2022-07-25T08:40:12Z</time>
      </trkpt>
      <trkpt lat="46.4878" lon="5.42292">
        <ele>459.6</ele>
        <time>2022-07-25T08:40:13Z</time>
      </trkpt>
      <trkpt lat="46.4874" lon="5.42274">
        <ele>459.2</ele>
        <time>2022-07-25T08:40:20Z</time>
      </trkpt>
      <trkpt lat="46.48697" lon="5.4226">
        <ele>459.8</ele>
        <time>2022-07-25T08:40:28Z</time>
      </trkpt>
      <trkpt lat="46.48659" lon="5.42251">
        <ele>460.4</ele>
        <time>2022-07-25T08:40:35Z</time>
      </trkpt>
      <trkpt lat="46.48648" lon="5.4225">
        <ele>460.4</ele>
        <time>2022-07-25T08:40:37Z</time>
      </trkpt>
      <trkpt lat="46.48643" lon="5.4225">
        <ele>460.4</ele>
        <time>2022-07-25T08:40:38Z</time>
      </trkpt>
      <trkpt lat="46.48638" lon="5.42252">
        <ele>460.8</ele>
        <time>2022-07-25T08:40:39Z</time>
      </trkpt>
      <trkpt lat="46.48625" lon="5.4226">
        <ele>461.4</ele>
        <time>2022-07-25T08:40:42Z</time>
      </trkpt>
      <trkpt lat="46.48622" lon="5.42263">
        <ele>461.6</ele>
        <time>2022-07-25T08:40:43Z</time>
      </trkpt>
      <trkpt lat="46.48605" lon="5.42278">
        <ele>462.4</ele>
        <time>2022-07-25T08:40:48Z</time>
      </trkpt>
      <trkpt lat="46.48602" lon="5.4228">
        <ele>462.6</ele>
        <time>2022-07-25T08:40:49Z</time>
      </trkpt>
      <trkpt lat="46.48589" lon="5.42292">
        <ele>464.2</ele>
        <time>2022-07-25T08:40:53Z</time>
      </trkpt>
      <trkpt lat="46.48574" lon="5.42301">
        <ele>465.2</ele>
        <time>2022-07-25T08:40:57Z</time>
      </trkpt>
      <trkpt lat="46.48565" lon="5.423">
        <ele>465.8</ele>
        <time>2022-07-25T08:40:59Z</time>
      </trkpt>
      <trkpt lat="46.4856" lon="5.42297">
        <ele>466.2</ele>
        <time>2022-07-25T08:41:00Z</time>
      </trkpt>
      <trkpt lat="46.48556" lon="5.42294">
        <ele>466.4</ele>
        <time>2022-07-25T08:41:01Z</time>
      </trkpt>
      <trkpt lat="46.48541" lon="5.4228">
        <ele>467.4</ele>
        <time>2022-07-25T08:41:05Z</time>
      </trkpt>
      <trkpt lat="46.48521" lon="5.42264">
        <ele>468.2</ele>
        <time>2022-07-25T08:41:10Z</time>
      </trkpt>
      <trkpt lat="46.485" lon="5.42248">
        <ele>468.4</ele>
        <time>2022-07-25T08:41:15Z</time>
      </trkpt>
      <trkpt lat="46.48479" lon="5.42232">
        <ele>468.8</ele>
        <time>2022-07-25T08:41:20Z</time>
      </trkpt>
      <trkpt lat="46.48446" lon="5.42204">
        <ele>469.4</ele>
        <time>2022-07-25T08:41:28Z</time>
      </trkpt>
      <trkpt lat="46.48434" lon="5.42194">
        <ele>469.6</ele>
        <time>2022-07-25T08:41:31Z</time>
      </trkpt>
      <trkpt lat="46.48405" lon="5.42176">
        <ele>470.6</ele>
        <time>2022-07-25T08:41:38Z</time>
      </trkpt>
      <trkpt lat="46.48396" lon="5.42172">
        <ele>470.8</ele>
        <time>2022-07-25T08:41:40Z</time>
      </trkpt>
      <trkpt lat="46.48375" lon="5.4216">
        <ele>471.8</ele>
        <time>2022-07-25T08:41:45Z</time>
      </trkpt>
      <trkpt lat="46.48362" lon="5.42153">
        <ele>472.4</ele>
        <time>2022-07-25T08:41:48Z</time>
      </trkpt>
      <trkpt lat="46.48334" lon="5.42138">
        <ele>472.6</ele>
        <time>2022-07-25T08:41:54Z</time>
      </trkpt>
      <trkpt lat="46.48329" lon="5.42135">
        <ele>472.6</ele>
        <time>2022-07-25T08:41:55Z</time>
      </trkpt>
      <trkpt lat="46.48299" lon="5.42116">
        <ele>472.8</ele>
        <time>2022-07-25T08:42:01Z</time>
      </trkpt>
      <trkpt lat="46.48294" lon="5.42113">
        <ele>472.8</ele>
        <time>2022-07-25T08:42:02Z</time>
      </trkpt>
      <trkpt lat="46.48269" lon="5.42098">
        <ele>473.8</ele>
        <time>2022-07-25T08:42:08Z</time>
      </trkpt>
      <trkpt lat="46.48265" lon="5.42096">
        <ele>474</ele>
        <time>2022-07-25T08:42:09Z</time>
      </trkpt>
      <trkpt lat="46.48249" lon="5.42087">
        <ele>475.2</ele>
        <time>2022-07-25T08:42:13Z</time>
      </trkpt>
      <trkpt lat="46.48236" lon="5.42081">
        <ele>475.8</ele>
        <time>2022-07-25T08:42:16Z</time>
      </trkpt>
      <trkpt lat="46.4822" lon="5.42072">
        <ele>476.4</ele>
        <time>2022-07-25T08:42:20Z</time>
      </trkpt>
      <trkpt lat="46.48205" lon="5.42064">
        <ele>476.6</ele>
        <time>2022-07-25T08:42:24Z</time>
      </trkpt>
      <trkpt lat="46.48186" lon="5.42052">
        <ele>477.4</ele>
        <time>2022-07-25T08:42:29Z</time>
      </trkpt>
      <trkpt lat="46.48167" lon="5.42039">
        <ele>478.4</ele>
        <time>2022-07-25T08:42:34Z</time>
      </trkpt>
      <trkpt lat="46.4816" lon="5.42034">
        <ele>478.6</ele>
        <time>2022-07-25T08:42:36Z</time>
      </trkpt>
      <trkpt lat="46.48136" lon="5.42013">
        <ele>479.8</ele>
        <time>2022-07-25T08:42:43Z</time>
      </trkpt>
      <trkpt lat="46.48113" lon="5.41995">
        <ele>480.6</ele>
        <time>2022-07-25T08:42:49Z</time>
      </trkpt>
      <trkpt lat="46.48109" lon="5.41993">
        <ele>480.8</ele>
        <time>2022-07-25T08:42:50Z</time>
      </trkpt>
      <trkpt lat="46.48105" lon="5.41992">
        <ele>481</ele>
        <time>2022-07-25T08:42:51Z</time>
      </trkpt>
      <trkpt lat="46.48087" lon="5.41991">
        <ele>481.4</ele>
        <time>2022-07-25T08:42:55Z</time>
      </trkpt>
      <trkpt lat="46.48082" lon="5.41992">
        <ele>481.4</ele>
        <time>2022-07-25T08:42:56Z</time>
      </trkpt>
      <trkpt lat="46.48054" lon="5.41997">
        <ele>481.6</ele>
        <time>2022-07-25T08:43:02Z</time>
      </trkpt>
      <trkpt lat="46.48045" lon="5.41997">
        <ele>482</ele>
        <time>2022-07-25T08:43:04Z</time>
      </trkpt>
      <trkpt lat="46.4804" lon="5.41996">
        <ele>482</ele>
        <time>2022-07-25T08:43:05Z</time>
      </trkpt>
      <trkpt lat="46.48031" lon="5.41991">
        <ele>482.2</ele>
        <time>2022-07-25T08:43:07Z</time>
      </trkpt>
      <trkpt lat="46.48001" lon="5.41962">
        <ele>482.4</ele>
        <time>2022-07-25T08:43:14Z</time>
      </trkpt>
      <trkpt lat="46.4798" lon="5.41931">
        <ele>482.8</ele>
        <time>2022-07-25T08:43:19Z</time>
      </trkpt>
      <trkpt lat="46.47959" lon="5.41906">
        <ele>482.8</ele>
        <time>2022-07-25T08:43:23Z</time>
      </trkpt>
      <trkpt lat="46.47953" lon="5.41901">
        <ele>482.8</ele>
        <time>2022-07-25T08:43:24Z</time>
      </trkpt>
      <trkpt lat="46.47946" lon="5.41896">
        <ele>482.8</ele>
        <time>2022-07-25T08:43:25Z</time>
      </trkpt>
      <trkpt lat="46.47911" lon="5.41883">
        <ele>482.2</ele>
        <time>2022-07-25T08:43:30Z</time>
      </trkpt>
      <trkpt lat="46.47858" lon="5.41868">
        <ele>481.6</ele>
        <time>2022-07-25T08:43:38Z</time>
      </trkpt>
      <trkpt lat="46.47808" lon="5.41849">
        <ele>481.4</ele>
        <time>2022-07-25T08:43:46Z</time>
      </trkpt>
      <trkpt lat="46.47764" lon="5.41836">
        <ele>481.6</ele>
        <time>2022-07-25T08:43:53Z</time>
      </trkpt>
      <trkpt lat="46.47734" lon="5.41826">
        <ele>482.2</ele>
        <time>2022-07-25T08:43:58Z</time>
      </trkpt>
      <trkpt lat="46.47721" lon="5.4182">
        <ele>482.8</ele>
        <time>2022-07-25T08:44:00Z</time>
      </trkpt>
      <trkpt lat="46.47714" lon="5.41817">
        <ele>483</ele>
        <time>2022-07-25T08:44:01Z</time>
      </trkpt>
      <trkpt lat="46.47682" lon="5.41807">
        <ele>482.6</ele>
        <time>2022-07-25T08:44:06Z</time>
      </trkpt>
      <trkpt lat="46.4763" lon="5.41786">
        <ele>482.2</ele>
        <time>2022-07-25T08:44:14Z</time>
      </trkpt>
      <trkpt lat="46.47623" lon="5.41783">
        <ele>482.2</ele>
        <time>2022-07-25T08:44:15Z</time>
      </trkpt>
      <trkpt lat="46.47605" lon="5.41771">
        <ele>482.2</ele>
        <time>2022-07-25T08:44:18Z</time>
      </trkpt>
      <trkpt lat="46.476" lon="5.41765">
        <ele>481.8</ele>
        <time>2022-07-25T08:44:19Z</time>
      </trkpt>
      <trkpt lat="46.47596" lon="5.41759">
        <ele>481.8</ele>
        <time>2022-07-25T08:44:20Z</time>
      </trkpt>
      <trkpt lat="46.47575" lon="5.41729">
        <ele>482</ele>
        <time>2022-07-25T08:44:25Z</time>
      </trkpt>
      <trkpt lat="46.47543" lon="5.41704">
        <ele>482.6</ele>
        <time>2022-07-25T08:44:32Z</time>
      </trkpt>
      <trkpt lat="46.4753" lon="5.41695">
        <ele>483.2</ele>
        <time>2022-07-25T08:44:35Z</time>
      </trkpt>
      <trkpt lat="46.47511" lon="5.41682">
        <ele>484.2</ele>
        <time>2022-07-25T08:44:40Z</time>
      </trkpt>
      <trkpt lat="46.47504" lon="5.41677">
        <ele>484.6</ele>
        <time>2022-07-25T08:44:42Z</time>
      </trkpt>
      <trkpt lat="46.47483" lon="5.41659">
        <ele>485.6</ele>
        <time>2022-07-25T08:44:47Z</time>
      </trkpt>
      <trkpt lat="46.47479" lon="5.41655">
        <ele>485.6</ele>
        <time>2022-07-25T08:44:48Z</time>
      </trkpt>
      <trkpt lat="46.47458" lon="5.41638">
        <ele>486.4</ele>
        <time>2022-07-25T08:44:53Z</time>
      </trkpt>
      <trkpt lat="46.47453" lon="5.41635">
        <ele>486.6</ele>
        <time>2022-07-25T08:44:54Z</time>
      </trkpt>
      <trkpt lat="46.47449" lon="5.41632">
        <ele>486.6</ele>
        <time>2022-07-25T08:44:55Z</time>
      </trkpt>
      <trkpt lat="46.47445" lon="5.41629">
        <ele>486.8</ele>
        <time>2022-07-25T08:44:56Z</time>
      </trkpt>
      <trkpt lat="46.47441" lon="5.41626">
        <ele>487</ele>
        <time>2022-07-25T08:44:57Z</time>
      </trkpt>
      <trkpt lat="46.47429" lon="5.41619">
        <ele>487.8</ele>
        <time>2022-07-25T08:45:00Z</time>
      </trkpt>
      <trkpt lat="46.47422" lon="5.41614">
        <ele>488.2</ele>
        <time>2022-07-25T08:45:02Z</time>
      </trkpt>
      <trkpt lat="46.474" lon="5.41601">
        <ele>488.8</ele>
        <time>2022-07-25T08:45:07Z</time>
      </trkpt>
      <trkpt lat="46.47377" lon="5.41589">
        <ele>489.2</ele>
        <time>2022-07-25T08:45:12Z</time>
      </trkpt>
      <trkpt lat="46.47359" lon="5.4158">
        <ele>489.8</ele>
        <time>2022-07-25T08:45:16Z</time>
      </trkpt>
      <trkpt lat="46.47355" lon="5.41578">
        <ele>489.8</ele>
        <time>2022-07-25T08:45:17Z</time>
      </trkpt>
      <trkpt lat="46.47344" lon="5.4157">
        <ele>490.4</ele>
        <time>2022-07-25T08:45:20Z</time>
      </trkpt>
      <trkpt lat="46.4734" lon="5.41568">
        <ele>490.8</ele>
        <time>2022-07-25T08:45:21Z</time>
      </trkpt>
      <trkpt lat="46.4733" lon="5.41558">
        <ele>491.4</ele>
        <time>2022-07-25T08:45:24Z</time>
      </trkpt>
      <trkpt lat="46.47323" lon="5.41552">
        <ele>491.8</ele>
        <time>2022-07-25T08:45:26Z</time>
      </trkpt>
      <trkpt lat="46.4732" lon="5.41549">
        <ele>492</ele>
        <time>2022-07-25T08:45:27Z</time>
      </trkpt>
      <trkpt lat="46.47309" lon="5.41536">
        <ele>493</ele>
        <time>2022-07-25T08:45:31Z</time>
      </trkpt>
      <trkpt lat="46.47301" lon="5.41525">
        <ele>493.8</ele>
        <time>2022-07-25T08:45:34Z</time>
      </trkpt>
      <trkpt lat="46.47299" lon="5.41522">
        <ele>494.2</ele>
        <time>2022-07-25T08:45:35Z</time>
      </trkpt>
      <trkpt lat="46.47292" lon="5.41511">
        <ele>495.2</ele>
        <time>2022-07-25T08:45:38Z</time>
      </trkpt>
      <trkpt lat="46.4728" lon="5.41491">
        <ele>496.4</ele>
        <time>2022-07-25T08:45:43Z</time>
      </trkpt>
      <trkpt lat="46.47268" lon="5.4147">
        <ele>497.4</ele>
        <time>2022-07-25T08:45:48Z</time>
      </trkpt>
      <trkpt lat="46.47258" lon="5.41451">
        <ele>498.4</ele>
        <time>2022-07-25T08:45:53Z</time>
      </trkpt>
      <trkpt lat="46.47248" lon="5.41435">
        <ele>499.4</ele>
        <time>2022-07-25T08:45:57Z</time>
      </trkpt>
      <trkpt lat="46.47237" lon="5.41416">
        <ele>500.4</ele>
        <time>2022-07-25T08:46:02Z</time>
      </trkpt>
      <trkpt lat="46.47235" lon="5.41412">
        <ele>500.6</ele>
        <time>2022-07-25T08:46:03Z</time>
      </trkpt>
      <trkpt lat="46.47224" lon="5.41394">
        <ele>501.8</ele>
        <time>2022-07-25T08:46:08Z</time>
      </trkpt>
      <trkpt lat="46.47217" lon="5.41383">
        <ele>502.6</ele>
        <time>2022-07-25T08:46:11Z</time>
      </trkpt>
      <trkpt lat="46.47215" lon="5.41379">
        <ele>502.8</ele>
        <time>2022-07-25T08:46:12Z</time>
      </trkpt>
      <trkpt lat="46.47208" lon="5.41367">
        <ele>503.6</ele>
        <time>2022-07-25T08:46:15Z</time>
      </trkpt>
      <trkpt lat="46.47202" lon="5.41358">
        <ele>503.8</ele>
        <time>2022-07-25T08:46:17Z</time>
      </trkpt>
      <trkpt lat="46.47192" lon="5.41337">
        <ele>504.4</ele>
        <time>2022-07-25T08:46:21Z</time>
      </trkpt>
      <trkpt lat="46.47182" lon="5.41312">
        <ele>505</ele>
        <time>2022-07-25T08:46:25Z</time>
      </trkpt>
      <trkpt lat="46.47177" lon="5.41294">
        <ele>505.2</ele>
        <time>2022-07-25T08:46:28Z</time>
      </trkpt>
      <trkpt lat="46.47167" lon="5.41236">
        <ele>505.8</ele>
        <time>2022-07-25T08:46:36Z</time>
      </trkpt>
      <trkpt lat="46.47155" lon="5.41177">
        <ele>505.8</ele>
        <time>2022-07-25T08:46:43Z</time>
      </trkpt>
      <trkpt lat="46.47145" lon="5.41149">
        <ele>505.6</ele>
        <time>2022-07-25T08:46:46Z</time>
      </trkpt>
      <trkpt lat="46.47134" lon="5.41125">
        <ele>505.4</ele>
        <time>2022-07-25T08:46:49Z</time>
      </trkpt>
      <trkpt lat="46.47112" lon="5.41084">
        <ele>505</ele>
        <time>2022-07-25T08:46:54Z</time>
      </trkpt>
      <trkpt lat="46.47102" lon="5.4107">
        <ele>505</ele>
        <time>2022-07-25T08:46:56Z</time>
      </trkpt>
      <trkpt lat="46.47076" lon="5.41042">
        <ele>505</ele>
        <time>2022-07-25T08:47:01Z</time>
      </trkpt>
      <trkpt lat="46.47052" lon="5.4102">
        <ele>506</ele>
        <time>2022-07-25T08:47:06Z</time>
      </trkpt>
      <trkpt lat="46.47047" lon="5.41015">
        <ele>506.2</ele>
        <time>2022-07-25T08:47:07Z</time>
      </trkpt>
      <trkpt lat="46.47031" lon="5.40999">
        <ele>507.2</ele>
        <time>2022-07-25T08:47:10Z</time>
      </trkpt>
      <trkpt lat="46.47015" lon="5.40979">
        <ele>507.8</ele>
        <time>2022-07-25T08:47:13Z</time>
      </trkpt>
      <trkpt lat="46.47003" lon="5.40958">
        <ele>508</ele>
        <time>2022-07-25T08:47:16Z</time>
      </trkpt>
      <trkpt lat="46.47" lon="5.40953">
        <ele>508.2</ele>
        <time>2022-07-25T08:47:17Z</time>
      </trkpt>
      <trkpt lat="46.46997" lon="5.40945">
        <ele>508.6</ele>
        <time>2022-07-25T08:47:18Z</time>
      </trkpt>
      <trkpt lat="46.4699" lon="5.40923">
        <ele>509.2</ele>
        <time>2022-07-25T08:47:21Z</time>
      </trkpt>
      <trkpt lat="46.46988" lon="5.40916">
        <ele>509.4</ele>
        <time>2022-07-25T08:47:22Z</time>
      </trkpt>
      <trkpt lat="46.46987" lon="5.40907">
        <ele>509.8</ele>
        <time>2022-07-25T08:47:23Z</time>
      </trkpt>
      <trkpt lat="46.46984" lon="5.40891">
        <ele>510.4</ele>
        <time>2022-07-25T08:47:25Z</time>
      </trkpt>
      <trkpt lat="46.4698" lon="5.40849">
        <ele>511.4</ele>
        <time>2022-07-25T08:47:30Z</time>
      </trkpt>
      <trkpt lat="46.46969" lon="5.40777">
        <ele>512.2</ele>
        <time>2022-07-25T08:47:38Z</time>
      </trkpt>
      <trkpt lat="46.46961" lon="5.40721">
        <ele>512.2</ele>
        <time>2022-07-25T08:47:43Z</time>
      </trkpt>
      <trkpt lat="46.46951" lon="5.40643">
        <ele>510.4</ele>
        <time>2022-07-25T08:47:49Z</time>
      </trkpt>
      <trkpt lat="46.46949" lon="5.40628">
        <ele>510.2</ele>
        <time>2022-07-25T08:47:50Z</time>
      </trkpt>
      <trkpt lat="46.46948" lon="5.40615">
        <ele>509.2</ele>
        <time>2022-07-25T08:47:51Z</time>
      </trkpt>
      <trkpt lat="46.46943" lon="5.40564">
        <ele>508.2</ele>
        <time>2022-07-25T08:47:55Z</time>
      </trkpt>
      <trkpt lat="46.46939" lon="5.40524">
        <ele>507.6</ele>
        <time>2022-07-25T08:47:58Z</time>
      </trkpt>
      <trkpt lat="46.46935" lon="5.40486">
        <ele>507</ele>
        <time>2022-07-25T08:48:01Z</time>
      </trkpt>
      <trkpt lat="46.46926" lon="5.40425">
        <ele>506.4</ele>
        <time>2022-07-25T08:48:06Z</time>
      </trkpt>
      <trkpt lat="46.46924" lon="5.40412">
        <ele>505.8</ele>
        <time>2022-07-25T08:48:07Z</time>
      </trkpt>
      <trkpt lat="46.46919" lon="5.40348">
        <ele>504.4</ele>
        <time>2022-07-25T08:48:12Z</time>
      </trkpt>
      <trkpt lat="46.46918" lon="5.40332">
        <ele>504.2</ele>
        <time>2022-07-25T08:48:13Z</time>
      </trkpt>
      <trkpt lat="46.46915" lon="5.40308">
        <ele>503.6</ele>
        <time>2022-07-25T08:48:15Z</time>
      </trkpt>
      <trkpt lat="46.46917" lon="5.40287">
        <ele>503.2</ele>
        <time>2022-07-25T08:48:17Z</time>
      </trkpt>
      <trkpt lat="46.46925" lon="5.40278">
        <ele>502.8</ele>
        <time>2022-07-25T08:48:19Z</time>
      </trkpt>
      <trkpt lat="46.46934" lon="5.40283">
        <ele>502.6</ele>
        <time>2022-07-25T08:48:21Z</time>
      </trkpt>
      <trkpt lat="46.46938" lon="5.40287">
        <ele>502.6</ele>
        <time>2022-07-25T08:48:22Z</time>
      </trkpt>
      <trkpt lat="46.46948" lon="5.40295">
        <ele>502.6</ele>
        <time>2022-07-25T08:48:24Z</time>
      </trkpt>
      <trkpt lat="46.46965" lon="5.40302">
        <ele>502.8</ele>
        <time>2022-07-25T08:48:27Z</time>
      </trkpt>
      <trkpt lat="46.47015" lon="5.40319">
        <ele>503.8</ele>
        <time>2022-07-25T08:48:35Z</time>
      </trkpt>
      <trkpt lat="46.47028" lon="5.40321">
        <ele>504</ele>
        <time>2022-07-25T08:48:37Z</time>
      </trkpt>
      <trkpt lat="46.47041" lon="5.40323">
        <ele>504.4</ele>
        <time>2022-07-25T08:48:39Z</time>
      </trkpt>
      <trkpt lat="46.47056" lon="5.40324">
        <ele>504.6</ele>
        <time>2022-07-25T08:48:41Z</time>
      </trkpt>
      <trkpt lat="46.47089" lon="5.40328">
        <ele>505.2</ele>
        <time>2022-07-25T08:48:45Z</time>
      </trkpt>
      <trkpt lat="46.47132" lon="5.40334">
        <ele>503.6</ele>
        <time>2022-07-25T08:48:50Z</time>
      </trkpt>
      <trkpt lat="46.47151" lon="5.4034">
        <ele>503</ele>
        <time>2022-07-25T08:48:52Z</time>
      </trkpt>
      <trkpt lat="46.47186" lon="5.40355">
        <ele>502</ele>
        <time>2022-07-25T08:48:56Z</time>
      </trkpt>
      <trkpt lat="46.47203" lon="5.40368">
        <ele>501.4</ele>
        <time>2022-07-25T08:48:58Z</time>
      </trkpt>
      <trkpt lat="46.47211" lon="5.40378">
        <ele>500.2</ele>
        <time>2022-07-25T08:48:59Z</time>
      </trkpt>
      <trkpt lat="46.47224" lon="5.40396">
        <ele>499</ele>
        <time>2022-07-25T08:49:01Z</time>
      </trkpt>
      <trkpt lat="46.47237" lon="5.40414">
        <ele>498.2</ele>
        <time>2022-07-25T08:49:03Z</time>
      </trkpt>
      <trkpt lat="46.47244" lon="5.40421">
        <ele>497.6</ele>
        <time>2022-07-25T08:49:04Z</time>
      </trkpt>
      <trkpt lat="46.47254" lon="5.40428">
        <ele>497.4</ele>
        <time>2022-07-25T08:49:05Z</time>
      </trkpt>
      <trkpt lat="46.47263" lon="5.40431">
        <ele>496.8</ele>
        <time>2022-07-25T08:49:06Z</time>
      </trkpt>
      <trkpt lat="46.47271" lon="5.40434">
        <ele>496.4</ele>
        <time>2022-07-25T08:49:07Z</time>
      </trkpt>
      <trkpt lat="46.47305" lon="5.40442">
        <ele>495.2</ele>
        <time>2022-07-25T08:49:10Z</time>
      </trkpt>
      <trkpt lat="46.47338" lon="5.40447">
        <ele>493.8</ele>
        <time>2022-07-25T08:49:13Z</time>
      </trkpt>
      <trkpt lat="46.47364" lon="5.40449">
        <ele>493</ele>
        <time>2022-07-25T08:49:15Z</time>
      </trkpt>
      <trkpt lat="46.47376" lon="5.40449">
        <ele>492.8</ele>
        <time>2022-07-25T08:49:16Z</time>
      </trkpt>
      <trkpt lat="46.474" lon="5.40445">
        <ele>491.6</ele>
        <time>2022-07-25T08:49:18Z</time>
      </trkpt>
      <trkpt lat="46.47413" lon="5.40444">
        <ele>491.4</ele>
        <time>2022-07-25T08:49:19Z</time>
      </trkpt>
      <trkpt lat="46.47426" lon="5.40443">
        <ele>490.4</ele>
        <time>2022-07-25T08:49:20Z</time>
      </trkpt>
      <trkpt lat="46.47439" lon="5.40444">
        <ele>489.8</ele>
        <time>2022-07-25T08:49:21Z</time>
      </trkpt>
      <trkpt lat="46.4745" lon="5.40446">
        <ele>489</ele>
        <time>2022-07-25T08:49:22Z</time>
      </trkpt>
      <trkpt lat="46.47462" lon="5.40449">
        <ele>488.6</ele>
        <time>2022-07-25T08:49:23Z</time>
      </trkpt>
      <trkpt lat="46.47485" lon="5.40458">
        <ele>487</ele>
        <time>2022-07-25T08:49:25Z</time>
      </trkpt>
      <trkpt lat="46.47494" lon="5.40465">
        <ele>486.2</ele>
        <time>2022-07-25T08:49:26Z</time>
      </trkpt>
      <trkpt lat="46.47507" lon="5.40476">
        <ele>485.4</ele>
        <time>2022-07-25T08:49:27Z</time>
      </trkpt>
      <trkpt lat="46.47515" lon="5.40483">
        <ele>485.2</ele>
        <time>2022-07-25T08:49:28Z</time>
      </trkpt>
      <trkpt lat="46.47523" lon="5.40486">
        <ele>484</ele>
        <time>2022-07-25T08:49:29Z</time>
      </trkpt>
      <trkpt lat="46.4753" lon="5.40484">
        <ele>483.6</ele>
        <time>2022-07-25T08:49:30Z</time>
      </trkpt>
      <trkpt lat="46.47536" lon="5.4047">
        <ele>483</ele>
        <time>2022-07-25T08:49:31Z</time>
      </trkpt>
      <trkpt lat="46.4754" lon="5.40433">
        <ele>482</ele>
        <time>2022-07-25T08:49:33Z</time>
      </trkpt>
      <trkpt lat="46.47537" lon="5.40416">
        <ele>481.6</ele>
        <time>2022-07-25T08:49:34Z</time>
      </trkpt>
      <trkpt lat="46.47531" lon="5.40386">
        <ele>480.8</ele>
        <time>2022-07-25T08:49:36Z</time>
      </trkpt>
      <trkpt lat="46.47527" lon="5.40373">
        <ele>480.4</ele>
        <time>2022-07-25T08:49:37Z</time>
      </trkpt>
      <trkpt lat="46.47524" lon="5.40363">
        <ele>479.6</ele>
        <time>2022-07-25T08:49:38Z</time>
      </trkpt>
      <trkpt lat="46.47521" lon="5.4035">
        <ele>478.8</ele>
        <time>2022-07-25T08:49:39Z</time>
      </trkpt>
      <trkpt lat="46.47521" lon="5.40334">
        <ele>478.4</ele>
        <time>2022-07-25T08:49:40Z</time>
      </trkpt>
      <trkpt lat="46.47532" lon="5.40308">
        <ele>477.6</ele>
        <time>2022-07-25T08:49:42Z</time>
      </trkpt>
      <trkpt lat="46.47546" lon="5.40287">
        <ele>476.6</ele>
        <time>2022-07-25T08:49:44Z</time>
      </trkpt>
      <trkpt lat="46.47557" lon="5.40276">
        <ele>476</ele>
        <time>2022-07-25T08:49:45Z</time>
      </trkpt>
      <trkpt lat="46.47567" lon="5.40268">
        <ele>475.4</ele>
        <time>2022-07-25T08:49:46Z</time>
      </trkpt>
      <trkpt lat="46.47587" lon="5.40259">
        <ele>473.6</ele>
        <time>2022-07-25T08:49:48Z</time>
      </trkpt>
      <trkpt lat="46.47602" lon="5.40256">
        <ele>473</ele>
        <time>2022-07-25T08:49:49Z</time>
      </trkpt>
      <trkpt lat="46.47611" lon="5.40254">
        <ele>472.4</ele>
        <time>2022-07-25T08:49:50Z</time>
      </trkpt>
      <trkpt lat="46.47647" lon="5.40248">
        <ele>471.2</ele>
        <time>2022-07-25T08:49:53Z</time>
      </trkpt>
      <trkpt lat="46.47661" lon="5.40248">
        <ele>471</ele>
        <time>2022-07-25T08:49:54Z</time>
      </trkpt>
      <trkpt lat="46.47673" lon="5.40249">
        <ele>469.4</ele>
        <time>2022-07-25T08:49:55Z</time>
      </trkpt>
      <trkpt lat="46.47685" lon="5.40247">
        <ele>469</ele>
        <time>2022-07-25T08:49:56Z</time>
      </trkpt>
      <trkpt lat="46.4771" lon="5.40238">
        <ele>468.2</ele>
        <time>2022-07-25T08:49:58Z</time>
      </trkpt>
      <trkpt lat="46.47719" lon="5.40228">
        <ele>467.8</ele>
        <time>2022-07-25T08:49:59Z</time>
      </trkpt>
      <trkpt lat="46.47723" lon="5.40214">
        <ele>467.2</ele>
        <time>2022-07-25T08:50:00Z</time>
      </trkpt>
      <trkpt lat="46.47727" lon="5.40199">
        <ele>467</ele>
        <time>2022-07-25T08:50:01Z</time>
      </trkpt>
      <trkpt lat="46.4773" lon="5.40186">
        <ele>466.4</ele>
        <time>2022-07-25T08:50:02Z</time>
      </trkpt>
      <trkpt lat="46.47737" lon="5.40173">
        <ele>466.2</ele>
        <time>2022-07-25T08:50:03Z</time>
      </trkpt>
      <trkpt lat="46.47744" lon="5.4016">
        <ele>465.6</ele>
        <time>2022-07-25T08:50:04Z</time>
      </trkpt>
      <trkpt lat="46.47757" lon="5.40137">
        <ele>464.6</ele>
        <time>2022-07-25T08:50:06Z</time>
      </trkpt>
      <trkpt lat="46.47767" lon="5.40102">
        <ele>463.8</ele>
        <time>2022-07-25T08:50:08Z</time>
      </trkpt>
      <trkpt lat="46.47768" lon="5.40086">
        <ele>462.8</ele>
        <time>2022-07-25T08:50:09Z</time>
      </trkpt>
      <trkpt lat="46.47767" lon="5.40069">
        <ele>462.2</ele>
        <time>2022-07-25T08:50:10Z</time>
      </trkpt>
      <trkpt lat="46.47765" lon="5.40056">
        <ele>461.6</ele>
        <time>2022-07-25T08:50:11Z</time>
      </trkpt>
      <trkpt lat="46.47765" lon="5.40038">
        <ele>461.4</ele>
        <time>2022-07-25T08:50:12Z</time>
      </trkpt>
      <trkpt lat="46.47773" lon="5.40014">
        <ele>459.8</ele>
        <time>2022-07-25T08:50:14Z</time>
      </trkpt>
      <trkpt lat="46.47787" lon="5.39998">
        <ele>459</ele>
        <time>2022-07-25T08:50:16Z</time>
      </trkpt>
      <trkpt lat="46.47795" lon="5.39992">
        <ele>458.4</ele>
        <time>2022-07-25T08:50:17Z</time>
      </trkpt>
      <trkpt lat="46.47816" lon="5.39981">
        <ele>457.2</ele>
        <time>2022-07-25T08:50:19Z</time>
      </trkpt>
      <trkpt lat="46.47824" lon="5.39976">
        <ele>456.8</ele>
        <time>2022-07-25T08:50:20Z</time>
      </trkpt>
      <trkpt lat="46.47836" lon="5.3997">
        <ele>455.4</ele>
        <time>2022-07-25T08:50:21Z</time>
      </trkpt>
      <trkpt lat="46.47855" lon="5.3996">
        <ele>454.2</ele>
        <time>2022-07-25T08:50:23Z</time>
      </trkpt>
      <trkpt lat="46.47866" lon="5.39954">
        <ele>453.8</ele>
        <time>2022-07-25T08:50:24Z</time>
      </trkpt>
      <trkpt lat="46.47876" lon="5.39948">
        <ele>452.8</ele>
        <time>2022-07-25T08:50:25Z</time>
      </trkpt>
      <trkpt lat="46.47887" lon="5.39942">
        <ele>452.2</ele>
        <time>2022-07-25T08:50:26Z</time>
      </trkpt>
      <trkpt lat="46.479" lon="5.39936">
        <ele>451.6</ele>
        <time>2022-07-25T08:50:27Z</time>
      </trkpt>
      <trkpt lat="46.47932" lon="5.39918">
        <ele>450</ele>
        <time>2022-07-25T08:50:30Z</time>
      </trkpt>
      <trkpt lat="46.47951" lon="5.39907">
        <ele>448.6</ele>
        <time>2022-07-25T08:50:32Z</time>
      </trkpt>
      <trkpt lat="46.47972" lon="5.39897">
        <ele>447.4</ele>
        <time>2022-07-25T08:50:34Z</time>
      </trkpt>
      <trkpt lat="46.48002" lon="5.39885">
        <ele>446.2</ele>
        <time>2022-07-25T08:50:37Z</time>
      </trkpt>
      <trkpt lat="46.48012" lon="5.39883">
        <ele>446</ele>
        <time>2022-07-25T08:50:38Z</time>
      </trkpt>
      <trkpt lat="46.48022" lon="5.39884">
        <ele>445.6</ele>
        <time>2022-07-25T08:50:39Z</time>
      </trkpt>
      <trkpt lat="46.48041" lon="5.39892">
        <ele>445.2</ele>
        <time>2022-07-25T08:50:41Z</time>
      </trkpt>
      <trkpt lat="46.4805" lon="5.39897">
        <ele>445</ele>
        <time>2022-07-25T08:50:42Z</time>
      </trkpt>
      <trkpt lat="46.48068" lon="5.39907">
        <ele>444.8</ele>
        <time>2022-07-25T08:50:44Z</time>
      </trkpt>
      <trkpt lat="46.48087" lon="5.3991">
        <ele>444.6</ele>
        <time>2022-07-25T08:50:46Z</time>
      </trkpt>
      <trkpt lat="46.48107" lon="5.39909">
        <ele>444.6</ele>
        <time>2022-07-25T08:50:48Z</time>
      </trkpt>
      <trkpt lat="46.48123" lon="5.39904">
        <ele>444.6</ele>
        <time>2022-07-25T08:50:50Z</time>
      </trkpt>
      <trkpt lat="46.48167" lon="5.39883">
        <ele>444.6</ele>
        <time>2022-07-25T08:50:55Z</time>
      </trkpt>
      <trkpt lat="46.48182" lon="5.39872">
        <ele>444.4</ele>
        <time>2022-07-25T08:50:57Z</time>
      </trkpt>
      <trkpt lat="46.48194" lon="5.39856">
        <ele>444.4</ele>
        <time>2022-07-25T08:50:59Z</time>
      </trkpt>
      <trkpt lat="46.48198" lon="5.39835">
        <ele>444.4</ele>
        <time>2022-07-25T08:51:01Z</time>
      </trkpt>
      <trkpt lat="46.4819" lon="5.39788">
        <ele>444.2</ele>
        <time>2022-07-25T08:51:05Z</time>
      </trkpt>
      <trkpt lat="46.4818" lon="5.39726">
        <ele>443.8</ele>
        <time>2022-07-25T08:51:10Z</time>
      </trkpt>
      <trkpt lat="46.48177" lon="5.39689">
        <ele>443.2</ele>
        <time>2022-07-25T08:51:13Z</time>
      </trkpt>
      <trkpt lat="46.48181" lon="5.39651">
        <ele>442.8</ele>
        <time>2022-07-25T08:51:16Z</time>
      </trkpt>
      <trkpt lat="46.48184" lon="5.39638">
        <ele>442.2</ele>
        <time>2022-07-25T08:51:17Z</time>
      </trkpt>
      <trkpt lat="46.48188" lon="5.39626">
        <ele>442</ele>
        <time>2022-07-25T08:51:18Z</time>
      </trkpt>
      <trkpt lat="46.48193" lon="5.39613">
        <ele>441.4</ele>
        <time>2022-07-25T08:51:19Z</time>
      </trkpt>
      <trkpt lat="46.48203" lon="5.39587">
        <ele>440.6</ele>
        <time>2022-07-25T08:51:21Z</time>
      </trkpt>
      <trkpt lat="46.48207" lon="5.39572">
        <ele>440</ele>
        <time>2022-07-25T08:51:22Z</time>
      </trkpt>
      <trkpt lat="46.48214" lon="5.3954">
        <ele>438.2</ele>
        <time>2022-07-25T08:51:24Z</time>
      </trkpt>
      <trkpt lat="46.48217" lon="5.39525">
        <ele>437.8</ele>
        <time>2022-07-25T08:51:25Z</time>
      </trkpt>
      <trkpt lat="46.48221" lon="5.3951">
        <ele>436.8</ele>
        <time>2022-07-25T08:51:26Z</time>
      </trkpt>
      <trkpt lat="46.48232" lon="5.39486">
        <ele>435.8</ele>
        <time>2022-07-25T08:51:28Z</time>
      </trkpt>
      <trkpt lat="46.48245" lon="5.39468">
        <ele>433.6</ele>
        <time>2022-07-25T08:51:30Z</time>
      </trkpt>
      <trkpt lat="46.48252" lon="5.39465">
        <ele>432.6</ele>
        <time>2022-07-25T08:51:31Z</time>
      </trkpt>
      <trkpt lat="46.48261" lon="5.39463">
        <ele>432</ele>
        <time>2022-07-25T08:51:32Z</time>
      </trkpt>
      <trkpt lat="46.48271" lon="5.39461">
        <ele>430</ele>
        <time>2022-07-25T08:51:33Z</time>
      </trkpt>
      <trkpt lat="46.48279" lon="5.3946">
        <ele>429.4</ele>
        <time>2022-07-25T08:51:34Z</time>
      </trkpt>
      <trkpt lat="46.48286" lon="5.39458">
        <ele>428.6</ele>
        <time>2022-07-25T08:51:35Z</time>
      </trkpt>
      <trkpt lat="46.483" lon="5.39441">
        <ele>427.6</ele>
        <time>2022-07-25T08:51:37Z</time>
      </trkpt>
      <trkpt lat="46.48306" lon="5.39416">
        <ele>426.6</ele>
        <time>2022-07-25T08:51:39Z</time>
      </trkpt>
      <trkpt lat="46.4831" lon="5.39402">
        <ele>426.2</ele>
        <time>2022-07-25T08:51:40Z</time>
      </trkpt>
      <trkpt lat="46.48313" lon="5.39391">
        <ele>426</ele>
        <time>2022-07-25T08:51:41Z</time>
      </trkpt>
      <trkpt lat="46.4832" lon="5.39374">
        <ele>425</ele>
        <time>2022-07-25T08:51:42Z</time>
      </trkpt>
      <trkpt lat="46.48327" lon="5.39361">
        <ele>424.2</ele>
        <time>2022-07-25T08:51:43Z</time>
      </trkpt>
      <trkpt lat="46.48333" lon="5.39351">
        <ele>422.8</ele>
        <time>2022-07-25T08:51:44Z</time>
      </trkpt>
      <trkpt lat="46.48342" lon="5.3934">
        <ele>421.6</ele>
        <time>2022-07-25T08:51:45Z</time>
      </trkpt>
      <trkpt lat="46.48363" lon="5.39324">
        <ele>420.4</ele>
        <time>2022-07-25T08:51:47Z</time>
      </trkpt>
      <trkpt lat="46.48385" lon="5.39323">
        <ele>419</ele>
        <time>2022-07-25T08:51:49Z</time>
      </trkpt>
      <trkpt lat="46.48398" lon="5.39325">
        <ele>418.4</ele>
        <time>2022-07-25T08:51:50Z</time>
      </trkpt>
      <trkpt lat="46.48411" lon="5.39327">
        <ele>417.2</ele>
        <time>2022-07-25T08:51:51Z</time>
      </trkpt>
      <trkpt lat="46.48424" lon="5.39327">
        <ele>416.2</ele>
        <time>2022-07-25T08:51:52Z</time>
      </trkpt>
      <trkpt lat="46.48434" lon="5.39326">
        <ele>415.6</ele>
        <time>2022-07-25T08:51:53Z</time>
      </trkpt>
      <trkpt lat="46.48464" lon="5.39318">
        <ele>414</ele>
        <time>2022-07-25T08:51:55Z</time>
      </trkpt>
      <trkpt lat="46.48477" lon="5.39314">
        <ele>412.6</ele>
        <time>2022-07-25T08:51:56Z</time>
      </trkpt>
      <trkpt lat="46.48491" lon="5.39311">
        <ele>411.8</ele>
        <time>2022-07-25T08:51:57Z</time>
      </trkpt>
      <trkpt lat="46.48505" lon="5.39308">
        <ele>410.2</ele>
        <time>2022-07-25T08:51:58Z</time>
      </trkpt>
      <trkpt lat="46.48533" lon="5.393">
        <ele>408.8</ele>
        <time>2022-07-25T08:52:00Z</time>
      </trkpt>
      <trkpt lat="46.48546" lon="5.39296">
        <ele>407</ele>
        <time>2022-07-25T08:52:01Z</time>
      </trkpt>
      <trkpt lat="46.4856" lon="5.39294">
        <ele>406.4</ele>
        <time>2022-07-25T08:52:02Z</time>
      </trkpt>
      <trkpt lat="46.48575" lon="5.39291">
        <ele>405</ele>
        <time>2022-07-25T08:52:03Z</time>
      </trkpt>
      <trkpt lat="46.48602" lon="5.39285">
        <ele>403</ele>
        <time>2022-07-25T08:52:05Z</time>
      </trkpt>
      <trkpt lat="46.48629" lon="5.39278">
        <ele>402</ele>
        <time>2022-07-25T08:52:07Z</time>
      </trkpt>
      <trkpt lat="46.48641" lon="5.39277">
        <ele>401.2</ele>
        <time>2022-07-25T08:52:08Z</time>
      </trkpt>
      <trkpt lat="46.48654" lon="5.39277">
        <ele>400.4</ele>
        <time>2022-07-25T08:52:09Z</time>
      </trkpt>
      <trkpt lat="46.48665" lon="5.39278">
        <ele>399</ele>
        <time>2022-07-25T08:52:10Z</time>
      </trkpt>
      <trkpt lat="46.48674" lon="5.3928">
        <ele>398.4</ele>
        <time>2022-07-25T08:52:11Z</time>
      </trkpt>
      <trkpt lat="46.48687" lon="5.39284">
        <ele>397.4</ele>
        <time>2022-07-25T08:52:12Z</time>
      </trkpt>
      <trkpt lat="46.48698" lon="5.39289">
        <ele>396</ele>
        <time>2022-07-25T08:52:13Z</time>
      </trkpt>
      <trkpt lat="46.48707" lon="5.39295">
        <ele>395.6</ele>
        <time>2022-07-25T08:52:14Z</time>
      </trkpt>
      <trkpt lat="46.48714" lon="5.393">
        <ele>394.4</ele>
        <time>2022-07-25T08:52:15Z</time>
      </trkpt>
      <trkpt lat="46.4872" lon="5.39305">
        <ele>393.2</ele>
        <time>2022-07-25T08:52:16Z</time>
      </trkpt>
      <trkpt lat="46.48726" lon="5.39307">
        <ele>392</ele>
        <time>2022-07-25T08:52:17Z</time>
      </trkpt>
      <trkpt lat="46.48731" lon="5.39304">
        <ele>390.8</ele>
        <time>2022-07-25T08:52:18Z</time>
      </trkpt>
      <trkpt lat="46.48734" lon="5.39294">
        <ele>389.6</ele>
        <time>2022-07-25T08:52:19Z</time>
      </trkpt>
      <trkpt lat="46.48728" lon="5.39274">
        <ele>388.6</ele>
        <time>2022-07-25T08:52:21Z</time>
      </trkpt>
      <trkpt lat="46.48712" lon="5.39251">
        <ele>387.4</ele>
        <time>2022-07-25T08:52:23Z</time>
      </trkpt>
      <trkpt lat="46.48703" lon="5.39239">
        <ele>386.4</ele>
        <time>2022-07-25T08:52:24Z</time>
      </trkpt>
      <trkpt lat="46.48686" lon="5.39214">
        <ele>384.4</ele>
        <time>2022-07-25T08:52:26Z</time>
      </trkpt>
      <trkpt lat="46.48677" lon="5.39201">
        <ele>382.8</ele>
        <time>2022-07-25T08:52:27Z</time>
      </trkpt>
      <trkpt lat="46.4866" lon="5.39176">
        <ele>381</ele>
        <time>2022-07-25T08:52:29Z</time>
      </trkpt>
      <trkpt lat="46.48643" lon="5.39151">
        <ele>380</ele>
        <time>2022-07-25T08:52:31Z</time>
      </trkpt>
      <trkpt lat="46.48633" lon="5.3914">
        <ele>379.6</ele>
        <time>2022-07-25T08:52:32Z</time>
      </trkpt>
      <trkpt lat="46.48623" lon="5.3913">
        <ele>379.2</ele>
        <time>2022-07-25T08:52:33Z</time>
      </trkpt>
      <trkpt lat="46.48611" lon="5.39121">
        <ele>378.8</ele>
        <time>2022-07-25T08:52:34Z</time>
      </trkpt>
      <trkpt lat="46.48588" lon="5.39104">
        <ele>376.6</ele>
        <time>2022-07-25T08:52:36Z</time>
      </trkpt>
      <trkpt lat="46.48565" lon="5.39088">
        <ele>374.2</ele>
        <time>2022-07-25T08:52:38Z</time>
      </trkpt>
      <trkpt lat="46.48554" lon="5.3908">
        <ele>373.6</ele>
        <time>2022-07-25T08:52:39Z</time>
      </trkpt>
      <trkpt lat="46.48542" lon="5.39073">
        <ele>372.2</ele>
        <time>2022-07-25T08:52:40Z</time>
      </trkpt>
      <trkpt lat="46.48518" lon="5.39057">
        <ele>370.6</ele>
        <time>2022-07-25T08:52:42Z</time>
      </trkpt>
      <trkpt lat="46.48508" lon="5.39048">
        <ele>369.8</ele>
        <time>2022-07-25T08:52:43Z</time>
      </trkpt>
      <trkpt lat="46.485" lon="5.39035">
        <ele>369.2</ele>
        <time>2022-07-25T08:52:44Z</time>
      </trkpt>
      <trkpt lat="46.48494" lon="5.39016">
        <ele>367.8</ele>
        <time>2022-07-25T08:52:45Z</time>
      </trkpt>
      <trkpt lat="46.48489" lon="5.38997">
        <ele>366.6</ele>
        <time>2022-07-25T08:52:46Z</time>
      </trkpt>
      <trkpt lat="46.48484" lon="5.38978">
        <ele>364.4</ele>
        <time>2022-07-25T08:52:47Z</time>
      </trkpt>
      <trkpt lat="46.48478" lon="5.38961">
        <ele>362.6</ele>
        <time>2022-07-25T08:52:48Z</time>
      </trkpt>
      <trkpt lat="46.48462" lon="5.3893">
        <ele>360.8</ele>
        <time>2022-07-25T08:52:50Z</time>
      </trkpt>
      <trkpt lat="46.48456" lon="5.38916">
        <ele>360.2</ele>
        <time>2022-07-25T08:52:51Z</time>
      </trkpt>
      <trkpt lat="46.48451" lon="5.38901">
        <ele>359.2</ele>
        <time>2022-07-25T08:52:52Z</time>
      </trkpt>
      <trkpt lat="46.48446" lon="5.38884">
        <ele>359</ele>
        <time>2022-07-25T08:52:53Z</time>
      </trkpt>
      <trkpt lat="46.48433" lon="5.38867">
        <ele>358.2</ele>
        <time>2022-07-25T08:52:54Z</time>
      </trkpt>
      <trkpt lat="46.48398" lon="5.38851">
        <ele>356.8</ele>
        <time>2022-07-25T08:52:55Z</time>
      </trkpt>
      <trkpt lat="46.48449" lon="5.3884">
        <ele>356.4</ele>
        <time>2022-07-25T08:52:56Z</time>
      </trkpt>
      <trkpt lat="46.48471" lon="5.38836">
        <ele>355.6</ele>
        <time>2022-07-25T08:52:57Z</time>
      </trkpt>
      <trkpt lat="46.48509" lon="5.38824">
        <ele>354.6</ele>
        <time>2022-07-25T08:53:00Z</time>
      </trkpt>
      <trkpt lat="46.48522" lon="5.38817">
        <ele>353.4</ele>
        <time>2022-07-25T08:53:01Z</time>
      </trkpt>
      <trkpt lat="46.48532" lon="5.38809">
        <ele>352</ele>
        <time>2022-07-25T08:53:02Z</time>
      </trkpt>
      <trkpt lat="46.48554" lon="5.38793">
        <ele>350.6</ele>
        <time>2022-07-25T08:53:04Z</time>
      </trkpt>
      <trkpt lat="46.48571" lon="5.3878">
        <ele>349.2</ele>
        <time>2022-07-25T08:53:06Z</time>
      </trkpt>
      <trkpt lat="46.4858" lon="5.38776">
        <ele>348.8</ele>
        <time>2022-07-25T08:53:07Z</time>
      </trkpt>
      <trkpt lat="46.48598" lon="5.38774">
        <ele>347.6</ele>
        <time>2022-07-25T08:53:09Z</time>
      </trkpt>
      <trkpt lat="46.48611" lon="5.38775">
        <ele>345.6</ele>
        <time>2022-07-25T08:53:11Z</time>
      </trkpt>
      <trkpt lat="46.48619" lon="5.38771">
        <ele>344.8</ele>
        <time>2022-07-25T08:53:12Z</time>
      </trkpt>
      <trkpt lat="46.48624" lon="5.38763">
        <ele>343.6</ele>
        <time>2022-07-25T08:53:13Z</time>
      </trkpt>
      <trkpt lat="46.4863" lon="5.38752">
        <ele>342.6</ele>
        <time>2022-07-25T08:53:14Z</time>
      </trkpt>
      <trkpt lat="46.48634" lon="5.38742">
        <ele>341.2</ele>
        <time>2022-07-25T08:53:15Z</time>
      </trkpt>
      <trkpt lat="46.48639" lon="5.38726">
        <ele>340.4</ele>
        <time>2022-07-25T08:53:16Z</time>
      </trkpt>
      <trkpt lat="46.48642" lon="5.38712">
        <ele>339.8</ele>
        <time>2022-07-25T08:53:17Z</time>
      </trkpt>
      <trkpt lat="46.48643" lon="5.38697">
        <ele>339.2</ele>
        <time>2022-07-25T08:53:18Z</time>
      </trkpt>
      <trkpt lat="46.48643" lon="5.38681">
        <ele>339</ele>
        <time>2022-07-25T08:53:19Z</time>
      </trkpt>
      <trkpt lat="46.48639" lon="5.38652">
        <ele>338</ele>
        <time>2022-07-25T08:53:21Z</time>
      </trkpt>
      <trkpt lat="46.48631" lon="5.38618">
        <ele>336.8</ele>
        <time>2022-07-25T08:53:23Z</time>
      </trkpt>
      <trkpt lat="46.48623" lon="5.38587">
        <ele>335.6</ele>
        <time>2022-07-25T08:53:25Z</time>
      </trkpt>
      <trkpt lat="46.48619" lon="5.38575">
        <ele>335.2</ele>
        <time>2022-07-25T08:53:26Z</time>
      </trkpt>
      <trkpt lat="46.48614" lon="5.38556">
        <ele>334.6</ele>
        <time>2022-07-25T08:53:27Z</time>
      </trkpt>
      <trkpt lat="46.48607" lon="5.38527">
        <ele>333.4</ele>
        <time>2022-07-25T08:53:29Z</time>
      </trkpt>
    </trkseg>
  </trk>
</gpx>